<?xml version="1.0" encoding="UTF-8" standalone="no" ?>
<gpx xmlns="http://www.topografix.com/GPX/1/1" xmlns:xsi="http://www.w3.org/2001/XMLSchema-instance" xsi:schemaLocation="http://www.topografix.com/GPX/1/1 http://www.topografix.com/GPX/1/1/gpx.xsd" version="1.1" creator="VisuGPX - https://www.visugpx.com">
  <metadata>
    <name>Ballade de la gym de Marsannayu le mardi 26 Juin 2018</name>
    <desc><![CDATA[Une petite boucle autour des cent marches de Fixin]]></desc>
  </metadata>
  <trk>
    <name><![CDATA[Track]]></name>
    <trkseg>
      <trkpt lat="47.24584" lon="4.96573">
        <ele>365.66583251953</ele>
        <time>2018-06-26T09:08:35+0200</time>
      </trkpt>
      <trkpt lat="47.24584" lon="4.96573">
        <ele>364.36871337891</ele>
        <time>2018-06-26T09:08:39+0200</time>
      </trkpt>
      <trkpt lat="47.24582" lon="4.96577">
        <ele>362.20590209961</ele>
        <time>2018-06-26T09:08:42+0200</time>
      </trkpt>
      <trkpt lat="47.24582" lon="4.96578">
        <ele>358.64157104492</ele>
        <time>2018-06-26T09:08:45+0200</time>
      </trkpt>
      <trkpt lat="47.24582" lon="4.96578">
        <ele>355.8532409668</ele>
        <time>2018-06-26T09:08:48+0200</time>
      </trkpt>
      <trkpt lat="47.24575" lon="4.96575">
        <ele>355.11456298828</ele>
        <time>2018-06-26T09:08:51+0200</time>
      </trkpt>
      <trkpt lat="47.24573" lon="4.96572">
        <ele>355.458984375</ele>
        <time>2018-06-26T09:08:54+0200</time>
      </trkpt>
      <trkpt lat="47.24573" lon="4.96572">
        <ele>355.38485717773</ele>
        <time>2018-06-26T09:08:57+0200</time>
      </trkpt>
      <trkpt lat="47.24573" lon="4.96572">
        <ele>355.55517578125</ele>
        <time>2018-06-26T09:09:00+0200</time>
      </trkpt>
      <trkpt lat="47.24573" lon="4.96572">
        <ele>354.89050292969</ele>
        <time>2018-06-26T09:09:03+0200</time>
      </trkpt>
      <trkpt lat="47.24567" lon="4.9657">
        <ele>355.12609863281</ele>
        <time>2018-06-26T09:09:06+0200</time>
      </trkpt>
      <trkpt lat="47.24566" lon="4.96572">
        <ele>354.98446655273</ele>
        <time>2018-06-26T09:09:09+0200</time>
      </trkpt>
      <trkpt lat="47.24564" lon="4.96575">
        <ele>354.81005859375</ele>
        <time>2018-06-26T09:09:12+0200</time>
      </trkpt>
      <trkpt lat="47.24565" lon="4.96577">
        <ele>354.60293579102</ele>
        <time>2018-06-26T09:09:15+0200</time>
      </trkpt>
      <trkpt lat="47.24565" lon="4.96579">
        <ele>354.32196044922</ele>
        <time>2018-06-26T09:09:18+0200</time>
      </trkpt>
      <trkpt lat="47.24565" lon="4.96576">
        <ele>354.30181884766</ele>
        <time>2018-06-26T09:09:21+0200</time>
      </trkpt>
      <trkpt lat="47.24563" lon="4.96575">
        <ele>354.19625854492</ele>
        <time>2018-06-26T09:09:24+0200</time>
      </trkpt>
      <trkpt lat="47.24564" lon="4.96572">
        <ele>353.8811340332</ele>
        <time>2018-06-26T09:09:27+0200</time>
      </trkpt>
      <trkpt lat="47.24562" lon="4.96571">
        <ele>353.57516479492</ele>
        <time>2018-06-26T09:09:30+0200</time>
      </trkpt>
      <trkpt lat="47.24561" lon="4.96571">
        <ele>353.3923034668</ele>
        <time>2018-06-26T09:09:33+0200</time>
      </trkpt>
      <trkpt lat="47.24561" lon="4.96571">
        <ele>353.35458374023</ele>
        <time>2018-06-26T09:09:36+0200</time>
      </trkpt>
      <trkpt lat="47.24561" lon="4.96571">
        <ele>353.31985473633</ele>
        <time>2018-06-26T09:09:39+0200</time>
      </trkpt>
      <trkpt lat="47.24562" lon="4.96571">
        <ele>353.28988647461</ele>
        <time>2018-06-26T09:09:42+0200</time>
      </trkpt>
      <trkpt lat="47.24562" lon="4.96571">
        <ele>353.26425170898</ele>
        <time>2018-06-26T09:09:45+0200</time>
      </trkpt>
      <trkpt lat="47.24562" lon="4.96571">
        <ele>353.2409362793</ele>
        <time>2018-06-26T09:09:48+0200</time>
      </trkpt>
      <trkpt lat="47.24562" lon="4.96571">
        <ele>353.21676635742</ele>
        <time>2018-06-26T09:09:51+0200</time>
      </trkpt>
      <trkpt lat="47.24562" lon="4.96571">
        <ele>353.19088745117</ele>
        <time>2018-06-26T09:09:54+0200</time>
      </trkpt>
      <trkpt lat="47.24563" lon="4.96571">
        <ele>352.99572753906</ele>
        <time>2018-06-26T09:09:57+0200</time>
      </trkpt>
      <trkpt lat="47.24563" lon="4.9657">
        <ele>352.88128662109</ele>
        <time>2018-06-26T09:10:00+0200</time>
      </trkpt>
      <trkpt lat="47.24563" lon="4.96571">
        <ele>352.85241699219</ele>
        <time>2018-06-26T09:10:03+0200</time>
      </trkpt>
      <trkpt lat="47.24563" lon="4.96571">
        <ele>352.64730834961</ele>
        <time>2018-06-26T09:10:06+0200</time>
      </trkpt>
      <trkpt lat="47.24558" lon="4.96575">
        <ele>352.43658447266</ele>
        <time>2018-06-26T09:10:09+0200</time>
      </trkpt>
      <trkpt lat="47.24556" lon="4.96576">
        <ele>352.40255737305</ele>
        <time>2018-06-26T09:10:12+0200</time>
      </trkpt>
      <trkpt lat="47.24555" lon="4.96577">
        <ele>352.04788208008</ele>
        <time>2018-06-26T09:10:15+0200</time>
      </trkpt>
      <trkpt lat="47.24553" lon="4.96577">
        <ele>351.82916259766</ele>
        <time>2018-06-26T09:10:18+0200</time>
      </trkpt>
      <trkpt lat="47.24553" lon="4.96578">
        <ele>351.79528808594</ele>
        <time>2018-06-26T09:10:21+0200</time>
      </trkpt>
      <trkpt lat="47.24553" lon="4.96578">
        <ele>351.65856933594</ele>
        <time>2018-06-26T09:10:24+0200</time>
      </trkpt>
      <trkpt lat="47.24553" lon="4.96579">
        <ele>351.63693237305</ele>
        <time>2018-06-26T09:10:27+0200</time>
      </trkpt>
      <trkpt lat="47.24554" lon="4.96579">
        <ele>351.62692260742</ele>
        <time>2018-06-26T09:10:30+0200</time>
      </trkpt>
      <trkpt lat="47.24554" lon="4.96579">
        <ele>351.62353515625</ele>
        <time>2018-06-26T09:10:33+0200</time>
      </trkpt>
      <trkpt lat="47.24554" lon="4.96579">
        <ele>351.62951660156</ele>
        <time>2018-06-26T09:10:36+0200</time>
      </trkpt>
      <trkpt lat="47.24554" lon="4.96579">
        <ele>351.63766479492</ele>
        <time>2018-06-26T09:10:39+0200</time>
      </trkpt>
      <trkpt lat="47.24554" lon="4.96579">
        <ele>351.63851928711</ele>
        <time>2018-06-26T09:10:42+0200</time>
      </trkpt>
      <trkpt lat="47.24554" lon="4.96579">
        <ele>351.63949584961</ele>
        <time>2018-06-26T09:10:45+0200</time>
      </trkpt>
      <trkpt lat="47.24554" lon="4.96579">
        <ele>351.63873291016</ele>
        <time>2018-06-26T09:10:48+0200</time>
      </trkpt>
      <trkpt lat="47.24554" lon="4.96579">
        <ele>351.63275146484</ele>
        <time>2018-06-26T09:10:51+0200</time>
      </trkpt>
      <trkpt lat="47.24554" lon="4.96579">
        <ele>351.62435913086</ele>
        <time>2018-06-26T09:10:54+0200</time>
      </trkpt>
      <trkpt lat="47.24555" lon="4.9658">
        <ele>351.61462402344</ele>
        <time>2018-06-26T09:10:57+0200</time>
      </trkpt>
      <trkpt lat="47.24555" lon="4.9658">
        <ele>351.6003112793</ele>
        <time>2018-06-26T09:11:00+0200</time>
      </trkpt>
      <trkpt lat="47.24555" lon="4.96579">
        <ele>351.57894897461</ele>
        <time>2018-06-26T09:11:03+0200</time>
      </trkpt>
      <trkpt lat="47.24555" lon="4.96579">
        <ele>351.55093383789</ele>
        <time>2018-06-26T09:11:06+0200</time>
      </trkpt>
      <trkpt lat="47.24555" lon="4.96579">
        <ele>351.51974487305</ele>
        <time>2018-06-26T09:11:09+0200</time>
      </trkpt>
      <trkpt lat="47.24555" lon="4.96579">
        <ele>351.48162841797</ele>
        <time>2018-06-26T09:11:12+0200</time>
      </trkpt>
      <trkpt lat="47.24555" lon="4.96579">
        <ele>351.43273925781</ele>
        <time>2018-06-26T09:11:15+0200</time>
      </trkpt>
      <trkpt lat="47.24555" lon="4.96579">
        <ele>351.38098144531</ele>
        <time>2018-06-26T09:11:18+0200</time>
      </trkpt>
      <trkpt lat="47.24555" lon="4.9658">
        <ele>351.33218383789</ele>
        <time>2018-06-26T09:11:21+0200</time>
      </trkpt>
      <trkpt lat="47.24555" lon="4.9658">
        <ele>351.28634643555</ele>
        <time>2018-06-26T09:11:24+0200</time>
      </trkpt>
      <trkpt lat="47.24555" lon="4.9658">
        <ele>351.24157714844</ele>
        <time>2018-06-26T09:11:27+0200</time>
      </trkpt>
      <trkpt lat="47.24556" lon="4.9658">
        <ele>351.18963623047</ele>
        <time>2018-06-26T09:11:30+0200</time>
      </trkpt>
      <trkpt lat="47.24555" lon="4.96581">
        <ele>351.12335205078</ele>
        <time>2018-06-26T09:11:33+0200</time>
      </trkpt>
      <trkpt lat="47.24555" lon="4.96581">
        <ele>351.0530090332</ele>
        <time>2018-06-26T09:11:36+0200</time>
      </trkpt>
      <trkpt lat="47.24555" lon="4.96582">
        <ele>350.98284912109</ele>
        <time>2018-06-26T09:11:39+0200</time>
      </trkpt>
      <trkpt lat="47.24555" lon="4.96582">
        <ele>350.90823364258</ele>
        <time>2018-06-26T09:11:42+0200</time>
      </trkpt>
      <trkpt lat="47.24556" lon="4.96582">
        <ele>350.86755371094</ele>
        <time>2018-06-26T09:11:45+0200</time>
      </trkpt>
      <trkpt lat="47.24556" lon="4.96583">
        <ele>350.84048461914</ele>
        <time>2018-06-26T09:11:48+0200</time>
      </trkpt>
      <trkpt lat="47.24557" lon="4.96584">
        <ele>350.81353759766</ele>
        <time>2018-06-26T09:11:51+0200</time>
      </trkpt>
      <trkpt lat="47.24557" lon="4.96584">
        <ele>350.78454589844</ele>
        <time>2018-06-26T09:11:54+0200</time>
      </trkpt>
      <trkpt lat="47.24556" lon="4.96583">
        <ele>350.72012329102</ele>
        <time>2018-06-26T09:11:57+0200</time>
      </trkpt>
      <trkpt lat="47.24556" lon="4.96582">
        <ele>350.63363647461</ele>
        <time>2018-06-26T09:12:00+0200</time>
      </trkpt>
      <trkpt lat="47.24556" lon="4.96581">
        <ele>350.37646484375</ele>
        <time>2018-06-26T09:12:03+0200</time>
      </trkpt>
      <trkpt lat="47.24556" lon="4.9658">
        <ele>350.31579589844</ele>
        <time>2018-06-26T09:12:06+0200</time>
      </trkpt>
      <trkpt lat="47.24556" lon="4.9658">
        <ele>350.26174926758</ele>
        <time>2018-06-26T09:12:09+0200</time>
      </trkpt>
      <trkpt lat="47.24555" lon="4.9658">
        <ele>350.20440673828</ele>
        <time>2018-06-26T09:12:12+0200</time>
      </trkpt>
      <trkpt lat="47.24555" lon="4.9658">
        <ele>350.12899780273</ele>
        <time>2018-06-26T09:12:15+0200</time>
      </trkpt>
      <trkpt lat="47.24554" lon="4.96579">
        <ele>350.02746582031</ele>
        <time>2018-06-26T09:12:18+0200</time>
      </trkpt>
      <trkpt lat="47.24554" lon="4.96579">
        <ele>349.9162902832</ele>
        <time>2018-06-26T09:12:21+0200</time>
      </trkpt>
      <trkpt lat="47.24554" lon="4.96578">
        <ele>349.80212402344</ele>
        <time>2018-06-26T09:12:24+0200</time>
      </trkpt>
      <trkpt lat="47.24554" lon="4.96577">
        <ele>349.69146728516</ele>
        <time>2018-06-26T09:12:27+0200</time>
      </trkpt>
      <trkpt lat="47.24556" lon="4.96576">
        <ele>349.61215209961</ele>
        <time>2018-06-26T09:12:30+0200</time>
      </trkpt>
      <trkpt lat="47.24556" lon="4.96576">
        <ele>349.35604858398</ele>
        <time>2018-06-26T09:12:33+0200</time>
      </trkpt>
      <trkpt lat="47.24557" lon="4.96576">
        <ele>349.30609130859</ele>
        <time>2018-06-26T09:12:35+0200</time>
      </trkpt>
      <trkpt lat="47.24556" lon="4.96576">
        <ele>349.25244140625</ele>
        <time>2018-06-26T09:12:38+0200</time>
      </trkpt>
      <trkpt lat="47.24556" lon="4.96575">
        <ele>349.19598388672</ele>
        <time>2018-06-26T09:12:41+0200</time>
      </trkpt>
      <trkpt lat="47.24556" lon="4.96575">
        <ele>349.1396484375</ele>
        <time>2018-06-26T09:12:44+0200</time>
      </trkpt>
      <trkpt lat="47.24556" lon="4.96574">
        <ele>349.08834838867</ele>
        <time>2018-06-26T09:12:47+0200</time>
      </trkpt>
      <trkpt lat="47.24555" lon="4.96572">
        <ele>348.91195678711</ele>
        <time>2018-06-26T09:12:50+0200</time>
      </trkpt>
      <trkpt lat="47.24554" lon="4.9657">
        <ele>348.87048339844</ele>
        <time>2018-06-26T09:12:53+0200</time>
      </trkpt>
      <trkpt lat="47.24554" lon="4.9657">
        <ele>348.83062744141</ele>
        <time>2018-06-26T09:12:56+0200</time>
      </trkpt>
      <trkpt lat="47.24553" lon="4.9657">
        <ele>348.7939453125</ele>
        <time>2018-06-26T09:12:59+0200</time>
      </trkpt>
      <trkpt lat="47.24554" lon="4.96571">
        <ele>348.75946044922</ele>
        <time>2018-06-26T09:13:02+0200</time>
      </trkpt>
      <trkpt lat="47.24557" lon="4.96571">
        <ele>348.49893188477</ele>
        <time>2018-06-26T09:13:05+0200</time>
      </trkpt>
      <trkpt lat="47.24557" lon="4.96571">
        <ele>348.30358886719</ele>
        <time>2018-06-26T09:13:08+0200</time>
      </trkpt>
      <trkpt lat="47.24558" lon="4.96568">
        <ele>348.11270141602</ele>
        <time>2018-06-26T09:13:11+0200</time>
      </trkpt>
      <trkpt lat="47.24559" lon="4.96563">
        <ele>347.83615112305</ele>
        <time>2018-06-26T09:13:14+0200</time>
      </trkpt>
      <trkpt lat="47.2456" lon="4.96559">
        <ele>347.62646484375</ele>
        <time>2018-06-26T09:13:17+0200</time>
      </trkpt>
      <trkpt lat="47.24559" lon="4.96549">
        <ele>347.46878051758</ele>
        <time>2018-06-26T09:13:20+0200</time>
      </trkpt>
      <trkpt lat="47.24558" lon="4.96545">
        <ele>347.41348266602</ele>
        <time>2018-06-26T09:13:23+0200</time>
      </trkpt>
      <trkpt lat="47.24558" lon="4.96545">
        <ele>347.34982299805</ele>
        <time>2018-06-26T09:13:26+0200</time>
      </trkpt>
      <trkpt lat="47.24557" lon="4.96544">
        <ele>347.13348388672</ele>
        <time>2018-06-26T09:13:29+0200</time>
      </trkpt>
      <trkpt lat="47.24556" lon="4.96544">
        <ele>346.59741210938</ele>
        <time>2018-06-26T09:13:32+0200</time>
      </trkpt>
      <trkpt lat="47.24557" lon="4.96543">
        <ele>346.08532714844</ele>
        <time>2018-06-26T09:13:35+0200</time>
      </trkpt>
      <trkpt lat="47.24557" lon="4.96543">
        <ele>345.86804199219</ele>
        <time>2018-06-26T09:13:38+0200</time>
      </trkpt>
      <trkpt lat="47.24557" lon="4.96543">
        <ele>345.78866577148</ele>
        <time>2018-06-26T09:13:41+0200</time>
      </trkpt>
      <trkpt lat="47.24557" lon="4.96543">
        <ele>345.19879150391</ele>
        <time>2018-06-26T09:13:44+0200</time>
      </trkpt>
      <trkpt lat="47.24557" lon="4.96544">
        <ele>344.62963867188</ele>
        <time>2018-06-26T09:13:47+0200</time>
      </trkpt>
      <trkpt lat="47.24559" lon="4.96548">
        <ele>344.33358764648</ele>
        <time>2018-06-26T09:13:50+0200</time>
      </trkpt>
      <trkpt lat="47.24559" lon="4.96544">
        <ele>344.09146118164</ele>
        <time>2018-06-26T09:13:53+0200</time>
      </trkpt>
      <trkpt lat="47.24558" lon="4.96538">
        <ele>343.75634765625</ele>
        <time>2018-06-26T09:13:56+0200</time>
      </trkpt>
      <trkpt lat="47.24558" lon="4.96536">
        <ele>343.32229614258</ele>
        <time>2018-06-26T09:13:59+0200</time>
      </trkpt>
      <trkpt lat="47.24557" lon="4.96535">
        <ele>342.91485595703</ele>
        <time>2018-06-26T09:14:02+0200</time>
      </trkpt>
      <trkpt lat="47.24557" lon="4.96531">
        <ele>342.56216430664</ele>
        <time>2018-06-26T09:14:05+0200</time>
      </trkpt>
      <trkpt lat="47.24558" lon="4.96528">
        <ele>342.31149291992</ele>
        <time>2018-06-26T09:14:08+0200</time>
      </trkpt>
      <trkpt lat="47.24559" lon="4.96524">
        <ele>342.16143798828</ele>
        <time>2018-06-26T09:14:11+0200</time>
      </trkpt>
      <trkpt lat="47.24559" lon="4.9652">
        <ele>342.11380004883</ele>
        <time>2018-06-26T09:14:14+0200</time>
      </trkpt>
      <trkpt lat="47.2456" lon="4.96519">
        <ele>342.11471557617</ele>
        <time>2018-06-26T09:14:17+0200</time>
      </trkpt>
      <trkpt lat="47.2456" lon="4.96519">
        <ele>342.11282348633</ele>
        <time>2018-06-26T09:14:20+0200</time>
      </trkpt>
      <trkpt lat="47.24559" lon="4.96516">
        <ele>342.26211547852</ele>
        <time>2018-06-26T09:14:23+0200</time>
      </trkpt>
      <trkpt lat="47.24559" lon="4.96514">
        <ele>342.37896728516</ele>
        <time>2018-06-26T09:14:26+0200</time>
      </trkpt>
      <trkpt lat="47.24558" lon="4.96511">
        <ele>342.52597045898</ele>
        <time>2018-06-26T09:14:29+0200</time>
      </trkpt>
      <trkpt lat="47.24557" lon="4.96509">
        <ele>342.61407470703</ele>
        <time>2018-06-26T09:14:32+0200</time>
      </trkpt>
      <trkpt lat="47.24554" lon="4.9651">
        <ele>342.59561157227</ele>
        <time>2018-06-26T09:14:35+0200</time>
      </trkpt>
      <trkpt lat="47.24554" lon="4.96509">
        <ele>342.59149169922</ele>
        <time>2018-06-26T09:14:38+0200</time>
      </trkpt>
      <trkpt lat="47.24554" lon="4.96509">
        <ele>342.59143066406</ele>
        <time>2018-06-26T09:14:41+0200</time>
      </trkpt>
      <trkpt lat="47.24553" lon="4.96505">
        <ele>342.62371826172</ele>
        <time>2018-06-26T09:14:44+0200</time>
      </trkpt>
      <trkpt lat="47.24553" lon="4.96505">
        <ele>342.73272705078</ele>
        <time>2018-06-26T09:14:47+0200</time>
      </trkpt>
      <trkpt lat="47.24554" lon="4.96504">
        <ele>342.97967529297</ele>
        <time>2018-06-26T09:14:50+0200</time>
      </trkpt>
      <trkpt lat="47.24553" lon="4.965">
        <ele>343.35003662109</ele>
        <time>2018-06-26T09:14:53+0200</time>
      </trkpt>
      <trkpt lat="47.24551" lon="4.96493">
        <ele>343.56994628906</ele>
        <time>2018-06-26T09:14:56+0200</time>
      </trkpt>
      <trkpt lat="47.24549" lon="4.96489">
        <ele>343.57803344727</ele>
        <time>2018-06-26T09:14:59+0200</time>
      </trkpt>
      <trkpt lat="47.24547" lon="4.96489">
        <ele>343.505859375</ele>
        <time>2018-06-26T09:15:02+0200</time>
      </trkpt>
      <trkpt lat="47.24545" lon="4.96485">
        <ele>343.38241577148</ele>
        <time>2018-06-26T09:15:05+0200</time>
      </trkpt>
      <trkpt lat="47.24545" lon="4.96483">
        <ele>343.34970092773</ele>
        <time>2018-06-26T09:15:08+0200</time>
      </trkpt>
      <trkpt lat="47.24545" lon="4.96483">
        <ele>343.30163574219</ele>
        <time>2018-06-26T09:15:11+0200</time>
      </trkpt>
      <trkpt lat="47.24544" lon="4.96483">
        <ele>343.25048828125</ele>
        <time>2018-06-26T09:15:14+0200</time>
      </trkpt>
      <trkpt lat="47.24543" lon="4.96481">
        <ele>342.90481567383</ele>
        <time>2018-06-26T09:15:17+0200</time>
      </trkpt>
      <trkpt lat="47.24543" lon="4.9648">
        <ele>342.51235961914</ele>
        <time>2018-06-26T09:15:20+0200</time>
      </trkpt>
      <trkpt lat="47.24544" lon="4.9648">
        <ele>342.21823120117</ele>
        <time>2018-06-26T09:15:23+0200</time>
      </trkpt>
      <trkpt lat="47.24542" lon="4.9648">
        <ele>342.02941894531</ele>
        <time>2018-06-26T09:15:26+0200</time>
      </trkpt>
      <trkpt lat="47.24542" lon="4.9648">
        <ele>342.00973510742</ele>
        <time>2018-06-26T09:15:29+0200</time>
      </trkpt>
      <trkpt lat="47.24542" lon="4.9648">
        <ele>341.99249267578</ele>
        <time>2018-06-26T09:15:32+0200</time>
      </trkpt>
      <trkpt lat="47.24542" lon="4.9648">
        <ele>341.97259521484</ele>
        <time>2018-06-26T09:15:35+0200</time>
      </trkpt>
      <trkpt lat="47.24541" lon="4.9648">
        <ele>341.94729614258</ele>
        <time>2018-06-26T09:15:38+0200</time>
      </trkpt>
      <trkpt lat="47.24541" lon="4.9648">
        <ele>341.91656494141</ele>
        <time>2018-06-26T09:15:41+0200</time>
      </trkpt>
      <trkpt lat="47.24541" lon="4.96479">
        <ele>341.77087402344</ele>
        <time>2018-06-26T09:15:44+0200</time>
      </trkpt>
      <trkpt lat="47.24539" lon="4.96478">
        <ele>341.41348266602</ele>
        <time>2018-06-26T09:15:47+0200</time>
      </trkpt>
      <trkpt lat="47.24539" lon="4.96478">
        <ele>341.09033203125</ele>
        <time>2018-06-26T09:15:50+0200</time>
      </trkpt>
      <trkpt lat="47.24538" lon="4.96478">
        <ele>340.80313110352</ele>
        <time>2018-06-26T09:15:53+0200</time>
      </trkpt>
      <trkpt lat="47.24538" lon="4.96478">
        <ele>340.77630615234</ele>
        <time>2018-06-26T09:15:56+0200</time>
      </trkpt>
      <trkpt lat="47.24538" lon="4.96477">
        <ele>340.75103759766</ele>
        <time>2018-06-26T09:15:59+0200</time>
      </trkpt>
      <trkpt lat="47.24537" lon="4.96477">
        <ele>340.53964233398</ele>
        <time>2018-06-26T09:16:02+0200</time>
      </trkpt>
      <trkpt lat="47.24537" lon="4.96477">
        <ele>340.38327026367</ele>
        <time>2018-06-26T09:16:05+0200</time>
      </trkpt>
      <trkpt lat="47.24534" lon="4.96476">
        <ele>340.31414794922</ele>
        <time>2018-06-26T09:16:08+0200</time>
      </trkpt>
      <trkpt lat="47.24533" lon="4.96475">
        <ele>340.30804443359</ele>
        <time>2018-06-26T09:16:11+0200</time>
      </trkpt>
      <trkpt lat="47.24533" lon="4.96475">
        <ele>340.30529785156</ele>
        <time>2018-06-26T09:16:14+0200</time>
      </trkpt>
      <trkpt lat="47.2453" lon="4.96475">
        <ele>340.32153320312</ele>
        <time>2018-06-26T09:16:17+0200</time>
      </trkpt>
      <trkpt lat="47.2453" lon="4.96476">
        <ele>340.37139892578</ele>
        <time>2018-06-26T09:16:20+0200</time>
      </trkpt>
      <trkpt lat="47.24529" lon="4.96476">
        <ele>340.48300170898</ele>
        <time>2018-06-26T09:16:23+0200</time>
      </trkpt>
      <trkpt lat="47.24528" lon="4.96478">
        <ele>340.65768432617</ele>
        <time>2018-06-26T09:16:26+0200</time>
      </trkpt>
      <trkpt lat="47.24525" lon="4.96479">
        <ele>340.90594482422</ele>
        <time>2018-06-26T09:16:29+0200</time>
      </trkpt>
      <trkpt lat="47.24522" lon="4.9648">
        <ele>341.21694946289</ele>
        <time>2018-06-26T09:16:32+0200</time>
      </trkpt>
      <trkpt lat="47.24519" lon="4.96482">
        <ele>341.59048461914</ele>
        <time>2018-06-26T09:16:35+0200</time>
      </trkpt>
      <trkpt lat="47.24517" lon="4.96483">
        <ele>342.01181030273</ele>
        <time>2018-06-26T09:16:38+0200</time>
      </trkpt>
      <trkpt lat="47.24516" lon="4.96485">
        <ele>342.47952270508</ele>
        <time>2018-06-26T09:16:41+0200</time>
      </trkpt>
      <trkpt lat="47.24514" lon="4.96487">
        <ele>343.02188110352</ele>
        <time>2018-06-26T09:16:44+0200</time>
      </trkpt>
      <trkpt lat="47.24514" lon="4.96487">
        <ele>343.61428833008</ele>
        <time>2018-06-26T09:16:47+0200</time>
      </trkpt>
      <trkpt lat="47.24511" lon="4.96489">
        <ele>344.24594116211</ele>
        <time>2018-06-26T09:16:50+0200</time>
      </trkpt>
      <trkpt lat="47.24509" lon="4.9649">
        <ele>344.92169189453</ele>
        <time>2018-06-26T09:16:53+0200</time>
      </trkpt>
      <trkpt lat="47.24506" lon="4.96491">
        <ele>345.62985229492</ele>
        <time>2018-06-26T09:16:56+0200</time>
      </trkpt>
      <trkpt lat="47.24503" lon="4.96493">
        <ele>346.37124633789</ele>
        <time>2018-06-26T09:16:59+0200</time>
      </trkpt>
      <trkpt lat="47.245" lon="4.96493">
        <ele>347.14605712891</ele>
        <time>2018-06-26T09:17:02+0200</time>
      </trkpt>
      <trkpt lat="47.24497" lon="4.96494">
        <ele>347.94866943359</ele>
        <time>2018-06-26T09:17:05+0200</time>
      </trkpt>
      <trkpt lat="47.24495" lon="4.96495">
        <ele>348.76678466797</ele>
        <time>2018-06-26T09:17:08+0200</time>
      </trkpt>
      <trkpt lat="47.24492" lon="4.96497">
        <ele>349.55160522461</ele>
        <time>2018-06-26T09:17:11+0200</time>
      </trkpt>
      <trkpt lat="47.24489" lon="4.96498">
        <ele>350.32916259766</ele>
        <time>2018-06-26T09:17:14+0200</time>
      </trkpt>
      <trkpt lat="47.24487" lon="4.96499">
        <ele>351.06298828125</ele>
        <time>2018-06-26T09:17:17+0200</time>
      </trkpt>
      <trkpt lat="47.24485" lon="4.96501">
        <ele>351.55261230469</ele>
        <time>2018-06-26T09:17:20+0200</time>
      </trkpt>
      <trkpt lat="47.24484" lon="4.96502">
        <ele>352.16854858398</ele>
        <time>2018-06-26T09:17:23+0200</time>
      </trkpt>
      <trkpt lat="47.24484" lon="4.96504">
        <ele>352.57037353516</ele>
        <time>2018-06-26T09:17:26+0200</time>
      </trkpt>
      <trkpt lat="47.24483" lon="4.96505">
        <ele>352.6252746582</ele>
        <time>2018-06-26T09:17:29+0200</time>
      </trkpt>
      <trkpt lat="47.24482" lon="4.96506">
        <ele>352.99285888672</ele>
        <time>2018-06-26T09:17:32+0200</time>
      </trkpt>
      <trkpt lat="47.24479" lon="4.9651">
        <ele>353.48229980469</ele>
        <time>2018-06-26T09:17:35+0200</time>
      </trkpt>
      <trkpt lat="47.24478" lon="4.96511">
        <ele>353.6689453125</ele>
        <time>2018-06-26T09:17:38+0200</time>
      </trkpt>
      <trkpt lat="47.24476" lon="4.96512">
        <ele>353.97088623047</ele>
        <time>2018-06-26T09:17:41+0200</time>
      </trkpt>
      <trkpt lat="47.24474" lon="4.96514">
        <ele>354.38897705078</ele>
        <time>2018-06-26T09:17:44+0200</time>
      </trkpt>
      <trkpt lat="47.2447" lon="4.96516">
        <ele>354.80340576172</ele>
        <time>2018-06-26T09:17:47+0200</time>
      </trkpt>
      <trkpt lat="47.24468" lon="4.96516">
        <ele>354.97625732422</ele>
        <time>2018-06-26T09:17:50+0200</time>
      </trkpt>
      <trkpt lat="47.24464" lon="4.96518">
        <ele>355.41149902344</ele>
        <time>2018-06-26T09:17:53+0200</time>
      </trkpt>
      <trkpt lat="47.24458" lon="4.9652">
        <ele>355.81594848633</ele>
        <time>2018-06-26T09:17:56+0200</time>
      </trkpt>
      <trkpt lat="47.24451" lon="4.96518">
        <ele>356.20318603516</ele>
        <time>2018-06-26T09:17:59+0200</time>
      </trkpt>
      <trkpt lat="47.24446" lon="4.96518">
        <ele>356.5446472168</ele>
        <time>2018-06-26T09:18:02+0200</time>
      </trkpt>
      <trkpt lat="47.24443" lon="4.96518">
        <ele>356.93795776367</ele>
        <time>2018-06-26T09:18:05+0200</time>
      </trkpt>
      <trkpt lat="47.2444" lon="4.96517">
        <ele>357.25274658203</ele>
        <time>2018-06-26T09:18:08+0200</time>
      </trkpt>
      <trkpt lat="47.24438" lon="4.96517">
        <ele>357.51010131836</ele>
        <time>2018-06-26T09:18:11+0200</time>
      </trkpt>
      <trkpt lat="47.24435" lon="4.96517">
        <ele>357.87887573242</ele>
        <time>2018-06-26T09:18:14+0200</time>
      </trkpt>
      <trkpt lat="47.24431" lon="4.96516">
        <ele>358.1946105957</ele>
        <time>2018-06-26T09:18:17+0200</time>
      </trkpt>
      <trkpt lat="47.24426" lon="4.96516">
        <ele>358.50170898438</ele>
        <time>2018-06-26T09:18:20+0200</time>
      </trkpt>
      <trkpt lat="47.24422" lon="4.96516">
        <ele>358.76123046875</ele>
        <time>2018-06-26T09:18:23+0200</time>
      </trkpt>
      <trkpt lat="47.24419" lon="4.96515">
        <ele>358.99157714844</ele>
        <time>2018-06-26T09:18:26+0200</time>
      </trkpt>
      <trkpt lat="47.24416" lon="4.96514">
        <ele>359.1926574707</ele>
        <time>2018-06-26T09:18:29+0200</time>
      </trkpt>
      <trkpt lat="47.24414" lon="4.96512">
        <ele>359.34561157227</ele>
        <time>2018-06-26T09:18:32+0200</time>
      </trkpt>
      <trkpt lat="47.24412" lon="4.9651">
        <ele>359.45895385742</ele>
        <time>2018-06-26T09:18:35+0200</time>
      </trkpt>
      <trkpt lat="47.24411" lon="4.96508">
        <ele>359.51995849609</ele>
        <time>2018-06-26T09:18:38+0200</time>
      </trkpt>
      <trkpt lat="47.24407" lon="4.96506">
        <ele>359.54013061523</ele>
        <time>2018-06-26T09:18:41+0200</time>
      </trkpt>
      <trkpt lat="47.24404" lon="4.96503">
        <ele>359.54470825195</ele>
        <time>2018-06-26T09:18:44+0200</time>
      </trkpt>
      <trkpt lat="47.24403" lon="4.96499">
        <ele>359.48767089844</ele>
        <time>2018-06-26T09:18:47+0200</time>
      </trkpt>
      <trkpt lat="47.244" lon="4.96497">
        <ele>359.40969848633</ele>
        <time>2018-06-26T09:18:50+0200</time>
      </trkpt>
      <trkpt lat="47.244" lon="4.96496">
        <ele>359.33767700195</ele>
        <time>2018-06-26T09:18:53+0200</time>
      </trkpt>
      <trkpt lat="47.24399" lon="4.96495">
        <ele>359.27523803711</ele>
        <time>2018-06-26T09:18:56+0200</time>
      </trkpt>
      <trkpt lat="47.244" lon="4.96494">
        <ele>359.2626953125</ele>
        <time>2018-06-26T09:18:59+0200</time>
      </trkpt>
      <trkpt lat="47.244" lon="4.96494">
        <ele>359.24224853516</ele>
        <time>2018-06-26T09:19:02+0200</time>
      </trkpt>
      <trkpt lat="47.244" lon="4.96493">
        <ele>358.97381591797</ele>
        <time>2018-06-26T09:19:05+0200</time>
      </trkpt>
      <trkpt lat="47.24398" lon="4.96491">
        <ele>358.92855834961</ele>
        <time>2018-06-26T09:19:08+0200</time>
      </trkpt>
      <trkpt lat="47.24398" lon="4.9649">
        <ele>358.90737915039</ele>
        <time>2018-06-26T09:19:11+0200</time>
      </trkpt>
      <trkpt lat="47.24398" lon="4.9649">
        <ele>358.89163208008</ele>
        <time>2018-06-26T09:19:14+0200</time>
      </trkpt>
      <trkpt lat="47.24398" lon="4.96489">
        <ele>358.87225341797</ele>
        <time>2018-06-26T09:19:17+0200</time>
      </trkpt>
      <trkpt lat="47.24397" lon="4.96488">
        <ele>358.72473144531</ele>
        <time>2018-06-26T09:19:20+0200</time>
      </trkpt>
      <trkpt lat="47.24393" lon="4.96485">
        <ele>358.53500366211</ele>
        <time>2018-06-26T09:19:23+0200</time>
      </trkpt>
      <trkpt lat="47.24392" lon="4.96484">
        <ele>358.32836914062</ele>
        <time>2018-06-26T09:19:26+0200</time>
      </trkpt>
      <trkpt lat="47.2439" lon="4.96481">
        <ele>358.13610839844</ele>
        <time>2018-06-26T09:19:29+0200</time>
      </trkpt>
      <trkpt lat="47.24388" lon="4.96477">
        <ele>357.98822021484</ele>
        <time>2018-06-26T09:19:32+0200</time>
      </trkpt>
      <trkpt lat="47.24386" lon="4.96475">
        <ele>357.86926269531</ele>
        <time>2018-06-26T09:19:35+0200</time>
      </trkpt>
      <trkpt lat="47.24384" lon="4.96471">
        <ele>357.83355712891</ele>
        <time>2018-06-26T09:19:38+0200</time>
      </trkpt>
      <trkpt lat="47.24383" lon="4.96469">
        <ele>357.82522583008</ele>
        <time>2018-06-26T09:19:41+0200</time>
      </trkpt>
      <trkpt lat="47.24382" lon="4.96467">
        <ele>357.8821105957</ele>
        <time>2018-06-26T09:19:44+0200</time>
      </trkpt>
      <trkpt lat="47.2438" lon="4.96468">
        <ele>358.00289916992</ele>
        <time>2018-06-26T09:19:47+0200</time>
      </trkpt>
      <trkpt lat="47.24378" lon="4.96467">
        <ele>358.22082519531</ele>
        <time>2018-06-26T09:19:50+0200</time>
      </trkpt>
      <trkpt lat="47.24375" lon="4.96465">
        <ele>358.5163269043</ele>
        <time>2018-06-26T09:19:53+0200</time>
      </trkpt>
      <trkpt lat="47.24373" lon="4.96463">
        <ele>358.76998901367</ele>
        <time>2018-06-26T09:19:56+0200</time>
      </trkpt>
      <trkpt lat="47.24372" lon="4.96457">
        <ele>358.94888305664</ele>
        <time>2018-06-26T09:19:59+0200</time>
      </trkpt>
      <trkpt lat="47.24371" lon="4.96454">
        <ele>359.08471679688</ele>
        <time>2018-06-26T09:20:02+0200</time>
      </trkpt>
      <trkpt lat="47.24369" lon="4.96453">
        <ele>359.20672607422</ele>
        <time>2018-06-26T09:20:05+0200</time>
      </trkpt>
      <trkpt lat="47.24367" lon="4.96451">
        <ele>359.36947631836</ele>
        <time>2018-06-26T09:20:08+0200</time>
      </trkpt>
      <trkpt lat="47.24365" lon="4.96447">
        <ele>359.55313110352</ele>
        <time>2018-06-26T09:20:11+0200</time>
      </trkpt>
      <trkpt lat="47.24364" lon="4.96446">
        <ele>359.8117980957</ele>
        <time>2018-06-26T09:20:14+0200</time>
      </trkpt>
      <trkpt lat="47.24361" lon="4.96445">
        <ele>360.21878051758</ele>
        <time>2018-06-26T09:20:17+0200</time>
      </trkpt>
      <trkpt lat="47.2436" lon="4.96443">
        <ele>360.61154174805</ele>
        <time>2018-06-26T09:20:20+0200</time>
      </trkpt>
      <trkpt lat="47.24359" lon="4.96439">
        <ele>361.02331542969</ele>
        <time>2018-06-26T09:20:23+0200</time>
      </trkpt>
      <trkpt lat="47.24358" lon="4.96436">
        <ele>361.4651184082</ele>
        <time>2018-06-26T09:20:26+0200</time>
      </trkpt>
      <trkpt lat="47.24357" lon="4.96433">
        <ele>361.98345947266</ele>
        <time>2018-06-26T09:20:29+0200</time>
      </trkpt>
      <trkpt lat="47.24354" lon="4.96431">
        <ele>362.50860595703</ele>
        <time>2018-06-26T09:20:32+0200</time>
      </trkpt>
      <trkpt lat="47.24352" lon="4.96429">
        <ele>363.07159423828</ele>
        <time>2018-06-26T09:20:35+0200</time>
      </trkpt>
      <trkpt lat="47.2435" lon="4.96427">
        <ele>363.69540405273</ele>
        <time>2018-06-26T09:20:38+0200</time>
      </trkpt>
      <trkpt lat="47.24349" lon="4.96424">
        <ele>364.29602050781</ele>
        <time>2018-06-26T09:20:41+0200</time>
      </trkpt>
      <trkpt lat="47.24346" lon="4.96421">
        <ele>364.89801025391</ele>
        <time>2018-06-26T09:20:44+0200</time>
      </trkpt>
      <trkpt lat="47.24344" lon="4.96419">
        <ele>365.46911621094</ele>
        <time>2018-06-26T09:20:47+0200</time>
      </trkpt>
      <trkpt lat="47.24343" lon="4.96416">
        <ele>365.9919128418</ele>
        <time>2018-06-26T09:20:50+0200</time>
      </trkpt>
      <trkpt lat="47.24341" lon="4.96413">
        <ele>366.53060913086</ele>
        <time>2018-06-26T09:20:53+0200</time>
      </trkpt>
      <trkpt lat="47.2434" lon="4.96409">
        <ele>367.03005981445</ele>
        <time>2018-06-26T09:20:56+0200</time>
      </trkpt>
      <trkpt lat="47.24338" lon="4.96406">
        <ele>367.46566772461</ele>
        <time>2018-06-26T09:20:59+0200</time>
      </trkpt>
      <trkpt lat="47.24337" lon="4.96404">
        <ele>367.81466674805</ele>
        <time>2018-06-26T09:21:02+0200</time>
      </trkpt>
      <trkpt lat="47.24333" lon="4.96401">
        <ele>368.08029174805</ele>
        <time>2018-06-26T09:21:05+0200</time>
      </trkpt>
      <trkpt lat="47.2433" lon="4.96398">
        <ele>368.21932983398</ele>
        <time>2018-06-26T09:21:08+0200</time>
      </trkpt>
      <trkpt lat="47.24329" lon="4.96397">
        <ele>368.26620483398</ele>
        <time>2018-06-26T09:21:11+0200</time>
      </trkpt>
      <trkpt lat="47.24328" lon="4.96394">
        <ele>368.24630737305</ele>
        <time>2018-06-26T09:21:14+0200</time>
      </trkpt>
      <trkpt lat="47.24325" lon="4.96388">
        <ele>368.13302612305</ele>
        <time>2018-06-26T09:21:17+0200</time>
      </trkpt>
      <trkpt lat="47.24322" lon="4.96384">
        <ele>367.87255859375</ele>
        <time>2018-06-26T09:21:20+0200</time>
      </trkpt>
      <trkpt lat="47.24321" lon="4.96382">
        <ele>367.57525634766</ele>
        <time>2018-06-26T09:21:23+0200</time>
      </trkpt>
      <trkpt lat="47.24319" lon="4.96377">
        <ele>367.20745849609</ele>
        <time>2018-06-26T09:21:26+0200</time>
      </trkpt>
      <trkpt lat="47.24317" lon="4.96374">
        <ele>366.79663085938</ele>
        <time>2018-06-26T09:21:29+0200</time>
      </trkpt>
      <trkpt lat="47.24315" lon="4.96372">
        <ele>366.37704467773</ele>
        <time>2018-06-26T09:21:32+0200</time>
      </trkpt>
      <trkpt lat="47.24313" lon="4.96369">
        <ele>366.05978393555</ele>
        <time>2018-06-26T09:21:35+0200</time>
      </trkpt>
      <trkpt lat="47.24312" lon="4.96367">
        <ele>365.82797241211</ele>
        <time>2018-06-26T09:21:38+0200</time>
      </trkpt>
      <trkpt lat="47.2431" lon="4.96363">
        <ele>365.58224487305</ele>
        <time>2018-06-26T09:21:41+0200</time>
      </trkpt>
      <trkpt lat="47.24309" lon="4.96361">
        <ele>365.39840698242</ele>
        <time>2018-06-26T09:21:44+0200</time>
      </trkpt>
      <trkpt lat="47.24307" lon="4.9636">
        <ele>365.2702331543</ele>
        <time>2018-06-26T09:21:47+0200</time>
      </trkpt>
      <trkpt lat="47.24306" lon="4.96358">
        <ele>365.33285522461</ele>
        <time>2018-06-26T09:21:50+0200</time>
      </trkpt>
      <trkpt lat="47.24303" lon="4.96356">
        <ele>365.49560546875</ele>
        <time>2018-06-26T09:21:53+0200</time>
      </trkpt>
      <trkpt lat="47.24301" lon="4.96353">
        <ele>365.7663269043</ele>
        <time>2018-06-26T09:21:56+0200</time>
      </trkpt>
      <trkpt lat="47.24297" lon="4.96348">
        <ele>365.97625732422</ele>
        <time>2018-06-26T09:21:59+0200</time>
      </trkpt>
      <trkpt lat="47.24297" lon="4.9635">
        <ele>366.40481567383</ele>
        <time>2018-06-26T09:22:02+0200</time>
      </trkpt>
      <trkpt lat="47.24295" lon="4.96349">
        <ele>366.96249389648</ele>
        <time>2018-06-26T09:22:05+0200</time>
      </trkpt>
      <trkpt lat="47.24294" lon="4.96348">
        <ele>367.48788452148</ele>
        <time>2018-06-26T09:22:08+0200</time>
      </trkpt>
      <trkpt lat="47.24291" lon="4.96343">
        <ele>367.88705444336</ele>
        <time>2018-06-26T09:22:11+0200</time>
      </trkpt>
      <trkpt lat="47.2429" lon="4.96338">
        <ele>368.07391357422</ele>
        <time>2018-06-26T09:22:14+0200</time>
      </trkpt>
      <trkpt lat="47.24289" lon="4.96335">
        <ele>368.07885742188</ele>
        <time>2018-06-26T09:22:17+0200</time>
      </trkpt>
      <trkpt lat="47.24289" lon="4.96333">
        <ele>368.0732421875</ele>
        <time>2018-06-26T09:22:20+0200</time>
      </trkpt>
      <trkpt lat="47.24288" lon="4.96331">
        <ele>368.10473632812</ele>
        <time>2018-06-26T09:22:23+0200</time>
      </trkpt>
      <trkpt lat="47.24286" lon="4.96329">
        <ele>368.13732910156</ele>
        <time>2018-06-26T09:22:26+0200</time>
      </trkpt>
      <trkpt lat="47.24283" lon="4.96326">
        <ele>368.24230957031</ele>
        <time>2018-06-26T09:22:29+0200</time>
      </trkpt>
      <trkpt lat="47.24281" lon="4.96323">
        <ele>368.54006958008</ele>
        <time>2018-06-26T09:22:32+0200</time>
      </trkpt>
      <trkpt lat="47.24279" lon="4.96322">
        <ele>368.87335205078</ele>
        <time>2018-06-26T09:22:35+0200</time>
      </trkpt>
      <trkpt lat="47.24279" lon="4.9632">
        <ele>369.37020874023</ele>
        <time>2018-06-26T09:22:38+0200</time>
      </trkpt>
      <trkpt lat="47.24279" lon="4.96317">
        <ele>370.02575683594</ele>
        <time>2018-06-26T09:22:41+0200</time>
      </trkpt>
      <trkpt lat="47.2428" lon="4.96314">
        <ele>370.77896118164</ele>
        <time>2018-06-26T09:22:44+0200</time>
      </trkpt>
      <trkpt lat="47.2428" lon="4.96313">
        <ele>371.10623168945</ele>
        <time>2018-06-26T09:22:47+0200</time>
      </trkpt>
      <trkpt lat="47.24278" lon="4.96313">
        <ele>371.91665649414</ele>
        <time>2018-06-26T09:22:50+0200</time>
      </trkpt>
      <trkpt lat="47.24276" lon="4.96312">
        <ele>372.6130065918</ele>
        <time>2018-06-26T09:22:53+0200</time>
      </trkpt>
      <trkpt lat="47.24271" lon="4.96303">
        <ele>373.07110595703</ele>
        <time>2018-06-26T09:22:56+0200</time>
      </trkpt>
      <trkpt lat="47.24268" lon="4.96296">
        <ele>373.13961791992</ele>
        <time>2018-06-26T09:22:59+0200</time>
      </trkpt>
      <trkpt lat="47.24267" lon="4.96293">
        <ele>373.06362915039</ele>
        <time>2018-06-26T09:23:02+0200</time>
      </trkpt>
      <trkpt lat="47.24265" lon="4.96288">
        <ele>373.158203125</ele>
        <time>2018-06-26T09:23:05+0200</time>
      </trkpt>
      <trkpt lat="47.24266" lon="4.9629">
        <ele>373.44555664062</ele>
        <time>2018-06-26T09:23:08+0200</time>
      </trkpt>
      <trkpt lat="47.24266" lon="4.96288">
        <ele>373.67251586914</ele>
        <time>2018-06-26T09:23:11+0200</time>
      </trkpt>
      <trkpt lat="47.24265" lon="4.96283">
        <ele>374.11489868164</ele>
        <time>2018-06-26T09:23:14+0200</time>
      </trkpt>
      <trkpt lat="47.24264" lon="4.9628">
        <ele>374.55404663086</ele>
        <time>2018-06-26T09:23:17+0200</time>
      </trkpt>
      <trkpt lat="47.24264" lon="4.96276">
        <ele>374.91397094727</ele>
        <time>2018-06-26T09:23:20+0200</time>
      </trkpt>
      <trkpt lat="47.24263" lon="4.96274">
        <ele>375.2578125</ele>
        <time>2018-06-26T09:23:23+0200</time>
      </trkpt>
      <trkpt lat="47.24262" lon="4.96271">
        <ele>375.63473510742</ele>
        <time>2018-06-26T09:23:26+0200</time>
      </trkpt>
      <trkpt lat="47.24261" lon="4.96269">
        <ele>376.02005004883</ele>
        <time>2018-06-26T09:23:29+0200</time>
      </trkpt>
      <trkpt lat="47.24261" lon="4.96268">
        <ele>376.47546386719</ele>
        <time>2018-06-26T09:23:32+0200</time>
      </trkpt>
      <trkpt lat="47.2426" lon="4.96262">
        <ele>376.94201660156</ele>
        <time>2018-06-26T09:23:35+0200</time>
      </trkpt>
      <trkpt lat="47.2426" lon="4.96259">
        <ele>377.37707519531</ele>
        <time>2018-06-26T09:23:38+0200</time>
      </trkpt>
      <trkpt lat="47.2426" lon="4.96257">
        <ele>377.8254699707</ele>
        <time>2018-06-26T09:23:41+0200</time>
      </trkpt>
      <trkpt lat="47.24259" lon="4.96256">
        <ele>378.34124755859</ele>
        <time>2018-06-26T09:23:44+0200</time>
      </trkpt>
      <trkpt lat="47.24259" lon="4.96253">
        <ele>378.85418701172</ele>
        <time>2018-06-26T09:23:47+0200</time>
      </trkpt>
      <trkpt lat="47.24259" lon="4.96246">
        <ele>379.23638916016</ele>
        <time>2018-06-26T09:23:50+0200</time>
      </trkpt>
      <trkpt lat="47.24259" lon="4.96244">
        <ele>379.48385620117</ele>
        <time>2018-06-26T09:23:53+0200</time>
      </trkpt>
      <trkpt lat="47.24258" lon="4.96242">
        <ele>379.8076171875</ele>
        <time>2018-06-26T09:23:56+0200</time>
      </trkpt>
      <trkpt lat="47.24258" lon="4.96239">
        <ele>380.25115966797</ele>
        <time>2018-06-26T09:23:59+0200</time>
      </trkpt>
      <trkpt lat="47.24258" lon="4.96241">
        <ele>380.47573852539</ele>
        <time>2018-06-26T09:24:02+0200</time>
      </trkpt>
      <trkpt lat="47.24258" lon="4.96235">
        <ele>380.99563598633</ele>
        <time>2018-06-26T09:24:05+0200</time>
      </trkpt>
      <trkpt lat="47.24258" lon="4.96223">
        <ele>381.60369873047</ele>
        <time>2018-06-26T09:24:08+0200</time>
      </trkpt>
      <trkpt lat="47.24258" lon="4.96221">
        <ele>382.06793212891</ele>
        <time>2018-06-26T09:24:11+0200</time>
      </trkpt>
      <trkpt lat="47.24257" lon="4.96221">
        <ele>382.59564208984</ele>
        <time>2018-06-26T09:24:14+0200</time>
      </trkpt>
      <trkpt lat="47.24256" lon="4.96217">
        <ele>383.18701171875</ele>
        <time>2018-06-26T09:24:17+0200</time>
      </trkpt>
      <trkpt lat="47.24256" lon="4.96217">
        <ele>383.80697631836</ele>
        <time>2018-06-26T09:24:20+0200</time>
      </trkpt>
      <trkpt lat="47.24256" lon="4.96215">
        <ele>384.2370300293</ele>
        <time>2018-06-26T09:24:23+0200</time>
      </trkpt>
      <trkpt lat="47.24255" lon="4.96211">
        <ele>384.67916870117</ele>
        <time>2018-06-26T09:24:26+0200</time>
      </trkpt>
      <trkpt lat="47.24254" lon="4.96206">
        <ele>385.23382568359</ele>
        <time>2018-06-26T09:24:29+0200</time>
      </trkpt>
      <trkpt lat="47.24253" lon="4.962">
        <ele>385.60888671875</ele>
        <time>2018-06-26T09:24:32+0200</time>
      </trkpt>
      <trkpt lat="47.24253" lon="4.96194">
        <ele>385.87100219727</ele>
        <time>2018-06-26T09:24:35+0200</time>
      </trkpt>
      <trkpt lat="47.24252" lon="4.96191">
        <ele>386.0592956543</ele>
        <time>2018-06-26T09:24:38+0200</time>
      </trkpt>
      <trkpt lat="47.24252" lon="4.9619">
        <ele>386.166015625</ele>
        <time>2018-06-26T09:24:41+0200</time>
      </trkpt>
      <trkpt lat="47.24251" lon="4.96185">
        <ele>386.28732299805</ele>
        <time>2018-06-26T09:24:44+0200</time>
      </trkpt>
      <trkpt lat="47.24251" lon="4.96183">
        <ele>386.39096069336</ele>
        <time>2018-06-26T09:24:47+0200</time>
      </trkpt>
      <trkpt lat="47.24251" lon="4.96181">
        <ele>386.53140258789</ele>
        <time>2018-06-26T09:24:50+0200</time>
      </trkpt>
      <trkpt lat="47.24251" lon="4.96179">
        <ele>386.71792602539</ele>
        <time>2018-06-26T09:24:53+0200</time>
      </trkpt>
      <trkpt lat="47.24251" lon="4.96179">
        <ele>386.82580566406</ele>
        <time>2018-06-26T09:24:56+0200</time>
      </trkpt>
      <trkpt lat="47.24251" lon="4.96176">
        <ele>387.11672973633</ele>
        <time>2018-06-26T09:24:59+0200</time>
      </trkpt>
      <trkpt lat="47.24251" lon="4.96173">
        <ele>387.56512451172</ele>
        <time>2018-06-26T09:25:02+0200</time>
      </trkpt>
      <trkpt lat="47.24252" lon="4.96171">
        <ele>387.97052001953</ele>
        <time>2018-06-26T09:25:05+0200</time>
      </trkpt>
      <trkpt lat="47.24252" lon="4.9617">
        <ele>388.62347412109</ele>
        <time>2018-06-26T09:25:09+0200</time>
      </trkpt>
      <trkpt lat="47.24252" lon="4.96163">
        <ele>389.20202636719</ele>
        <time>2018-06-26T09:25:12+0200</time>
      </trkpt>
      <trkpt lat="47.24253" lon="4.96158">
        <ele>389.68017578125</ele>
        <time>2018-06-26T09:25:15+0200</time>
      </trkpt>
      <trkpt lat="47.24252" lon="4.96154">
        <ele>390.02679443359</ele>
        <time>2018-06-26T09:25:18+0200</time>
      </trkpt>
      <trkpt lat="47.24252" lon="4.96148">
        <ele>390.17303466797</ele>
        <time>2018-06-26T09:25:21+0200</time>
      </trkpt>
      <trkpt lat="47.24253" lon="4.96147">
        <ele>390.30819702148</ele>
        <time>2018-06-26T09:25:24+0200</time>
      </trkpt>
      <trkpt lat="47.24255" lon="4.96146">
        <ele>390.58926391602</ele>
        <time>2018-06-26T09:25:27+0200</time>
      </trkpt>
      <trkpt lat="47.24255" lon="4.96143">
        <ele>390.92776489258</ele>
        <time>2018-06-26T09:25:30+0200</time>
      </trkpt>
      <trkpt lat="47.24256" lon="4.9614">
        <ele>391.30044555664</ele>
        <time>2018-06-26T09:25:33+0200</time>
      </trkpt>
      <trkpt lat="47.24256" lon="4.96137">
        <ele>391.64553833008</ele>
        <time>2018-06-26T09:25:36+0200</time>
      </trkpt>
      <trkpt lat="47.24257" lon="4.9613">
        <ele>391.94027709961</ele>
        <time>2018-06-26T09:25:39+0200</time>
      </trkpt>
      <trkpt lat="47.24257" lon="4.96127">
        <ele>392.14108276367</ele>
        <time>2018-06-26T09:25:42+0200</time>
      </trkpt>
      <trkpt lat="47.24257" lon="4.96123">
        <ele>392.29348754883</ele>
        <time>2018-06-26T09:25:45+0200</time>
      </trkpt>
      <trkpt lat="47.24257" lon="4.96121">
        <ele>392.4391784668</ele>
        <time>2018-06-26T09:25:48+0200</time>
      </trkpt>
      <trkpt lat="47.24258" lon="4.9612">
        <ele>392.63238525391</ele>
        <time>2018-06-26T09:25:51+0200</time>
      </trkpt>
      <trkpt lat="47.24258" lon="4.96118">
        <ele>392.91595458984</ele>
        <time>2018-06-26T09:25:54+0200</time>
      </trkpt>
      <trkpt lat="47.24258" lon="4.96113">
        <ele>393.16552734375</ele>
        <time>2018-06-26T09:25:57+0200</time>
      </trkpt>
      <trkpt lat="47.24259" lon="4.96109">
        <ele>393.50775146484</ele>
        <time>2018-06-26T09:26:00+0200</time>
      </trkpt>
      <trkpt lat="47.24259" lon="4.96109">
        <ele>393.93920898438</ele>
        <time>2018-06-26T09:26:03+0200</time>
      </trkpt>
      <trkpt lat="47.2426" lon="4.96103">
        <ele>394.42590332031</ele>
        <time>2018-06-26T09:26:06+0200</time>
      </trkpt>
      <trkpt lat="47.2426" lon="4.96101">
        <ele>394.80432128906</ele>
        <time>2018-06-26T09:26:09+0200</time>
      </trkpt>
      <trkpt lat="47.2426" lon="4.961">
        <ele>395.38021850586</ele>
        <time>2018-06-26T09:26:12+0200</time>
      </trkpt>
      <trkpt lat="47.24262" lon="4.96095">
        <ele>395.92227172852</ele>
        <time>2018-06-26T09:26:15+0200</time>
      </trkpt>
      <trkpt lat="47.24263" lon="4.96092">
        <ele>396.43475341797</ele>
        <time>2018-06-26T09:26:18+0200</time>
      </trkpt>
      <trkpt lat="47.24263" lon="4.9609">
        <ele>396.94934082031</ele>
        <time>2018-06-26T09:26:21+0200</time>
      </trkpt>
      <trkpt lat="47.24264" lon="4.96087">
        <ele>397.45562744141</ele>
        <time>2018-06-26T09:26:24+0200</time>
      </trkpt>
      <trkpt lat="47.24267" lon="4.96083">
        <ele>397.92559814453</ele>
        <time>2018-06-26T09:26:27+0200</time>
      </trkpt>
      <trkpt lat="47.24268" lon="4.96079">
        <ele>398.40490722656</ele>
        <time>2018-06-26T09:26:30+0200</time>
      </trkpt>
      <trkpt lat="47.24269" lon="4.96077">
        <ele>398.93521118164</ele>
        <time>2018-06-26T09:26:33+0200</time>
      </trkpt>
      <trkpt lat="47.2427" lon="4.96075">
        <ele>399.46859741211</ele>
        <time>2018-06-26T09:26:36+0200</time>
      </trkpt>
      <trkpt lat="47.24271" lon="4.96073">
        <ele>399.94720458984</ele>
        <time>2018-06-26T09:26:39+0200</time>
      </trkpt>
      <trkpt lat="47.24272" lon="4.9607">
        <ele>400.38595581055</ele>
        <time>2018-06-26T09:26:42+0200</time>
      </trkpt>
      <trkpt lat="47.24273" lon="4.96064">
        <ele>400.77029418945</ele>
        <time>2018-06-26T09:26:45+0200</time>
      </trkpt>
      <trkpt lat="47.24274" lon="4.96059">
        <ele>401.02447509766</ele>
        <time>2018-06-26T09:26:48+0200</time>
      </trkpt>
      <trkpt lat="47.24274" lon="4.96058">
        <ele>401.21557617188</ele>
        <time>2018-06-26T09:26:51+0200</time>
      </trkpt>
      <trkpt lat="47.24274" lon="4.96056">
        <ele>401.38806152344</ele>
        <time>2018-06-26T09:26:54+0200</time>
      </trkpt>
      <trkpt lat="47.24275" lon="4.96051">
        <ele>401.5143737793</ele>
        <time>2018-06-26T09:26:57+0200</time>
      </trkpt>
      <trkpt lat="47.24275" lon="4.96049">
        <ele>401.61364746094</ele>
        <time>2018-06-26T09:27:00+0200</time>
      </trkpt>
      <trkpt lat="47.24276" lon="4.96046">
        <ele>401.70669555664</ele>
        <time>2018-06-26T09:27:03+0200</time>
      </trkpt>
      <trkpt lat="47.24276" lon="4.96043">
        <ele>401.81393432617</ele>
        <time>2018-06-26T09:27:06+0200</time>
      </trkpt>
      <trkpt lat="47.24277" lon="4.9604">
        <ele>402.04769897461</ele>
        <time>2018-06-26T09:27:09+0200</time>
      </trkpt>
      <trkpt lat="47.24277" lon="4.96038">
        <ele>402.34136962891</ele>
        <time>2018-06-26T09:27:12+0200</time>
      </trkpt>
      <trkpt lat="47.24277" lon="4.96035">
        <ele>402.62423706055</ele>
        <time>2018-06-26T09:27:15+0200</time>
      </trkpt>
      <trkpt lat="47.24277" lon="4.96031">
        <ele>402.87817382812</ele>
        <time>2018-06-26T09:27:18+0200</time>
      </trkpt>
      <trkpt lat="47.24278" lon="4.96027">
        <ele>403.16827392578</ele>
        <time>2018-06-26T09:27:21+0200</time>
      </trkpt>
      <trkpt lat="47.24278" lon="4.96025">
        <ele>403.51519775391</ele>
        <time>2018-06-26T09:27:24+0200</time>
      </trkpt>
      <trkpt lat="47.24279" lon="4.96021">
        <ele>403.87274169922</ele>
        <time>2018-06-26T09:27:27+0200</time>
      </trkpt>
      <trkpt lat="47.24279" lon="4.96018">
        <ele>404.22946166992</ele>
        <time>2018-06-26T09:27:30+0200</time>
      </trkpt>
      <trkpt lat="47.24279" lon="4.96015">
        <ele>404.54870605469</ele>
        <time>2018-06-26T09:27:33+0200</time>
      </trkpt>
      <trkpt lat="47.24279" lon="4.96012">
        <ele>404.84771728516</ele>
        <time>2018-06-26T09:27:36+0200</time>
      </trkpt>
      <trkpt lat="47.24278" lon="4.9601">
        <ele>405.12936401367</ele>
        <time>2018-06-26T09:27:39+0200</time>
      </trkpt>
      <trkpt lat="47.24278" lon="4.96007">
        <ele>405.44488525391</ele>
        <time>2018-06-26T09:27:42+0200</time>
      </trkpt>
      <trkpt lat="47.24278" lon="4.96005">
        <ele>405.86917114258</ele>
        <time>2018-06-26T09:27:45+0200</time>
      </trkpt>
      <trkpt lat="47.24278" lon="4.96004">
        <ele>406.38580322266</ele>
        <time>2018-06-26T09:27:48+0200</time>
      </trkpt>
      <trkpt lat="47.24278" lon="4.96001">
        <ele>406.96148681641</ele>
        <time>2018-06-26T09:27:51+0200</time>
      </trkpt>
      <trkpt lat="47.24278" lon="4.96">
        <ele>407.63900756836</ele>
        <time>2018-06-26T09:27:54+0200</time>
      </trkpt>
      <trkpt lat="47.24278" lon="4.95997">
        <ele>408.36541748047</ele>
        <time>2018-06-26T09:27:57+0200</time>
      </trkpt>
      <trkpt lat="47.24278" lon="4.95989">
        <ele>408.99801635742</ele>
        <time>2018-06-26T09:28:00+0200</time>
      </trkpt>
      <trkpt lat="47.24278" lon="4.95988">
        <ele>409.55123901367</ele>
        <time>2018-06-26T09:28:03+0200</time>
      </trkpt>
      <trkpt lat="47.24278" lon="4.95982">
        <ele>410.07586669922</ele>
        <time>2018-06-26T09:28:06+0200</time>
      </trkpt>
      <trkpt lat="47.24277" lon="4.95974">
        <ele>410.45422363281</ele>
        <time>2018-06-26T09:28:09+0200</time>
      </trkpt>
      <trkpt lat="47.24277" lon="4.95967">
        <ele>410.54428100586</ele>
        <time>2018-06-26T09:28:12+0200</time>
      </trkpt>
      <trkpt lat="47.24277" lon="4.95961">
        <ele>410.5426940918</ele>
        <time>2018-06-26T09:28:15+0200</time>
      </trkpt>
      <trkpt lat="47.24277" lon="4.95959">
        <ele>410.47567749023</ele>
        <time>2018-06-26T09:28:18+0200</time>
      </trkpt>
      <trkpt lat="47.24278" lon="4.95959">
        <ele>410.34515380859</ele>
        <time>2018-06-26T09:28:21+0200</time>
      </trkpt>
      <trkpt lat="47.24278" lon="4.95959">
        <ele>410.32321166992</ele>
        <time>2018-06-26T09:28:24+0200</time>
      </trkpt>
      <trkpt lat="47.24278" lon="4.95959">
        <ele>410.43942260742</ele>
        <time>2018-06-26T09:28:27+0200</time>
      </trkpt>
      <trkpt lat="47.24277" lon="4.95958">
        <ele>410.7502746582</ele>
        <time>2018-06-26T09:28:30+0200</time>
      </trkpt>
      <trkpt lat="47.24275" lon="4.95952">
        <ele>411.14086914062</ele>
        <time>2018-06-26T09:28:33+0200</time>
      </trkpt>
      <trkpt lat="47.24275" lon="4.95948">
        <ele>411.41638183594</ele>
        <time>2018-06-26T09:28:36+0200</time>
      </trkpt>
      <trkpt lat="47.24274" lon="4.95945">
        <ele>411.67367553711</ele>
        <time>2018-06-26T09:28:39+0200</time>
      </trkpt>
      <trkpt lat="47.24273" lon="4.9594">
        <ele>411.93243408203</ele>
        <time>2018-06-26T09:28:42+0200</time>
      </trkpt>
      <trkpt lat="47.24273" lon="4.95936">
        <ele>412.13919067383</ele>
        <time>2018-06-26T09:28:45+0200</time>
      </trkpt>
      <trkpt lat="47.24272" lon="4.95935">
        <ele>412.39471435547</ele>
        <time>2018-06-26T09:28:48+0200</time>
      </trkpt>
      <trkpt lat="47.24271" lon="4.95931">
        <ele>412.70172119141</ele>
        <time>2018-06-26T09:28:51+0200</time>
      </trkpt>
      <trkpt lat="47.24271" lon="4.95929">
        <ele>413.01931762695</ele>
        <time>2018-06-26T09:28:54+0200</time>
      </trkpt>
      <trkpt lat="47.24271" lon="4.95928">
        <ele>413.34741210938</ele>
        <time>2018-06-26T09:28:57+0200</time>
      </trkpt>
      <trkpt lat="47.24271" lon="4.95926">
        <ele>413.76623535156</ele>
        <time>2018-06-26T09:29:00+0200</time>
      </trkpt>
      <trkpt lat="47.24271" lon="4.95922">
        <ele>414.24179077148</ele>
        <time>2018-06-26T09:29:03+0200</time>
      </trkpt>
      <trkpt lat="47.2427" lon="4.95921">
        <ele>414.67681884766</ele>
        <time>2018-06-26T09:29:06+0200</time>
      </trkpt>
      <trkpt lat="47.2427" lon="4.95917">
        <ele>415.06970214844</ele>
        <time>2018-06-26T09:29:09+0200</time>
      </trkpt>
      <trkpt lat="47.2427" lon="4.95912">
        <ele>415.44876098633</ele>
        <time>2018-06-26T09:29:12+0200</time>
      </trkpt>
      <trkpt lat="47.24269" lon="4.95908">
        <ele>415.82452392578</ele>
        <time>2018-06-26T09:29:15+0200</time>
      </trkpt>
      <trkpt lat="47.24269" lon="4.95904">
        <ele>416.01718139648</ele>
        <time>2018-06-26T09:29:18+0200</time>
      </trkpt>
      <trkpt lat="47.24268" lon="4.95903">
        <ele>416.18716430664</ele>
        <time>2018-06-26T09:29:21+0200</time>
      </trkpt>
      <trkpt lat="47.24268" lon="4.95903">
        <ele>416.31634521484</ele>
        <time>2018-06-26T09:29:24+0200</time>
      </trkpt>
      <trkpt lat="47.24267" lon="4.95896">
        <ele>416.52264404297</ele>
        <time>2018-06-26T09:29:27+0200</time>
      </trkpt>
      <trkpt lat="47.24266" lon="4.95892">
        <ele>416.58630371094</ele>
        <time>2018-06-26T09:29:30+0200</time>
      </trkpt>
      <trkpt lat="47.24265" lon="4.95889">
        <ele>416.67074584961</ele>
        <time>2018-06-26T09:29:33+0200</time>
      </trkpt>
      <trkpt lat="47.24264" lon="4.95886">
        <ele>416.81796264648</ele>
        <time>2018-06-26T09:29:36+0200</time>
      </trkpt>
      <trkpt lat="47.24264" lon="4.95881">
        <ele>417.00506591797</ele>
        <time>2018-06-26T09:29:39+0200</time>
      </trkpt>
      <trkpt lat="47.24264" lon="4.95878">
        <ele>417.22082519531</ele>
        <time>2018-06-26T09:29:42+0200</time>
      </trkpt>
      <trkpt lat="47.24265" lon="4.95876">
        <ele>417.38690185547</ele>
        <time>2018-06-26T09:29:45+0200</time>
      </trkpt>
      <trkpt lat="47.24265" lon="4.95874">
        <ele>417.66198730469</ele>
        <time>2018-06-26T09:29:48+0200</time>
      </trkpt>
      <trkpt lat="47.24265" lon="4.95872">
        <ele>418.01077270508</ele>
        <time>2018-06-26T09:29:51+0200</time>
      </trkpt>
      <trkpt lat="47.24265" lon="4.9587">
        <ele>418.40512084961</ele>
        <time>2018-06-26T09:29:54+0200</time>
      </trkpt>
      <trkpt lat="47.24263" lon="4.95869">
        <ele>418.85940551758</ele>
        <time>2018-06-26T09:29:57+0200</time>
      </trkpt>
      <trkpt lat="47.24263" lon="4.95867">
        <ele>419.36608886719</ele>
        <time>2018-06-26T09:30:00+0200</time>
      </trkpt>
      <trkpt lat="47.24262" lon="4.95863">
        <ele>419.82730102539</ele>
        <time>2018-06-26T09:30:03+0200</time>
      </trkpt>
      <trkpt lat="47.24261" lon="4.95857">
        <ele>420.17440795898</ele>
        <time>2018-06-26T09:30:06+0200</time>
      </trkpt>
      <trkpt lat="47.24261" lon="4.95854">
        <ele>420.43716430664</ele>
        <time>2018-06-26T09:30:09+0200</time>
      </trkpt>
      <trkpt lat="47.2426" lon="4.95849">
        <ele>420.63775634766</ele>
        <time>2018-06-26T09:30:12+0200</time>
      </trkpt>
      <trkpt lat="47.2426" lon="4.9585">
        <ele>420.99838256836</ele>
        <time>2018-06-26T09:30:15+0200</time>
      </trkpt>
      <trkpt lat="47.24259" lon="4.95847">
        <ele>421.39672851562</ele>
        <time>2018-06-26T09:30:18+0200</time>
      </trkpt>
      <trkpt lat="47.24259" lon="4.95843">
        <ele>421.76968383789</ele>
        <time>2018-06-26T09:30:21+0200</time>
      </trkpt>
      <trkpt lat="47.24259" lon="4.9584">
        <ele>422.13278198242</ele>
        <time>2018-06-26T09:30:24+0200</time>
      </trkpt>
      <trkpt lat="47.24258" lon="4.95838">
        <ele>422.50665283203</ele>
        <time>2018-06-26T09:30:27+0200</time>
      </trkpt>
      <trkpt lat="47.24258" lon="4.95833">
        <ele>422.86117553711</ele>
        <time>2018-06-26T09:30:30+0200</time>
      </trkpt>
      <trkpt lat="47.24258" lon="4.9583">
        <ele>423.17861938477</ele>
        <time>2018-06-26T09:30:33+0200</time>
      </trkpt>
      <trkpt lat="47.24257" lon="4.95829">
        <ele>423.48895263672</ele>
        <time>2018-06-26T09:30:36+0200</time>
      </trkpt>
      <trkpt lat="47.24257" lon="4.95826">
        <ele>423.81451416016</ele>
        <time>2018-06-26T09:30:39+0200</time>
      </trkpt>
      <trkpt lat="47.24257" lon="4.95824">
        <ele>424.12222290039</ele>
        <time>2018-06-26T09:30:42+0200</time>
      </trkpt>
      <trkpt lat="47.24257" lon="4.9582">
        <ele>424.42599487305</ele>
        <time>2018-06-26T09:30:45+0200</time>
      </trkpt>
      <trkpt lat="47.24257" lon="4.95817">
        <ele>424.72552490234</ele>
        <time>2018-06-26T09:30:48+0200</time>
      </trkpt>
      <trkpt lat="47.24258" lon="4.95814">
        <ele>425.03961181641</ele>
        <time>2018-06-26T09:30:51+0200</time>
      </trkpt>
      <trkpt lat="47.24258" lon="4.95811">
        <ele>425.38873291016</ele>
        <time>2018-06-26T09:30:54+0200</time>
      </trkpt>
      <trkpt lat="47.24258" lon="4.95808">
        <ele>425.76745605469</ele>
        <time>2018-06-26T09:30:57+0200</time>
      </trkpt>
      <trkpt lat="47.24259" lon="4.95805">
        <ele>426.14477539062</ele>
        <time>2018-06-26T09:31:00+0200</time>
      </trkpt>
      <trkpt lat="47.24259" lon="4.95802">
        <ele>426.53247070312</ele>
        <time>2018-06-26T09:31:03+0200</time>
      </trkpt>
      <trkpt lat="47.2426" lon="4.95799">
        <ele>426.91696166992</ele>
        <time>2018-06-26T09:31:06+0200</time>
      </trkpt>
      <trkpt lat="47.2426" lon="4.95796">
        <ele>427.29479980469</ele>
        <time>2018-06-26T09:31:09+0200</time>
      </trkpt>
      <trkpt lat="47.24262" lon="4.95794">
        <ele>427.70166015625</ele>
        <time>2018-06-26T09:31:12+0200</time>
      </trkpt>
      <trkpt lat="47.24263" lon="4.95792">
        <ele>428.15310668945</ele>
        <time>2018-06-26T09:31:15+0200</time>
      </trkpt>
      <trkpt lat="47.24263" lon="4.95789">
        <ele>428.59005737305</ele>
        <time>2018-06-26T09:31:18+0200</time>
      </trkpt>
      <trkpt lat="47.24263" lon="4.95786">
        <ele>428.99575805664</ele>
        <time>2018-06-26T09:31:21+0200</time>
      </trkpt>
      <trkpt lat="47.24263" lon="4.95783">
        <ele>429.37203979492</ele>
        <time>2018-06-26T09:31:24+0200</time>
      </trkpt>
      <trkpt lat="47.24263" lon="4.95779">
        <ele>429.66625976562</ele>
        <time>2018-06-26T09:31:27+0200</time>
      </trkpt>
      <trkpt lat="47.24263" lon="4.95778">
        <ele>429.98297119141</ele>
        <time>2018-06-26T09:31:30+0200</time>
      </trkpt>
      <trkpt lat="47.24263" lon="4.95774">
        <ele>430.08569335938</ele>
        <time>2018-06-26T09:31:33+0200</time>
      </trkpt>
      <trkpt lat="47.24263" lon="4.95773">
        <ele>430.06518554688</ele>
        <time>2018-06-26T09:31:36+0200</time>
      </trkpt>
      <trkpt lat="47.24262" lon="4.95771">
        <ele>429.91381835938</ele>
        <time>2018-06-26T09:31:39+0200</time>
      </trkpt>
      <trkpt lat="47.24262" lon="4.9577">
        <ele>429.80047607422</ele>
        <time>2018-06-26T09:31:42+0200</time>
      </trkpt>
      <trkpt lat="47.24262" lon="4.9577">
        <ele>429.7805480957</ele>
        <time>2018-06-26T09:31:45+0200</time>
      </trkpt>
      <trkpt lat="47.24263" lon="4.95769">
        <ele>429.74194335938</ele>
        <time>2018-06-26T09:31:48+0200</time>
      </trkpt>
      <trkpt lat="47.24263" lon="4.95769">
        <ele>429.73065185547</ele>
        <time>2018-06-26T09:31:51+0200</time>
      </trkpt>
      <trkpt lat="47.24263" lon="4.95768">
        <ele>429.71530151367</ele>
        <time>2018-06-26T09:31:54+0200</time>
      </trkpt>
      <trkpt lat="47.24263" lon="4.95768">
        <ele>429.70040893555</ele>
        <time>2018-06-26T09:31:57+0200</time>
      </trkpt>
      <trkpt lat="47.24263" lon="4.95768">
        <ele>429.68798828125</ele>
        <time>2018-06-26T09:32:00+0200</time>
      </trkpt>
      <trkpt lat="47.24264" lon="4.95767">
        <ele>429.68008422852</ele>
        <time>2018-06-26T09:32:03+0200</time>
      </trkpt>
      <trkpt lat="47.24264" lon="4.95767">
        <ele>429.67095947266</ele>
        <time>2018-06-26T09:32:06+0200</time>
      </trkpt>
      <trkpt lat="47.24264" lon="4.95767">
        <ele>429.6506652832</ele>
        <time>2018-06-26T09:32:09+0200</time>
      </trkpt>
      <trkpt lat="47.24264" lon="4.95767">
        <ele>429.62838745117</ele>
        <time>2018-06-26T09:32:12+0200</time>
      </trkpt>
      <trkpt lat="47.24265" lon="4.95767">
        <ele>429.61825561523</ele>
        <time>2018-06-26T09:32:15+0200</time>
      </trkpt>
      <trkpt lat="47.24265" lon="4.95767">
        <ele>429.6155090332</ele>
        <time>2018-06-26T09:32:18+0200</time>
      </trkpt>
      <trkpt lat="47.24265" lon="4.95767">
        <ele>429.61471557617</ele>
        <time>2018-06-26T09:32:21+0200</time>
      </trkpt>
      <trkpt lat="47.24265" lon="4.95767">
        <ele>429.61264038086</ele>
        <time>2018-06-26T09:32:24+0200</time>
      </trkpt>
      <trkpt lat="47.24265" lon="4.95767">
        <ele>429.61492919922</ele>
        <time>2018-06-26T09:32:27+0200</time>
      </trkpt>
      <trkpt lat="47.24266" lon="4.95767">
        <ele>429.61660766602</ele>
        <time>2018-06-26T09:32:30+0200</time>
      </trkpt>
      <trkpt lat="47.24266" lon="4.95766">
        <ele>429.65158081055</ele>
        <time>2018-06-26T09:32:33+0200</time>
      </trkpt>
      <trkpt lat="47.24266" lon="4.95766">
        <ele>429.64926147461</ele>
        <time>2018-06-26T09:32:36+0200</time>
      </trkpt>
      <trkpt lat="47.24266" lon="4.95766">
        <ele>429.64624023438</ele>
        <time>2018-06-26T09:32:39+0200</time>
      </trkpt>
      <trkpt lat="47.24266" lon="4.95766">
        <ele>429.65051269531</ele>
        <time>2018-06-26T09:32:42+0200</time>
      </trkpt>
      <trkpt lat="47.24266" lon="4.95766">
        <ele>429.66088867188</ele>
        <time>2018-06-26T09:32:45+0200</time>
      </trkpt>
      <trkpt lat="47.24266" lon="4.95766">
        <ele>429.66775512695</ele>
        <time>2018-06-26T09:32:48+0200</time>
      </trkpt>
      <trkpt lat="47.24266" lon="4.95765">
        <ele>429.6696472168</ele>
        <time>2018-06-26T09:32:51+0200</time>
      </trkpt>
      <trkpt lat="47.24266" lon="4.95765">
        <ele>429.66754150391</ele>
        <time>2018-06-26T09:32:54+0200</time>
      </trkpt>
      <trkpt lat="47.24267" lon="4.95765">
        <ele>429.66989135742</ele>
        <time>2018-06-26T09:32:57+0200</time>
      </trkpt>
      <trkpt lat="47.24267" lon="4.95765">
        <ele>429.67980957031</ele>
        <time>2018-06-26T09:33:00+0200</time>
      </trkpt>
      <trkpt lat="47.24267" lon="4.95765">
        <ele>429.69924926758</ele>
        <time>2018-06-26T09:33:03+0200</time>
      </trkpt>
      <trkpt lat="47.24267" lon="4.95764">
        <ele>429.72164916992</ele>
        <time>2018-06-26T09:33:06+0200</time>
      </trkpt>
      <trkpt lat="47.24267" lon="4.95764">
        <ele>429.74432373047</ele>
        <time>2018-06-26T09:33:09+0200</time>
      </trkpt>
      <trkpt lat="47.24267" lon="4.95764">
        <ele>429.76693725586</ele>
        <time>2018-06-26T09:33:12+0200</time>
      </trkpt>
      <trkpt lat="47.24267" lon="4.95764">
        <ele>429.79772949219</ele>
        <time>2018-06-26T09:33:15+0200</time>
      </trkpt>
      <trkpt lat="47.24267" lon="4.95764">
        <ele>429.82632446289</ele>
        <time>2018-06-26T09:33:18+0200</time>
      </trkpt>
      <trkpt lat="47.24267" lon="4.95764">
        <ele>429.84777832031</ele>
        <time>2018-06-26T09:33:21+0200</time>
      </trkpt>
      <trkpt lat="47.24267" lon="4.95764">
        <ele>429.86032104492</ele>
        <time>2018-06-26T09:33:24+0200</time>
      </trkpt>
      <trkpt lat="47.24267" lon="4.95764">
        <ele>429.86947631836</ele>
        <time>2018-06-26T09:33:27+0200</time>
      </trkpt>
      <trkpt lat="47.24267" lon="4.95764">
        <ele>429.87463378906</ele>
        <time>2018-06-26T09:33:30+0200</time>
      </trkpt>
      <trkpt lat="47.24267" lon="4.95764">
        <ele>429.8727722168</ele>
        <time>2018-06-26T09:33:33+0200</time>
      </trkpt>
      <trkpt lat="47.24267" lon="4.95764">
        <ele>429.87023925781</ele>
        <time>2018-06-26T09:33:36+0200</time>
      </trkpt>
      <trkpt lat="47.24267" lon="4.95764">
        <ele>429.86614990234</ele>
        <time>2018-06-26T09:33:39+0200</time>
      </trkpt>
      <trkpt lat="47.24267" lon="4.95764">
        <ele>429.85702514648</ele>
        <time>2018-06-26T09:33:42+0200</time>
      </trkpt>
      <trkpt lat="47.24267" lon="4.95764">
        <ele>429.83975219727</ele>
        <time>2018-06-26T09:33:45+0200</time>
      </trkpt>
      <trkpt lat="47.24267" lon="4.95764">
        <ele>429.81671142578</ele>
        <time>2018-06-26T09:33:48+0200</time>
      </trkpt>
      <trkpt lat="47.24267" lon="4.95764">
        <ele>429.80615234375</ele>
        <time>2018-06-26T09:33:51+0200</time>
      </trkpt>
      <trkpt lat="47.24267" lon="4.95764">
        <ele>429.80099487305</ele>
        <time>2018-06-26T09:33:54+0200</time>
      </trkpt>
      <trkpt lat="47.24267" lon="4.95764">
        <ele>429.79840087891</ele>
        <time>2018-06-26T09:33:57+0200</time>
      </trkpt>
      <trkpt lat="47.24267" lon="4.95764">
        <ele>429.79528808594</ele>
        <time>2018-06-26T09:34:00+0200</time>
      </trkpt>
      <trkpt lat="47.24267" lon="4.95765">
        <ele>429.79684448242</ele>
        <time>2018-06-26T09:34:03+0200</time>
      </trkpt>
      <trkpt lat="47.24267" lon="4.95765">
        <ele>429.79440307617</ele>
        <time>2018-06-26T09:34:06+0200</time>
      </trkpt>
      <trkpt lat="47.24267" lon="4.95765">
        <ele>429.78750610352</ele>
        <time>2018-06-26T09:34:09+0200</time>
      </trkpt>
      <trkpt lat="47.24267" lon="4.95765">
        <ele>429.78063964844</ele>
        <time>2018-06-26T09:34:12+0200</time>
      </trkpt>
      <trkpt lat="47.24267" lon="4.95766">
        <ele>429.77905273438</ele>
        <time>2018-06-26T09:34:15+0200</time>
      </trkpt>
      <trkpt lat="47.24267" lon="4.95766">
        <ele>429.77923583984</ele>
        <time>2018-06-26T09:34:18+0200</time>
      </trkpt>
      <trkpt lat="47.24268" lon="4.95766">
        <ele>429.77755737305</ele>
        <time>2018-06-26T09:34:21+0200</time>
      </trkpt>
      <trkpt lat="47.24267" lon="4.95766">
        <ele>429.77438354492</ele>
        <time>2018-06-26T09:34:24+0200</time>
      </trkpt>
      <trkpt lat="47.24267" lon="4.95765">
        <ele>429.77282714844</ele>
        <time>2018-06-26T09:34:27+0200</time>
      </trkpt>
      <trkpt lat="47.24267" lon="4.95765">
        <ele>429.77905273438</ele>
        <time>2018-06-26T09:34:30+0200</time>
      </trkpt>
      <trkpt lat="47.24267" lon="4.95765">
        <ele>429.79357910156</ele>
        <time>2018-06-26T09:34:33+0200</time>
      </trkpt>
      <trkpt lat="47.24267" lon="4.95765">
        <ele>429.80386352539</ele>
        <time>2018-06-26T09:34:36+0200</time>
      </trkpt>
      <trkpt lat="47.24267" lon="4.95765">
        <ele>429.81176757812</ele>
        <time>2018-06-26T09:34:39+0200</time>
      </trkpt>
      <trkpt lat="47.24267" lon="4.95765">
        <ele>429.8059387207</ele>
        <time>2018-06-26T09:34:42+0200</time>
      </trkpt>
      <trkpt lat="47.24267" lon="4.95765">
        <ele>429.76321411133</ele>
        <time>2018-06-26T09:34:45+0200</time>
      </trkpt>
      <trkpt lat="47.24266" lon="4.95764">
        <ele>429.71075439453</ele>
        <time>2018-06-26T09:34:48+0200</time>
      </trkpt>
      <trkpt lat="47.24266" lon="4.95762">
        <ele>429.71469116211</ele>
        <time>2018-06-26T09:34:51+0200</time>
      </trkpt>
      <trkpt lat="47.24266" lon="4.9576">
        <ele>429.83612060547</ele>
        <time>2018-06-26T09:34:54+0200</time>
      </trkpt>
      <trkpt lat="47.24267" lon="4.95758">
        <ele>430.07278442383</ele>
        <time>2018-06-26T09:34:57+0200</time>
      </trkpt>
      <trkpt lat="47.24267" lon="4.95756">
        <ele>430.36532592773</ele>
        <time>2018-06-26T09:35:00+0200</time>
      </trkpt>
      <trkpt lat="47.24269" lon="4.95751">
        <ele>430.68719482422</ele>
        <time>2018-06-26T09:35:03+0200</time>
      </trkpt>
      <trkpt lat="47.24269" lon="4.95747">
        <ele>430.92608642578</ele>
        <time>2018-06-26T09:35:06+0200</time>
      </trkpt>
      <trkpt lat="47.2427" lon="4.95742">
        <ele>431.07540893555</ele>
        <time>2018-06-26T09:35:09+0200</time>
      </trkpt>
      <trkpt lat="47.24272" lon="4.9574">
        <ele>431.21212768555</ele>
        <time>2018-06-26T09:35:12+0200</time>
      </trkpt>
      <trkpt lat="47.24272" lon="4.95738">
        <ele>431.37225341797</ele>
        <time>2018-06-26T09:35:15+0200</time>
      </trkpt>
      <trkpt lat="47.24273" lon="4.95736">
        <ele>431.53549194336</ele>
        <time>2018-06-26T09:35:18+0200</time>
      </trkpt>
      <trkpt lat="47.24273" lon="4.95732">
        <ele>431.66131591797</ele>
        <time>2018-06-26T09:35:21+0200</time>
      </trkpt>
      <trkpt lat="47.24274" lon="4.95729">
        <ele>431.75820922852</ele>
        <time>2018-06-26T09:35:24+0200</time>
      </trkpt>
      <trkpt lat="47.24274" lon="4.95726">
        <ele>431.88198852539</ele>
        <time>2018-06-26T09:35:27+0200</time>
      </trkpt>
      <trkpt lat="47.24275" lon="4.95724">
        <ele>432.0026550293</ele>
        <time>2018-06-26T09:35:30+0200</time>
      </trkpt>
      <trkpt lat="47.24276" lon="4.95721">
        <ele>432.15911865234</ele>
        <time>2018-06-26T09:35:33+0200</time>
      </trkpt>
      <trkpt lat="47.24276" lon="4.9572">
        <ele>432.36505126953</ele>
        <time>2018-06-26T09:35:36+0200</time>
      </trkpt>
      <trkpt lat="47.24277" lon="4.95715">
        <ele>432.60006713867</ele>
        <time>2018-06-26T09:35:39+0200</time>
      </trkpt>
      <trkpt lat="47.24277" lon="4.95713">
        <ele>432.84622192383</ele>
        <time>2018-06-26T09:35:42+0200</time>
      </trkpt>
      <trkpt lat="47.24278" lon="4.9571">
        <ele>433.06585693359</ele>
        <time>2018-06-26T09:35:45+0200</time>
      </trkpt>
      <trkpt lat="47.24279" lon="4.95707">
        <ele>433.30111694336</ele>
        <time>2018-06-26T09:35:48+0200</time>
      </trkpt>
      <trkpt lat="47.24279" lon="4.95704">
        <ele>433.50640869141</ele>
        <time>2018-06-26T09:35:51+0200</time>
      </trkpt>
      <trkpt lat="47.24281" lon="4.95699">
        <ele>433.68698120117</ele>
        <time>2018-06-26T09:35:54+0200</time>
      </trkpt>
      <trkpt lat="47.24281" lon="4.95697">
        <ele>433.86923217773</ele>
        <time>2018-06-26T09:35:57+0200</time>
      </trkpt>
      <trkpt lat="47.24283" lon="4.95694">
        <ele>434.10626220703</ele>
        <time>2018-06-26T09:36:00+0200</time>
      </trkpt>
      <trkpt lat="47.24285" lon="4.9569">
        <ele>434.35562133789</ele>
        <time>2018-06-26T09:36:03+0200</time>
      </trkpt>
      <trkpt lat="47.24286" lon="4.95687">
        <ele>434.63967895508</ele>
        <time>2018-06-26T09:36:06+0200</time>
      </trkpt>
      <trkpt lat="47.24286" lon="4.95685">
        <ele>434.94592285156</ele>
        <time>2018-06-26T09:36:09+0200</time>
      </trkpt>
      <trkpt lat="47.24287" lon="4.95681">
        <ele>435.26574707031</ele>
        <time>2018-06-26T09:36:12+0200</time>
      </trkpt>
      <trkpt lat="47.24288" lon="4.95679">
        <ele>435.58435058594</ele>
        <time>2018-06-26T09:36:15+0200</time>
      </trkpt>
      <trkpt lat="47.24289" lon="4.95676">
        <ele>435.91491699219</ele>
        <time>2018-06-26T09:36:18+0200</time>
      </trkpt>
      <trkpt lat="47.2429" lon="4.95673">
        <ele>436.26171875</ele>
        <time>2018-06-26T09:36:21+0200</time>
      </trkpt>
      <trkpt lat="47.2429" lon="4.9567">
        <ele>436.6081237793</ele>
        <time>2018-06-26T09:36:24+0200</time>
      </trkpt>
      <trkpt lat="47.24291" lon="4.95668">
        <ele>436.97958374023</ele>
        <time>2018-06-26T09:36:27+0200</time>
      </trkpt>
      <trkpt lat="47.24292" lon="4.95665">
        <ele>437.35501098633</ele>
        <time>2018-06-26T09:36:30+0200</time>
      </trkpt>
      <trkpt lat="47.24295" lon="4.95662">
        <ele>437.69830322266</ele>
        <time>2018-06-26T09:36:33+0200</time>
      </trkpt>
      <trkpt lat="47.24297" lon="4.95659">
        <ele>438.05303955078</ele>
        <time>2018-06-26T09:36:36+0200</time>
      </trkpt>
      <trkpt lat="47.24299" lon="4.95656">
        <ele>438.41156005859</ele>
        <time>2018-06-26T09:36:39+0200</time>
      </trkpt>
      <trkpt lat="47.243" lon="4.95652">
        <ele>438.7541809082</ele>
        <time>2018-06-26T09:36:42+0200</time>
      </trkpt>
      <trkpt lat="47.24301" lon="4.95649">
        <ele>439.04898071289</ele>
        <time>2018-06-26T09:36:45+0200</time>
      </trkpt>
      <trkpt lat="47.24302" lon="4.95647">
        <ele>439.35510253906</ele>
        <time>2018-06-26T09:36:48+0200</time>
      </trkpt>
      <trkpt lat="47.24304" lon="4.95645">
        <ele>439.65075683594</ele>
        <time>2018-06-26T09:36:51+0200</time>
      </trkpt>
      <trkpt lat="47.24306" lon="4.95642">
        <ele>439.89981079102</ele>
        <time>2018-06-26T09:36:54+0200</time>
      </trkpt>
      <trkpt lat="47.24309" lon="4.95639">
        <ele>440.13107299805</ele>
        <time>2018-06-26T09:36:57+0200</time>
      </trkpt>
      <trkpt lat="47.2431" lon="4.95638">
        <ele>440.33349609375</ele>
        <time>2018-06-26T09:37:00+0200</time>
      </trkpt>
      <trkpt lat="47.24313" lon="4.95636">
        <ele>440.5485534668</ele>
        <time>2018-06-26T09:37:03+0200</time>
      </trkpt>
      <trkpt lat="47.24314" lon="4.95634">
        <ele>440.77117919922</ele>
        <time>2018-06-26T09:37:06+0200</time>
      </trkpt>
      <trkpt lat="47.24316" lon="4.95631">
        <ele>441.00942993164</ele>
        <time>2018-06-26T09:37:09+0200</time>
      </trkpt>
      <trkpt lat="47.24317" lon="4.95629">
        <ele>441.25741577148</ele>
        <time>2018-06-26T09:37:12+0200</time>
      </trkpt>
      <trkpt lat="47.24321" lon="4.95627">
        <ele>441.5</ele>
        <time>2018-06-26T09:37:15+0200</time>
      </trkpt>
      <trkpt lat="47.24323" lon="4.95624">
        <ele>441.69827270508</ele>
        <time>2018-06-26T09:37:18+0200</time>
      </trkpt>
      <trkpt lat="47.24324" lon="4.95621">
        <ele>441.86666870117</ele>
        <time>2018-06-26T09:37:21+0200</time>
      </trkpt>
      <trkpt lat="47.24327" lon="4.9562">
        <ele>442.00466918945</ele>
        <time>2018-06-26T09:37:23+0200</time>
      </trkpt>
      <trkpt lat="47.24328" lon="4.95619">
        <ele>442.14529418945</ele>
        <time>2018-06-26T09:37:26+0200</time>
      </trkpt>
      <trkpt lat="47.24329" lon="4.95618">
        <ele>442.33166503906</ele>
        <time>2018-06-26T09:37:29+0200</time>
      </trkpt>
      <trkpt lat="47.24331" lon="4.95616">
        <ele>442.55999755859</ele>
        <time>2018-06-26T09:37:32+0200</time>
      </trkpt>
      <trkpt lat="47.24332" lon="4.95614">
        <ele>442.83682250977</ele>
        <time>2018-06-26T09:37:35+0200</time>
      </trkpt>
      <trkpt lat="47.24334" lon="4.95611">
        <ele>443.10238647461</ele>
        <time>2018-06-26T09:37:38+0200</time>
      </trkpt>
      <trkpt lat="47.24336" lon="4.95609">
        <ele>443.33682250977</ele>
        <time>2018-06-26T09:37:41+0200</time>
      </trkpt>
      <trkpt lat="47.24338" lon="4.95606">
        <ele>443.58569335938</ele>
        <time>2018-06-26T09:37:44+0200</time>
      </trkpt>
      <trkpt lat="47.2434" lon="4.95603">
        <ele>443.86499023438</ele>
        <time>2018-06-26T09:37:47+0200</time>
      </trkpt>
      <trkpt lat="47.24342" lon="4.95601">
        <ele>444.15289306641</ele>
        <time>2018-06-26T09:37:50+0200</time>
      </trkpt>
      <trkpt lat="47.24344" lon="4.95598">
        <ele>444.44845581055</ele>
        <time>2018-06-26T09:37:53+0200</time>
      </trkpt>
      <trkpt lat="47.24346" lon="4.95595">
        <ele>444.75897216797</ele>
        <time>2018-06-26T09:37:56+0200</time>
      </trkpt>
      <trkpt lat="47.24348" lon="4.95592">
        <ele>445.11126708984</ele>
        <time>2018-06-26T09:37:59+0200</time>
      </trkpt>
      <trkpt lat="47.24351" lon="4.95589">
        <ele>445.46697998047</ele>
        <time>2018-06-26T09:38:02+0200</time>
      </trkpt>
      <trkpt lat="47.24353" lon="4.95585">
        <ele>445.81573486328</ele>
        <time>2018-06-26T09:38:05+0200</time>
      </trkpt>
      <trkpt lat="47.24355" lon="4.95581">
        <ele>446.11541748047</ele>
        <time>2018-06-26T09:38:08+0200</time>
      </trkpt>
      <trkpt lat="47.24356" lon="4.95577">
        <ele>446.41827392578</ele>
        <time>2018-06-26T09:38:11+0200</time>
      </trkpt>
      <trkpt lat="47.24358" lon="4.95574">
        <ele>446.74905395508</ele>
        <time>2018-06-26T09:38:14+0200</time>
      </trkpt>
      <trkpt lat="47.24359" lon="4.9557">
        <ele>447.0764465332</ele>
        <time>2018-06-26T09:38:17+0200</time>
      </trkpt>
      <trkpt lat="47.24361" lon="4.95566">
        <ele>447.40414428711</ele>
        <time>2018-06-26T09:38:20+0200</time>
      </trkpt>
      <trkpt lat="47.24362" lon="4.95562">
        <ele>447.67959594727</ele>
        <time>2018-06-26T09:38:23+0200</time>
      </trkpt>
      <trkpt lat="47.24363" lon="4.95557">
        <ele>447.89495849609</ele>
        <time>2018-06-26T09:38:26+0200</time>
      </trkpt>
      <trkpt lat="47.24364" lon="4.95554">
        <ele>448.07827758789</ele>
        <time>2018-06-26T09:38:29+0200</time>
      </trkpt>
      <trkpt lat="47.24365" lon="4.9555">
        <ele>448.27066040039</ele>
        <time>2018-06-26T09:38:32+0200</time>
      </trkpt>
      <trkpt lat="47.24366" lon="4.95547">
        <ele>448.48684692383</ele>
        <time>2018-06-26T09:38:35+0200</time>
      </trkpt>
      <trkpt lat="47.24366" lon="4.95543">
        <ele>448.7360534668</ele>
        <time>2018-06-26T09:38:38+0200</time>
      </trkpt>
      <trkpt lat="47.24366" lon="4.95538">
        <ele>449.00561523438</ele>
        <time>2018-06-26T09:38:41+0200</time>
      </trkpt>
      <trkpt lat="47.24367" lon="4.95535">
        <ele>449.28341674805</ele>
        <time>2018-06-26T09:38:44+0200</time>
      </trkpt>
      <trkpt lat="47.24368" lon="4.95532">
        <ele>449.55444335938</ele>
        <time>2018-06-26T09:38:47+0200</time>
      </trkpt>
      <trkpt lat="47.24369" lon="4.95528">
        <ele>449.84631347656</ele>
        <time>2018-06-26T09:38:50+0200</time>
      </trkpt>
      <trkpt lat="47.2437" lon="4.95525">
        <ele>450.16732788086</ele>
        <time>2018-06-26T09:38:53+0200</time>
      </trkpt>
      <trkpt lat="47.2437" lon="4.95523">
        <ele>450.52423095703</ele>
        <time>2018-06-26T09:38:56+0200</time>
      </trkpt>
      <trkpt lat="47.2437" lon="4.95521">
        <ele>450.92056274414</ele>
        <time>2018-06-26T09:38:59+0200</time>
      </trkpt>
      <trkpt lat="47.24371" lon="4.95515">
        <ele>451.26538085938</ele>
        <time>2018-06-26T09:39:02+0200</time>
      </trkpt>
      <trkpt lat="47.24372" lon="4.95509">
        <ele>451.47152709961</ele>
        <time>2018-06-26T09:39:05+0200</time>
      </trkpt>
      <trkpt lat="47.24373" lon="4.95503">
        <ele>451.56448364258</ele>
        <time>2018-06-26T09:39:08+0200</time>
      </trkpt>
      <trkpt lat="47.24373" lon="4.95501">
        <ele>451.61483764648</ele>
        <time>2018-06-26T09:39:11+0200</time>
      </trkpt>
      <trkpt lat="47.24374" lon="4.95498">
        <ele>451.66979980469</ele>
        <time>2018-06-26T09:39:14+0200</time>
      </trkpt>
      <trkpt lat="47.24375" lon="4.95494">
        <ele>451.74114990234</ele>
        <time>2018-06-26T09:39:17+0200</time>
      </trkpt>
      <trkpt lat="47.24377" lon="4.9549">
        <ele>451.83419799805</ele>
        <time>2018-06-26T09:39:20+0200</time>
      </trkpt>
      <trkpt lat="47.24378" lon="4.95487">
        <ele>451.90997314453</ele>
        <time>2018-06-26T09:39:23+0200</time>
      </trkpt>
      <trkpt lat="47.24379" lon="4.95482">
        <ele>452.00830078125</ele>
        <time>2018-06-26T09:39:26+0200</time>
      </trkpt>
      <trkpt lat="47.24379" lon="4.95479">
        <ele>452.10565185547</ele>
        <time>2018-06-26T09:39:29+0200</time>
      </trkpt>
      <trkpt lat="47.24379" lon="4.95476">
        <ele>452.22784423828</ele>
        <time>2018-06-26T09:39:32+0200</time>
      </trkpt>
      <trkpt lat="47.24379" lon="4.95472">
        <ele>452.37561035156</ele>
        <time>2018-06-26T09:39:35+0200</time>
      </trkpt>
      <trkpt lat="47.2438" lon="4.95469">
        <ele>452.51400756836</ele>
        <time>2018-06-26T09:39:38+0200</time>
      </trkpt>
      <trkpt lat="47.24381" lon="4.95466">
        <ele>452.67303466797</ele>
        <time>2018-06-26T09:39:41+0200</time>
      </trkpt>
      <trkpt lat="47.24381" lon="4.95462">
        <ele>452.79699707031</ele>
        <time>2018-06-26T09:39:44+0200</time>
      </trkpt>
      <trkpt lat="47.24383" lon="4.95458">
        <ele>452.88311767578</ele>
        <time>2018-06-26T09:39:47+0200</time>
      </trkpt>
      <trkpt lat="47.24384" lon="4.95455">
        <ele>453.00552368164</ele>
        <time>2018-06-26T09:39:50+0200</time>
      </trkpt>
      <trkpt lat="47.24386" lon="4.95452">
        <ele>453.17666625977</ele>
        <time>2018-06-26T09:39:53+0200</time>
      </trkpt>
      <trkpt lat="47.24387" lon="4.95448">
        <ele>453.36544799805</ele>
        <time>2018-06-26T09:39:56+0200</time>
      </trkpt>
      <trkpt lat="47.24389" lon="4.95445">
        <ele>453.56072998047</ele>
        <time>2018-06-26T09:39:59+0200</time>
      </trkpt>
      <trkpt lat="47.2439" lon="4.95441">
        <ele>453.78375244141</ele>
        <time>2018-06-26T09:40:02+0200</time>
      </trkpt>
      <trkpt lat="47.24392" lon="4.95438">
        <ele>454.02349853516</ele>
        <time>2018-06-26T09:40:05+0200</time>
      </trkpt>
      <trkpt lat="47.24394" lon="4.95435">
        <ele>454.27856445312</ele>
        <time>2018-06-26T09:40:08+0200</time>
      </trkpt>
      <trkpt lat="47.24396" lon="4.95431">
        <ele>454.54788208008</ele>
        <time>2018-06-26T09:40:11+0200</time>
      </trkpt>
      <trkpt lat="47.24398" lon="4.95428">
        <ele>454.78588867188</ele>
        <time>2018-06-26T09:40:14+0200</time>
      </trkpt>
      <trkpt lat="47.24399" lon="4.95426">
        <ele>455.03909301758</ele>
        <time>2018-06-26T09:40:17+0200</time>
      </trkpt>
      <trkpt lat="47.24401" lon="4.95422">
        <ele>455.29556274414</ele>
        <time>2018-06-26T09:40:20+0200</time>
      </trkpt>
      <trkpt lat="47.24402" lon="4.95419">
        <ele>455.57525634766</ele>
        <time>2018-06-26T09:40:23+0200</time>
      </trkpt>
      <trkpt lat="47.24402" lon="4.95416">
        <ele>455.87475585938</ele>
        <time>2018-06-26T09:40:26+0200</time>
      </trkpt>
      <trkpt lat="47.24404" lon="4.95412">
        <ele>456.11422729492</ele>
        <time>2018-06-26T09:40:29+0200</time>
      </trkpt>
      <trkpt lat="47.24405" lon="4.95408">
        <ele>456.33364868164</ele>
        <time>2018-06-26T09:40:32+0200</time>
      </trkpt>
      <trkpt lat="47.24405" lon="4.95405">
        <ele>456.62359619141</ele>
        <time>2018-06-26T09:40:35+0200</time>
      </trkpt>
      <trkpt lat="47.24407" lon="4.95403">
        <ele>456.88793945312</ele>
        <time>2018-06-26T09:40:38+0200</time>
      </trkpt>
      <trkpt lat="47.24409" lon="4.95397">
        <ele>457.1012878418</ele>
        <time>2018-06-26T09:40:41+0200</time>
      </trkpt>
      <trkpt lat="47.2441" lon="4.95392">
        <ele>457.28033447266</ele>
        <time>2018-06-26T09:40:44+0200</time>
      </trkpt>
      <trkpt lat="47.24411" lon="4.9539">
        <ele>457.4143371582</ele>
        <time>2018-06-26T09:40:47+0200</time>
      </trkpt>
      <trkpt lat="47.24411" lon="4.95387">
        <ele>457.51953125</ele>
        <time>2018-06-26T09:40:50+0200</time>
      </trkpt>
      <trkpt lat="47.24413" lon="4.95382">
        <ele>457.68002319336</ele>
        <time>2018-06-26T09:40:53+0200</time>
      </trkpt>
      <trkpt lat="47.24413" lon="4.95377">
        <ele>457.81884765625</ele>
        <time>2018-06-26T09:40:56+0200</time>
      </trkpt>
      <trkpt lat="47.24415" lon="4.95374">
        <ele>457.90573120117</ele>
        <time>2018-06-26T09:40:59+0200</time>
      </trkpt>
      <trkpt lat="47.24416" lon="4.95372">
        <ele>458.01672363281</ele>
        <time>2018-06-26T09:41:02+0200</time>
      </trkpt>
      <trkpt lat="47.24417" lon="4.9537">
        <ele>458.10327148438</ele>
        <time>2018-06-26T09:41:05+0200</time>
      </trkpt>
      <trkpt lat="47.24418" lon="4.9536">
        <ele>458.26141357422</ele>
        <time>2018-06-26T09:41:08+0200</time>
      </trkpt>
      <trkpt lat="47.24418" lon="4.9536">
        <ele>458.34335327148</ele>
        <time>2018-06-26T09:41:11+0200</time>
      </trkpt>
      <trkpt lat="47.2442" lon="4.95356">
        <ele>458.38516235352</ele>
        <time>2018-06-26T09:41:14+0200</time>
      </trkpt>
      <trkpt lat="47.24422" lon="4.95354">
        <ele>458.43585205078</ele>
        <time>2018-06-26T09:41:17+0200</time>
      </trkpt>
      <trkpt lat="47.24423" lon="4.95351">
        <ele>458.47192382812</ele>
        <time>2018-06-26T09:41:20+0200</time>
      </trkpt>
      <trkpt lat="47.24422" lon="4.95347">
        <ele>458.57015991211</ele>
        <time>2018-06-26T09:41:23+0200</time>
      </trkpt>
      <trkpt lat="47.24423" lon="4.95345">
        <ele>458.69323730469</ele>
        <time>2018-06-26T09:41:26+0200</time>
      </trkpt>
      <trkpt lat="47.24425" lon="4.95342">
        <ele>458.78472900391</ele>
        <time>2018-06-26T09:41:29+0200</time>
      </trkpt>
      <trkpt lat="47.24427" lon="4.95342">
        <ele>458.92611694336</ele>
        <time>2018-06-26T09:41:32+0200</time>
      </trkpt>
      <trkpt lat="47.24428" lon="4.9534">
        <ele>459.17614746094</ele>
        <time>2018-06-26T09:41:35+0200</time>
      </trkpt>
      <trkpt lat="47.24429" lon="4.95338">
        <ele>459.52377319336</ele>
        <time>2018-06-26T09:41:38+0200</time>
      </trkpt>
      <trkpt lat="47.24429" lon="4.95336">
        <ele>459.94839477539</ele>
        <time>2018-06-26T09:41:41+0200</time>
      </trkpt>
      <trkpt lat="47.24431" lon="4.95337">
        <ele>460.44848632812</ele>
        <time>2018-06-26T09:41:44+0200</time>
      </trkpt>
      <trkpt lat="47.24433" lon="4.95336">
        <ele>460.97760009766</ele>
        <time>2018-06-26T09:41:47+0200</time>
      </trkpt>
      <trkpt lat="47.24436" lon="4.95325">
        <ele>461.41983032227</ele>
        <time>2018-06-26T09:41:50+0200</time>
      </trkpt>
      <trkpt lat="47.24437" lon="4.95321">
        <ele>461.72329711914</ele>
        <time>2018-06-26T09:41:53+0200</time>
      </trkpt>
      <trkpt lat="47.24438" lon="4.95315">
        <ele>461.92135620117</ele>
        <time>2018-06-26T09:41:56+0200</time>
      </trkpt>
      <trkpt lat="47.24439" lon="4.95311">
        <ele>462.06732177734</ele>
        <time>2018-06-26T09:41:59+0200</time>
      </trkpt>
      <trkpt lat="47.24439" lon="4.95309">
        <ele>462.17593383789</ele>
        <time>2018-06-26T09:42:02+0200</time>
      </trkpt>
      <trkpt lat="47.2444" lon="4.95302">
        <ele>462.25869750977</ele>
        <time>2018-06-26T09:42:05+0200</time>
      </trkpt>
      <trkpt lat="47.2444" lon="4.95298">
        <ele>462.30877685547</ele>
        <time>2018-06-26T09:42:08+0200</time>
      </trkpt>
      <trkpt lat="47.24442" lon="4.95297">
        <ele>462.38912963867</ele>
        <time>2018-06-26T09:42:11+0200</time>
      </trkpt>
      <trkpt lat="47.24443" lon="4.953">
        <ele>462.60467529297</ele>
        <time>2018-06-26T09:42:14+0200</time>
      </trkpt>
      <trkpt lat="47.24445" lon="4.95295">
        <ele>462.91513061523</ele>
        <time>2018-06-26T09:42:17+0200</time>
      </trkpt>
      <trkpt lat="47.24447" lon="4.9529">
        <ele>463.35006713867</ele>
        <time>2018-06-26T09:42:20+0200</time>
      </trkpt>
      <trkpt lat="47.24447" lon="4.95284">
        <ele>463.6611328125</ele>
        <time>2018-06-26T09:42:23+0200</time>
      </trkpt>
      <trkpt lat="47.24448" lon="4.95279">
        <ele>463.75698852539</ele>
        <time>2018-06-26T09:42:26+0200</time>
      </trkpt>
      <trkpt lat="47.24447" lon="4.95276">
        <ele>463.80108642578</ele>
        <time>2018-06-26T09:42:29+0200</time>
      </trkpt>
      <trkpt lat="47.24448" lon="4.95275">
        <ele>463.80862426758</ele>
        <time>2018-06-26T09:42:32+0200</time>
      </trkpt>
      <trkpt lat="47.24448" lon="4.95271">
        <ele>463.87493896484</ele>
        <time>2018-06-26T09:42:35+0200</time>
      </trkpt>
      <trkpt lat="47.24449" lon="4.95267">
        <ele>463.97766113281</ele>
        <time>2018-06-26T09:42:38+0200</time>
      </trkpt>
      <trkpt lat="47.2445" lon="4.95258">
        <ele>463.96142578125</ele>
        <time>2018-06-26T09:42:41+0200</time>
      </trkpt>
      <trkpt lat="47.24452" lon="4.95256">
        <ele>463.99340820312</ele>
        <time>2018-06-26T09:42:44+0200</time>
      </trkpt>
      <trkpt lat="47.24453" lon="4.95256">
        <ele>464.15777587891</ele>
        <time>2018-06-26T09:42:47+0200</time>
      </trkpt>
      <trkpt lat="47.24455" lon="4.95252">
        <ele>464.39599609375</ele>
        <time>2018-06-26T09:42:50+0200</time>
      </trkpt>
      <trkpt lat="47.24456" lon="4.95248">
        <ele>464.59350585938</ele>
        <time>2018-06-26T09:42:53+0200</time>
      </trkpt>
      <trkpt lat="47.24458" lon="4.95242">
        <ele>464.81726074219</ele>
        <time>2018-06-26T09:42:56+0200</time>
      </trkpt>
      <trkpt lat="47.24459" lon="4.95239">
        <ele>465.13354492188</ele>
        <time>2018-06-26T09:42:59+0200</time>
      </trkpt>
      <trkpt lat="47.24461" lon="4.95232">
        <ele>465.37603759766</ele>
        <time>2018-06-26T09:43:02+0200</time>
      </trkpt>
      <trkpt lat="47.24461" lon="4.95228">
        <ele>465.55261230469</ele>
        <time>2018-06-26T09:43:05+0200</time>
      </trkpt>
      <trkpt lat="47.24462" lon="4.95225">
        <ele>465.73712158203</ele>
        <time>2018-06-26T09:43:08+0200</time>
      </trkpt>
      <trkpt lat="47.24462" lon="4.95222">
        <ele>465.94171142578</ele>
        <time>2018-06-26T09:43:11+0200</time>
      </trkpt>
      <trkpt lat="47.24463" lon="4.95218">
        <ele>466.20288085938</ele>
        <time>2018-06-26T09:43:14+0200</time>
      </trkpt>
      <trkpt lat="47.24464" lon="4.95215">
        <ele>466.47833251953</ele>
        <time>2018-06-26T09:43:17+0200</time>
      </trkpt>
      <trkpt lat="47.24465" lon="4.95213">
        <ele>466.88500976562</ele>
        <time>2018-06-26T09:43:20+0200</time>
      </trkpt>
      <trkpt lat="47.24467" lon="4.95213">
        <ele>467.46850585938</ele>
        <time>2018-06-26T09:43:23+0200</time>
      </trkpt>
      <trkpt lat="47.24469" lon="4.95212">
        <ele>468.19787597656</ele>
        <time>2018-06-26T09:43:26+0200</time>
      </trkpt>
      <trkpt lat="47.24473" lon="4.95209">
        <ele>468.90020751953</ele>
        <time>2018-06-26T09:43:29+0200</time>
      </trkpt>
      <trkpt lat="47.24475" lon="4.95206">
        <ele>469.51824951172</ele>
        <time>2018-06-26T09:43:32+0200</time>
      </trkpt>
      <trkpt lat="47.24476" lon="4.95204">
        <ele>470.14764404297</ele>
        <time>2018-06-26T09:43:35+0200</time>
      </trkpt>
      <trkpt lat="47.24479" lon="4.95199">
        <ele>470.69604492188</ele>
        <time>2018-06-26T09:43:38+0200</time>
      </trkpt>
      <trkpt lat="47.24481" lon="4.95195">
        <ele>471.17791748047</ele>
        <time>2018-06-26T09:43:41+0200</time>
      </trkpt>
      <trkpt lat="47.24482" lon="4.95192">
        <ele>471.45770263672</ele>
        <time>2018-06-26T09:43:44+0200</time>
      </trkpt>
      <trkpt lat="47.24485" lon="4.95181">
        <ele>471.71240234375</ele>
        <time>2018-06-26T09:43:47+0200</time>
      </trkpt>
      <trkpt lat="47.24485" lon="4.95176">
        <ele>471.67864990234</ele>
        <time>2018-06-26T09:43:50+0200</time>
      </trkpt>
      <trkpt lat="47.24485" lon="4.95173">
        <ele>471.48602294922</ele>
        <time>2018-06-26T09:43:53+0200</time>
      </trkpt>
      <trkpt lat="47.24486" lon="4.95169">
        <ele>471.27575683594</ele>
        <time>2018-06-26T09:43:56+0200</time>
      </trkpt>
      <trkpt lat="47.24486" lon="4.95166">
        <ele>471.20373535156</ele>
        <time>2018-06-26T09:43:59+0200</time>
      </trkpt>
      <trkpt lat="47.24488" lon="4.95164">
        <ele>471.05157470703</ele>
        <time>2018-06-26T09:44:02+0200</time>
      </trkpt>
      <trkpt lat="47.2449" lon="4.95162">
        <ele>470.98822021484</ele>
        <time>2018-06-26T09:44:05+0200</time>
      </trkpt>
      <trkpt lat="47.24492" lon="4.95162">
        <ele>471.076171875</ele>
        <time>2018-06-26T09:44:08+0200</time>
      </trkpt>
      <trkpt lat="47.24494" lon="4.9516">
        <ele>471.25842285156</ele>
        <time>2018-06-26T09:44:11+0200</time>
      </trkpt>
      <trkpt lat="47.24495" lon="4.95158">
        <ele>471.49688720703</ele>
        <time>2018-06-26T09:44:14+0200</time>
      </trkpt>
      <trkpt lat="47.24497" lon="4.95156">
        <ele>471.79779052734</ele>
        <time>2018-06-26T09:44:17+0200</time>
      </trkpt>
      <trkpt lat="47.245" lon="4.95154">
        <ele>472.09185791016</ele>
        <time>2018-06-26T09:44:20+0200</time>
      </trkpt>
      <trkpt lat="47.24503" lon="4.95152">
        <ele>472.45715332031</ele>
        <time>2018-06-26T09:44:23+0200</time>
      </trkpt>
      <trkpt lat="47.24505" lon="4.95147">
        <ele>472.69305419922</ele>
        <time>2018-06-26T09:44:26+0200</time>
      </trkpt>
      <trkpt lat="47.24508" lon="4.95139">
        <ele>472.95355224609</ele>
        <time>2018-06-26T09:44:29+0200</time>
      </trkpt>
      <trkpt lat="47.24508" lon="4.95132">
        <ele>473.05194091797</ele>
        <time>2018-06-26T09:44:32+0200</time>
      </trkpt>
      <trkpt lat="47.24509" lon="4.95127">
        <ele>472.95538330078</ele>
        <time>2018-06-26T09:44:35+0200</time>
      </trkpt>
      <trkpt lat="47.24508" lon="4.95123">
        <ele>472.74865722656</ele>
        <time>2018-06-26T09:44:38+0200</time>
      </trkpt>
      <trkpt lat="47.24509" lon="4.9512">
        <ele>472.55828857422</ele>
        <time>2018-06-26T09:44:41+0200</time>
      </trkpt>
      <trkpt lat="47.24511" lon="4.95118">
        <ele>472.46716308594</ele>
        <time>2018-06-26T09:44:44+0200</time>
      </trkpt>
      <trkpt lat="47.24511" lon="4.95117">
        <ele>472.4697265625</ele>
        <time>2018-06-26T09:44:47+0200</time>
      </trkpt>
      <trkpt lat="47.24513" lon="4.95113">
        <ele>472.53997802734</ele>
        <time>2018-06-26T09:44:50+0200</time>
      </trkpt>
      <trkpt lat="47.24514" lon="4.95113">
        <ele>472.69482421875</ele>
        <time>2018-06-26T09:44:53+0200</time>
      </trkpt>
      <trkpt lat="47.24517" lon="4.95109">
        <ele>472.84600830078</ele>
        <time>2018-06-26T09:44:56+0200</time>
      </trkpt>
      <trkpt lat="47.24519" lon="4.95106">
        <ele>472.97357177734</ele>
        <time>2018-06-26T09:44:59+0200</time>
      </trkpt>
      <trkpt lat="47.2452" lon="4.95099">
        <ele>473.03863525391</ele>
        <time>2018-06-26T09:45:02+0200</time>
      </trkpt>
      <trkpt lat="47.2452" lon="4.95095">
        <ele>473.0732421875</ele>
        <time>2018-06-26T09:45:05+0200</time>
      </trkpt>
      <trkpt lat="47.24521" lon="4.9509">
        <ele>473.11572265625</ele>
        <time>2018-06-26T09:45:08+0200</time>
      </trkpt>
      <trkpt lat="47.24521" lon="4.95088">
        <ele>473.18658447266</ele>
        <time>2018-06-26T09:45:11+0200</time>
      </trkpt>
      <trkpt lat="47.24522" lon="4.95085">
        <ele>473.36810302734</ele>
        <time>2018-06-26T09:45:14+0200</time>
      </trkpt>
      <trkpt lat="47.24521" lon="4.95081">
        <ele>473.54754638672</ele>
        <time>2018-06-26T09:45:17+0200</time>
      </trkpt>
      <trkpt lat="47.24521" lon="4.95078">
        <ele>473.70977783203</ele>
        <time>2018-06-26T09:45:20+0200</time>
      </trkpt>
      <trkpt lat="47.24521" lon="4.95076">
        <ele>473.93969726562</ele>
        <time>2018-06-26T09:45:23+0200</time>
      </trkpt>
      <trkpt lat="47.24522" lon="4.95074">
        <ele>474.25036621094</ele>
        <time>2018-06-26T09:45:26+0200</time>
      </trkpt>
      <trkpt lat="47.24523" lon="4.9507">
        <ele>474.59796142578</ele>
        <time>2018-06-26T09:45:29+0200</time>
      </trkpt>
      <trkpt lat="47.24524" lon="4.95061">
        <ele>474.89154052734</ele>
        <time>2018-06-26T09:45:32+0200</time>
      </trkpt>
      <trkpt lat="47.24524" lon="4.95063">
        <ele>475.14990234375</ele>
        <time>2018-06-26T09:45:35+0200</time>
      </trkpt>
      <trkpt lat="47.24525" lon="4.95057">
        <ele>475.40161132812</ele>
        <time>2018-06-26T09:45:38+0200</time>
      </trkpt>
      <trkpt lat="47.24525" lon="4.95054">
        <ele>475.61437988281</ele>
        <time>2018-06-26T09:45:41+0200</time>
      </trkpt>
      <trkpt lat="47.24526" lon="4.95051">
        <ele>475.86486816406</ele>
        <time>2018-06-26T09:45:44+0200</time>
      </trkpt>
      <trkpt lat="47.24527" lon="4.95046">
        <ele>476.14465332031</ele>
        <time>2018-06-26T09:45:47+0200</time>
      </trkpt>
      <trkpt lat="47.24527" lon="4.95048">
        <ele>476.45416259766</ele>
        <time>2018-06-26T09:45:50+0200</time>
      </trkpt>
      <trkpt lat="47.24528" lon="4.95042">
        <ele>476.76116943359</ele>
        <time>2018-06-26T09:45:53+0200</time>
      </trkpt>
      <trkpt lat="47.24528" lon="4.95042">
        <ele>477.05816650391</ele>
        <time>2018-06-26T09:45:56+0200</time>
      </trkpt>
      <trkpt lat="47.24529" lon="4.95039">
        <ele>477.36993408203</ele>
        <time>2018-06-26T09:45:59+0200</time>
      </trkpt>
      <trkpt lat="47.2453" lon="4.95028">
        <ele>477.55212402344</ele>
        <time>2018-06-26T09:46:02+0200</time>
      </trkpt>
      <trkpt lat="47.24531" lon="4.95021">
        <ele>477.50012207031</ele>
        <time>2018-06-26T09:46:05+0200</time>
      </trkpt>
      <trkpt lat="47.24532" lon="4.95017">
        <ele>477.31585693359</ele>
        <time>2018-06-26T09:46:08+0200</time>
      </trkpt>
      <trkpt lat="47.24534" lon="4.95014">
        <ele>477.14715576172</ele>
        <time>2018-06-26T09:46:11+0200</time>
      </trkpt>
      <trkpt lat="47.24536" lon="4.9501">
        <ele>477.04644775391</ele>
        <time>2018-06-26T09:46:14+0200</time>
      </trkpt>
      <trkpt lat="47.24537" lon="4.95006">
        <ele>476.97406005859</ele>
        <time>2018-06-26T09:46:17+0200</time>
      </trkpt>
      <trkpt lat="47.24538" lon="4.95002">
        <ele>477.02429199219</ele>
        <time>2018-06-26T09:46:20+0200</time>
      </trkpt>
      <trkpt lat="47.24539" lon="4.94998">
        <ele>477.06799316406</ele>
        <time>2018-06-26T09:46:23+0200</time>
      </trkpt>
      <trkpt lat="47.24541" lon="4.94995">
        <ele>477.09674072266</ele>
        <time>2018-06-26T09:46:26+0200</time>
      </trkpt>
      <trkpt lat="47.24542" lon="4.94991">
        <ele>477.13018798828</ele>
        <time>2018-06-26T09:46:29+0200</time>
      </trkpt>
      <trkpt lat="47.24543" lon="4.94988">
        <ele>477.21380615234</ele>
        <time>2018-06-26T09:46:32+0200</time>
      </trkpt>
      <trkpt lat="47.24544" lon="4.94984">
        <ele>477.27746582031</ele>
        <time>2018-06-26T09:46:35+0200</time>
      </trkpt>
      <trkpt lat="47.24544" lon="4.94979">
        <ele>477.35412597656</ele>
        <time>2018-06-26T09:46:38+0200</time>
      </trkpt>
      <trkpt lat="47.24545" lon="4.94975">
        <ele>477.46923828125</ele>
        <time>2018-06-26T09:46:41+0200</time>
      </trkpt>
      <trkpt lat="47.24547" lon="4.94969">
        <ele>477.64990234375</ele>
        <time>2018-06-26T09:46:44+0200</time>
      </trkpt>
      <trkpt lat="47.24549" lon="4.94965">
        <ele>477.78509521484</ele>
        <time>2018-06-26T09:46:47+0200</time>
      </trkpt>
      <trkpt lat="47.2455" lon="4.94962">
        <ele>477.91943359375</ele>
        <time>2018-06-26T09:46:50+0200</time>
      </trkpt>
      <trkpt lat="47.24551" lon="4.94958">
        <ele>478.14007568359</ele>
        <time>2018-06-26T09:46:53+0200</time>
      </trkpt>
      <trkpt lat="47.24552" lon="4.94954">
        <ele>478.41827392578</ele>
        <time>2018-06-26T09:46:56+0200</time>
      </trkpt>
      <trkpt lat="47.24552" lon="4.9495">
        <ele>478.70343017578</ele>
        <time>2018-06-26T09:46:59+0200</time>
      </trkpt>
      <trkpt lat="47.24553" lon="4.94946">
        <ele>478.92120361328</ele>
        <time>2018-06-26T09:47:02+0200</time>
      </trkpt>
      <trkpt lat="47.24554" lon="4.94942">
        <ele>479.09008789062</ele>
        <time>2018-06-26T09:47:05+0200</time>
      </trkpt>
      <trkpt lat="47.24557" lon="4.94938">
        <ele>479.18499755859</ele>
        <time>2018-06-26T09:47:08+0200</time>
      </trkpt>
      <trkpt lat="47.2456" lon="4.94935">
        <ele>479.17022705078</ele>
        <time>2018-06-26T09:47:11+0200</time>
      </trkpt>
      <trkpt lat="47.24562" lon="4.94932">
        <ele>479.14947509766</ele>
        <time>2018-06-26T09:47:14+0200</time>
      </trkpt>
      <trkpt lat="47.24563" lon="4.94928">
        <ele>479.15869140625</ele>
        <time>2018-06-26T09:47:17+0200</time>
      </trkpt>
      <trkpt lat="47.24563" lon="4.94927">
        <ele>479.16241455078</ele>
        <time>2018-06-26T09:47:20+0200</time>
      </trkpt>
      <trkpt lat="47.24566" lon="4.94919">
        <ele>479.19464111328</ele>
        <time>2018-06-26T09:47:23+0200</time>
      </trkpt>
      <trkpt lat="47.24568" lon="4.94914">
        <ele>479.21441650391</ele>
        <time>2018-06-26T09:47:26+0200</time>
      </trkpt>
      <trkpt lat="47.24569" lon="4.9491">
        <ele>479.20910644531</ele>
        <time>2018-06-26T09:47:29+0200</time>
      </trkpt>
      <trkpt lat="47.2457" lon="4.94909">
        <ele>479.20697021484</ele>
        <time>2018-06-26T09:47:32+0200</time>
      </trkpt>
      <trkpt lat="47.2457" lon="4.94904">
        <ele>479.14575195312</ele>
        <time>2018-06-26T09:47:35+0200</time>
      </trkpt>
      <trkpt lat="47.24571" lon="4.94902">
        <ele>479.09460449219</ele>
        <time>2018-06-26T09:47:38+0200</time>
      </trkpt>
      <trkpt lat="47.24572" lon="4.94896">
        <ele>479.10815429688</ele>
        <time>2018-06-26T09:47:41+0200</time>
      </trkpt>
      <trkpt lat="47.24574" lon="4.9489">
        <ele>479.15405273438</ele>
        <time>2018-06-26T09:47:44+0200</time>
      </trkpt>
      <trkpt lat="47.24575" lon="4.94888">
        <ele>479.19549560547</ele>
        <time>2018-06-26T09:47:47+0200</time>
      </trkpt>
      <trkpt lat="47.24577" lon="4.94885">
        <ele>479.31628417969</ele>
        <time>2018-06-26T09:47:50+0200</time>
      </trkpt>
      <trkpt lat="47.24578" lon="4.94881">
        <ele>479.48974609375</ele>
        <time>2018-06-26T09:47:53+0200</time>
      </trkpt>
      <trkpt lat="47.24579" lon="4.94879">
        <ele>479.77941894531</ele>
        <time>2018-06-26T09:47:56+0200</time>
      </trkpt>
      <trkpt lat="47.2458" lon="4.94876">
        <ele>480.10461425781</ele>
        <time>2018-06-26T09:47:59+0200</time>
      </trkpt>
      <trkpt lat="47.24582" lon="4.94873">
        <ele>480.39379882812</ele>
        <time>2018-06-26T09:48:02+0200</time>
      </trkpt>
      <trkpt lat="47.24583" lon="4.94868">
        <ele>480.57830810547</ele>
        <time>2018-06-26T09:48:05+0200</time>
      </trkpt>
      <trkpt lat="47.24584" lon="4.94864">
        <ele>480.73150634766</ele>
        <time>2018-06-26T09:48:08+0200</time>
      </trkpt>
      <trkpt lat="47.24586" lon="4.94861">
        <ele>480.8779296875</ele>
        <time>2018-06-26T09:48:11+0200</time>
      </trkpt>
      <trkpt lat="47.24587" lon="4.94858">
        <ele>481.06530761719</ele>
        <time>2018-06-26T09:48:14+0200</time>
      </trkpt>
      <trkpt lat="47.24588" lon="4.94855">
        <ele>481.40478515625</ele>
        <time>2018-06-26T09:48:17+0200</time>
      </trkpt>
      <trkpt lat="47.2459" lon="4.94852">
        <ele>481.8671875</ele>
        <time>2018-06-26T09:48:20+0200</time>
      </trkpt>
      <trkpt lat="47.24592" lon="4.94847">
        <ele>482.35241699219</ele>
        <time>2018-06-26T09:48:23+0200</time>
      </trkpt>
      <trkpt lat="47.24592" lon="4.94845">
        <ele>482.81689453125</ele>
        <time>2018-06-26T09:48:26+0200</time>
      </trkpt>
      <trkpt lat="47.24593" lon="4.94842">
        <ele>483.28527832031</ele>
        <time>2018-06-26T09:48:29+0200</time>
      </trkpt>
      <trkpt lat="47.24593" lon="4.94839">
        <ele>483.63330078125</ele>
        <time>2018-06-26T09:48:32+0200</time>
      </trkpt>
      <trkpt lat="47.24593" lon="4.94837">
        <ele>484.06689453125</ele>
        <time>2018-06-26T09:48:35+0200</time>
      </trkpt>
      <trkpt lat="47.24594" lon="4.94832">
        <ele>484.71099853516</ele>
        <time>2018-06-26T09:48:38+0200</time>
      </trkpt>
      <trkpt lat="47.24593" lon="4.94824">
        <ele>485.25482177734</ele>
        <time>2018-06-26T09:48:41+0200</time>
      </trkpt>
      <trkpt lat="47.24594" lon="4.9482">
        <ele>485.77612304688</ele>
        <time>2018-06-26T09:48:44+0200</time>
      </trkpt>
      <trkpt lat="47.24595" lon="4.94817">
        <ele>486.30395507812</ele>
        <time>2018-06-26T09:48:47+0200</time>
      </trkpt>
      <trkpt lat="47.24596" lon="4.94811">
        <ele>486.67132568359</ele>
        <time>2018-06-26T09:48:50+0200</time>
      </trkpt>
      <trkpt lat="47.24597" lon="4.94808">
        <ele>486.99468994141</ele>
        <time>2018-06-26T09:48:53+0200</time>
      </trkpt>
      <trkpt lat="47.24598" lon="4.94806">
        <ele>487.34643554688</ele>
        <time>2018-06-26T09:48:56+0200</time>
      </trkpt>
      <trkpt lat="47.24599" lon="4.94802">
        <ele>487.71014404297</ele>
        <time>2018-06-26T09:48:59+0200</time>
      </trkpt>
      <trkpt lat="47.246" lon="4.94796">
        <ele>488.01550292969</ele>
        <time>2018-06-26T09:49:02+0200</time>
      </trkpt>
      <trkpt lat="47.24601" lon="4.94792">
        <ele>488.25128173828</ele>
        <time>2018-06-26T09:49:05+0200</time>
      </trkpt>
      <trkpt lat="47.246" lon="4.9479">
        <ele>488.31134033203</ele>
        <time>2018-06-26T09:49:08+0200</time>
      </trkpt>
      <trkpt lat="47.246" lon="4.94789">
        <ele>488.32507324219</ele>
        <time>2018-06-26T09:49:11+0200</time>
      </trkpt>
      <trkpt lat="47.246" lon="4.94788">
        <ele>488.31292724609</ele>
        <time>2018-06-26T09:49:14+0200</time>
      </trkpt>
      <trkpt lat="47.24601" lon="4.94783">
        <ele>488.15472412109</ele>
        <time>2018-06-26T09:49:17+0200</time>
      </trkpt>
      <trkpt lat="47.24601" lon="4.94782">
        <ele>488.13104248047</ele>
        <time>2018-06-26T09:49:20+0200</time>
      </trkpt>
      <trkpt lat="47.24601" lon="4.94781">
        <ele>488.09478759766</ele>
        <time>2018-06-26T09:49:23+0200</time>
      </trkpt>
      <trkpt lat="47.24601" lon="4.9478">
        <ele>487.92364501953</ele>
        <time>2018-06-26T09:49:26+0200</time>
      </trkpt>
      <trkpt lat="47.24601" lon="4.9478">
        <ele>487.87890625</ele>
        <time>2018-06-26T09:49:29+0200</time>
      </trkpt>
      <trkpt lat="47.24601" lon="4.94781">
        <ele>487.84014892578</ele>
        <time>2018-06-26T09:49:33+0200</time>
      </trkpt>
      <trkpt lat="47.246" lon="4.94783">
        <ele>487.58532714844</ele>
        <time>2018-06-26T09:49:36+0200</time>
      </trkpt>
      <trkpt lat="47.24601" lon="4.94782">
        <ele>487.45263671875</ele>
        <time>2018-06-26T09:49:39+0200</time>
      </trkpt>
      <trkpt lat="47.24601" lon="4.94776">
        <ele>487.42584228516</ele>
        <time>2018-06-26T09:49:42+0200</time>
      </trkpt>
      <trkpt lat="47.24601" lon="4.94774">
        <ele>487.38952636719</ele>
        <time>2018-06-26T09:49:45+0200</time>
      </trkpt>
      <trkpt lat="47.24602" lon="4.94774">
        <ele>487.34210205078</ele>
        <time>2018-06-26T09:49:48+0200</time>
      </trkpt>
      <trkpt lat="47.24602" lon="4.94774">
        <ele>487.21936035156</ele>
        <time>2018-06-26T09:49:51+0200</time>
      </trkpt>
      <trkpt lat="47.24602" lon="4.94774">
        <ele>487.15802001953</ele>
        <time>2018-06-26T09:49:54+0200</time>
      </trkpt>
      <trkpt lat="47.24603" lon="4.94774">
        <ele>486.99884033203</ele>
        <time>2018-06-26T09:49:57+0200</time>
      </trkpt>
      <trkpt lat="47.24603" lon="4.94774">
        <ele>486.98492431641</ele>
        <time>2018-06-26T09:50:00+0200</time>
      </trkpt>
      <trkpt lat="47.24603" lon="4.94774">
        <ele>486.97100830078</ele>
        <time>2018-06-26T09:50:03+0200</time>
      </trkpt>
      <trkpt lat="47.24603" lon="4.94774">
        <ele>486.95428466797</ele>
        <time>2018-06-26T09:50:06+0200</time>
      </trkpt>
      <trkpt lat="47.24603" lon="4.94774">
        <ele>486.93463134766</ele>
        <time>2018-06-26T09:50:09+0200</time>
      </trkpt>
      <trkpt lat="47.24603" lon="4.94774">
        <ele>486.91729736328</ele>
        <time>2018-06-26T09:50:12+0200</time>
      </trkpt>
      <trkpt lat="47.24603" lon="4.94774">
        <ele>486.89886474609</ele>
        <time>2018-06-26T09:50:15+0200</time>
      </trkpt>
      <trkpt lat="47.24603" lon="4.94774">
        <ele>486.88110351562</ele>
        <time>2018-06-26T09:50:18+0200</time>
      </trkpt>
      <trkpt lat="47.24603" lon="4.94774">
        <ele>486.86151123047</ele>
        <time>2018-06-26T09:50:21+0200</time>
      </trkpt>
      <trkpt lat="47.24603" lon="4.94774">
        <ele>486.84222412109</ele>
        <time>2018-06-26T09:50:24+0200</time>
      </trkpt>
      <trkpt lat="47.24603" lon="4.94775">
        <ele>486.82220458984</ele>
        <time>2018-06-26T09:50:27+0200</time>
      </trkpt>
      <trkpt lat="47.24603" lon="4.94775">
        <ele>486.80249023438</ele>
        <time>2018-06-26T09:50:30+0200</time>
      </trkpt>
      <trkpt lat="47.24603" lon="4.94776">
        <ele>486.78210449219</ele>
        <time>2018-06-26T09:50:33+0200</time>
      </trkpt>
      <trkpt lat="47.24603" lon="4.94775">
        <ele>486.76092529297</ele>
        <time>2018-06-26T09:50:36+0200</time>
      </trkpt>
      <trkpt lat="47.24603" lon="4.94772">
        <ele>486.67211914062</ele>
        <time>2018-06-26T09:50:39+0200</time>
      </trkpt>
      <trkpt lat="47.24604" lon="4.94769">
        <ele>486.58660888672</ele>
        <time>2018-06-26T09:50:42+0200</time>
      </trkpt>
      <trkpt lat="47.24604" lon="4.94768">
        <ele>486.55932617188</ele>
        <time>2018-06-26T09:50:45+0200</time>
      </trkpt>
      <trkpt lat="47.24604" lon="4.94768">
        <ele>486.53002929688</ele>
        <time>2018-06-26T09:50:48+0200</time>
      </trkpt>
      <trkpt lat="47.24604" lon="4.94768">
        <ele>486.50152587891</ele>
        <time>2018-06-26T09:50:51+0200</time>
      </trkpt>
      <trkpt lat="47.24604" lon="4.94768">
        <ele>486.47381591797</ele>
        <time>2018-06-26T09:50:54+0200</time>
      </trkpt>
      <trkpt lat="47.24604" lon="4.94768">
        <ele>486.44836425781</ele>
        <time>2018-06-26T09:50:57+0200</time>
      </trkpt>
      <trkpt lat="47.24604" lon="4.94767">
        <ele>486.42944335938</ele>
        <time>2018-06-26T09:51:00+0200</time>
      </trkpt>
      <trkpt lat="47.24604" lon="4.94767">
        <ele>486.41943359375</ele>
        <time>2018-06-26T09:51:03+0200</time>
      </trkpt>
      <trkpt lat="47.24604" lon="4.94767">
        <ele>486.41619873047</ele>
        <time>2018-06-26T09:51:06+0200</time>
      </trkpt>
      <trkpt lat="47.24604" lon="4.94767">
        <ele>486.42071533203</ele>
        <time>2018-06-26T09:51:09+0200</time>
      </trkpt>
      <trkpt lat="47.24604" lon="4.94767">
        <ele>486.42980957031</ele>
        <time>2018-06-26T09:51:12+0200</time>
      </trkpt>
      <trkpt lat="47.24604" lon="4.94768">
        <ele>486.43835449219</ele>
        <time>2018-06-26T09:51:15+0200</time>
      </trkpt>
      <trkpt lat="47.24604" lon="4.94768">
        <ele>486.43920898438</ele>
        <time>2018-06-26T09:51:18+0200</time>
      </trkpt>
      <trkpt lat="47.24604" lon="4.94768">
        <ele>486.43682861328</ele>
        <time>2018-06-26T09:51:21+0200</time>
      </trkpt>
      <trkpt lat="47.24604" lon="4.94768">
        <ele>486.43316650391</ele>
        <time>2018-06-26T09:51:24+0200</time>
      </trkpt>
      <trkpt lat="47.24604" lon="4.94768">
        <ele>486.42486572266</ele>
        <time>2018-06-26T09:51:27+0200</time>
      </trkpt>
      <trkpt lat="47.24605" lon="4.94768">
        <ele>486.40997314453</ele>
        <time>2018-06-26T09:51:30+0200</time>
      </trkpt>
      <trkpt lat="47.24605" lon="4.94768">
        <ele>486.37933349609</ele>
        <time>2018-06-26T09:51:33+0200</time>
      </trkpt>
      <trkpt lat="47.24606" lon="4.94768">
        <ele>486.34521484375</ele>
        <time>2018-06-26T09:51:36+0200</time>
      </trkpt>
      <trkpt lat="47.24607" lon="4.94768">
        <ele>486.31506347656</ele>
        <time>2018-06-26T09:51:39+0200</time>
      </trkpt>
      <trkpt lat="47.24608" lon="4.94769">
        <ele>486.29266357422</ele>
        <time>2018-06-26T09:51:42+0200</time>
      </trkpt>
      <trkpt lat="47.24608" lon="4.94769">
        <ele>486.26354980469</ele>
        <time>2018-06-26T09:51:45+0200</time>
      </trkpt>
      <trkpt lat="47.24608" lon="4.94769">
        <ele>486.234375</ele>
        <time>2018-06-26T09:51:48+0200</time>
      </trkpt>
      <trkpt lat="47.24608" lon="4.94769">
        <ele>486.20959472656</ele>
        <time>2018-06-26T09:51:51+0200</time>
      </trkpt>
      <trkpt lat="47.24608" lon="4.94769">
        <ele>486.19104003906</ele>
        <time>2018-06-26T09:51:54+0200</time>
      </trkpt>
      <trkpt lat="47.24608" lon="4.94769">
        <ele>486.17565917969</ele>
        <time>2018-06-26T09:51:57+0200</time>
      </trkpt>
      <trkpt lat="47.24608" lon="4.9477">
        <ele>486.16870117188</ele>
        <time>2018-06-26T09:52:00+0200</time>
      </trkpt>
      <trkpt lat="47.24608" lon="4.9477">
        <ele>486.16497802734</ele>
        <time>2018-06-26T09:52:03+0200</time>
      </trkpt>
      <trkpt lat="47.24608" lon="4.9477">
        <ele>486.15856933594</ele>
        <time>2018-06-26T09:52:06+0200</time>
      </trkpt>
      <trkpt lat="47.24608" lon="4.9477">
        <ele>486.14880371094</ele>
        <time>2018-06-26T09:52:09+0200</time>
      </trkpt>
      <trkpt lat="47.24608" lon="4.9477">
        <ele>486.14013671875</ele>
        <time>2018-06-26T09:52:12+0200</time>
      </trkpt>
      <trkpt lat="47.24608" lon="4.9477">
        <ele>486.13287353516</ele>
        <time>2018-06-26T09:52:15+0200</time>
      </trkpt>
      <trkpt lat="47.24608" lon="4.9477">
        <ele>486.12042236328</ele>
        <time>2018-06-26T09:52:18+0200</time>
      </trkpt>
      <trkpt lat="47.24608" lon="4.9477">
        <ele>486.10894775391</ele>
        <time>2018-06-26T09:52:21+0200</time>
      </trkpt>
      <trkpt lat="47.24608" lon="4.94769">
        <ele>486.10083007812</ele>
        <time>2018-06-26T09:52:24+0200</time>
      </trkpt>
      <trkpt lat="47.24608" lon="4.94769">
        <ele>486.09368896484</ele>
        <time>2018-06-26T09:52:27+0200</time>
      </trkpt>
      <trkpt lat="47.24608" lon="4.94769">
        <ele>486.07897949219</ele>
        <time>2018-06-26T09:52:30+0200</time>
      </trkpt>
      <trkpt lat="47.24608" lon="4.94769">
        <ele>486.06402587891</ele>
        <time>2018-06-26T09:52:33+0200</time>
      </trkpt>
      <trkpt lat="47.24608" lon="4.94769">
        <ele>486.05072021484</ele>
        <time>2018-06-26T09:52:36+0200</time>
      </trkpt>
      <trkpt lat="47.24608" lon="4.94769">
        <ele>486.04296875</ele>
        <time>2018-06-26T09:52:39+0200</time>
      </trkpt>
      <trkpt lat="47.24608" lon="4.94769">
        <ele>486.03900146484</ele>
        <time>2018-06-26T09:52:42+0200</time>
      </trkpt>
      <trkpt lat="47.24608" lon="4.94769">
        <ele>486.04162597656</ele>
        <time>2018-06-26T09:52:45+0200</time>
      </trkpt>
      <trkpt lat="47.24608" lon="4.94769">
        <ele>486.04669189453</ele>
        <time>2018-06-26T09:52:48+0200</time>
      </trkpt>
      <trkpt lat="47.24608" lon="4.94769">
        <ele>486.05358886719</ele>
        <time>2018-06-26T09:52:51+0200</time>
      </trkpt>
      <trkpt lat="47.24608" lon="4.9477">
        <ele>486.06311035156</ele>
        <time>2018-06-26T09:52:54+0200</time>
      </trkpt>
      <trkpt lat="47.24608" lon="4.9477">
        <ele>486.06896972656</ele>
        <time>2018-06-26T09:52:57+0200</time>
      </trkpt>
      <trkpt lat="47.24608" lon="4.9477">
        <ele>486.07458496094</ele>
        <time>2018-06-26T09:53:00+0200</time>
      </trkpt>
      <trkpt lat="47.24608" lon="4.9477">
        <ele>486.07891845703</ele>
        <time>2018-06-26T09:53:03+0200</time>
      </trkpt>
      <trkpt lat="47.24608" lon="4.9477">
        <ele>486.07788085938</ele>
        <time>2018-06-26T09:53:06+0200</time>
      </trkpt>
      <trkpt lat="47.24608" lon="4.9477">
        <ele>486.07940673828</ele>
        <time>2018-06-26T09:53:09+0200</time>
      </trkpt>
      <trkpt lat="47.24608" lon="4.9477">
        <ele>486.08514404297</ele>
        <time>2018-06-26T09:53:12+0200</time>
      </trkpt>
      <trkpt lat="47.24608" lon="4.9477">
        <ele>486.09185791016</ele>
        <time>2018-06-26T09:53:15+0200</time>
      </trkpt>
      <trkpt lat="47.24608" lon="4.9477">
        <ele>486.09906005859</ele>
        <time>2018-06-26T09:53:18+0200</time>
      </trkpt>
      <trkpt lat="47.24608" lon="4.9477">
        <ele>486.10565185547</ele>
        <time>2018-06-26T09:53:21+0200</time>
      </trkpt>
      <trkpt lat="47.24607" lon="4.94771">
        <ele>486.13623046875</ele>
        <time>2018-06-26T09:53:24+0200</time>
      </trkpt>
      <trkpt lat="47.24607" lon="4.94769">
        <ele>486.12066650391</ele>
        <time>2018-06-26T09:53:27+0200</time>
      </trkpt>
      <trkpt lat="47.24607" lon="4.94768">
        <ele>485.98883056641</ele>
        <time>2018-06-26T09:53:30+0200</time>
      </trkpt>
      <trkpt lat="47.24607" lon="4.94767">
        <ele>485.81964111328</ele>
        <time>2018-06-26T09:53:33+0200</time>
      </trkpt>
      <trkpt lat="47.24608" lon="4.94764">
        <ele>485.73968505859</ele>
        <time>2018-06-26T09:53:36+0200</time>
      </trkpt>
      <trkpt lat="47.24608" lon="4.94761">
        <ele>485.74554443359</ele>
        <time>2018-06-26T09:53:39+0200</time>
      </trkpt>
      <trkpt lat="47.24609" lon="4.94759">
        <ele>485.76928710938</ele>
        <time>2018-06-26T09:53:42+0200</time>
      </trkpt>
      <trkpt lat="47.24609" lon="4.94757">
        <ele>485.81744384766</ele>
        <time>2018-06-26T09:53:45+0200</time>
      </trkpt>
      <trkpt lat="47.24611" lon="4.94754">
        <ele>485.86767578125</ele>
        <time>2018-06-26T09:53:48+0200</time>
      </trkpt>
      <trkpt lat="47.24612" lon="4.9475">
        <ele>485.92077636719</ele>
        <time>2018-06-26T09:53:51+0200</time>
      </trkpt>
      <trkpt lat="47.24613" lon="4.94747">
        <ele>486.01483154297</ele>
        <time>2018-06-26T09:53:54+0200</time>
      </trkpt>
      <trkpt lat="47.24613" lon="4.94746">
        <ele>486.19415283203</ele>
        <time>2018-06-26T09:53:57+0200</time>
      </trkpt>
      <trkpt lat="47.24614" lon="4.94742">
        <ele>486.35034179688</ele>
        <time>2018-06-26T09:54:00+0200</time>
      </trkpt>
      <trkpt lat="47.24614" lon="4.94737">
        <ele>486.51397705078</ele>
        <time>2018-06-26T09:54:03+0200</time>
      </trkpt>
      <trkpt lat="47.24614" lon="4.94732">
        <ele>486.69873046875</ele>
        <time>2018-06-26T09:54:06+0200</time>
      </trkpt>
      <trkpt lat="47.24617" lon="4.94727">
        <ele>486.79724121094</ele>
        <time>2018-06-26T09:54:09+0200</time>
      </trkpt>
      <trkpt lat="47.24617" lon="4.94725">
        <ele>486.97094726562</ele>
        <time>2018-06-26T09:54:12+0200</time>
      </trkpt>
      <trkpt lat="47.24618" lon="4.94723">
        <ele>487.17028808594</ele>
        <time>2018-06-26T09:54:15+0200</time>
      </trkpt>
      <trkpt lat="47.2462" lon="4.94718">
        <ele>487.34545898438</ele>
        <time>2018-06-26T09:54:18+0200</time>
      </trkpt>
      <trkpt lat="47.24621" lon="4.94714">
        <ele>487.45825195312</ele>
        <time>2018-06-26T09:54:21+0200</time>
      </trkpt>
      <trkpt lat="47.24624" lon="4.94708">
        <ele>487.59411621094</ele>
        <time>2018-06-26T09:54:24+0200</time>
      </trkpt>
      <trkpt lat="47.24625" lon="4.94705">
        <ele>487.77813720703</ele>
        <time>2018-06-26T09:54:27+0200</time>
      </trkpt>
      <trkpt lat="47.24627" lon="4.94702">
        <ele>488.00970458984</ele>
        <time>2018-06-26T09:54:30+0200</time>
      </trkpt>
      <trkpt lat="47.24627" lon="4.94699">
        <ele>488.28625488281</ele>
        <time>2018-06-26T09:54:33+0200</time>
      </trkpt>
      <trkpt lat="47.24628" lon="4.94695">
        <ele>488.51354980469</ele>
        <time>2018-06-26T09:54:36+0200</time>
      </trkpt>
      <trkpt lat="47.2463" lon="4.94692">
        <ele>488.61901855469</ele>
        <time>2018-06-26T09:54:39+0200</time>
      </trkpt>
      <trkpt lat="47.24631" lon="4.94689">
        <ele>488.76220703125</ele>
        <time>2018-06-26T09:54:42+0200</time>
      </trkpt>
      <trkpt lat="47.24632" lon="4.94686">
        <ele>488.97064208984</ele>
        <time>2018-06-26T09:54:45+0200</time>
      </trkpt>
      <trkpt lat="47.24633" lon="4.94681">
        <ele>489.20043945312</ele>
        <time>2018-06-26T09:54:48+0200</time>
      </trkpt>
      <trkpt lat="47.24634" lon="4.94672">
        <ele>489.3720703125</ele>
        <time>2018-06-26T09:54:51+0200</time>
      </trkpt>
      <trkpt lat="47.24633" lon="4.94667">
        <ele>489.34234619141</ele>
        <time>2018-06-26T09:54:54+0200</time>
      </trkpt>
      <trkpt lat="47.24633" lon="4.94664">
        <ele>489.29901123047</ele>
        <time>2018-06-26T09:54:57+0200</time>
      </trkpt>
      <trkpt lat="47.24635" lon="4.9466">
        <ele>489.30651855469</ele>
        <time>2018-06-26T09:55:00+0200</time>
      </trkpt>
      <trkpt lat="47.24636" lon="4.94655">
        <ele>489.34851074219</ele>
        <time>2018-06-26T09:55:03+0200</time>
      </trkpt>
      <trkpt lat="47.24637" lon="4.94653">
        <ele>489.43798828125</ele>
        <time>2018-06-26T09:55:06+0200</time>
      </trkpt>
      <trkpt lat="47.24638" lon="4.94649">
        <ele>489.50506591797</ele>
        <time>2018-06-26T09:55:09+0200</time>
      </trkpt>
      <trkpt lat="47.24639" lon="4.94647">
        <ele>489.63916015625</ele>
        <time>2018-06-26T09:55:12+0200</time>
      </trkpt>
      <trkpt lat="47.24639" lon="4.94641">
        <ele>489.76062011719</ele>
        <time>2018-06-26T09:55:15+0200</time>
      </trkpt>
      <trkpt lat="47.24638" lon="4.94633">
        <ele>489.85095214844</ele>
        <time>2018-06-26T09:55:18+0200</time>
      </trkpt>
      <trkpt lat="47.24638" lon="4.94631">
        <ele>490.01110839844</ele>
        <time>2018-06-26T09:55:21+0200</time>
      </trkpt>
      <trkpt lat="47.24637" lon="4.94623">
        <ele>490.22076416016</ele>
        <time>2018-06-26T09:55:24+0200</time>
      </trkpt>
      <trkpt lat="47.24637" lon="4.94619">
        <ele>490.44226074219</ele>
        <time>2018-06-26T09:55:27+0200</time>
      </trkpt>
      <trkpt lat="47.24638" lon="4.9462">
        <ele>490.68579101562</ele>
        <time>2018-06-26T09:55:30+0200</time>
      </trkpt>
      <trkpt lat="47.24639" lon="4.94615">
        <ele>491.09558105469</ele>
        <time>2018-06-26T09:55:33+0200</time>
      </trkpt>
      <trkpt lat="47.24639" lon="4.94611">
        <ele>491.42810058594</ele>
        <time>2018-06-26T09:55:36+0200</time>
      </trkpt>
      <trkpt lat="47.2464" lon="4.94608">
        <ele>491.6357421875</ele>
        <time>2018-06-26T09:55:39+0200</time>
      </trkpt>
      <trkpt lat="47.24641" lon="4.94602">
        <ele>491.69488525391</ele>
        <time>2018-06-26T09:55:42+0200</time>
      </trkpt>
      <trkpt lat="47.2464" lon="4.946">
        <ele>491.63439941406</ele>
        <time>2018-06-26T09:55:45+0200</time>
      </trkpt>
      <trkpt lat="47.24642" lon="4.94596">
        <ele>491.5380859375</ele>
        <time>2018-06-26T09:55:48+0200</time>
      </trkpt>
      <trkpt lat="47.24642" lon="4.94593">
        <ele>491.45458984375</ele>
        <time>2018-06-26T09:55:51+0200</time>
      </trkpt>
      <trkpt lat="47.24643" lon="4.94592">
        <ele>491.42431640625</ele>
        <time>2018-06-26T09:55:54+0200</time>
      </trkpt>
      <trkpt lat="47.24643" lon="4.94587">
        <ele>491.41619873047</ele>
        <time>2018-06-26T09:55:57+0200</time>
      </trkpt>
      <trkpt lat="47.24644" lon="4.94584">
        <ele>491.50964355469</ele>
        <time>2018-06-26T09:56:00+0200</time>
      </trkpt>
      <trkpt lat="47.24645" lon="4.94578">
        <ele>491.65740966797</ele>
        <time>2018-06-26T09:56:03+0200</time>
      </trkpt>
      <trkpt lat="47.24645" lon="4.94574">
        <ele>491.87530517578</ele>
        <time>2018-06-26T09:56:06+0200</time>
      </trkpt>
      <trkpt lat="47.24646" lon="4.94567">
        <ele>492.21008300781</ele>
        <time>2018-06-26T09:56:09+0200</time>
      </trkpt>
      <trkpt lat="47.24646" lon="4.94563">
        <ele>492.63531494141</ele>
        <time>2018-06-26T09:56:12+0200</time>
      </trkpt>
      <trkpt lat="47.24646" lon="4.94559">
        <ele>493.06799316406</ele>
        <time>2018-06-26T09:56:15+0200</time>
      </trkpt>
      <trkpt lat="47.24646" lon="4.94556">
        <ele>493.47552490234</ele>
        <time>2018-06-26T09:56:18+0200</time>
      </trkpt>
      <trkpt lat="47.24646" lon="4.94554">
        <ele>493.97723388672</ele>
        <time>2018-06-26T09:56:21+0200</time>
      </trkpt>
      <trkpt lat="47.24646" lon="4.9455">
        <ele>494.42663574219</ele>
        <time>2018-06-26T09:56:24+0200</time>
      </trkpt>
      <trkpt lat="47.24646" lon="4.94549">
        <ele>494.70239257812</ele>
        <time>2018-06-26T09:56:27+0200</time>
      </trkpt>
      <trkpt lat="47.24646" lon="4.94548">
        <ele>494.98406982422</ele>
        <time>2018-06-26T09:56:30+0200</time>
      </trkpt>
      <trkpt lat="47.24647" lon="4.94543">
        <ele>495.36456298828</ele>
        <time>2018-06-26T09:56:33+0200</time>
      </trkpt>
      <trkpt lat="47.24646" lon="4.94532">
        <ele>495.69604492188</ele>
        <time>2018-06-26T09:56:36+0200</time>
      </trkpt>
      <trkpt lat="47.24646" lon="4.94528">
        <ele>495.92755126953</ele>
        <time>2018-06-26T09:56:39+0200</time>
      </trkpt>
      <trkpt lat="47.24646" lon="4.94524">
        <ele>496.05615234375</ele>
        <time>2018-06-26T09:56:42+0200</time>
      </trkpt>
      <trkpt lat="47.24646" lon="4.94521">
        <ele>496.17016601562</ele>
        <time>2018-06-26T09:56:45+0200</time>
      </trkpt>
      <trkpt lat="47.24648" lon="4.94514">
        <ele>496.22833251953</ele>
        <time>2018-06-26T09:56:48+0200</time>
      </trkpt>
      <trkpt lat="47.24648" lon="4.9451">
        <ele>496.25311279297</ele>
        <time>2018-06-26T09:56:51+0200</time>
      </trkpt>
      <trkpt lat="47.24649" lon="4.94504">
        <ele>496.24688720703</ele>
        <time>2018-06-26T09:56:54+0200</time>
      </trkpt>
      <trkpt lat="47.24649" lon="4.94504">
        <ele>496.24688720703</ele>
        <time>2018-06-26T09:56:57+0200</time>
      </trkpt>
      <trkpt lat="47.24649" lon="4.94501">
        <ele>496.28887939453</ele>
        <time>2018-06-26T09:57:00+0200</time>
      </trkpt>
      <trkpt lat="47.2465" lon="4.94496">
        <ele>496.44390869141</ele>
        <time>2018-06-26T09:57:03+0200</time>
      </trkpt>
      <trkpt lat="47.2465" lon="4.94493">
        <ele>496.58642578125</ele>
        <time>2018-06-26T09:57:06+0200</time>
      </trkpt>
      <trkpt lat="47.2465" lon="4.94489">
        <ele>496.80480957031</ele>
        <time>2018-06-26T09:57:09+0200</time>
      </trkpt>
      <trkpt lat="47.2465" lon="4.94485">
        <ele>497.02764892578</ele>
        <time>2018-06-26T09:57:12+0200</time>
      </trkpt>
      <trkpt lat="47.24649" lon="4.94479">
        <ele>497.22222900391</ele>
        <time>2018-06-26T09:57:15+0200</time>
      </trkpt>
      <trkpt lat="47.24648" lon="4.94475">
        <ele>497.52282714844</ele>
        <time>2018-06-26T09:57:18+0200</time>
      </trkpt>
      <trkpt lat="47.24649" lon="4.94472">
        <ele>497.77307128906</ele>
        <time>2018-06-26T09:57:21+0200</time>
      </trkpt>
      <trkpt lat="47.2465" lon="4.9447">
        <ele>497.82794189453</ele>
        <time>2018-06-26T09:57:24+0200</time>
      </trkpt>
      <trkpt lat="47.2465" lon="4.94465">
        <ele>497.72607421875</ele>
        <time>2018-06-26T09:57:27+0200</time>
      </trkpt>
      <trkpt lat="47.2465" lon="4.94455">
        <ele>497.53814697266</ele>
        <time>2018-06-26T09:57:30+0200</time>
      </trkpt>
      <trkpt lat="47.2465" lon="4.94452">
        <ele>497.37506103516</ele>
        <time>2018-06-26T09:57:33+0200</time>
      </trkpt>
      <trkpt lat="47.24651" lon="4.94448">
        <ele>497.36291503906</ele>
        <time>2018-06-26T09:57:36+0200</time>
      </trkpt>
      <trkpt lat="47.24651" lon="4.94445">
        <ele>497.49090576172</ele>
        <time>2018-06-26T09:57:39+0200</time>
      </trkpt>
      <trkpt lat="47.24651" lon="4.94441">
        <ele>497.64752197266</ele>
        <time>2018-06-26T09:57:42+0200</time>
      </trkpt>
      <trkpt lat="47.24652" lon="4.94437">
        <ele>497.75177001953</ele>
        <time>2018-06-26T09:57:45+0200</time>
      </trkpt>
      <trkpt lat="47.24653" lon="4.94434">
        <ele>497.78106689453</ele>
        <time>2018-06-26T09:57:48+0200</time>
      </trkpt>
      <trkpt lat="47.24654" lon="4.94432">
        <ele>497.81567382812</ele>
        <time>2018-06-26T09:57:51+0200</time>
      </trkpt>
      <trkpt lat="47.24655" lon="4.94427">
        <ele>497.85046386719</ele>
        <time>2018-06-26T09:57:54+0200</time>
      </trkpt>
      <trkpt lat="47.24655" lon="4.94424">
        <ele>497.79339599609</ele>
        <time>2018-06-26T09:57:57+0200</time>
      </trkpt>
      <trkpt lat="47.24654" lon="4.94421">
        <ele>497.73419189453</ele>
        <time>2018-06-26T09:58:00+0200</time>
      </trkpt>
      <trkpt lat="47.24654" lon="4.94419">
        <ele>497.72448730469</ele>
        <time>2018-06-26T09:58:03+0200</time>
      </trkpt>
      <trkpt lat="47.24655" lon="4.94414">
        <ele>497.76916503906</ele>
        <time>2018-06-26T09:58:06+0200</time>
      </trkpt>
      <trkpt lat="47.24655" lon="4.94409">
        <ele>497.77038574219</ele>
        <time>2018-06-26T09:58:09+0200</time>
      </trkpt>
      <trkpt lat="47.24654" lon="4.94403">
        <ele>497.71209716797</ele>
        <time>2018-06-26T09:58:12+0200</time>
      </trkpt>
      <trkpt lat="47.24653" lon="4.94398">
        <ele>497.70983886719</ele>
        <time>2018-06-26T09:58:15+0200</time>
      </trkpt>
      <trkpt lat="47.24652" lon="4.94397">
        <ele>497.8056640625</ele>
        <time>2018-06-26T09:58:18+0200</time>
      </trkpt>
      <trkpt lat="47.24652" lon="4.9439">
        <ele>497.96508789062</ele>
        <time>2018-06-26T09:58:21+0200</time>
      </trkpt>
      <trkpt lat="47.24652" lon="4.9439">
        <ele>498.03167724609</ele>
        <time>2018-06-26T09:58:24+0200</time>
      </trkpt>
      <trkpt lat="47.24652" lon="4.94388">
        <ele>498.12042236328</ele>
        <time>2018-06-26T09:58:27+0200</time>
      </trkpt>
      <trkpt lat="47.24653" lon="4.94378">
        <ele>498.24066162109</ele>
        <time>2018-06-26T09:58:30+0200</time>
      </trkpt>
      <trkpt lat="47.24652" lon="4.94375">
        <ele>498.32470703125</ele>
        <time>2018-06-26T09:58:33+0200</time>
      </trkpt>
      <trkpt lat="47.24651" lon="4.94372">
        <ele>498.40545654297</ele>
        <time>2018-06-26T09:58:36+0200</time>
      </trkpt>
      <trkpt lat="47.24652" lon="4.94364">
        <ele>498.35015869141</ele>
        <time>2018-06-26T09:58:39+0200</time>
      </trkpt>
      <trkpt lat="47.24653" lon="4.94352">
        <ele>498.31597900391</ele>
        <time>2018-06-26T09:58:42+0200</time>
      </trkpt>
      <trkpt lat="47.24653" lon="4.94351">
        <ele>498.30120849609</ele>
        <time>2018-06-26T09:58:45+0200</time>
      </trkpt>
      <trkpt lat="47.24653" lon="4.94351">
        <ele>498.31219482422</ele>
        <time>2018-06-26T09:58:48+0200</time>
      </trkpt>
      <trkpt lat="47.24653" lon="4.94351">
        <ele>498.32171630859</ele>
        <time>2018-06-26T09:58:51+0200</time>
      </trkpt>
      <trkpt lat="47.24653" lon="4.94351">
        <ele>498.31774902344</ele>
        <time>2018-06-26T09:58:54+0200</time>
      </trkpt>
      <trkpt lat="47.24653" lon="4.94351">
        <ele>498.30401611328</ele>
        <time>2018-06-26T09:58:57+0200</time>
      </trkpt>
      <trkpt lat="47.24653" lon="4.9435">
        <ele>498.36334228516</ele>
        <time>2018-06-26T09:59:00+0200</time>
      </trkpt>
      <trkpt lat="47.24653" lon="4.94348">
        <ele>498.41546630859</ele>
        <time>2018-06-26T09:59:03+0200</time>
      </trkpt>
      <trkpt lat="47.24653" lon="4.94348">
        <ele>498.45349121094</ele>
        <time>2018-06-26T09:59:06+0200</time>
      </trkpt>
      <trkpt lat="47.24653" lon="4.94345">
        <ele>498.42706298828</ele>
        <time>2018-06-26T09:59:09+0200</time>
      </trkpt>
      <trkpt lat="47.24653" lon="4.94342">
        <ele>498.27008056641</ele>
        <time>2018-06-26T09:59:12+0200</time>
      </trkpt>
      <trkpt lat="47.24654" lon="4.94339">
        <ele>498.08129882812</ele>
        <time>2018-06-26T09:59:15+0200</time>
      </trkpt>
      <trkpt lat="47.24653" lon="4.94338">
        <ele>497.97583007812</ele>
        <time>2018-06-26T09:59:18+0200</time>
      </trkpt>
      <trkpt lat="47.24654" lon="4.94336">
        <ele>497.90118408203</ele>
        <time>2018-06-26T09:59:21+0200</time>
      </trkpt>
      <trkpt lat="47.24654" lon="4.94331">
        <ele>497.75726318359</ele>
        <time>2018-06-26T09:59:24+0200</time>
      </trkpt>
      <trkpt lat="47.24653" lon="4.9432">
        <ele>497.71197509766</ele>
        <time>2018-06-26T09:59:27+0200</time>
      </trkpt>
      <trkpt lat="47.24653" lon="4.94315">
        <ele>497.60168457031</ele>
        <time>2018-06-26T09:59:30+0200</time>
      </trkpt>
      <trkpt lat="47.24654" lon="4.94314">
        <ele>497.45196533203</ele>
        <time>2018-06-26T09:59:33+0200</time>
      </trkpt>
      <trkpt lat="47.24655" lon="4.9431">
        <ele>497.27813720703</ele>
        <time>2018-06-26T09:59:36+0200</time>
      </trkpt>
      <trkpt lat="47.24654" lon="4.94307">
        <ele>497.16680908203</ele>
        <time>2018-06-26T09:59:39+0200</time>
      </trkpt>
      <trkpt lat="47.24654" lon="4.94305">
        <ele>497.18603515625</ele>
        <time>2018-06-26T09:59:42+0200</time>
      </trkpt>
      <trkpt lat="47.24653" lon="4.94299">
        <ele>497.18646240234</ele>
        <time>2018-06-26T09:59:45+0200</time>
      </trkpt>
      <trkpt lat="47.24653" lon="4.94297">
        <ele>497.28363037109</ele>
        <time>2018-06-26T09:59:48+0200</time>
      </trkpt>
      <trkpt lat="47.24653" lon="4.94296">
        <ele>497.37384033203</ele>
        <time>2018-06-26T09:59:51+0200</time>
      </trkpt>
      <trkpt lat="47.24654" lon="4.9429">
        <ele>497.57385253906</ele>
        <time>2018-06-26T09:59:54+0200</time>
      </trkpt>
      <trkpt lat="47.24655" lon="4.94289">
        <ele>497.70544433594</ele>
        <time>2018-06-26T09:59:57+0200</time>
      </trkpt>
      <trkpt lat="47.24655" lon="4.94287">
        <ele>497.8154296875</ele>
        <time>2018-06-26T10:00:00+0200</time>
      </trkpt>
      <trkpt lat="47.24655" lon="4.94286">
        <ele>498.06164550781</ele>
        <time>2018-06-26T10:00:03+0200</time>
      </trkpt>
      <trkpt lat="47.24657" lon="4.94281">
        <ele>498.18359375</ele>
        <time>2018-06-26T10:00:06+0200</time>
      </trkpt>
      <trkpt lat="47.24657" lon="4.9428">
        <ele>498.40417480469</ele>
        <time>2018-06-26T10:00:09+0200</time>
      </trkpt>
      <trkpt lat="47.24657" lon="4.9427">
        <ele>498.64312744141</ele>
        <time>2018-06-26T10:00:12+0200</time>
      </trkpt>
      <trkpt lat="47.24658" lon="4.94269">
        <ele>498.72601318359</ele>
        <time>2018-06-26T10:00:15+0200</time>
      </trkpt>
      <trkpt lat="47.24657" lon="4.94264">
        <ele>498.78985595703</ele>
        <time>2018-06-26T10:00:18+0200</time>
      </trkpt>
      <trkpt lat="47.24657" lon="4.94262">
        <ele>498.8203125</ele>
        <time>2018-06-26T10:00:21+0200</time>
      </trkpt>
      <trkpt lat="47.24657" lon="4.9426">
        <ele>498.95733642578</ele>
        <time>2018-06-26T10:00:24+0200</time>
      </trkpt>
      <trkpt lat="47.24657" lon="4.94259">
        <ele>499.05157470703</ele>
        <time>2018-06-26T10:00:27+0200</time>
      </trkpt>
      <trkpt lat="47.24657" lon="4.94256">
        <ele>499.16296386719</ele>
        <time>2018-06-26T10:00:30+0200</time>
      </trkpt>
      <trkpt lat="47.24658" lon="4.94251">
        <ele>499.57928466797</ele>
        <time>2018-06-26T10:00:33+0200</time>
      </trkpt>
      <trkpt lat="47.24657" lon="4.94241">
        <ele>499.92456054688</ele>
        <time>2018-06-26T10:00:36+0200</time>
      </trkpt>
      <trkpt lat="47.24659" lon="4.94234">
        <ele>500.12182617188</ele>
        <time>2018-06-26T10:00:39+0200</time>
      </trkpt>
      <trkpt lat="47.2466" lon="4.94229">
        <ele>500.16259765625</ele>
        <time>2018-06-26T10:00:42+0200</time>
      </trkpt>
      <trkpt lat="47.24659" lon="4.94226">
        <ele>500.11322021484</ele>
        <time>2018-06-26T10:00:45+0200</time>
      </trkpt>
      <trkpt lat="47.2466" lon="4.94221">
        <ele>500.10028076172</ele>
        <time>2018-06-26T10:00:48+0200</time>
      </trkpt>
      <trkpt lat="47.2466" lon="4.9422">
        <ele>500.04766845703</ele>
        <time>2018-06-26T10:00:51+0200</time>
      </trkpt>
      <trkpt lat="47.2466" lon="4.94218">
        <ele>500.04516601562</ele>
        <time>2018-06-26T10:00:54+0200</time>
      </trkpt>
      <trkpt lat="47.24661" lon="4.94214">
        <ele>500.07702636719</ele>
        <time>2018-06-26T10:00:57+0200</time>
      </trkpt>
      <trkpt lat="47.24662" lon="4.94208">
        <ele>500.16076660156</ele>
        <time>2018-06-26T10:01:00+0200</time>
      </trkpt>
      <trkpt lat="47.24662" lon="4.94204">
        <ele>500.32647705078</ele>
        <time>2018-06-26T10:01:03+0200</time>
      </trkpt>
      <trkpt lat="47.24663" lon="4.94198">
        <ele>500.36334228516</ele>
        <time>2018-06-26T10:01:06+0200</time>
      </trkpt>
      <trkpt lat="47.24662" lon="4.94192">
        <ele>500.32025146484</ele>
        <time>2018-06-26T10:01:09+0200</time>
      </trkpt>
      <trkpt lat="47.2466" lon="4.94185">
        <ele>500.21166992188</ele>
        <time>2018-06-26T10:01:12+0200</time>
      </trkpt>
      <trkpt lat="47.2466" lon="4.94184">
        <ele>500.11761474609</ele>
        <time>2018-06-26T10:01:15+0200</time>
      </trkpt>
      <trkpt lat="47.2466" lon="4.9418">
        <ele>499.91546630859</ele>
        <time>2018-06-26T10:01:18+0200</time>
      </trkpt>
      <trkpt lat="47.2466" lon="4.94174">
        <ele>499.7802734375</ele>
        <time>2018-06-26T10:01:21+0200</time>
      </trkpt>
      <trkpt lat="47.24659" lon="4.94168">
        <ele>499.80322265625</ele>
        <time>2018-06-26T10:01:24+0200</time>
      </trkpt>
      <trkpt lat="47.2466" lon="4.94166">
        <ele>499.89526367188</ele>
        <time>2018-06-26T10:01:27+0200</time>
      </trkpt>
      <trkpt lat="47.2466" lon="4.9416">
        <ele>499.97857666016</ele>
        <time>2018-06-26T10:01:30+0200</time>
      </trkpt>
      <trkpt lat="47.2466" lon="4.94155">
        <ele>500.06958007812</ele>
        <time>2018-06-26T10:01:33+0200</time>
      </trkpt>
      <trkpt lat="47.2466" lon="4.94149">
        <ele>500.07525634766</ele>
        <time>2018-06-26T10:01:36+0200</time>
      </trkpt>
      <trkpt lat="47.24661" lon="4.94145">
        <ele>500.12347412109</ele>
        <time>2018-06-26T10:01:39+0200</time>
      </trkpt>
      <trkpt lat="47.24661" lon="4.94142">
        <ele>500.11431884766</ele>
        <time>2018-06-26T10:01:42+0200</time>
      </trkpt>
      <trkpt lat="47.24661" lon="4.94138">
        <ele>499.99975585938</ele>
        <time>2018-06-26T10:01:44+0200</time>
      </trkpt>
      <trkpt lat="47.24661" lon="4.94128">
        <ele>499.72613525391</ele>
        <time>2018-06-26T10:01:47+0200</time>
      </trkpt>
      <trkpt lat="47.24661" lon="4.94124">
        <ele>499.35424804688</ele>
        <time>2018-06-26T10:01:50+0200</time>
      </trkpt>
      <trkpt lat="47.24661" lon="4.94122">
        <ele>499.02319335938</ele>
        <time>2018-06-26T10:01:53+0200</time>
      </trkpt>
      <trkpt lat="47.24662" lon="4.94121">
        <ele>498.85296630859</ele>
        <time>2018-06-26T10:01:56+0200</time>
      </trkpt>
      <trkpt lat="47.24663" lon="4.94118">
        <ele>498.84411621094</ele>
        <time>2018-06-26T10:01:59+0200</time>
      </trkpt>
      <trkpt lat="47.24664" lon="4.94114">
        <ele>498.85607910156</ele>
        <time>2018-06-26T10:02:02+0200</time>
      </trkpt>
      <trkpt lat="47.24664" lon="4.94111">
        <ele>498.84356689453</ele>
        <time>2018-06-26T10:02:05+0200</time>
      </trkpt>
      <trkpt lat="47.24664" lon="4.94107">
        <ele>498.83203125</ele>
        <time>2018-06-26T10:02:08+0200</time>
      </trkpt>
      <trkpt lat="47.24664" lon="4.94101">
        <ele>498.91192626953</ele>
        <time>2018-06-26T10:02:11+0200</time>
      </trkpt>
      <trkpt lat="47.24665" lon="4.94094">
        <ele>498.97265625</ele>
        <time>2018-06-26T10:02:14+0200</time>
      </trkpt>
      <trkpt lat="47.24666" lon="4.94091">
        <ele>499.03771972656</ele>
        <time>2018-06-26T10:02:17+0200</time>
      </trkpt>
      <trkpt lat="47.24666" lon="4.94086">
        <ele>499.029296875</ele>
        <time>2018-06-26T10:02:20+0200</time>
      </trkpt>
      <trkpt lat="47.24666" lon="4.94079">
        <ele>498.84936523438</ele>
        <time>2018-06-26T10:02:23+0200</time>
      </trkpt>
      <trkpt lat="47.24667" lon="4.94076">
        <ele>498.62249755859</ele>
        <time>2018-06-26T10:02:26+0200</time>
      </trkpt>
      <trkpt lat="47.24667" lon="4.94075">
        <ele>498.47381591797</ele>
        <time>2018-06-26T10:02:29+0200</time>
      </trkpt>
      <trkpt lat="47.24667" lon="4.94068">
        <ele>498.33612060547</ele>
        <time>2018-06-26T10:02:32+0200</time>
      </trkpt>
      <trkpt lat="47.24668" lon="4.94062">
        <ele>498.0654296875</ele>
        <time>2018-06-26T10:02:35+0200</time>
      </trkpt>
      <trkpt lat="47.24668" lon="4.94061">
        <ele>497.85968017578</ele>
        <time>2018-06-26T10:02:38+0200</time>
      </trkpt>
      <trkpt lat="47.24667" lon="4.94057">
        <ele>497.75225830078</ele>
        <time>2018-06-26T10:02:41+0200</time>
      </trkpt>
      <trkpt lat="47.24667" lon="4.94056">
        <ele>497.65545654297</ele>
        <time>2018-06-26T10:02:44+0200</time>
      </trkpt>
      <trkpt lat="47.24667" lon="4.94052">
        <ele>497.53936767578</ele>
        <time>2018-06-26T10:02:47+0200</time>
      </trkpt>
      <trkpt lat="47.24667" lon="4.94049">
        <ele>497.4482421875</ele>
        <time>2018-06-26T10:02:50+0200</time>
      </trkpt>
      <trkpt lat="47.24667" lon="4.94048">
        <ele>497.38879394531</ele>
        <time>2018-06-26T10:02:53+0200</time>
      </trkpt>
      <trkpt lat="47.24666" lon="4.94041">
        <ele>497.33563232422</ele>
        <time>2018-06-26T10:02:56+0200</time>
      </trkpt>
      <trkpt lat="47.24667" lon="4.94032">
        <ele>497.30920410156</ele>
        <time>2018-06-26T10:02:59+0200</time>
      </trkpt>
      <trkpt lat="47.24668" lon="4.94028">
        <ele>497.28961181641</ele>
        <time>2018-06-26T10:03:02+0200</time>
      </trkpt>
      <trkpt lat="47.24668" lon="4.9402">
        <ele>497.16680908203</ele>
        <time>2018-06-26T10:03:05+0200</time>
      </trkpt>
      <trkpt lat="47.24668" lon="4.94015">
        <ele>496.97833251953</ele>
        <time>2018-06-26T10:03:08+0200</time>
      </trkpt>
      <trkpt lat="47.24669" lon="4.94011">
        <ele>496.72534179688</ele>
        <time>2018-06-26T10:03:11+0200</time>
      </trkpt>
      <trkpt lat="47.24669" lon="4.94006">
        <ele>496.46392822266</ele>
        <time>2018-06-26T10:03:14+0200</time>
      </trkpt>
      <trkpt lat="47.2467" lon="4.94001">
        <ele>496.05822753906</ele>
        <time>2018-06-26T10:03:17+0200</time>
      </trkpt>
      <trkpt lat="47.2467" lon="4.93998">
        <ele>495.65643310547</ele>
        <time>2018-06-26T10:03:20+0200</time>
      </trkpt>
      <trkpt lat="47.2467" lon="4.93994">
        <ele>495.22491455078</ele>
        <time>2018-06-26T10:03:23+0200</time>
      </trkpt>
      <trkpt lat="47.24669" lon="4.93992">
        <ele>494.86737060547</ele>
        <time>2018-06-26T10:03:26+0200</time>
      </trkpt>
      <trkpt lat="47.24669" lon="4.93988">
        <ele>494.62097167969</ele>
        <time>2018-06-26T10:03:29+0200</time>
      </trkpt>
      <trkpt lat="47.24669" lon="4.93987">
        <ele>494.4052734375</ele>
        <time>2018-06-26T10:03:32+0200</time>
      </trkpt>
      <trkpt lat="47.24669" lon="4.93978">
        <ele>494.13330078125</ele>
        <time>2018-06-26T10:03:35+0200</time>
      </trkpt>
      <trkpt lat="47.24669" lon="4.93974">
        <ele>493.91076660156</ele>
        <time>2018-06-26T10:03:38+0200</time>
      </trkpt>
      <trkpt lat="47.24668" lon="4.93973">
        <ele>493.85229492188</ele>
        <time>2018-06-26T10:03:41+0200</time>
      </trkpt>
      <trkpt lat="47.24669" lon="4.93967">
        <ele>493.82623291016</ele>
        <time>2018-06-26T10:03:44+0200</time>
      </trkpt>
      <trkpt lat="47.2467" lon="4.93964">
        <ele>493.79644775391</ele>
        <time>2018-06-26T10:03:47+0200</time>
      </trkpt>
      <trkpt lat="47.2467" lon="4.93958">
        <ele>493.73944091797</ele>
        <time>2018-06-26T10:03:50+0200</time>
      </trkpt>
      <trkpt lat="47.2467" lon="4.93955">
        <ele>493.70867919922</ele>
        <time>2018-06-26T10:03:53+0200</time>
      </trkpt>
      <trkpt lat="47.2467" lon="4.9395">
        <ele>493.73907470703</ele>
        <time>2018-06-26T10:03:56+0200</time>
      </trkpt>
      <trkpt lat="47.2467" lon="4.93948">
        <ele>493.79888916016</ele>
        <time>2018-06-26T10:03:59+0200</time>
      </trkpt>
      <trkpt lat="47.24671" lon="4.93943">
        <ele>493.96173095703</ele>
        <time>2018-06-26T10:04:02+0200</time>
      </trkpt>
      <trkpt lat="47.2467" lon="4.93941">
        <ele>494.11151123047</ele>
        <time>2018-06-26T10:04:05+0200</time>
      </trkpt>
      <trkpt lat="47.2467" lon="4.93939">
        <ele>494.15496826172</ele>
        <time>2018-06-26T10:04:08+0200</time>
      </trkpt>
      <trkpt lat="47.2467" lon="4.93932">
        <ele>494.15539550781</ele>
        <time>2018-06-26T10:04:11+0200</time>
      </trkpt>
      <trkpt lat="47.24669" lon="4.93928">
        <ele>494.15509033203</ele>
        <time>2018-06-26T10:04:14+0200</time>
      </trkpt>
      <trkpt lat="47.24668" lon="4.93926">
        <ele>494.15942382812</ele>
        <time>2018-06-26T10:04:17+0200</time>
      </trkpt>
      <trkpt lat="47.24669" lon="4.93922">
        <ele>494.22308349609</ele>
        <time>2018-06-26T10:04:20+0200</time>
      </trkpt>
      <trkpt lat="47.24669" lon="4.93919">
        <ele>494.28881835938</ele>
        <time>2018-06-26T10:04:23+0200</time>
      </trkpt>
      <trkpt lat="47.24668" lon="4.93916">
        <ele>494.29876708984</ele>
        <time>2018-06-26T10:04:26+0200</time>
      </trkpt>
      <trkpt lat="47.24668" lon="4.93908">
        <ele>494.40258789062</ele>
        <time>2018-06-26T10:04:29+0200</time>
      </trkpt>
      <trkpt lat="47.24668" lon="4.93904">
        <ele>494.48931884766</ele>
        <time>2018-06-26T10:04:32+0200</time>
      </trkpt>
      <trkpt lat="47.24667" lon="4.93901">
        <ele>494.48669433594</ele>
        <time>2018-06-26T10:04:35+0200</time>
      </trkpt>
      <trkpt lat="47.24667" lon="4.93897">
        <ele>494.48760986328</ele>
        <time>2018-06-26T10:04:38+0200</time>
      </trkpt>
      <trkpt lat="47.24668" lon="4.93893">
        <ele>494.36682128906</ele>
        <time>2018-06-26T10:04:41+0200</time>
      </trkpt>
      <trkpt lat="47.24667" lon="4.93889">
        <ele>494.32318115234</ele>
        <time>2018-06-26T10:04:44+0200</time>
      </trkpt>
      <trkpt lat="47.24666" lon="4.93888">
        <ele>494.29376220703</ele>
        <time>2018-06-26T10:04:47+0200</time>
      </trkpt>
      <trkpt lat="47.24666" lon="4.93887">
        <ele>494.35687255859</ele>
        <time>2018-06-26T10:04:50+0200</time>
      </trkpt>
      <trkpt lat="47.24666" lon="4.93885">
        <ele>494.37237548828</ele>
        <time>2018-06-26T10:04:53+0200</time>
      </trkpt>
      <trkpt lat="47.24667" lon="4.9388">
        <ele>494.59301757812</ele>
        <time>2018-06-26T10:04:56+0200</time>
      </trkpt>
      <trkpt lat="47.24667" lon="4.93873">
        <ele>494.74206542969</ele>
        <time>2018-06-26T10:04:59+0200</time>
      </trkpt>
      <trkpt lat="47.24667" lon="4.93871">
        <ele>494.92272949219</ele>
        <time>2018-06-26T10:05:02+0200</time>
      </trkpt>
      <trkpt lat="47.24666" lon="4.93859">
        <ele>495.12438964844</ele>
        <time>2018-06-26T10:05:05+0200</time>
      </trkpt>
      <trkpt lat="47.24666" lon="4.93857">
        <ele>495.177734375</ele>
        <time>2018-06-26T10:05:08+0200</time>
      </trkpt>
      <trkpt lat="47.24667" lon="4.93854">
        <ele>495.17834472656</ele>
        <time>2018-06-26T10:05:11+0200</time>
      </trkpt>
      <trkpt lat="47.24668" lon="4.93845">
        <ele>495.09704589844</ele>
        <time>2018-06-26T10:05:14+0200</time>
      </trkpt>
      <trkpt lat="47.24668" lon="4.93842">
        <ele>494.91510009766</ele>
        <time>2018-06-26T10:05:17+0200</time>
      </trkpt>
      <trkpt lat="47.24668" lon="4.93839">
        <ele>494.80395507812</ele>
        <time>2018-06-26T10:05:20+0200</time>
      </trkpt>
      <trkpt lat="47.24668" lon="4.93836">
        <ele>494.47729492188</ele>
        <time>2018-06-26T10:05:23+0200</time>
      </trkpt>
      <trkpt lat="47.24667" lon="4.93832">
        <ele>494.39019775391</ele>
        <time>2018-06-26T10:05:26+0200</time>
      </trkpt>
      <trkpt lat="47.24669" lon="4.93823">
        <ele>494.25665283203</ele>
        <time>2018-06-26T10:05:29+0200</time>
      </trkpt>
      <trkpt lat="47.24669" lon="4.93816">
        <ele>494.05242919922</ele>
        <time>2018-06-26T10:05:32+0200</time>
      </trkpt>
      <trkpt lat="47.24668" lon="4.93811">
        <ele>493.84149169922</ele>
        <time>2018-06-26T10:05:35+0200</time>
      </trkpt>
      <trkpt lat="47.24667" lon="4.9381">
        <ele>493.71466064453</ele>
        <time>2018-06-26T10:05:38+0200</time>
      </trkpt>
      <trkpt lat="47.24667" lon="4.93804">
        <ele>493.77117919922</ele>
        <time>2018-06-26T10:05:41+0200</time>
      </trkpt>
      <trkpt lat="47.24668" lon="4.93799">
        <ele>493.99114990234</ele>
        <time>2018-06-26T10:05:44+0200</time>
      </trkpt>
      <trkpt lat="47.24668" lon="4.93797">
        <ele>494.22375488281</ele>
        <time>2018-06-26T10:05:47+0200</time>
      </trkpt>
      <trkpt lat="47.24669" lon="4.93793">
        <ele>494.31646728516</ele>
        <time>2018-06-26T10:05:50+0200</time>
      </trkpt>
      <trkpt lat="47.2467" lon="4.9379">
        <ele>494.33825683594</ele>
        <time>2018-06-26T10:05:53+0200</time>
      </trkpt>
      <trkpt lat="47.24671" lon="4.93786">
        <ele>494.29510498047</ele>
        <time>2018-06-26T10:05:56+0200</time>
      </trkpt>
      <trkpt lat="47.24672" lon="4.9378">
        <ele>494.14416503906</ele>
        <time>2018-06-26T10:05:59+0200</time>
      </trkpt>
      <trkpt lat="47.24674" lon="4.93778">
        <ele>493.79138183594</ele>
        <time>2018-06-26T10:06:02+0200</time>
      </trkpt>
      <trkpt lat="47.24675" lon="4.93775">
        <ele>493.39270019531</ele>
        <time>2018-06-26T10:06:05+0200</time>
      </trkpt>
      <trkpt lat="47.24679" lon="4.9377">
        <ele>492.97052001953</ele>
        <time>2018-06-26T10:06:08+0200</time>
      </trkpt>
      <trkpt lat="47.24679" lon="4.93767">
        <ele>492.62622070312</ele>
        <time>2018-06-26T10:06:11+0200</time>
      </trkpt>
      <trkpt lat="47.24681" lon="4.93765">
        <ele>492.36663818359</ele>
        <time>2018-06-26T10:06:14+0200</time>
      </trkpt>
      <trkpt lat="47.24681" lon="4.93765">
        <ele>492.33630371094</ele>
        <time>2018-06-26T10:06:17+0200</time>
      </trkpt>
      <trkpt lat="47.24681" lon="4.93765">
        <ele>492.30346679688</ele>
        <time>2018-06-26T10:06:20+0200</time>
      </trkpt>
      <trkpt lat="47.24681" lon="4.93764">
        <ele>492.20404052734</ele>
        <time>2018-06-26T10:06:23+0200</time>
      </trkpt>
      <trkpt lat="47.24682" lon="4.93761">
        <ele>492.01544189453</ele>
        <time>2018-06-26T10:06:26+0200</time>
      </trkpt>
      <trkpt lat="47.24682" lon="4.9376">
        <ele>492.01983642578</ele>
        <time>2018-06-26T10:06:29+0200</time>
      </trkpt>
      <trkpt lat="47.24681" lon="4.9376">
        <ele>492.04638671875</ele>
        <time>2018-06-26T10:06:32+0200</time>
      </trkpt>
      <trkpt lat="47.24681" lon="4.9376">
        <ele>492.09661865234</ele>
        <time>2018-06-26T10:06:35+0200</time>
      </trkpt>
      <trkpt lat="47.24681" lon="4.93759">
        <ele>492.13983154297</ele>
        <time>2018-06-26T10:06:38+0200</time>
      </trkpt>
      <trkpt lat="47.2468" lon="4.93757">
        <ele>492.177734375</ele>
        <time>2018-06-26T10:06:41+0200</time>
      </trkpt>
      <trkpt lat="47.2468" lon="4.93757">
        <ele>492.21502685547</ele>
        <time>2018-06-26T10:06:44+0200</time>
      </trkpt>
      <trkpt lat="47.2468" lon="4.93757">
        <ele>492.26007080078</ele>
        <time>2018-06-26T10:06:47+0200</time>
      </trkpt>
      <trkpt lat="47.2468" lon="4.93756">
        <ele>492.32147216797</ele>
        <time>2018-06-26T10:06:50+0200</time>
      </trkpt>
      <trkpt lat="47.24681" lon="4.93756">
        <ele>492.40502929688</ele>
        <time>2018-06-26T10:06:53+0200</time>
      </trkpt>
      <trkpt lat="47.24681" lon="4.93755">
        <ele>492.50091552734</ele>
        <time>2018-06-26T10:06:56+0200</time>
      </trkpt>
      <trkpt lat="47.24683" lon="4.93755">
        <ele>492.65795898438</ele>
        <time>2018-06-26T10:06:59+0200</time>
      </trkpt>
      <trkpt lat="47.24684" lon="4.93754">
        <ele>492.85577392578</ele>
        <time>2018-06-26T10:07:02+0200</time>
      </trkpt>
      <trkpt lat="47.24685" lon="4.93753">
        <ele>493.04675292969</ele>
        <time>2018-06-26T10:07:05+0200</time>
      </trkpt>
      <trkpt lat="47.24686" lon="4.93752">
        <ele>493.21893310547</ele>
        <time>2018-06-26T10:07:08+0200</time>
      </trkpt>
      <trkpt lat="47.24687" lon="4.93751">
        <ele>493.37823486328</ele>
        <time>2018-06-26T10:07:11+0200</time>
      </trkpt>
      <trkpt lat="47.24686" lon="4.93751">
        <ele>493.88690185547</ele>
        <time>2018-06-26T10:07:14+0200</time>
      </trkpt>
      <trkpt lat="47.24687" lon="4.93752">
        <ele>493.98919677734</ele>
        <time>2018-06-26T10:07:17+0200</time>
      </trkpt>
      <trkpt lat="47.24687" lon="4.93753">
        <ele>494.12017822266</ele>
        <time>2018-06-26T10:07:20+0200</time>
      </trkpt>
      <trkpt lat="47.24688" lon="4.93752">
        <ele>494.26397705078</ele>
        <time>2018-06-26T10:07:23+0200</time>
      </trkpt>
      <trkpt lat="47.24688" lon="4.93752">
        <ele>494.41125488281</ele>
        <time>2018-06-26T10:07:26+0200</time>
      </trkpt>
      <trkpt lat="47.24688" lon="4.93752">
        <ele>494.55267333984</ele>
        <time>2018-06-26T10:07:29+0200</time>
      </trkpt>
      <trkpt lat="47.24688" lon="4.93752">
        <ele>494.6826171875</ele>
        <time>2018-06-26T10:07:32+0200</time>
      </trkpt>
      <trkpt lat="47.24688" lon="4.93753">
        <ele>494.79919433594</ele>
        <time>2018-06-26T10:07:35+0200</time>
      </trkpt>
      <trkpt lat="47.24689" lon="4.93754">
        <ele>494.89794921875</ele>
        <time>2018-06-26T10:07:38+0200</time>
      </trkpt>
      <trkpt lat="47.24689" lon="4.93754">
        <ele>494.98034667969</ele>
        <time>2018-06-26T10:07:41+0200</time>
      </trkpt>
      <trkpt lat="47.24689" lon="4.93754">
        <ele>495.04718017578</ele>
        <time>2018-06-26T10:07:44+0200</time>
      </trkpt>
      <trkpt lat="47.24689" lon="4.93755">
        <ele>495.10412597656</ele>
        <time>2018-06-26T10:07:47+0200</time>
      </trkpt>
      <trkpt lat="47.24689" lon="4.93756">
        <ele>495.15130615234</ele>
        <time>2018-06-26T10:07:50+0200</time>
      </trkpt>
      <trkpt lat="47.24689" lon="4.93756">
        <ele>495.19793701172</ele>
        <time>2018-06-26T10:07:53+0200</time>
      </trkpt>
      <trkpt lat="47.2469" lon="4.93756">
        <ele>495.24194335938</ele>
        <time>2018-06-26T10:07:56+0200</time>
      </trkpt>
      <trkpt lat="47.2469" lon="4.93757">
        <ele>495.28460693359</ele>
        <time>2018-06-26T10:07:59+0200</time>
      </trkpt>
      <trkpt lat="47.2469" lon="4.93758">
        <ele>495.61529541016</ele>
        <time>2018-06-26T10:08:02+0200</time>
      </trkpt>
      <trkpt lat="47.2469" lon="4.93758">
        <ele>496.15698242188</ele>
        <time>2018-06-26T10:08:05+0200</time>
      </trkpt>
      <trkpt lat="47.24689" lon="4.93758">
        <ele>496.39453125</ele>
        <time>2018-06-26T10:08:08+0200</time>
      </trkpt>
      <trkpt lat="47.24687" lon="4.9376">
        <ele>496.70062255859</ele>
        <time>2018-06-26T10:08:11+0200</time>
      </trkpt>
      <trkpt lat="47.24687" lon="4.93759">
        <ele>496.91552734375</ele>
        <time>2018-06-26T10:08:14+0200</time>
      </trkpt>
      <trkpt lat="47.24688" lon="4.93757">
        <ele>497.03381347656</ele>
        <time>2018-06-26T10:08:17+0200</time>
      </trkpt>
      <trkpt lat="47.24689" lon="4.93754">
        <ele>497.14440917969</ele>
        <time>2018-06-26T10:08:20+0200</time>
      </trkpt>
      <trkpt lat="47.2469" lon="4.93752">
        <ele>497.11840820312</ele>
        <time>2018-06-26T10:08:23+0200</time>
      </trkpt>
      <trkpt lat="47.24691" lon="4.9375">
        <ele>497.01123046875</ele>
        <time>2018-06-26T10:08:26+0200</time>
      </trkpt>
      <trkpt lat="47.24691" lon="4.93747">
        <ele>496.89617919922</ele>
        <time>2018-06-26T10:08:29+0200</time>
      </trkpt>
      <trkpt lat="47.2469" lon="4.93746">
        <ele>496.71685791016</ele>
        <time>2018-06-26T10:08:32+0200</time>
      </trkpt>
      <trkpt lat="47.24692" lon="4.93742">
        <ele>496.47381591797</ele>
        <time>2018-06-26T10:08:35+0200</time>
      </trkpt>
      <trkpt lat="47.24693" lon="4.93736">
        <ele>496.36761474609</ele>
        <time>2018-06-26T10:08:38+0200</time>
      </trkpt>
      <trkpt lat="47.24694" lon="4.93733">
        <ele>496.37347412109</ele>
        <time>2018-06-26T10:08:41+0200</time>
      </trkpt>
      <trkpt lat="47.24695" lon="4.93729">
        <ele>496.40808105469</ele>
        <time>2018-06-26T10:08:44+0200</time>
      </trkpt>
      <trkpt lat="47.24696" lon="4.93724">
        <ele>496.51391601562</ele>
        <time>2018-06-26T10:08:47+0200</time>
      </trkpt>
      <trkpt lat="47.24696" lon="4.93721">
        <ele>496.61926269531</ele>
        <time>2018-06-26T10:08:50+0200</time>
      </trkpt>
      <trkpt lat="47.24697" lon="4.93719">
        <ele>496.7568359375</ele>
        <time>2018-06-26T10:08:53+0200</time>
      </trkpt>
      <trkpt lat="47.24697" lon="4.93715">
        <ele>496.88037109375</ele>
        <time>2018-06-26T10:08:56+0200</time>
      </trkpt>
      <trkpt lat="47.24697" lon="4.93712">
        <ele>497.03179931641</ele>
        <time>2018-06-26T10:08:59+0200</time>
      </trkpt>
      <trkpt lat="47.24697" lon="4.93709">
        <ele>497.19232177734</ele>
        <time>2018-06-26T10:09:02+0200</time>
      </trkpt>
      <trkpt lat="47.24697" lon="4.93706">
        <ele>497.37188720703</ele>
        <time>2018-06-26T10:09:05+0200</time>
      </trkpt>
      <trkpt lat="47.24698" lon="4.93703">
        <ele>497.5625</ele>
        <time>2018-06-26T10:09:08+0200</time>
      </trkpt>
      <trkpt lat="47.24699" lon="4.93699">
        <ele>497.75549316406</ele>
        <time>2018-06-26T10:09:11+0200</time>
      </trkpt>
      <trkpt lat="47.247" lon="4.93695">
        <ele>497.93615722656</ele>
        <time>2018-06-26T10:09:14+0200</time>
      </trkpt>
      <trkpt lat="47.24701" lon="4.93692">
        <ele>498.16333007812</ele>
        <time>2018-06-26T10:09:17+0200</time>
      </trkpt>
      <trkpt lat="47.24703" lon="4.93687">
        <ele>498.41784667969</ele>
        <time>2018-06-26T10:09:20+0200</time>
      </trkpt>
      <trkpt lat="47.24703" lon="4.93684">
        <ele>498.62017822266</ele>
        <time>2018-06-26T10:09:23+0200</time>
      </trkpt>
      <trkpt lat="47.24703" lon="4.9368">
        <ele>498.83050537109</ele>
        <time>2018-06-26T10:09:26+0200</time>
      </trkpt>
      <trkpt lat="47.24703" lon="4.93676">
        <ele>499.00689697266</ele>
        <time>2018-06-26T10:09:29+0200</time>
      </trkpt>
      <trkpt lat="47.24704" lon="4.93673">
        <ele>499.22998046875</ele>
        <time>2018-06-26T10:09:32+0200</time>
      </trkpt>
      <trkpt lat="47.24705" lon="4.93668">
        <ele>499.49066162109</ele>
        <time>2018-06-26T10:09:35+0200</time>
      </trkpt>
      <trkpt lat="47.24706" lon="4.93663">
        <ele>499.6875</ele>
        <time>2018-06-26T10:09:38+0200</time>
      </trkpt>
      <trkpt lat="47.24706" lon="4.93661">
        <ele>499.82025146484</ele>
        <time>2018-06-26T10:09:41+0200</time>
      </trkpt>
      <trkpt lat="47.24708" lon="4.93657">
        <ele>499.85162353516</ele>
        <time>2018-06-26T10:09:44+0200</time>
      </trkpt>
      <trkpt lat="47.24708" lon="4.93654">
        <ele>499.876953125</ele>
        <time>2018-06-26T10:09:47+0200</time>
      </trkpt>
      <trkpt lat="47.24709" lon="4.93649">
        <ele>499.88806152344</ele>
        <time>2018-06-26T10:09:50+0200</time>
      </trkpt>
      <trkpt lat="47.24712" lon="4.93643">
        <ele>499.87921142578</ele>
        <time>2018-06-26T10:09:53+0200</time>
      </trkpt>
      <trkpt lat="47.24713" lon="4.9364">
        <ele>499.79443359375</ele>
        <time>2018-06-26T10:09:56+0200</time>
      </trkpt>
      <trkpt lat="47.24714" lon="4.93635">
        <ele>499.70190429688</ele>
        <time>2018-06-26T10:09:59+0200</time>
      </trkpt>
      <trkpt lat="47.24715" lon="4.93632">
        <ele>499.48962402344</ele>
        <time>2018-06-26T10:10:02+0200</time>
      </trkpt>
      <trkpt lat="47.24715" lon="4.93627">
        <ele>499.34069824219</ele>
        <time>2018-06-26T10:10:05+0200</time>
      </trkpt>
      <trkpt lat="47.24716" lon="4.93623">
        <ele>499.18762207031</ele>
        <time>2018-06-26T10:10:08+0200</time>
      </trkpt>
      <trkpt lat="47.24717" lon="4.93618">
        <ele>499.056640625</ele>
        <time>2018-06-26T10:10:11+0200</time>
      </trkpt>
      <trkpt lat="47.24718" lon="4.93615">
        <ele>498.9560546875</ele>
        <time>2018-06-26T10:10:14+0200</time>
      </trkpt>
      <trkpt lat="47.24719" lon="4.93612">
        <ele>498.92700195312</ele>
        <time>2018-06-26T10:10:17+0200</time>
      </trkpt>
      <trkpt lat="47.2472" lon="4.93608">
        <ele>498.91149902344</ele>
        <time>2018-06-26T10:10:20+0200</time>
      </trkpt>
      <trkpt lat="47.24722" lon="4.93601">
        <ele>498.92645263672</ele>
        <time>2018-06-26T10:10:23+0200</time>
      </trkpt>
      <trkpt lat="47.24721" lon="4.93601">
        <ele>498.96264648438</ele>
        <time>2018-06-26T10:10:26+0200</time>
      </trkpt>
      <trkpt lat="47.24724" lon="4.93595">
        <ele>499.17309570312</ele>
        <time>2018-06-26T10:10:29+0200</time>
      </trkpt>
      <trkpt lat="47.24725" lon="4.93592">
        <ele>499.62048339844</ele>
        <time>2018-06-26T10:10:32+0200</time>
      </trkpt>
      <trkpt lat="47.24725" lon="4.93591">
        <ele>500.20947265625</ele>
        <time>2018-06-26T10:10:35+0200</time>
      </trkpt>
      <trkpt lat="47.24726" lon="4.9359">
        <ele>500.98773193359</ele>
        <time>2018-06-26T10:10:38+0200</time>
      </trkpt>
      <trkpt lat="47.24728" lon="4.93587">
        <ele>501.76501464844</ele>
        <time>2018-06-26T10:10:41+0200</time>
      </trkpt>
      <trkpt lat="47.24731" lon="4.93583">
        <ele>502.38452148438</ele>
        <time>2018-06-26T10:10:44+0200</time>
      </trkpt>
      <trkpt lat="47.24731" lon="4.93581">
        <ele>502.91296386719</ele>
        <time>2018-06-26T10:10:47+0200</time>
      </trkpt>
      <trkpt lat="47.24732" lon="4.93579">
        <ele>503.50946044922</ele>
        <time>2018-06-26T10:10:50+0200</time>
      </trkpt>
      <trkpt lat="47.24733" lon="4.93574">
        <ele>504.17895507812</ele>
        <time>2018-06-26T10:10:53+0200</time>
      </trkpt>
      <trkpt lat="47.24735" lon="4.93572">
        <ele>504.77404785156</ele>
        <time>2018-06-26T10:10:56+0200</time>
      </trkpt>
      <trkpt lat="47.24736" lon="4.93569">
        <ele>505.31658935547</ele>
        <time>2018-06-26T10:10:59+0200</time>
      </trkpt>
      <trkpt lat="47.24738" lon="4.93566">
        <ele>505.75805664062</ele>
        <time>2018-06-26T10:11:02+0200</time>
      </trkpt>
      <trkpt lat="47.2474" lon="4.93563">
        <ele>506.05120849609</ele>
        <time>2018-06-26T10:11:05+0200</time>
      </trkpt>
      <trkpt lat="47.24743" lon="4.93561">
        <ele>506.00885009766</ele>
        <time>2018-06-26T10:11:08+0200</time>
      </trkpt>
      <trkpt lat="47.24745" lon="4.93556">
        <ele>505.76025390625</ele>
        <time>2018-06-26T10:11:11+0200</time>
      </trkpt>
      <trkpt lat="47.24747" lon="4.9355">
        <ele>505.56433105469</ele>
        <time>2018-06-26T10:11:14+0200</time>
      </trkpt>
      <trkpt lat="47.24749" lon="4.93546">
        <ele>505.33587646484</ele>
        <time>2018-06-26T10:11:17+0200</time>
      </trkpt>
      <trkpt lat="47.24752" lon="4.93543">
        <ele>505.02960205078</ele>
        <time>2018-06-26T10:11:20+0200</time>
      </trkpt>
      <trkpt lat="47.24753" lon="4.93539">
        <ele>504.81658935547</ele>
        <time>2018-06-26T10:11:23+0200</time>
      </trkpt>
      <trkpt lat="47.24754" lon="4.93536">
        <ele>504.69995117188</ele>
        <time>2018-06-26T10:11:26+0200</time>
      </trkpt>
      <trkpt lat="47.24755" lon="4.93531">
        <ele>504.65765380859</ele>
        <time>2018-06-26T10:11:29+0200</time>
      </trkpt>
      <trkpt lat="47.24756" lon="4.9353">
        <ele>504.58966064453</ele>
        <time>2018-06-26T10:11:32+0200</time>
      </trkpt>
      <trkpt lat="47.24757" lon="4.93528">
        <ele>504.52630615234</ele>
        <time>2018-06-26T10:11:35+0200</time>
      </trkpt>
      <trkpt lat="47.2476" lon="4.93526">
        <ele>504.54821777344</ele>
        <time>2018-06-26T10:11:38+0200</time>
      </trkpt>
      <trkpt lat="47.24762" lon="4.93524">
        <ele>504.50726318359</ele>
        <time>2018-06-26T10:11:41+0200</time>
      </trkpt>
      <trkpt lat="47.24763" lon="4.93522">
        <ele>504.48229980469</ele>
        <time>2018-06-26T10:11:44+0200</time>
      </trkpt>
      <trkpt lat="47.24764" lon="4.93519">
        <ele>504.67065429688</ele>
        <time>2018-06-26T10:11:47+0200</time>
      </trkpt>
      <trkpt lat="47.24765" lon="4.93516">
        <ele>504.93804931641</ele>
        <time>2018-06-26T10:11:50+0200</time>
      </trkpt>
      <trkpt lat="47.24766" lon="4.93511">
        <ele>505.17242431641</ele>
        <time>2018-06-26T10:11:53+0200</time>
      </trkpt>
      <trkpt lat="47.24768" lon="4.93508">
        <ele>505.40325927734</ele>
        <time>2018-06-26T10:11:56+0200</time>
      </trkpt>
      <trkpt lat="47.24769" lon="4.93505">
        <ele>505.75354003906</ele>
        <time>2018-06-26T10:11:59+0200</time>
      </trkpt>
      <trkpt lat="47.2477" lon="4.93501">
        <ele>506.22039794922</ele>
        <time>2018-06-26T10:12:02+0200</time>
      </trkpt>
      <trkpt lat="47.24771" lon="4.93499">
        <ele>506.76226806641</ele>
        <time>2018-06-26T10:12:05+0200</time>
      </trkpt>
      <trkpt lat="47.24774" lon="4.93495">
        <ele>507.28955078125</ele>
        <time>2018-06-26T10:12:08+0200</time>
      </trkpt>
      <trkpt lat="47.24775" lon="4.93493">
        <ele>507.79913330078</ele>
        <time>2018-06-26T10:12:11+0200</time>
      </trkpt>
      <trkpt lat="47.24777" lon="4.93492">
        <ele>508.33746337891</ele>
        <time>2018-06-26T10:12:14+0200</time>
      </trkpt>
      <trkpt lat="47.24779" lon="4.9349">
        <ele>508.80303955078</ele>
        <time>2018-06-26T10:12:17+0200</time>
      </trkpt>
      <trkpt lat="47.2478" lon="4.93489">
        <ele>509.26751708984</ele>
        <time>2018-06-26T10:12:20+0200</time>
      </trkpt>
      <trkpt lat="47.24781" lon="4.93489">
        <ele>509.77221679688</ele>
        <time>2018-06-26T10:12:23+0200</time>
      </trkpt>
      <trkpt lat="47.24783" lon="4.93486">
        <ele>510.25640869141</ele>
        <time>2018-06-26T10:12:26+0200</time>
      </trkpt>
      <trkpt lat="47.24788" lon="4.93481">
        <ele>510.6357421875</ele>
        <time>2018-06-26T10:12:29+0200</time>
      </trkpt>
      <trkpt lat="47.24791" lon="4.93478">
        <ele>510.82586669922</ele>
        <time>2018-06-26T10:12:32+0200</time>
      </trkpt>
      <trkpt lat="47.24791" lon="4.93475">
        <ele>511.00256347656</ele>
        <time>2018-06-26T10:12:35+0200</time>
      </trkpt>
      <trkpt lat="47.24793" lon="4.93471">
        <ele>511.23455810547</ele>
        <time>2018-06-26T10:12:38+0200</time>
      </trkpt>
      <trkpt lat="47.24795" lon="4.93468">
        <ele>511.47100830078</ele>
        <time>2018-06-26T10:12:41+0200</time>
      </trkpt>
      <trkpt lat="47.24798" lon="4.93466">
        <ele>511.66485595703</ele>
        <time>2018-06-26T10:12:44+0200</time>
      </trkpt>
      <trkpt lat="47.24799" lon="4.93464">
        <ele>511.97253417969</ele>
        <time>2018-06-26T10:12:47+0200</time>
      </trkpt>
      <trkpt lat="47.24802" lon="4.93461">
        <ele>512.30963134766</ele>
        <time>2018-06-26T10:12:50+0200</time>
      </trkpt>
      <trkpt lat="47.24803" lon="4.93458">
        <ele>512.62701416016</ele>
        <time>2018-06-26T10:12:53+0200</time>
      </trkpt>
      <trkpt lat="47.24805" lon="4.93455">
        <ele>512.83111572266</ele>
        <time>2018-06-26T10:12:56+0200</time>
      </trkpt>
      <trkpt lat="47.24807" lon="4.93452">
        <ele>512.99224853516</ele>
        <time>2018-06-26T10:12:59+0200</time>
      </trkpt>
      <trkpt lat="47.24806" lon="4.9345">
        <ele>513.23120117188</ele>
        <time>2018-06-26T10:13:02+0200</time>
      </trkpt>
      <trkpt lat="47.24808" lon="4.93447">
        <ele>513.55096435547</ele>
        <time>2018-06-26T10:13:05+0200</time>
      </trkpt>
      <trkpt lat="47.24809" lon="4.93443">
        <ele>513.78717041016</ele>
        <time>2018-06-26T10:13:08+0200</time>
      </trkpt>
      <trkpt lat="47.24812" lon="4.9344">
        <ele>513.97827148438</ele>
        <time>2018-06-26T10:13:11+0200</time>
      </trkpt>
      <trkpt lat="47.24814" lon="4.93435">
        <ele>514.05169677734</ele>
        <time>2018-06-26T10:13:14+0200</time>
      </trkpt>
      <trkpt lat="47.24815" lon="4.93432">
        <ele>514.05969238281</ele>
        <time>2018-06-26T10:13:17+0200</time>
      </trkpt>
      <trkpt lat="47.24819" lon="4.93428">
        <ele>513.97900390625</ele>
        <time>2018-06-26T10:13:20+0200</time>
      </trkpt>
      <trkpt lat="47.24821" lon="4.93425">
        <ele>514.01141357422</ele>
        <time>2018-06-26T10:13:23+0200</time>
      </trkpt>
      <trkpt lat="47.24822" lon="4.93423">
        <ele>514.20275878906</ele>
        <time>2018-06-26T10:13:26+0200</time>
      </trkpt>
      <trkpt lat="47.24822" lon="4.9342">
        <ele>514.56298828125</ele>
        <time>2018-06-26T10:13:29+0200</time>
      </trkpt>
      <trkpt lat="47.24824" lon="4.93417">
        <ele>515.05932617188</ele>
        <time>2018-06-26T10:13:32+0200</time>
      </trkpt>
      <trkpt lat="47.24824" lon="4.93416">
        <ele>515.46246337891</ele>
        <time>2018-06-26T10:13:35+0200</time>
      </trkpt>
      <trkpt lat="47.24826" lon="4.93412">
        <ele>515.86633300781</ele>
        <time>2018-06-26T10:13:38+0200</time>
      </trkpt>
      <trkpt lat="47.24828" lon="4.93409">
        <ele>516.41040039062</ele>
        <time>2018-06-26T10:13:41+0200</time>
      </trkpt>
      <trkpt lat="47.2483" lon="4.93406">
        <ele>516.99645996094</ele>
        <time>2018-06-26T10:13:44+0200</time>
      </trkpt>
      <trkpt lat="47.24834" lon="4.93403">
        <ele>517.62670898438</ele>
        <time>2018-06-26T10:13:47+0200</time>
      </trkpt>
      <trkpt lat="47.24835" lon="4.934">
        <ele>518.17645263672</ele>
        <time>2018-06-26T10:13:50+0200</time>
      </trkpt>
      <trkpt lat="47.24837" lon="4.93396">
        <ele>518.51519775391</ele>
        <time>2018-06-26T10:13:53+0200</time>
      </trkpt>
      <trkpt lat="47.24841" lon="4.9339">
        <ele>518.82238769531</ele>
        <time>2018-06-26T10:13:56+0200</time>
      </trkpt>
      <trkpt lat="47.24844" lon="4.93386">
        <ele>519.11248779297</ele>
        <time>2018-06-26T10:13:59+0200</time>
      </trkpt>
      <trkpt lat="47.24847" lon="4.93383">
        <ele>519.55041503906</ele>
        <time>2018-06-26T10:14:02+0200</time>
      </trkpt>
      <trkpt lat="47.24847" lon="4.93382">
        <ele>519.90606689453</ele>
        <time>2018-06-26T10:14:06+0200</time>
      </trkpt>
      <trkpt lat="47.24847" lon="4.93378">
        <ele>520.22436523438</ele>
        <time>2018-06-26T10:14:09+0200</time>
      </trkpt>
      <trkpt lat="47.24848" lon="4.93376">
        <ele>520.62121582031</ele>
        <time>2018-06-26T10:14:12+0200</time>
      </trkpt>
      <trkpt lat="47.2485" lon="4.93373">
        <ele>521.21356201172</ele>
        <time>2018-06-26T10:14:15+0200</time>
      </trkpt>
      <trkpt lat="47.24852" lon="4.93371">
        <ele>521.65582275391</ele>
        <time>2018-06-26T10:14:18+0200</time>
      </trkpt>
      <trkpt lat="47.24853" lon="4.93369">
        <ele>521.96942138672</ele>
        <time>2018-06-26T10:14:21+0200</time>
      </trkpt>
      <trkpt lat="47.24854" lon="4.93367">
        <ele>522.17565917969</ele>
        <time>2018-06-26T10:14:24+0200</time>
      </trkpt>
      <trkpt lat="47.24857" lon="4.93362">
        <ele>522.40838623047</ele>
        <time>2018-06-26T10:14:27+0200</time>
      </trkpt>
      <trkpt lat="47.24861" lon="4.93355">
        <ele>522.73321533203</ele>
        <time>2018-06-26T10:14:30+0200</time>
      </trkpt>
      <trkpt lat="47.24863" lon="4.93351">
        <ele>523.10821533203</ele>
        <time>2018-06-26T10:14:33+0200</time>
      </trkpt>
      <trkpt lat="47.24866" lon="4.93348">
        <ele>523.54528808594</ele>
        <time>2018-06-26T10:14:36+0200</time>
      </trkpt>
      <trkpt lat="47.24869" lon="4.93346">
        <ele>523.84820556641</ele>
        <time>2018-06-26T10:14:39+0200</time>
      </trkpt>
      <trkpt lat="47.24872" lon="4.93342">
        <ele>523.92352294922</ele>
        <time>2018-06-26T10:14:42+0200</time>
      </trkpt>
      <trkpt lat="47.24873" lon="4.93341">
        <ele>523.94470214844</ele>
        <time>2018-06-26T10:14:45+0200</time>
      </trkpt>
      <trkpt lat="47.24875" lon="4.93338">
        <ele>523.90673828125</ele>
        <time>2018-06-26T10:14:48+0200</time>
      </trkpt>
      <trkpt lat="47.24877" lon="4.93336">
        <ele>523.75415039062</ele>
        <time>2018-06-26T10:14:51+0200</time>
      </trkpt>
      <trkpt lat="47.24879" lon="4.93335">
        <ele>523.4892578125</ele>
        <time>2018-06-26T10:14:54+0200</time>
      </trkpt>
      <trkpt lat="47.2488" lon="4.93333">
        <ele>523.13238525391</ele>
        <time>2018-06-26T10:14:57+0200</time>
      </trkpt>
      <trkpt lat="47.24881" lon="4.9333">
        <ele>522.78143310547</ele>
        <time>2018-06-26T10:15:00+0200</time>
      </trkpt>
      <trkpt lat="47.24884" lon="4.93325">
        <ele>522.41400146484</ele>
        <time>2018-06-26T10:15:03+0200</time>
      </trkpt>
      <trkpt lat="47.24888" lon="4.9332">
        <ele>522.04638671875</ele>
        <time>2018-06-26T10:15:06+0200</time>
      </trkpt>
      <trkpt lat="47.2489" lon="4.93317">
        <ele>521.41046142578</ele>
        <time>2018-06-26T10:15:09+0200</time>
      </trkpt>
      <trkpt lat="47.2489" lon="4.93316">
        <ele>521.02642822266</ele>
        <time>2018-06-26T10:15:12+0200</time>
      </trkpt>
      <trkpt lat="47.24891" lon="4.93314">
        <ele>520.63232421875</ele>
        <time>2018-06-26T10:15:15+0200</time>
      </trkpt>
      <trkpt lat="47.24893" lon="4.93309">
        <ele>520.46301269531</ele>
        <time>2018-06-26T10:15:18+0200</time>
      </trkpt>
      <trkpt lat="47.24894" lon="4.93304">
        <ele>520.35302734375</ele>
        <time>2018-06-26T10:15:21+0200</time>
      </trkpt>
      <trkpt lat="47.24897" lon="4.93297">
        <ele>520.27960205078</ele>
        <time>2018-06-26T10:15:24+0200</time>
      </trkpt>
      <trkpt lat="47.24898" lon="4.93294">
        <ele>520.28009033203</ele>
        <time>2018-06-26T10:15:27+0200</time>
      </trkpt>
      <trkpt lat="47.24898" lon="4.93291">
        <ele>520.35845947266</ele>
        <time>2018-06-26T10:15:30+0200</time>
      </trkpt>
      <trkpt lat="47.24899" lon="4.93289">
        <ele>520.52368164062</ele>
        <time>2018-06-26T10:15:33+0200</time>
      </trkpt>
      <trkpt lat="47.249" lon="4.93287">
        <ele>520.76690673828</ele>
        <time>2018-06-26T10:15:36+0200</time>
      </trkpt>
      <trkpt lat="47.24902" lon="4.93283">
        <ele>520.96881103516</ele>
        <time>2018-06-26T10:15:39+0200</time>
      </trkpt>
      <trkpt lat="47.24905" lon="4.9328">
        <ele>521.10046386719</ele>
        <time>2018-06-26T10:15:42+0200</time>
      </trkpt>
      <trkpt lat="47.24908" lon="4.93279">
        <ele>521.12890625</ele>
        <time>2018-06-26T10:15:45+0200</time>
      </trkpt>
      <trkpt lat="47.2491" lon="4.93277">
        <ele>521.11968994141</ele>
        <time>2018-06-26T10:15:48+0200</time>
      </trkpt>
      <trkpt lat="47.24911" lon="4.93275">
        <ele>521.09790039062</ele>
        <time>2018-06-26T10:15:51+0200</time>
      </trkpt>
      <trkpt lat="47.24913" lon="4.93272">
        <ele>521.10784912109</ele>
        <time>2018-06-26T10:15:54+0200</time>
      </trkpt>
      <trkpt lat="47.24914" lon="4.93267">
        <ele>521.16937255859</ele>
        <time>2018-06-26T10:15:57+0200</time>
      </trkpt>
      <trkpt lat="47.24917" lon="4.93261">
        <ele>521.34600830078</ele>
        <time>2018-06-26T10:16:00+0200</time>
      </trkpt>
      <trkpt lat="47.24919" lon="4.93253">
        <ele>521.50897216797</ele>
        <time>2018-06-26T10:16:03+0200</time>
      </trkpt>
      <trkpt lat="47.24919" lon="4.93252">
        <ele>521.63592529297</ele>
        <time>2018-06-26T10:16:06+0200</time>
      </trkpt>
      <trkpt lat="47.24919" lon="4.93251">
        <ele>521.86682128906</ele>
        <time>2018-06-26T10:16:09+0200</time>
      </trkpt>
      <trkpt lat="47.24919" lon="4.93245">
        <ele>522.27893066406</ele>
        <time>2018-06-26T10:16:12+0200</time>
      </trkpt>
      <trkpt lat="47.2492" lon="4.9324">
        <ele>522.55633544922</ele>
        <time>2018-06-26T10:16:15+0200</time>
      </trkpt>
      <trkpt lat="47.24921" lon="4.93237">
        <ele>522.93884277344</ele>
        <time>2018-06-26T10:16:18+0200</time>
      </trkpt>
      <trkpt lat="47.24922" lon="4.93232">
        <ele>523.27600097656</ele>
        <time>2018-06-26T10:16:21+0200</time>
      </trkpt>
      <trkpt lat="47.24923" lon="4.9323">
        <ele>523.50744628906</ele>
        <time>2018-06-26T10:16:24+0200</time>
      </trkpt>
      <trkpt lat="47.24925" lon="4.93226">
        <ele>523.75378417969</ele>
        <time>2018-06-26T10:16:27+0200</time>
      </trkpt>
      <trkpt lat="47.24926" lon="4.93223">
        <ele>523.99536132812</ele>
        <time>2018-06-26T10:16:30+0200</time>
      </trkpt>
      <trkpt lat="47.24926" lon="4.9322">
        <ele>524.22973632812</ele>
        <time>2018-06-26T10:16:33+0200</time>
      </trkpt>
      <trkpt lat="47.24927" lon="4.93218">
        <ele>524.52923583984</ele>
        <time>2018-06-26T10:16:36+0200</time>
      </trkpt>
      <trkpt lat="47.24929" lon="4.93214">
        <ele>524.71417236328</ele>
        <time>2018-06-26T10:16:39+0200</time>
      </trkpt>
      <trkpt lat="47.2493" lon="4.93211">
        <ele>524.95056152344</ele>
        <time>2018-06-26T10:16:42+0200</time>
      </trkpt>
      <trkpt lat="47.24932" lon="4.93207">
        <ele>525.13464355469</ele>
        <time>2018-06-26T10:16:45+0200</time>
      </trkpt>
      <trkpt lat="47.24934" lon="4.93199">
        <ele>525.42315673828</ele>
        <time>2018-06-26T10:16:48+0200</time>
      </trkpt>
      <trkpt lat="47.24935" lon="4.93194">
        <ele>525.78930664062</ele>
        <time>2018-06-26T10:16:51+0200</time>
      </trkpt>
      <trkpt lat="47.24936" lon="4.93191">
        <ele>526.0908203125</ele>
        <time>2018-06-26T10:16:54+0200</time>
      </trkpt>
      <trkpt lat="47.24935" lon="4.9319">
        <ele>526.38970947266</ele>
        <time>2018-06-26T10:16:57+0200</time>
      </trkpt>
      <trkpt lat="47.24936" lon="4.93184">
        <ele>526.85021972656</ele>
        <time>2018-06-26T10:17:00+0200</time>
      </trkpt>
      <trkpt lat="47.24938" lon="4.9318">
        <ele>527.20819091797</ele>
        <time>2018-06-26T10:17:03+0200</time>
      </trkpt>
      <trkpt lat="47.24937" lon="4.93179">
        <ele>527.45147705078</ele>
        <time>2018-06-26T10:17:06+0200</time>
      </trkpt>
      <trkpt lat="47.24938" lon="4.93176">
        <ele>527.69262695312</ele>
        <time>2018-06-26T10:17:09+0200</time>
      </trkpt>
      <trkpt lat="47.2494" lon="4.93171">
        <ele>527.95526123047</ele>
        <time>2018-06-26T10:17:12+0200</time>
      </trkpt>
      <trkpt lat="47.24941" lon="4.93166">
        <ele>528.25799560547</ele>
        <time>2018-06-26T10:17:15+0200</time>
      </trkpt>
      <trkpt lat="47.24942" lon="4.93164">
        <ele>528.41741943359</ele>
        <time>2018-06-26T10:17:18+0200</time>
      </trkpt>
      <trkpt lat="47.24944" lon="4.93164">
        <ele>528.88159179688</ele>
        <time>2018-06-26T10:17:21+0200</time>
      </trkpt>
      <trkpt lat="47.24946" lon="4.93159">
        <ele>529.19427490234</ele>
        <time>2018-06-26T10:17:24+0200</time>
      </trkpt>
      <trkpt lat="47.24946" lon="4.93154">
        <ele>529.56329345703</ele>
        <time>2018-06-26T10:17:27+0200</time>
      </trkpt>
      <trkpt lat="47.24947" lon="4.93152">
        <ele>529.84820556641</ele>
        <time>2018-06-26T10:17:30+0200</time>
      </trkpt>
      <trkpt lat="47.24949" lon="4.93144">
        <ele>530.34716796875</ele>
        <time>2018-06-26T10:17:33+0200</time>
      </trkpt>
      <trkpt lat="47.2495" lon="4.93142">
        <ele>530.99377441406</ele>
        <time>2018-06-26T10:17:36+0200</time>
      </trkpt>
      <trkpt lat="47.24952" lon="4.93139">
        <ele>531.17169189453</ele>
        <time>2018-06-26T10:17:39+0200</time>
      </trkpt>
      <trkpt lat="47.24953" lon="4.93134">
        <ele>531.64459228516</ele>
        <time>2018-06-26T10:17:42+0200</time>
      </trkpt>
      <trkpt lat="47.24953" lon="4.93132">
        <ele>532.05981445312</ele>
        <time>2018-06-26T10:17:45+0200</time>
      </trkpt>
      <trkpt lat="47.24956" lon="4.93128">
        <ele>532.33862304688</ele>
        <time>2018-06-26T10:17:48+0200</time>
      </trkpt>
      <trkpt lat="47.24958" lon="4.93125">
        <ele>532.67321777344</ele>
        <time>2018-06-26T10:17:51+0200</time>
      </trkpt>
      <trkpt lat="47.2496" lon="4.93124">
        <ele>532.77612304688</ele>
        <time>2018-06-26T10:17:54+0200</time>
      </trkpt>
      <trkpt lat="47.24961" lon="4.93121">
        <ele>532.73333740234</ele>
        <time>2018-06-26T10:17:57+0200</time>
      </trkpt>
      <trkpt lat="47.24965" lon="4.93116">
        <ele>532.5498046875</ele>
        <time>2018-06-26T10:18:00+0200</time>
      </trkpt>
      <trkpt lat="47.24968" lon="4.93113">
        <ele>532.08038330078</ele>
        <time>2018-06-26T10:18:03+0200</time>
      </trkpt>
      <trkpt lat="47.24969" lon="4.93113">
        <ele>531.52130126953</ele>
        <time>2018-06-26T10:18:06+0200</time>
      </trkpt>
      <trkpt lat="47.2497" lon="4.93106">
        <ele>531.22283935547</ele>
        <time>2018-06-26T10:18:09+0200</time>
      </trkpt>
      <trkpt lat="47.24972" lon="4.93098">
        <ele>531.03479003906</ele>
        <time>2018-06-26T10:18:12+0200</time>
      </trkpt>
      <trkpt lat="47.24972" lon="4.93096">
        <ele>531.05578613281</ele>
        <time>2018-06-26T10:18:15+0200</time>
      </trkpt>
      <trkpt lat="47.24973" lon="4.93091">
        <ele>531.22613525391</ele>
        <time>2018-06-26T10:18:18+0200</time>
      </trkpt>
      <trkpt lat="47.24973" lon="4.93089">
        <ele>531.48278808594</ele>
        <time>2018-06-26T10:18:21+0200</time>
      </trkpt>
      <trkpt lat="47.24974" lon="4.93086">
        <ele>531.71527099609</ele>
        <time>2018-06-26T10:18:24+0200</time>
      </trkpt>
      <trkpt lat="47.24975" lon="4.93082">
        <ele>531.88916015625</ele>
        <time>2018-06-26T10:18:27+0200</time>
      </trkpt>
      <trkpt lat="47.24975" lon="4.93077">
        <ele>532.16162109375</ele>
        <time>2018-06-26T10:18:30+0200</time>
      </trkpt>
      <trkpt lat="47.24976" lon="4.93074">
        <ele>532.27288818359</ele>
        <time>2018-06-26T10:18:33+0200</time>
      </trkpt>
      <trkpt lat="47.24978" lon="4.9307">
        <ele>532.42004394531</ele>
        <time>2018-06-26T10:18:36+0200</time>
      </trkpt>
      <trkpt lat="47.24978" lon="4.93066">
        <ele>532.51879882812</ele>
        <time>2018-06-26T10:18:39+0200</time>
      </trkpt>
      <trkpt lat="47.24979" lon="4.93059">
        <ele>532.60784912109</ele>
        <time>2018-06-26T10:18:42+0200</time>
      </trkpt>
      <trkpt lat="47.24981" lon="4.93053">
        <ele>532.84118652344</ele>
        <time>2018-06-26T10:18:45+0200</time>
      </trkpt>
      <trkpt lat="47.24981" lon="4.93048">
        <ele>533.20458984375</ele>
        <time>2018-06-26T10:18:48+0200</time>
      </trkpt>
      <trkpt lat="47.24981" lon="4.93046">
        <ele>533.52276611328</ele>
        <time>2018-06-26T10:18:51+0200</time>
      </trkpt>
      <trkpt lat="47.24983" lon="4.93042">
        <ele>533.92474365234</ele>
        <time>2018-06-26T10:18:54+0200</time>
      </trkpt>
      <trkpt lat="47.24985" lon="4.93039">
        <ele>534.21929931641</ele>
        <time>2018-06-26T10:18:57+0200</time>
      </trkpt>
      <trkpt lat="47.24987" lon="4.93035">
        <ele>534.48693847656</ele>
        <time>2018-06-26T10:19:00+0200</time>
      </trkpt>
      <trkpt lat="47.24988" lon="4.9303">
        <ele>534.71472167969</ele>
        <time>2018-06-26T10:19:03+0200</time>
      </trkpt>
      <trkpt lat="47.24989" lon="4.93028">
        <ele>534.94152832031</ele>
        <time>2018-06-26T10:19:06+0200</time>
      </trkpt>
      <trkpt lat="47.24992" lon="4.93022">
        <ele>535.00866699219</ele>
        <time>2018-06-26T10:19:09+0200</time>
      </trkpt>
      <trkpt lat="47.24995" lon="4.9302">
        <ele>535.00701904297</ele>
        <time>2018-06-26T10:19:12+0200</time>
      </trkpt>
      <trkpt lat="47.24996" lon="4.93017">
        <ele>535.03741455078</ele>
        <time>2018-06-26T10:19:15+0200</time>
      </trkpt>
      <trkpt lat="47.24999" lon="4.93009">
        <ele>535.05456542969</ele>
        <time>2018-06-26T10:19:18+0200</time>
      </trkpt>
      <trkpt lat="47.25002" lon="4.93002">
        <ele>535.20123291016</ele>
        <time>2018-06-26T10:19:21+0200</time>
      </trkpt>
      <trkpt lat="47.25004" lon="4.92999">
        <ele>535.31903076172</ele>
        <time>2018-06-26T10:19:24+0200</time>
      </trkpt>
      <trkpt lat="47.25004" lon="4.93001">
        <ele>535.3642578125</ele>
        <time>2018-06-26T10:19:27+0200</time>
      </trkpt>
      <trkpt lat="47.25007" lon="4.92998">
        <ele>535.3876953125</ele>
        <time>2018-06-26T10:19:30+0200</time>
      </trkpt>
      <trkpt lat="47.25011" lon="4.92994">
        <ele>535.33117675781</ele>
        <time>2018-06-26T10:19:33+0200</time>
      </trkpt>
      <trkpt lat="47.25012" lon="4.92993">
        <ele>535.30023193359</ele>
        <time>2018-06-26T10:19:36+0200</time>
      </trkpt>
      <trkpt lat="47.25013" lon="4.92991">
        <ele>535.34527587891</ele>
        <time>2018-06-26T10:19:39+0200</time>
      </trkpt>
      <trkpt lat="47.25015" lon="4.9299">
        <ele>535.46636962891</ele>
        <time>2018-06-26T10:19:42+0200</time>
      </trkpt>
      <trkpt lat="47.25019" lon="4.92987">
        <ele>535.5859375</ele>
        <time>2018-06-26T10:19:45+0200</time>
      </trkpt>
      <trkpt lat="47.25023" lon="4.92982">
        <ele>535.63232421875</ele>
        <time>2018-06-26T10:19:48+0200</time>
      </trkpt>
      <trkpt lat="47.25025" lon="4.9298">
        <ele>535.60906982422</ele>
        <time>2018-06-26T10:19:51+0200</time>
      </trkpt>
      <trkpt lat="47.25028" lon="4.92978">
        <ele>535.57281494141</ele>
        <time>2018-06-26T10:19:54+0200</time>
      </trkpt>
      <trkpt lat="47.25031" lon="4.92975">
        <ele>535.54058837891</ele>
        <time>2018-06-26T10:19:57+0200</time>
      </trkpt>
      <trkpt lat="47.25033" lon="4.92972">
        <ele>535.57153320312</ele>
        <time>2018-06-26T10:20:00+0200</time>
      </trkpt>
      <trkpt lat="47.25034" lon="4.92971">
        <ele>535.66192626953</ele>
        <time>2018-06-26T10:20:03+0200</time>
      </trkpt>
      <trkpt lat="47.25037" lon="4.92969">
        <ele>535.65380859375</ele>
        <time>2018-06-26T10:20:06+0200</time>
      </trkpt>
      <trkpt lat="47.2504" lon="4.92967">
        <ele>535.53118896484</ele>
        <time>2018-06-26T10:20:09+0200</time>
      </trkpt>
      <trkpt lat="47.25043" lon="4.92964">
        <ele>535.34729003906</ele>
        <time>2018-06-26T10:20:12+0200</time>
      </trkpt>
      <trkpt lat="47.25046" lon="4.92961">
        <ele>535.13500976562</ele>
        <time>2018-06-26T10:20:15+0200</time>
      </trkpt>
      <trkpt lat="47.25049" lon="4.92959">
        <ele>534.80517578125</ele>
        <time>2018-06-26T10:20:18+0200</time>
      </trkpt>
      <trkpt lat="47.25051" lon="4.92955">
        <ele>534.47955322266</ele>
        <time>2018-06-26T10:20:21+0200</time>
      </trkpt>
      <trkpt lat="47.25054" lon="4.92952">
        <ele>534.11383056641</ele>
        <time>2018-06-26T10:20:24+0200</time>
      </trkpt>
      <trkpt lat="47.25057" lon="4.92949">
        <ele>533.69268798828</ele>
        <time>2018-06-26T10:20:27+0200</time>
      </trkpt>
      <trkpt lat="47.25058" lon="4.92946">
        <ele>533.16772460938</ele>
        <time>2018-06-26T10:20:30+0200</time>
      </trkpt>
      <trkpt lat="47.2506" lon="4.92944">
        <ele>532.63787841797</ele>
        <time>2018-06-26T10:20:33+0200</time>
      </trkpt>
      <trkpt lat="47.25062" lon="4.92941">
        <ele>532.08093261719</ele>
        <time>2018-06-26T10:20:36+0200</time>
      </trkpt>
      <trkpt lat="47.25066" lon="4.92937">
        <ele>531.3212890625</ele>
        <time>2018-06-26T10:20:39+0200</time>
      </trkpt>
      <trkpt lat="47.25068" lon="4.92935">
        <ele>530.60504150391</ele>
        <time>2018-06-26T10:20:42+0200</time>
      </trkpt>
      <trkpt lat="47.25069" lon="4.92933">
        <ele>530.07055664062</ele>
        <time>2018-06-26T10:20:45+0200</time>
      </trkpt>
      <trkpt lat="47.25072" lon="4.9293">
        <ele>529.62640380859</ele>
        <time>2018-06-26T10:20:48+0200</time>
      </trkpt>
      <trkpt lat="47.25073" lon="4.92927">
        <ele>529.30120849609</ele>
        <time>2018-06-26T10:20:51+0200</time>
      </trkpt>
      <trkpt lat="47.25075" lon="4.92923">
        <ele>529.01470947266</ele>
        <time>2018-06-26T10:20:54+0200</time>
      </trkpt>
      <trkpt lat="47.25076" lon="4.9292">
        <ele>528.79888916016</ele>
        <time>2018-06-26T10:20:57+0200</time>
      </trkpt>
      <trkpt lat="47.25078" lon="4.92916">
        <ele>528.63293457031</ele>
        <time>2018-06-26T10:21:00+0200</time>
      </trkpt>
      <trkpt lat="47.25082" lon="4.92909">
        <ele>528.52600097656</ele>
        <time>2018-06-26T10:21:03+0200</time>
      </trkpt>
      <trkpt lat="47.25083" lon="4.92907">
        <ele>528.50805664062</ele>
        <time>2018-06-26T10:21:06+0200</time>
      </trkpt>
      <trkpt lat="47.25084" lon="4.92905">
        <ele>528.47003173828</ele>
        <time>2018-06-26T10:21:09+0200</time>
      </trkpt>
      <trkpt lat="47.25085" lon="4.92902">
        <ele>528.46551513672</ele>
        <time>2018-06-26T10:21:12+0200</time>
      </trkpt>
      <trkpt lat="47.25086" lon="4.92899">
        <ele>528.50170898438</ele>
        <time>2018-06-26T10:21:15+0200</time>
      </trkpt>
      <trkpt lat="47.25086" lon="4.92898">
        <ele>528.69720458984</ele>
        <time>2018-06-26T10:21:18+0200</time>
      </trkpt>
      <trkpt lat="47.25088" lon="4.92893">
        <ele>529.04339599609</ele>
        <time>2018-06-26T10:21:21+0200</time>
      </trkpt>
      <trkpt lat="47.2509" lon="4.92888">
        <ele>529.44384765625</ele>
        <time>2018-06-26T10:21:24+0200</time>
      </trkpt>
      <trkpt lat="47.25091" lon="4.92886">
        <ele>529.54418945312</ele>
        <time>2018-06-26T10:21:27+0200</time>
      </trkpt>
      <trkpt lat="47.25093" lon="4.92884">
        <ele>529.64660644531</ele>
        <time>2018-06-26T10:21:30+0200</time>
      </trkpt>
      <trkpt lat="47.25095" lon="4.92883">
        <ele>529.57452392578</ele>
        <time>2018-06-26T10:21:33+0200</time>
      </trkpt>
      <trkpt lat="47.25096" lon="4.92883">
        <ele>529.51892089844</ele>
        <time>2018-06-26T10:21:36+0200</time>
      </trkpt>
      <trkpt lat="47.25097" lon="4.92881">
        <ele>529.46844482422</ele>
        <time>2018-06-26T10:21:39+0200</time>
      </trkpt>
      <trkpt lat="47.25098" lon="4.9288">
        <ele>529.45263671875</ele>
        <time>2018-06-26T10:21:42+0200</time>
      </trkpt>
      <trkpt lat="47.25098" lon="4.9288">
        <ele>529.42938232422</ele>
        <time>2018-06-26T10:21:45+0200</time>
      </trkpt>
      <trkpt lat="47.25098" lon="4.9288">
        <ele>529.39471435547</ele>
        <time>2018-06-26T10:21:48+0200</time>
      </trkpt>
      <trkpt lat="47.25098" lon="4.92879">
        <ele>529.37182617188</ele>
        <time>2018-06-26T10:21:51+0200</time>
      </trkpt>
      <trkpt lat="47.25098" lon="4.92879">
        <ele>529.39099121094</ele>
        <time>2018-06-26T10:21:54+0200</time>
      </trkpt>
      <trkpt lat="47.25098" lon="4.92876">
        <ele>529.74871826172</ele>
        <time>2018-06-26T10:21:57+0200</time>
      </trkpt>
      <trkpt lat="47.251" lon="4.92876">
        <ele>529.81842041016</ele>
        <time>2018-06-26T10:22:00+0200</time>
      </trkpt>
      <trkpt lat="47.25101" lon="4.92877">
        <ele>529.87341308594</ele>
        <time>2018-06-26T10:22:03+0200</time>
      </trkpt>
      <trkpt lat="47.25102" lon="4.92878">
        <ele>529.86926269531</ele>
        <time>2018-06-26T10:22:06+0200</time>
      </trkpt>
      <trkpt lat="47.25102" lon="4.92879">
        <ele>529.86614990234</ele>
        <time>2018-06-26T10:22:09+0200</time>
      </trkpt>
      <trkpt lat="47.25102" lon="4.92879">
        <ele>529.87957763672</ele>
        <time>2018-06-26T10:22:12+0200</time>
      </trkpt>
      <trkpt lat="47.25102" lon="4.92879">
        <ele>529.89349365234</ele>
        <time>2018-06-26T10:22:15+0200</time>
      </trkpt>
      <trkpt lat="47.25103" lon="4.92879">
        <ele>529.90783691406</ele>
        <time>2018-06-26T10:22:18+0200</time>
      </trkpt>
      <trkpt lat="47.25103" lon="4.9288">
        <ele>529.93786621094</ele>
        <time>2018-06-26T10:22:21+0200</time>
      </trkpt>
      <trkpt lat="47.25103" lon="4.9288">
        <ele>529.96405029297</ele>
        <time>2018-06-26T10:22:24+0200</time>
      </trkpt>
      <trkpt lat="47.25104" lon="4.92881">
        <ele>530.00970458984</ele>
        <time>2018-06-26T10:22:27+0200</time>
      </trkpt>
      <trkpt lat="47.25104" lon="4.92882">
        <ele>530.06665039062</ele>
        <time>2018-06-26T10:22:30+0200</time>
      </trkpt>
      <trkpt lat="47.25104" lon="4.92882">
        <ele>530.12634277344</ele>
        <time>2018-06-26T10:22:33+0200</time>
      </trkpt>
      <trkpt lat="47.25104" lon="4.92883">
        <ele>530.17645263672</ele>
        <time>2018-06-26T10:22:36+0200</time>
      </trkpt>
      <trkpt lat="47.25105" lon="4.92883">
        <ele>530.21496582031</ele>
        <time>2018-06-26T10:22:39+0200</time>
      </trkpt>
      <trkpt lat="47.25105" lon="4.92883">
        <ele>530.24877929688</ele>
        <time>2018-06-26T10:22:42+0200</time>
      </trkpt>
      <trkpt lat="47.25105" lon="4.92884">
        <ele>530.28149414062</ele>
        <time>2018-06-26T10:22:45+0200</time>
      </trkpt>
      <trkpt lat="47.25105" lon="4.92884">
        <ele>530.31390380859</ele>
        <time>2018-06-26T10:22:48+0200</time>
      </trkpt>
      <trkpt lat="47.25105" lon="4.92885">
        <ele>530.35009765625</ele>
        <time>2018-06-26T10:22:51+0200</time>
      </trkpt>
      <trkpt lat="47.25105" lon="4.92885">
        <ele>530.392578125</ele>
        <time>2018-06-26T10:22:54+0200</time>
      </trkpt>
      <trkpt lat="47.25105" lon="4.92885">
        <ele>530.43695068359</ele>
        <time>2018-06-26T10:22:57+0200</time>
      </trkpt>
      <trkpt lat="47.25106" lon="4.92886">
        <ele>530.47668457031</ele>
        <time>2018-06-26T10:23:00+0200</time>
      </trkpt>
      <trkpt lat="47.25106" lon="4.92886">
        <ele>530.51422119141</ele>
        <time>2018-06-26T10:23:03+0200</time>
      </trkpt>
      <trkpt lat="47.25106" lon="4.92886">
        <ele>530.55511474609</ele>
        <time>2018-06-26T10:23:06+0200</time>
      </trkpt>
      <trkpt lat="47.25106" lon="4.92886">
        <ele>530.59631347656</ele>
        <time>2018-06-26T10:23:09+0200</time>
      </trkpt>
      <trkpt lat="47.25106" lon="4.92886">
        <ele>530.6396484375</ele>
        <time>2018-06-26T10:23:12+0200</time>
      </trkpt>
      <trkpt lat="47.25106" lon="4.92887">
        <ele>530.68432617188</ele>
        <time>2018-06-26T10:23:15+0200</time>
      </trkpt>
      <trkpt lat="47.25106" lon="4.92887">
        <ele>530.72924804688</ele>
        <time>2018-06-26T10:23:18+0200</time>
      </trkpt>
      <trkpt lat="47.25106" lon="4.92887">
        <ele>530.77197265625</ele>
        <time>2018-06-26T10:23:21+0200</time>
      </trkpt>
      <trkpt lat="47.25106" lon="4.92887">
        <ele>530.81127929688</ele>
        <time>2018-06-26T10:23:24+0200</time>
      </trkpt>
      <trkpt lat="47.25106" lon="4.92887">
        <ele>530.85070800781</ele>
        <time>2018-06-26T10:23:27+0200</time>
      </trkpt>
      <trkpt lat="47.25106" lon="4.92887">
        <ele>530.88806152344</ele>
        <time>2018-06-26T10:23:30+0200</time>
      </trkpt>
      <trkpt lat="47.25106" lon="4.92887">
        <ele>530.92315673828</ele>
        <time>2018-06-26T10:23:33+0200</time>
      </trkpt>
      <trkpt lat="47.25106" lon="4.92887">
        <ele>530.95623779297</ele>
        <time>2018-06-26T10:23:36+0200</time>
      </trkpt>
      <trkpt lat="47.25106" lon="4.92887">
        <ele>530.98852539062</ele>
        <time>2018-06-26T10:23:39+0200</time>
      </trkpt>
      <trkpt lat="47.25105" lon="4.92888">
        <ele>531.02075195312</ele>
        <time>2018-06-26T10:23:42+0200</time>
      </trkpt>
      <trkpt lat="47.25105" lon="4.92888">
        <ele>531.05609130859</ele>
        <time>2018-06-26T10:23:45+0200</time>
      </trkpt>
      <trkpt lat="47.25105" lon="4.92888">
        <ele>531.09326171875</ele>
        <time>2018-06-26T10:23:48+0200</time>
      </trkpt>
      <trkpt lat="47.25105" lon="4.92889">
        <ele>531.13275146484</ele>
        <time>2018-06-26T10:23:51+0200</time>
      </trkpt>
      <trkpt lat="47.25105" lon="4.92889">
        <ele>531.17004394531</ele>
        <time>2018-06-26T10:23:54+0200</time>
      </trkpt>
      <trkpt lat="47.25105" lon="4.92889">
        <ele>531.20678710938</ele>
        <time>2018-06-26T10:23:57+0200</time>
      </trkpt>
      <trkpt lat="47.25105" lon="4.92889">
        <ele>531.24816894531</ele>
        <time>2018-06-26T10:24:00+0200</time>
      </trkpt>
      <trkpt lat="47.25105" lon="4.9289">
        <ele>531.29278564453</ele>
        <time>2018-06-26T10:24:03+0200</time>
      </trkpt>
      <trkpt lat="47.25105" lon="4.9289">
        <ele>531.33447265625</ele>
        <time>2018-06-26T10:24:06+0200</time>
      </trkpt>
      <trkpt lat="47.25104" lon="4.9289">
        <ele>531.37628173828</ele>
        <time>2018-06-26T10:24:09+0200</time>
      </trkpt>
      <trkpt lat="47.25104" lon="4.9289">
        <ele>531.41809082031</ele>
        <time>2018-06-26T10:24:12+0200</time>
      </trkpt>
      <trkpt lat="47.25104" lon="4.9289">
        <ele>531.45922851562</ele>
        <time>2018-06-26T10:24:15+0200</time>
      </trkpt>
      <trkpt lat="47.25104" lon="4.9289">
        <ele>531.49829101562</ele>
        <time>2018-06-26T10:24:18+0200</time>
      </trkpt>
      <trkpt lat="47.25104" lon="4.9289">
        <ele>531.52746582031</ele>
        <time>2018-06-26T10:24:21+0200</time>
      </trkpt>
      <trkpt lat="47.25104" lon="4.9289">
        <ele>531.55102539062</ele>
        <time>2018-06-26T10:24:24+0200</time>
      </trkpt>
      <trkpt lat="47.25104" lon="4.9289">
        <ele>531.57525634766</ele>
        <time>2018-06-26T10:24:27+0200</time>
      </trkpt>
      <trkpt lat="47.25104" lon="4.9289">
        <ele>531.59539794922</ele>
        <time>2018-06-26T10:24:30+0200</time>
      </trkpt>
      <trkpt lat="47.25103" lon="4.9289">
        <ele>531.61010742188</ele>
        <time>2018-06-26T10:24:33+0200</time>
      </trkpt>
      <trkpt lat="47.25103" lon="4.92891">
        <ele>531.63049316406</ele>
        <time>2018-06-26T10:24:36+0200</time>
      </trkpt>
      <trkpt lat="47.25103" lon="4.92891">
        <ele>531.65130615234</ele>
        <time>2018-06-26T10:24:39+0200</time>
      </trkpt>
      <trkpt lat="47.25103" lon="4.92892">
        <ele>531.67205810547</ele>
        <time>2018-06-26T10:24:42+0200</time>
      </trkpt>
      <trkpt lat="47.25103" lon="4.92892">
        <ele>531.69274902344</ele>
        <time>2018-06-26T10:24:45+0200</time>
      </trkpt>
      <trkpt lat="47.25103" lon="4.92893">
        <ele>531.70623779297</ele>
        <time>2018-06-26T10:24:48+0200</time>
      </trkpt>
      <trkpt lat="47.25103" lon="4.92892">
        <ele>531.73168945312</ele>
        <time>2018-06-26T10:24:51+0200</time>
      </trkpt>
      <trkpt lat="47.25103" lon="4.92891">
        <ele>531.76550292969</ele>
        <time>2018-06-26T10:24:54+0200</time>
      </trkpt>
      <trkpt lat="47.25103" lon="4.92891">
        <ele>531.80737304688</ele>
        <time>2018-06-26T10:24:57+0200</time>
      </trkpt>
      <trkpt lat="47.25103" lon="4.9289">
        <ele>532.11273193359</ele>
        <time>2018-06-26T10:25:00+0200</time>
      </trkpt>
      <trkpt lat="47.25102" lon="4.92886">
        <ele>532.21862792969</ele>
        <time>2018-06-26T10:25:03+0200</time>
      </trkpt>
      <trkpt lat="47.25103" lon="4.92884">
        <ele>532.21563720703</ele>
        <time>2018-06-26T10:25:06+0200</time>
      </trkpt>
      <trkpt lat="47.25103" lon="4.92883">
        <ele>532.19958496094</ele>
        <time>2018-06-26T10:25:09+0200</time>
      </trkpt>
      <trkpt lat="47.25105" lon="4.9288">
        <ele>531.90606689453</ele>
        <time>2018-06-26T10:25:12+0200</time>
      </trkpt>
      <trkpt lat="47.25107" lon="4.92877">
        <ele>531.78649902344</ele>
        <time>2018-06-26T10:25:15+0200</time>
      </trkpt>
      <trkpt lat="47.25107" lon="4.92877">
        <ele>531.78570556641</ele>
        <time>2018-06-26T10:25:18+0200</time>
      </trkpt>
      <trkpt lat="47.25107" lon="4.92877">
        <ele>531.77966308594</ele>
        <time>2018-06-26T10:25:21+0200</time>
      </trkpt>
      <trkpt lat="47.25107" lon="4.92877">
        <ele>531.77655029297</ele>
        <time>2018-06-26T10:25:24+0200</time>
      </trkpt>
      <trkpt lat="47.25107" lon="4.92877">
        <ele>531.79339599609</ele>
        <time>2018-06-26T10:25:27+0200</time>
      </trkpt>
      <trkpt lat="47.25107" lon="4.92876">
        <ele>531.80694580078</ele>
        <time>2018-06-26T10:25:30+0200</time>
      </trkpt>
      <trkpt lat="47.25107" lon="4.92876">
        <ele>531.79602050781</ele>
        <time>2018-06-26T10:25:33+0200</time>
      </trkpt>
      <trkpt lat="47.25107" lon="4.92876">
        <ele>531.77795410156</ele>
        <time>2018-06-26T10:25:36+0200</time>
      </trkpt>
      <trkpt lat="47.25107" lon="4.92877">
        <ele>531.76025390625</ele>
        <time>2018-06-26T10:25:39+0200</time>
      </trkpt>
      <trkpt lat="47.25107" lon="4.92877">
        <ele>531.74755859375</ele>
        <time>2018-06-26T10:25:42+0200</time>
      </trkpt>
      <trkpt lat="47.25106" lon="4.92877">
        <ele>531.73132324219</ele>
        <time>2018-06-26T10:25:45+0200</time>
      </trkpt>
      <trkpt lat="47.25106" lon="4.92877">
        <ele>531.65539550781</ele>
        <time>2018-06-26T10:25:48+0200</time>
      </trkpt>
      <trkpt lat="47.25108" lon="4.92879">
        <ele>531.39111328125</ele>
        <time>2018-06-26T10:25:51+0200</time>
      </trkpt>
      <trkpt lat="47.25108" lon="4.9288">
        <ele>531.36071777344</ele>
        <time>2018-06-26T10:25:54+0200</time>
      </trkpt>
      <trkpt lat="47.25108" lon="4.9288">
        <ele>531.33532714844</ele>
        <time>2018-06-26T10:25:57+0200</time>
      </trkpt>
      <trkpt lat="47.25109" lon="4.9288">
        <ele>531.32495117188</ele>
        <time>2018-06-26T10:26:00+0200</time>
      </trkpt>
      <trkpt lat="47.25109" lon="4.92881">
        <ele>531.30731201172</ele>
        <time>2018-06-26T10:26:03+0200</time>
      </trkpt>
      <trkpt lat="47.2511" lon="4.92881">
        <ele>531.27728271484</ele>
        <time>2018-06-26T10:26:06+0200</time>
      </trkpt>
      <trkpt lat="47.2511" lon="4.92882">
        <ele>531.25476074219</ele>
        <time>2018-06-26T10:26:09+0200</time>
      </trkpt>
      <trkpt lat="47.2511" lon="4.92883">
        <ele>531.24774169922</ele>
        <time>2018-06-26T10:26:12+0200</time>
      </trkpt>
      <trkpt lat="47.2511" lon="4.92883">
        <ele>531.23712158203</ele>
        <time>2018-06-26T10:26:15+0200</time>
      </trkpt>
      <trkpt lat="47.2511" lon="4.92884">
        <ele>531.2236328125</ele>
        <time>2018-06-26T10:26:18+0200</time>
      </trkpt>
      <trkpt lat="47.2511" lon="4.92884">
        <ele>531.20751953125</ele>
        <time>2018-06-26T10:26:21+0200</time>
      </trkpt>
      <trkpt lat="47.2511" lon="4.92884">
        <ele>531.19067382812</ele>
        <time>2018-06-26T10:26:24+0200</time>
      </trkpt>
      <trkpt lat="47.25109" lon="4.92885">
        <ele>531.18841552734</ele>
        <time>2018-06-26T10:26:27+0200</time>
      </trkpt>
      <trkpt lat="47.25109" lon="4.92886">
        <ele>531.20587158203</ele>
        <time>2018-06-26T10:26:29+0200</time>
      </trkpt>
      <trkpt lat="47.25109" lon="4.92887">
        <ele>531.22546386719</ele>
        <time>2018-06-26T10:26:32+0200</time>
      </trkpt>
      <trkpt lat="47.25109" lon="4.92887">
        <ele>531.23919677734</ele>
        <time>2018-06-26T10:26:35+0200</time>
      </trkpt>
      <trkpt lat="47.25109" lon="4.92888">
        <ele>531.26733398438</ele>
        <time>2018-06-26T10:26:38+0200</time>
      </trkpt>
      <trkpt lat="47.25109" lon="4.92888">
        <ele>531.28991699219</ele>
        <time>2018-06-26T10:26:41+0200</time>
      </trkpt>
      <trkpt lat="47.25109" lon="4.92888">
        <ele>531.31036376953</ele>
        <time>2018-06-26T10:26:44+0200</time>
      </trkpt>
      <trkpt lat="47.25109" lon="4.92889">
        <ele>531.34722900391</ele>
        <time>2018-06-26T10:26:47+0200</time>
      </trkpt>
      <trkpt lat="47.25109" lon="4.9289">
        <ele>531.38928222656</ele>
        <time>2018-06-26T10:26:50+0200</time>
      </trkpt>
      <trkpt lat="47.25109" lon="4.9289">
        <ele>531.42895507812</ele>
        <time>2018-06-26T10:26:53+0200</time>
      </trkpt>
      <trkpt lat="47.25109" lon="4.92891">
        <ele>531.46868896484</ele>
        <time>2018-06-26T10:26:56+0200</time>
      </trkpt>
      <trkpt lat="47.25109" lon="4.92891">
        <ele>531.50994873047</ele>
        <time>2018-06-26T10:26:59+0200</time>
      </trkpt>
      <trkpt lat="47.25109" lon="4.92892">
        <ele>531.54895019531</ele>
        <time>2018-06-26T10:27:02+0200</time>
      </trkpt>
      <trkpt lat="47.25109" lon="4.92892">
        <ele>531.58654785156</ele>
        <time>2018-06-26T10:27:05+0200</time>
      </trkpt>
      <trkpt lat="47.25109" lon="4.92892">
        <ele>531.62976074219</ele>
        <time>2018-06-26T10:27:08+0200</time>
      </trkpt>
      <trkpt lat="47.25108" lon="4.92892">
        <ele>531.66107177734</ele>
        <time>2018-06-26T10:27:11+0200</time>
      </trkpt>
      <trkpt lat="47.25108" lon="4.9289">
        <ele>531.69946289062</ele>
        <time>2018-06-26T10:27:14+0200</time>
      </trkpt>
      <trkpt lat="47.25107" lon="4.92889">
        <ele>531.70501708984</ele>
        <time>2018-06-26T10:27:17+0200</time>
      </trkpt>
      <trkpt lat="47.25107" lon="4.92889">
        <ele>531.70355224609</ele>
        <time>2018-06-26T10:27:20+0200</time>
      </trkpt>
      <trkpt lat="47.25107" lon="4.92888">
        <ele>531.69757080078</ele>
        <time>2018-06-26T10:27:23+0200</time>
      </trkpt>
      <trkpt lat="47.25107" lon="4.92888">
        <ele>531.69689941406</ele>
        <time>2018-06-26T10:27:26+0200</time>
      </trkpt>
      <trkpt lat="47.25107" lon="4.92888">
        <ele>531.70288085938</ele>
        <time>2018-06-26T10:27:29+0200</time>
      </trkpt>
      <trkpt lat="47.25107" lon="4.92888">
        <ele>531.72100830078</ele>
        <time>2018-06-26T10:27:32+0200</time>
      </trkpt>
      <trkpt lat="47.25107" lon="4.92887">
        <ele>531.73645019531</ele>
        <time>2018-06-26T10:27:35+0200</time>
      </trkpt>
      <trkpt lat="47.25107" lon="4.92886">
        <ele>531.73931884766</ele>
        <time>2018-06-26T10:27:38+0200</time>
      </trkpt>
      <trkpt lat="47.25108" lon="4.92886">
        <ele>531.72204589844</ele>
        <time>2018-06-26T10:27:41+0200</time>
      </trkpt>
      <trkpt lat="47.25108" lon="4.92885">
        <ele>531.69860839844</ele>
        <time>2018-06-26T10:27:44+0200</time>
      </trkpt>
      <trkpt lat="47.25108" lon="4.92884">
        <ele>531.67321777344</ele>
        <time>2018-06-26T10:27:47+0200</time>
      </trkpt>
      <trkpt lat="47.25108" lon="4.92884">
        <ele>531.64526367188</ele>
        <time>2018-06-26T10:27:50+0200</time>
      </trkpt>
      <trkpt lat="47.25108" lon="4.92884">
        <ele>531.55767822266</ele>
        <time>2018-06-26T10:27:53+0200</time>
      </trkpt>
      <trkpt lat="47.25108" lon="4.92883">
        <ele>531.54174804688</ele>
        <time>2018-06-26T10:27:56+0200</time>
      </trkpt>
      <trkpt lat="47.25108" lon="4.92883">
        <ele>531.52655029297</ele>
        <time>2018-06-26T10:27:59+0200</time>
      </trkpt>
      <trkpt lat="47.25108" lon="4.92883">
        <ele>531.50524902344</ele>
        <time>2018-06-26T10:28:02+0200</time>
      </trkpt>
      <trkpt lat="47.25108" lon="4.92882">
        <ele>531.47283935547</ele>
        <time>2018-06-26T10:28:05+0200</time>
      </trkpt>
      <trkpt lat="47.25107" lon="4.92882">
        <ele>531.43402099609</ele>
        <time>2018-06-26T10:28:08+0200</time>
      </trkpt>
      <trkpt lat="47.25107" lon="4.92882">
        <ele>531.39965820312</ele>
        <time>2018-06-26T10:28:11+0200</time>
      </trkpt>
      <trkpt lat="47.25107" lon="4.92881">
        <ele>531.37158203125</ele>
        <time>2018-06-26T10:28:14+0200</time>
      </trkpt>
      <trkpt lat="47.25106" lon="4.92881">
        <ele>531.33453369141</ele>
        <time>2018-06-26T10:28:17+0200</time>
      </trkpt>
      <trkpt lat="47.25106" lon="4.92881">
        <ele>531.31890869141</ele>
        <time>2018-06-26T10:28:20+0200</time>
      </trkpt>
      <trkpt lat="47.25106" lon="4.92882">
        <ele>531.32391357422</ele>
        <time>2018-06-26T10:28:23+0200</time>
      </trkpt>
      <trkpt lat="47.25106" lon="4.92882">
        <ele>531.341796875</ele>
        <time>2018-06-26T10:28:26+0200</time>
      </trkpt>
      <trkpt lat="47.25106" lon="4.92883">
        <ele>531.37225341797</ele>
        <time>2018-06-26T10:28:29+0200</time>
      </trkpt>
      <trkpt lat="47.25106" lon="4.92883">
        <ele>531.40942382812</ele>
        <time>2018-06-26T10:28:32+0200</time>
      </trkpt>
      <trkpt lat="47.25106" lon="4.92884">
        <ele>531.44744873047</ele>
        <time>2018-06-26T10:28:35+0200</time>
      </trkpt>
      <trkpt lat="47.25106" lon="4.92885">
        <ele>531.48022460938</ele>
        <time>2018-06-26T10:28:38+0200</time>
      </trkpt>
      <trkpt lat="47.25106" lon="4.92885">
        <ele>531.50842285156</ele>
        <time>2018-06-26T10:28:41+0200</time>
      </trkpt>
      <trkpt lat="47.25107" lon="4.92885">
        <ele>531.52008056641</ele>
        <time>2018-06-26T10:28:44+0200</time>
      </trkpt>
      <trkpt lat="47.25107" lon="4.92885">
        <ele>531.51776123047</ele>
        <time>2018-06-26T10:28:47+0200</time>
      </trkpt>
      <trkpt lat="47.25107" lon="4.92885">
        <ele>531.52282714844</ele>
        <time>2018-06-26T10:28:50+0200</time>
      </trkpt>
      <trkpt lat="47.25107" lon="4.92885">
        <ele>531.52899169922</ele>
        <time>2018-06-26T10:28:53+0200</time>
      </trkpt>
      <trkpt lat="47.25107" lon="4.92885">
        <ele>531.53271484375</ele>
        <time>2018-06-26T10:28:56+0200</time>
      </trkpt>
      <trkpt lat="47.25107" lon="4.92885">
        <ele>531.53393554688</ele>
        <time>2018-06-26T10:28:59+0200</time>
      </trkpt>
      <trkpt lat="47.25107" lon="4.92885">
        <ele>531.53430175781</ele>
        <time>2018-06-26T10:29:02+0200</time>
      </trkpt>
      <trkpt lat="47.25107" lon="4.92885">
        <ele>531.53308105469</ele>
        <time>2018-06-26T10:29:05+0200</time>
      </trkpt>
      <trkpt lat="47.25107" lon="4.92885">
        <ele>531.53100585938</ele>
        <time>2018-06-26T10:29:08+0200</time>
      </trkpt>
      <trkpt lat="47.25107" lon="4.92885">
        <ele>531.53149414062</ele>
        <time>2018-06-26T10:29:11+0200</time>
      </trkpt>
      <trkpt lat="47.25107" lon="4.92885">
        <ele>531.53259277344</ele>
        <time>2018-06-26T10:29:14+0200</time>
      </trkpt>
      <trkpt lat="47.25108" lon="4.92885">
        <ele>531.52624511719</ele>
        <time>2018-06-26T10:29:17+0200</time>
      </trkpt>
      <trkpt lat="47.25108" lon="4.92884">
        <ele>531.44342041016</ele>
        <time>2018-06-26T10:29:20+0200</time>
      </trkpt>
      <trkpt lat="47.25108" lon="4.92885">
        <ele>531.43841552734</ele>
        <time>2018-06-26T10:29:23+0200</time>
      </trkpt>
      <trkpt lat="47.25108" lon="4.92884">
        <ele>531.42761230469</ele>
        <time>2018-06-26T10:29:26+0200</time>
      </trkpt>
      <trkpt lat="47.25107" lon="4.92884">
        <ele>531.40832519531</ele>
        <time>2018-06-26T10:29:29+0200</time>
      </trkpt>
      <trkpt lat="47.25107" lon="4.92884">
        <ele>531.39831542969</ele>
        <time>2018-06-26T10:29:32+0200</time>
      </trkpt>
      <trkpt lat="47.25107" lon="4.92885">
        <ele>531.41973876953</ele>
        <time>2018-06-26T10:29:35+0200</time>
      </trkpt>
      <trkpt lat="47.25108" lon="4.92886">
        <ele>531.44140625</ele>
        <time>2018-06-26T10:29:38+0200</time>
      </trkpt>
      <trkpt lat="47.25108" lon="4.92886">
        <ele>531.46130371094</ele>
        <time>2018-06-26T10:29:41+0200</time>
      </trkpt>
      <trkpt lat="47.25108" lon="4.92886">
        <ele>531.46685791016</ele>
        <time>2018-06-26T10:29:44+0200</time>
      </trkpt>
      <trkpt lat="47.25108" lon="4.92885">
        <ele>531.46221923828</ele>
        <time>2018-06-26T10:29:47+0200</time>
      </trkpt>
      <trkpt lat="47.25107" lon="4.92885">
        <ele>531.44921875</ele>
        <time>2018-06-26T10:29:50+0200</time>
      </trkpt>
      <trkpt lat="47.25107" lon="4.92884">
        <ele>531.43023681641</ele>
        <time>2018-06-26T10:29:53+0200</time>
      </trkpt>
      <trkpt lat="47.25107" lon="4.92884">
        <ele>531.40979003906</ele>
        <time>2018-06-26T10:29:56+0200</time>
      </trkpt>
      <trkpt lat="47.25107" lon="4.92884">
        <ele>531.388671875</ele>
        <time>2018-06-26T10:29:59+0200</time>
      </trkpt>
      <trkpt lat="47.25107" lon="4.92884">
        <ele>531.37048339844</ele>
        <time>2018-06-26T10:30:02+0200</time>
      </trkpt>
      <trkpt lat="47.25107" lon="4.92883">
        <ele>531.35211181641</ele>
        <time>2018-06-26T10:30:05+0200</time>
      </trkpt>
      <trkpt lat="47.25107" lon="4.92883">
        <ele>531.33233642578</ele>
        <time>2018-06-26T10:30:08+0200</time>
      </trkpt>
      <trkpt lat="47.25107" lon="4.92883">
        <ele>531.3134765625</ele>
        <time>2018-06-26T10:30:11+0200</time>
      </trkpt>
      <trkpt lat="47.25107" lon="4.92883">
        <ele>531.29528808594</ele>
        <time>2018-06-26T10:30:14+0200</time>
      </trkpt>
      <trkpt lat="47.25107" lon="4.92883">
        <ele>531.29364013672</ele>
        <time>2018-06-26T10:30:17+0200</time>
      </trkpt>
      <trkpt lat="47.25107" lon="4.92883">
        <ele>531.28570556641</ele>
        <time>2018-06-26T10:30:20+0200</time>
      </trkpt>
      <trkpt lat="47.25107" lon="4.92883">
        <ele>531.26745605469</ele>
        <time>2018-06-26T10:30:23+0200</time>
      </trkpt>
      <trkpt lat="47.25106" lon="4.92883">
        <ele>531.26763916016</ele>
        <time>2018-06-26T10:30:26+0200</time>
      </trkpt>
      <trkpt lat="47.25106" lon="4.92884">
        <ele>531.29888916016</ele>
        <time>2018-06-26T10:30:29+0200</time>
      </trkpt>
      <trkpt lat="47.25106" lon="4.92885">
        <ele>531.32891845703</ele>
        <time>2018-06-26T10:30:32+0200</time>
      </trkpt>
      <trkpt lat="47.25105" lon="4.92885">
        <ele>531.36791992188</ele>
        <time>2018-06-26T10:30:35+0200</time>
      </trkpt>
      <trkpt lat="47.25105" lon="4.92886">
        <ele>531.39379882812</ele>
        <time>2018-06-26T10:30:38+0200</time>
      </trkpt>
      <trkpt lat="47.25104" lon="4.92886">
        <ele>531.42065429688</ele>
        <time>2018-06-26T10:30:41+0200</time>
      </trkpt>
      <trkpt lat="47.25104" lon="4.92886">
        <ele>531.4462890625</ele>
        <time>2018-06-26T10:30:44+0200</time>
      </trkpt>
      <trkpt lat="47.25103" lon="4.92886">
        <ele>531.46228027344</ele>
        <time>2018-06-26T10:30:47+0200</time>
      </trkpt>
      <trkpt lat="47.25103" lon="4.92886">
        <ele>531.46044921875</ele>
        <time>2018-06-26T10:30:50+0200</time>
      </trkpt>
      <trkpt lat="47.25102" lon="4.92886">
        <ele>531.43957519531</ele>
        <time>2018-06-26T10:30:53+0200</time>
      </trkpt>
      <trkpt lat="47.25102" lon="4.92886">
        <ele>531.42626953125</ele>
        <time>2018-06-26T10:30:56+0200</time>
      </trkpt>
      <trkpt lat="47.25102" lon="4.92886">
        <ele>531.4326171875</ele>
        <time>2018-06-26T10:30:59+0200</time>
      </trkpt>
      <trkpt lat="47.25102" lon="4.92886">
        <ele>531.44842529297</ele>
        <time>2018-06-26T10:31:02+0200</time>
      </trkpt>
      <trkpt lat="47.25101" lon="4.92887">
        <ele>531.46130371094</ele>
        <time>2018-06-26T10:31:05+0200</time>
      </trkpt>
      <trkpt lat="47.25101" lon="4.92887">
        <ele>531.46228027344</ele>
        <time>2018-06-26T10:31:08+0200</time>
      </trkpt>
      <trkpt lat="47.25101" lon="4.92887">
        <ele>531.47906494141</ele>
        <time>2018-06-26T10:31:11+0200</time>
      </trkpt>
      <trkpt lat="47.25101" lon="4.92887">
        <ele>531.49951171875</ele>
        <time>2018-06-26T10:31:14+0200</time>
      </trkpt>
      <trkpt lat="47.25101" lon="4.92887">
        <ele>531.52069091797</ele>
        <time>2018-06-26T10:31:17+0200</time>
      </trkpt>
      <trkpt lat="47.25101" lon="4.92887">
        <ele>531.54180908203</ele>
        <time>2018-06-26T10:31:20+0200</time>
      </trkpt>
      <trkpt lat="47.25102" lon="4.92887">
        <ele>531.56158447266</ele>
        <time>2018-06-26T10:31:23+0200</time>
      </trkpt>
      <trkpt lat="47.25102" lon="4.92888">
        <ele>531.56201171875</ele>
        <time>2018-06-26T10:31:26+0200</time>
      </trkpt>
      <trkpt lat="47.25102" lon="4.92889">
        <ele>531.55249023438</ele>
        <time>2018-06-26T10:31:29+0200</time>
      </trkpt>
      <trkpt lat="47.25102" lon="4.92889">
        <ele>531.54779052734</ele>
        <time>2018-06-26T10:31:32+0200</time>
      </trkpt>
      <trkpt lat="47.25102" lon="4.92889">
        <ele>531.54235839844</ele>
        <time>2018-06-26T10:31:35+0200</time>
      </trkpt>
      <trkpt lat="47.25102" lon="4.92889">
        <ele>531.54272460938</ele>
        <time>2018-06-26T10:31:38+0200</time>
      </trkpt>
      <trkpt lat="47.25102" lon="4.9289">
        <ele>531.53991699219</ele>
        <time>2018-06-26T10:31:41+0200</time>
      </trkpt>
      <trkpt lat="47.25102" lon="4.92891">
        <ele>531.53576660156</ele>
        <time>2018-06-26T10:31:44+0200</time>
      </trkpt>
      <trkpt lat="47.25102" lon="4.92891">
        <ele>531.53228759766</ele>
        <time>2018-06-26T10:31:47+0200</time>
      </trkpt>
      <trkpt lat="47.25102" lon="4.92891">
        <ele>531.52728271484</ele>
        <time>2018-06-26T10:31:50+0200</time>
      </trkpt>
      <trkpt lat="47.25102" lon="4.92891">
        <ele>531.52301025391</ele>
        <time>2018-06-26T10:31:53+0200</time>
      </trkpt>
      <trkpt lat="47.25102" lon="4.92891">
        <ele>531.52191162109</ele>
        <time>2018-06-26T10:31:56+0200</time>
      </trkpt>
      <trkpt lat="47.25102" lon="4.92891">
        <ele>531.52044677734</ele>
        <time>2018-06-26T10:31:59+0200</time>
      </trkpt>
      <trkpt lat="47.25102" lon="4.92891">
        <ele>531.50665283203</ele>
        <time>2018-06-26T10:32:02+0200</time>
      </trkpt>
      <trkpt lat="47.25102" lon="4.9289">
        <ele>531.47735595703</ele>
        <time>2018-06-26T10:32:05+0200</time>
      </trkpt>
      <trkpt lat="47.25102" lon="4.9289">
        <ele>531.44470214844</ele>
        <time>2018-06-26T10:32:08+0200</time>
      </trkpt>
      <trkpt lat="47.25102" lon="4.9289">
        <ele>531.41333007812</ele>
        <time>2018-06-26T10:32:11+0200</time>
      </trkpt>
      <trkpt lat="47.25102" lon="4.92889">
        <ele>531.38641357422</ele>
        <time>2018-06-26T10:32:14+0200</time>
      </trkpt>
      <trkpt lat="47.25102" lon="4.92889">
        <ele>531.36151123047</ele>
        <time>2018-06-26T10:32:17+0200</time>
      </trkpt>
      <trkpt lat="47.25102" lon="4.92889">
        <ele>531.33923339844</ele>
        <time>2018-06-26T10:32:20+0200</time>
      </trkpt>
      <trkpt lat="47.25102" lon="4.92889">
        <ele>531.33233642578</ele>
        <time>2018-06-26T10:32:23+0200</time>
      </trkpt>
      <trkpt lat="47.25102" lon="4.92889">
        <ele>531.33862304688</ele>
        <time>2018-06-26T10:32:26+0200</time>
      </trkpt>
      <trkpt lat="47.25102" lon="4.92888">
        <ele>531.34539794922</ele>
        <time>2018-06-26T10:32:29+0200</time>
      </trkpt>
      <trkpt lat="47.25102" lon="4.92887">
        <ele>531.34747314453</ele>
        <time>2018-06-26T10:32:32+0200</time>
      </trkpt>
      <trkpt lat="47.25102" lon="4.92886">
        <ele>531.33911132812</ele>
        <time>2018-06-26T10:32:35+0200</time>
      </trkpt>
      <trkpt lat="47.25102" lon="4.92886">
        <ele>531.32434082031</ele>
        <time>2018-06-26T10:32:38+0200</time>
      </trkpt>
      <trkpt lat="47.25102" lon="4.92886">
        <ele>531.30572509766</ele>
        <time>2018-06-26T10:32:41+0200</time>
      </trkpt>
      <trkpt lat="47.25102" lon="4.92886">
        <ele>531.28497314453</ele>
        <time>2018-06-26T10:32:44+0200</time>
      </trkpt>
      <trkpt lat="47.25102" lon="4.92886">
        <ele>531.27154541016</ele>
        <time>2018-06-26T10:32:47+0200</time>
      </trkpt>
      <trkpt lat="47.25102" lon="4.92885">
        <ele>531.26373291016</ele>
        <time>2018-06-26T10:32:50+0200</time>
      </trkpt>
      <trkpt lat="47.25102" lon="4.92885">
        <ele>531.24011230469</ele>
        <time>2018-06-26T10:32:53+0200</time>
      </trkpt>
      <trkpt lat="47.25102" lon="4.92885">
        <ele>531.212890625</ele>
        <time>2018-06-26T10:32:56+0200</time>
      </trkpt>
      <trkpt lat="47.25102" lon="4.92885">
        <ele>531.18316650391</ele>
        <time>2018-06-26T10:32:59+0200</time>
      </trkpt>
      <trkpt lat="47.25102" lon="4.92885">
        <ele>531.15100097656</ele>
        <time>2018-06-26T10:33:02+0200</time>
      </trkpt>
      <trkpt lat="47.25102" lon="4.92885">
        <ele>531.11962890625</ele>
        <time>2018-06-26T10:33:05+0200</time>
      </trkpt>
      <trkpt lat="47.25102" lon="4.92885">
        <ele>531.09826660156</ele>
        <time>2018-06-26T10:33:08+0200</time>
      </trkpt>
      <trkpt lat="47.25102" lon="4.92885">
        <ele>531.09259033203</ele>
        <time>2018-06-26T10:33:11+0200</time>
      </trkpt>
      <trkpt lat="47.25102" lon="4.92885">
        <ele>531.07440185547</ele>
        <time>2018-06-26T10:33:14+0200</time>
      </trkpt>
      <trkpt lat="47.25103" lon="4.92884">
        <ele>531.04370117188</ele>
        <time>2018-06-26T10:33:17+0200</time>
      </trkpt>
      <trkpt lat="47.25103" lon="4.92884">
        <ele>531.01507568359</ele>
        <time>2018-06-26T10:33:20+0200</time>
      </trkpt>
      <trkpt lat="47.25102" lon="4.92884">
        <ele>530.99102783203</ele>
        <time>2018-06-26T10:33:23+0200</time>
      </trkpt>
      <trkpt lat="47.25102" lon="4.92884">
        <ele>530.96655273438</ele>
        <time>2018-06-26T10:33:26+0200</time>
      </trkpt>
      <trkpt lat="47.25103" lon="4.92884">
        <ele>530.94488525391</ele>
        <time>2018-06-26T10:33:29+0200</time>
      </trkpt>
      <trkpt lat="47.25103" lon="4.92884">
        <ele>530.92980957031</ele>
        <time>2018-06-26T10:33:32+0200</time>
      </trkpt>
      <trkpt lat="47.25103" lon="4.92883">
        <ele>530.90924072266</ele>
        <time>2018-06-26T10:33:35+0200</time>
      </trkpt>
      <trkpt lat="47.25103" lon="4.92884">
        <ele>530.89801025391</ele>
        <time>2018-06-26T10:33:38+0200</time>
      </trkpt>
      <trkpt lat="47.25103" lon="4.92884">
        <ele>530.89489746094</ele>
        <time>2018-06-26T10:33:41+0200</time>
      </trkpt>
      <trkpt lat="47.25104" lon="4.92884">
        <ele>530.88903808594</ele>
        <time>2018-06-26T10:33:44+0200</time>
      </trkpt>
      <trkpt lat="47.25104" lon="4.92884">
        <ele>530.87945556641</ele>
        <time>2018-06-26T10:33:47+0200</time>
      </trkpt>
      <trkpt lat="47.25104" lon="4.92883">
        <ele>530.86505126953</ele>
        <time>2018-06-26T10:33:50+0200</time>
      </trkpt>
      <trkpt lat="47.25104" lon="4.92883">
        <ele>530.84356689453</ele>
        <time>2018-06-26T10:33:53+0200</time>
      </trkpt>
      <trkpt lat="47.25104" lon="4.92883">
        <ele>530.82373046875</ele>
        <time>2018-06-26T10:33:56+0200</time>
      </trkpt>
      <trkpt lat="47.25104" lon="4.92883">
        <ele>530.8095703125</ele>
        <time>2018-06-26T10:33:59+0200</time>
      </trkpt>
      <trkpt lat="47.25104" lon="4.92883">
        <ele>530.78674316406</ele>
        <time>2018-06-26T10:34:02+0200</time>
      </trkpt>
      <trkpt lat="47.25104" lon="4.92883">
        <ele>530.75744628906</ele>
        <time>2018-06-26T10:34:05+0200</time>
      </trkpt>
      <trkpt lat="47.25104" lon="4.92883">
        <ele>530.72729492188</ele>
        <time>2018-06-26T10:34:08+0200</time>
      </trkpt>
      <trkpt lat="47.25104" lon="4.92883">
        <ele>530.70013427734</ele>
        <time>2018-06-26T10:34:11+0200</time>
      </trkpt>
      <trkpt lat="47.25104" lon="4.92883">
        <ele>530.68426513672</ele>
        <time>2018-06-26T10:34:14+0200</time>
      </trkpt>
      <trkpt lat="47.25104" lon="4.92883">
        <ele>530.66955566406</ele>
        <time>2018-06-26T10:34:17+0200</time>
      </trkpt>
      <trkpt lat="47.25103" lon="4.92883">
        <ele>530.65594482422</ele>
        <time>2018-06-26T10:34:20+0200</time>
      </trkpt>
      <trkpt lat="47.25103" lon="4.92883">
        <ele>530.64996337891</ele>
        <time>2018-06-26T10:34:23+0200</time>
      </trkpt>
      <trkpt lat="47.25103" lon="4.92883">
        <ele>530.64556884766</ele>
        <time>2018-06-26T10:34:26+0200</time>
      </trkpt>
      <trkpt lat="47.25103" lon="4.92884">
        <ele>530.63696289062</ele>
        <time>2018-06-26T10:34:29+0200</time>
      </trkpt>
      <trkpt lat="47.25103" lon="4.92884">
        <ele>530.63012695312</ele>
        <time>2018-06-26T10:34:32+0200</time>
      </trkpt>
      <trkpt lat="47.25103" lon="4.92885">
        <ele>530.63073730469</ele>
        <time>2018-06-26T10:34:35+0200</time>
      </trkpt>
      <trkpt lat="47.25103" lon="4.92885">
        <ele>530.63543701172</ele>
        <time>2018-06-26T10:34:38+0200</time>
      </trkpt>
      <trkpt lat="47.25103" lon="4.92885">
        <ele>530.63995361328</ele>
        <time>2018-06-26T10:34:41+0200</time>
      </trkpt>
      <trkpt lat="47.25103" lon="4.92886">
        <ele>530.63922119141</ele>
        <time>2018-06-26T10:34:44+0200</time>
      </trkpt>
      <trkpt lat="47.25103" lon="4.92886">
        <ele>530.63671875</ele>
        <time>2018-06-26T10:34:47+0200</time>
      </trkpt>
      <trkpt lat="47.25104" lon="4.92886">
        <ele>530.63702392578</ele>
        <time>2018-06-26T10:34:50+0200</time>
      </trkpt>
      <trkpt lat="47.25104" lon="4.92886">
        <ele>530.630859375</ele>
        <time>2018-06-26T10:34:53+0200</time>
      </trkpt>
      <trkpt lat="47.25104" lon="4.92886">
        <ele>530.62829589844</ele>
        <time>2018-06-26T10:34:56+0200</time>
      </trkpt>
      <trkpt lat="47.25104" lon="4.92885">
        <ele>530.61547851562</ele>
        <time>2018-06-26T10:34:59+0200</time>
      </trkpt>
      <trkpt lat="47.25104" lon="4.92884">
        <ele>530.59301757812</ele>
        <time>2018-06-26T10:35:02+0200</time>
      </trkpt>
      <trkpt lat="47.25104" lon="4.92882">
        <ele>530.47802734375</ele>
        <time>2018-06-26T10:35:05+0200</time>
      </trkpt>
      <trkpt lat="47.25103" lon="4.92881">
        <ele>530.34729003906</ele>
        <time>2018-06-26T10:35:08+0200</time>
      </trkpt>
      <trkpt lat="47.25104" lon="4.92883">
        <ele>530.26928710938</ele>
        <time>2018-06-26T10:35:11+0200</time>
      </trkpt>
      <trkpt lat="47.25103" lon="4.92888">
        <ele>530.16632080078</ele>
        <time>2018-06-26T10:35:14+0200</time>
      </trkpt>
      <trkpt lat="47.25103" lon="4.9289">
        <ele>529.93658447266</ele>
        <time>2018-06-26T10:35:17+0200</time>
      </trkpt>
      <trkpt lat="47.25103" lon="4.92894">
        <ele>529.70385742188</ele>
        <time>2018-06-26T10:35:20+0200</time>
      </trkpt>
      <trkpt lat="47.25103" lon="4.92896">
        <ele>529.47491455078</ele>
        <time>2018-06-26T10:35:23+0200</time>
      </trkpt>
      <trkpt lat="47.25102" lon="4.92898">
        <ele>529.36608886719</ele>
        <time>2018-06-26T10:35:26+0200</time>
      </trkpt>
      <trkpt lat="47.25101" lon="4.92901">
        <ele>529.22320556641</ele>
        <time>2018-06-26T10:35:29+0200</time>
      </trkpt>
      <trkpt lat="47.25102" lon="4.92905">
        <ele>529.12164306641</ele>
        <time>2018-06-26T10:35:32+0200</time>
      </trkpt>
      <trkpt lat="47.25101" lon="4.92911">
        <ele>529.03289794922</ele>
        <time>2018-06-26T10:35:35+0200</time>
      </trkpt>
      <trkpt lat="47.25101" lon="4.92914">
        <ele>529.01202392578</ele>
        <time>2018-06-26T10:35:38+0200</time>
      </trkpt>
      <trkpt lat="47.25102" lon="4.92916">
        <ele>529.07733154297</ele>
        <time>2018-06-26T10:35:41+0200</time>
      </trkpt>
      <trkpt lat="47.25102" lon="4.9292">
        <ele>529.18560791016</ele>
        <time>2018-06-26T10:35:44+0200</time>
      </trkpt>
      <trkpt lat="47.25102" lon="4.92924">
        <ele>529.15686035156</ele>
        <time>2018-06-26T10:35:47+0200</time>
      </trkpt>
      <trkpt lat="47.25102" lon="4.92926">
        <ele>529.00811767578</ele>
        <time>2018-06-26T10:35:50+0200</time>
      </trkpt>
      <trkpt lat="47.25102" lon="4.92929">
        <ele>528.83465576172</ele>
        <time>2018-06-26T10:35:53+0200</time>
      </trkpt>
      <trkpt lat="47.25103" lon="4.92933">
        <ele>528.65032958984</ele>
        <time>2018-06-26T10:35:56+0200</time>
      </trkpt>
      <trkpt lat="47.25103" lon="4.92938">
        <ele>528.33935546875</ele>
        <time>2018-06-26T10:35:59+0200</time>
      </trkpt>
      <trkpt lat="47.25104" lon="4.92942">
        <ele>528.05157470703</ele>
        <time>2018-06-26T10:36:02+0200</time>
      </trkpt>
      <trkpt lat="47.25103" lon="4.92946">
        <ele>527.82196044922</ele>
        <time>2018-06-26T10:36:05+0200</time>
      </trkpt>
      <trkpt lat="47.25103" lon="4.9295">
        <ele>527.66888427734</ele>
        <time>2018-06-26T10:36:08+0200</time>
      </trkpt>
      <trkpt lat="47.25104" lon="4.92954">
        <ele>527.56158447266</ele>
        <time>2018-06-26T10:36:11+0200</time>
      </trkpt>
      <trkpt lat="47.25104" lon="4.92957">
        <ele>527.50170898438</ele>
        <time>2018-06-26T10:36:14+0200</time>
      </trkpt>
      <trkpt lat="47.25104" lon="4.92961">
        <ele>527.40313720703</ele>
        <time>2018-06-26T10:36:17+0200</time>
      </trkpt>
      <trkpt lat="47.25103" lon="4.92966">
        <ele>527.23931884766</ele>
        <time>2018-06-26T10:36:20+0200</time>
      </trkpt>
      <trkpt lat="47.25104" lon="4.92968">
        <ele>527.109375</ele>
        <time>2018-06-26T10:36:23+0200</time>
      </trkpt>
      <trkpt lat="47.25104" lon="4.92969">
        <ele>526.97192382812</ele>
        <time>2018-06-26T10:36:26+0200</time>
      </trkpt>
      <trkpt lat="47.25104" lon="4.92975">
        <ele>526.90399169922</ele>
        <time>2018-06-26T10:36:29+0200</time>
      </trkpt>
      <trkpt lat="47.25104" lon="4.9298">
        <ele>526.83142089844</ele>
        <time>2018-06-26T10:36:32+0200</time>
      </trkpt>
      <trkpt lat="47.25104" lon="4.92984">
        <ele>526.78814697266</ele>
        <time>2018-06-26T10:36:35+0200</time>
      </trkpt>
      <trkpt lat="47.25105" lon="4.92988">
        <ele>526.78765869141</ele>
        <time>2018-06-26T10:36:38+0200</time>
      </trkpt>
      <trkpt lat="47.25106" lon="4.92991">
        <ele>526.81817626953</ele>
        <time>2018-06-26T10:36:41+0200</time>
      </trkpt>
      <trkpt lat="47.25105" lon="4.92995">
        <ele>526.86627197266</ele>
        <time>2018-06-26T10:36:44+0200</time>
      </trkpt>
      <trkpt lat="47.25106" lon="4.92998">
        <ele>526.86791992188</ele>
        <time>2018-06-26T10:36:47+0200</time>
      </trkpt>
      <trkpt lat="47.25105" lon="4.93002">
        <ele>526.81561279297</ele>
        <time>2018-06-26T10:36:50+0200</time>
      </trkpt>
      <trkpt lat="47.25105" lon="4.93006">
        <ele>526.755859375</ele>
        <time>2018-06-26T10:36:53+0200</time>
      </trkpt>
      <trkpt lat="47.25105" lon="4.9301">
        <ele>526.68688964844</ele>
        <time>2018-06-26T10:36:56+0200</time>
      </trkpt>
      <trkpt lat="47.25106" lon="4.93015">
        <ele>526.59985351562</ele>
        <time>2018-06-26T10:36:59+0200</time>
      </trkpt>
      <trkpt lat="47.25106" lon="4.93019">
        <ele>526.51385498047</ele>
        <time>2018-06-26T10:37:02+0200</time>
      </trkpt>
      <trkpt lat="47.25106" lon="4.93023">
        <ele>526.52880859375</ele>
        <time>2018-06-26T10:37:05+0200</time>
      </trkpt>
      <trkpt lat="47.25108" lon="4.93029">
        <ele>526.47692871094</ele>
        <time>2018-06-26T10:37:08+0200</time>
      </trkpt>
      <trkpt lat="47.25108" lon="4.93033">
        <ele>526.30377197266</ele>
        <time>2018-06-26T10:37:11+0200</time>
      </trkpt>
      <trkpt lat="47.25107" lon="4.93037">
        <ele>526.07745361328</ele>
        <time>2018-06-26T10:37:14+0200</time>
      </trkpt>
      <trkpt lat="47.25107" lon="4.93039">
        <ele>525.92785644531</ele>
        <time>2018-06-26T10:37:17+0200</time>
      </trkpt>
      <trkpt lat="47.25107" lon="4.93041">
        <ele>525.89147949219</ele>
        <time>2018-06-26T10:37:20+0200</time>
      </trkpt>
      <trkpt lat="47.25107" lon="4.93048">
        <ele>525.91455078125</ele>
        <time>2018-06-26T10:37:23+0200</time>
      </trkpt>
      <trkpt lat="47.25107" lon="4.93049">
        <ele>525.97869873047</ele>
        <time>2018-06-26T10:37:26+0200</time>
      </trkpt>
      <trkpt lat="47.25107" lon="4.93055">
        <ele>526.07543945312</ele>
        <time>2018-06-26T10:37:29+0200</time>
      </trkpt>
      <trkpt lat="47.25105" lon="4.9306">
        <ele>526.20684814453</ele>
        <time>2018-06-26T10:37:32+0200</time>
      </trkpt>
      <trkpt lat="47.25104" lon="4.93063">
        <ele>526.32012939453</ele>
        <time>2018-06-26T10:37:35+0200</time>
      </trkpt>
      <trkpt lat="47.25102" lon="4.93066">
        <ele>526.373046875</ele>
        <time>2018-06-26T10:37:38+0200</time>
      </trkpt>
      <trkpt lat="47.25101" lon="4.9307">
        <ele>526.39709472656</ele>
        <time>2018-06-26T10:37:41+0200</time>
      </trkpt>
      <trkpt lat="47.25101" lon="4.93074">
        <ele>526.45501708984</ele>
        <time>2018-06-26T10:37:44+0200</time>
      </trkpt>
      <trkpt lat="47.25101" lon="4.93078">
        <ele>526.51983642578</ele>
        <time>2018-06-26T10:37:47+0200</time>
      </trkpt>
      <trkpt lat="47.25099" lon="4.93082">
        <ele>526.5947265625</ele>
        <time>2018-06-26T10:37:50+0200</time>
      </trkpt>
      <trkpt lat="47.25098" lon="4.93085">
        <ele>526.70666503906</ele>
        <time>2018-06-26T10:37:53+0200</time>
      </trkpt>
      <trkpt lat="47.25098" lon="4.93088">
        <ele>526.81890869141</ele>
        <time>2018-06-26T10:37:56+0200</time>
      </trkpt>
      <trkpt lat="47.25098" lon="4.93092">
        <ele>526.9638671875</ele>
        <time>2018-06-26T10:37:59+0200</time>
      </trkpt>
      <trkpt lat="47.25098" lon="4.93093">
        <ele>527.03063964844</ele>
        <time>2018-06-26T10:38:02+0200</time>
      </trkpt>
      <trkpt lat="47.25098" lon="4.93097">
        <ele>527.24371337891</ele>
        <time>2018-06-26T10:38:05+0200</time>
      </trkpt>
      <trkpt lat="47.25097" lon="4.93103">
        <ele>527.42517089844</ele>
        <time>2018-06-26T10:38:08+0200</time>
      </trkpt>
      <trkpt lat="47.25096" lon="4.93109">
        <ele>527.56280517578</ele>
        <time>2018-06-26T10:38:11+0200</time>
      </trkpt>
      <trkpt lat="47.25098" lon="4.93112">
        <ele>527.82794189453</ele>
        <time>2018-06-26T10:38:14+0200</time>
      </trkpt>
      <trkpt lat="47.25096" lon="4.93119">
        <ele>528.08978271484</ele>
        <time>2018-06-26T10:38:17+0200</time>
      </trkpt>
      <trkpt lat="47.25095" lon="4.93124">
        <ele>528.26428222656</ele>
        <time>2018-06-26T10:38:20+0200</time>
      </trkpt>
      <trkpt lat="47.25094" lon="4.9313">
        <ele>528.39166259766</ele>
        <time>2018-06-26T10:38:23+0200</time>
      </trkpt>
      <trkpt lat="47.25093" lon="4.93134">
        <ele>528.45886230469</ele>
        <time>2018-06-26T10:38:26+0200</time>
      </trkpt>
      <trkpt lat="47.25094" lon="4.93139">
        <ele>528.57904052734</ele>
        <time>2018-06-26T10:38:29+0200</time>
      </trkpt>
      <trkpt lat="47.25094" lon="4.93143">
        <ele>528.74566650391</ele>
        <time>2018-06-26T10:38:32+0200</time>
      </trkpt>
      <trkpt lat="47.25094" lon="4.93149">
        <ele>528.91204833984</ele>
        <time>2018-06-26T10:38:35+0200</time>
      </trkpt>
      <trkpt lat="47.25094" lon="4.93155">
        <ele>529.02276611328</ele>
        <time>2018-06-26T10:38:38+0200</time>
      </trkpt>
      <trkpt lat="47.25094" lon="4.93159">
        <ele>529.09503173828</ele>
        <time>2018-06-26T10:38:41+0200</time>
      </trkpt>
      <trkpt lat="47.25095" lon="4.93161">
        <ele>529.16290283203</ele>
        <time>2018-06-26T10:38:44+0200</time>
      </trkpt>
      <trkpt lat="47.25095" lon="4.93168">
        <ele>529.22155761719</ele>
        <time>2018-06-26T10:38:47+0200</time>
      </trkpt>
      <trkpt lat="47.25095" lon="4.93173">
        <ele>529.23284912109</ele>
        <time>2018-06-26T10:38:50+0200</time>
      </trkpt>
      <trkpt lat="47.25094" lon="4.93178">
        <ele>529.25817871094</ele>
        <time>2018-06-26T10:38:54+0200</time>
      </trkpt>
      <trkpt lat="47.25094" lon="4.93184">
        <ele>529.27740478516</ele>
        <time>2018-06-26T10:38:57+0200</time>
      </trkpt>
      <trkpt lat="47.25094" lon="4.93188">
        <ele>529.26538085938</ele>
        <time>2018-06-26T10:39:00+0200</time>
      </trkpt>
      <trkpt lat="47.25092" lon="4.93191">
        <ele>529.34466552734</ele>
        <time>2018-06-26T10:39:03+0200</time>
      </trkpt>
      <trkpt lat="47.25091" lon="4.93195">
        <ele>529.42779541016</ele>
        <time>2018-06-26T10:39:06+0200</time>
      </trkpt>
      <trkpt lat="47.25091" lon="4.93201">
        <ele>529.52813720703</ele>
        <time>2018-06-26T10:39:09+0200</time>
      </trkpt>
      <trkpt lat="47.2509" lon="4.93205">
        <ele>529.65045166016</ele>
        <time>2018-06-26T10:39:12+0200</time>
      </trkpt>
      <trkpt lat="47.2509" lon="4.93208">
        <ele>529.81311035156</ele>
        <time>2018-06-26T10:39:15+0200</time>
      </trkpt>
      <trkpt lat="47.25089" lon="4.93214">
        <ele>529.98583984375</ele>
        <time>2018-06-26T10:39:18+0200</time>
      </trkpt>
      <trkpt lat="47.2509" lon="4.93219">
        <ele>530.10662841797</ele>
        <time>2018-06-26T10:39:21+0200</time>
      </trkpt>
      <trkpt lat="47.25089" lon="4.93223">
        <ele>530.22412109375</ele>
        <time>2018-06-26T10:39:24+0200</time>
      </trkpt>
      <trkpt lat="47.25088" lon="4.93227">
        <ele>530.32299804688</ele>
        <time>2018-06-26T10:39:27+0200</time>
      </trkpt>
      <trkpt lat="47.25088" lon="4.93231">
        <ele>530.41448974609</ele>
        <time>2018-06-26T10:39:30+0200</time>
      </trkpt>
      <trkpt lat="47.25087" lon="4.93235">
        <ele>530.49517822266</ele>
        <time>2018-06-26T10:39:33+0200</time>
      </trkpt>
      <trkpt lat="47.25085" lon="4.93238">
        <ele>530.60357666016</ele>
        <time>2018-06-26T10:39:36+0200</time>
      </trkpt>
      <trkpt lat="47.25083" lon="4.93242">
        <ele>530.68505859375</ele>
        <time>2018-06-26T10:39:39+0200</time>
      </trkpt>
      <trkpt lat="47.25082" lon="4.93246">
        <ele>530.716796875</ele>
        <time>2018-06-26T10:39:42+0200</time>
      </trkpt>
      <trkpt lat="47.25081" lon="4.93249">
        <ele>530.76678466797</ele>
        <time>2018-06-26T10:39:45+0200</time>
      </trkpt>
      <trkpt lat="47.25079" lon="4.93251">
        <ele>530.82659912109</ele>
        <time>2018-06-26T10:39:48+0200</time>
      </trkpt>
      <trkpt lat="47.25076" lon="4.93255">
        <ele>530.80999755859</ele>
        <time>2018-06-26T10:39:51+0200</time>
      </trkpt>
      <trkpt lat="47.25074" lon="4.9326">
        <ele>530.65960693359</ele>
        <time>2018-06-26T10:39:54+0200</time>
      </trkpt>
      <trkpt lat="47.25073" lon="4.93263">
        <ele>530.37890625</ele>
        <time>2018-06-26T10:39:57+0200</time>
      </trkpt>
      <trkpt lat="47.25071" lon="4.93267">
        <ele>530.13922119141</ele>
        <time>2018-06-26T10:40:00+0200</time>
      </trkpt>
      <trkpt lat="47.25071" lon="4.93272">
        <ele>529.80041503906</ele>
        <time>2018-06-26T10:40:03+0200</time>
      </trkpt>
      <trkpt lat="47.25071" lon="4.93276">
        <ele>529.46667480469</ele>
        <time>2018-06-26T10:40:06+0200</time>
      </trkpt>
      <trkpt lat="47.25071" lon="4.93283">
        <ele>529.03607177734</ele>
        <time>2018-06-26T10:40:09+0200</time>
      </trkpt>
      <trkpt lat="47.25071" lon="4.93287">
        <ele>528.75378417969</ele>
        <time>2018-06-26T10:40:12+0200</time>
      </trkpt>
      <trkpt lat="47.25069" lon="4.9329">
        <ele>528.06427001953</ele>
        <time>2018-06-26T10:40:15+0200</time>
      </trkpt>
      <trkpt lat="47.25068" lon="4.93292">
        <ele>527.29986572266</ele>
        <time>2018-06-26T10:40:18+0200</time>
      </trkpt>
      <trkpt lat="47.25068" lon="4.93295">
        <ele>526.60797119141</ele>
        <time>2018-06-26T10:40:21+0200</time>
      </trkpt>
      <trkpt lat="47.25067" lon="4.93299">
        <ele>525.94128417969</ele>
        <time>2018-06-26T10:40:24+0200</time>
      </trkpt>
      <trkpt lat="47.25065" lon="4.93302">
        <ele>525.25048828125</ele>
        <time>2018-06-26T10:40:27+0200</time>
      </trkpt>
      <trkpt lat="47.25065" lon="4.93305">
        <ele>524.59844970703</ele>
        <time>2018-06-26T10:40:30+0200</time>
      </trkpt>
      <trkpt lat="47.25064" lon="4.9331">
        <ele>523.99951171875</ele>
        <time>2018-06-26T10:40:33+0200</time>
      </trkpt>
      <trkpt lat="47.25061" lon="4.93313">
        <ele>523.38220214844</ele>
        <time>2018-06-26T10:40:36+0200</time>
      </trkpt>
      <trkpt lat="47.2506" lon="4.93313">
        <ele>522.923828125</ele>
        <time>2018-06-26T10:40:39+0200</time>
      </trkpt>
      <trkpt lat="47.25058" lon="4.93317">
        <ele>522.33441162109</ele>
        <time>2018-06-26T10:40:42+0200</time>
      </trkpt>
      <trkpt lat="47.25057" lon="4.93322">
        <ele>521.74249267578</ele>
        <time>2018-06-26T10:40:45+0200</time>
      </trkpt>
      <trkpt lat="47.25055" lon="4.93326">
        <ele>521.22961425781</ele>
        <time>2018-06-26T10:40:48+0200</time>
      </trkpt>
      <trkpt lat="47.25054" lon="4.9333">
        <ele>520.75048828125</ele>
        <time>2018-06-26T10:40:51+0200</time>
      </trkpt>
      <trkpt lat="47.25053" lon="4.93336">
        <ele>520.30456542969</ele>
        <time>2018-06-26T10:40:54+0200</time>
      </trkpt>
      <trkpt lat="47.25054" lon="4.93337">
        <ele>520.0751953125</ele>
        <time>2018-06-26T10:40:57+0200</time>
      </trkpt>
      <trkpt lat="47.25053" lon="4.9334">
        <ele>519.92193603516</ele>
        <time>2018-06-26T10:41:00+0200</time>
      </trkpt>
      <trkpt lat="47.25053" lon="4.93346">
        <ele>519.80334472656</ele>
        <time>2018-06-26T10:41:03+0200</time>
      </trkpt>
      <trkpt lat="47.25053" lon="4.93349">
        <ele>519.70629882812</ele>
        <time>2018-06-26T10:41:06+0200</time>
      </trkpt>
      <trkpt lat="47.25053" lon="4.93354">
        <ele>519.62774658203</ele>
        <time>2018-06-26T10:41:09+0200</time>
      </trkpt>
      <trkpt lat="47.25053" lon="4.93357">
        <ele>519.51422119141</ele>
        <time>2018-06-26T10:41:12+0200</time>
      </trkpt>
      <trkpt lat="47.25051" lon="4.9336">
        <ele>519.33624267578</ele>
        <time>2018-06-26T10:41:15+0200</time>
      </trkpt>
      <trkpt lat="47.25049" lon="4.93363">
        <ele>519.18811035156</ele>
        <time>2018-06-26T10:41:18+0200</time>
      </trkpt>
      <trkpt lat="47.25048" lon="4.93366">
        <ele>519.08056640625</ele>
        <time>2018-06-26T10:41:21+0200</time>
      </trkpt>
      <trkpt lat="47.25047" lon="4.93369">
        <ele>519.00122070312</ele>
        <time>2018-06-26T10:41:24+0200</time>
      </trkpt>
      <trkpt lat="47.25047" lon="4.93373">
        <ele>519.01013183594</ele>
        <time>2018-06-26T10:41:27+0200</time>
      </trkpt>
      <trkpt lat="47.25047" lon="4.93376">
        <ele>519.04260253906</ele>
        <time>2018-06-26T10:41:30+0200</time>
      </trkpt>
      <trkpt lat="47.25047" lon="4.93379">
        <ele>519.08074951172</ele>
        <time>2018-06-26T10:41:33+0200</time>
      </trkpt>
      <trkpt lat="47.25046" lon="4.93381">
        <ele>519.14245605469</ele>
        <time>2018-06-26T10:41:36+0200</time>
      </trkpt>
      <trkpt lat="47.25045" lon="4.93385">
        <ele>519.19360351562</ele>
        <time>2018-06-26T10:41:39+0200</time>
      </trkpt>
      <trkpt lat="47.25044" lon="4.93389">
        <ele>519.13433837891</ele>
        <time>2018-06-26T10:41:42+0200</time>
      </trkpt>
      <trkpt lat="47.25043" lon="4.93393">
        <ele>519.06378173828</ele>
        <time>2018-06-26T10:41:45+0200</time>
      </trkpt>
      <trkpt lat="47.25042" lon="4.93397">
        <ele>518.93896484375</ele>
        <time>2018-06-26T10:41:48+0200</time>
      </trkpt>
      <trkpt lat="47.25041" lon="4.93402">
        <ele>518.68664550781</ele>
        <time>2018-06-26T10:41:51+0200</time>
      </trkpt>
      <trkpt lat="47.2504" lon="4.93405">
        <ele>518.43957519531</ele>
        <time>2018-06-26T10:41:54+0200</time>
      </trkpt>
      <trkpt lat="47.25038" lon="4.93409">
        <ele>518.26568603516</ele>
        <time>2018-06-26T10:41:57+0200</time>
      </trkpt>
      <trkpt lat="47.25037" lon="4.93412">
        <ele>518.13104248047</ele>
        <time>2018-06-26T10:42:00+0200</time>
      </trkpt>
      <trkpt lat="47.25035" lon="4.93417">
        <ele>517.94659423828</ele>
        <time>2018-06-26T10:42:03+0200</time>
      </trkpt>
      <trkpt lat="47.25032" lon="4.9342">
        <ele>517.64147949219</ele>
        <time>2018-06-26T10:42:06+0200</time>
      </trkpt>
      <trkpt lat="47.25028" lon="4.93423">
        <ele>517.29406738281</ele>
        <time>2018-06-26T10:42:09+0200</time>
      </trkpt>
      <trkpt lat="47.25026" lon="4.93426">
        <ele>516.94366455078</ele>
        <time>2018-06-26T10:42:12+0200</time>
      </trkpt>
      <trkpt lat="47.25025" lon="4.9343">
        <ele>516.69091796875</ele>
        <time>2018-06-26T10:42:15+0200</time>
      </trkpt>
      <trkpt lat="47.25025" lon="4.93432">
        <ele>516.49395751953</ele>
        <time>2018-06-26T10:42:18+0200</time>
      </trkpt>
      <trkpt lat="47.25025" lon="4.93433">
        <ele>516.19818115234</ele>
        <time>2018-06-26T10:42:21+0200</time>
      </trkpt>
      <trkpt lat="47.25026" lon="4.93435">
        <ele>516.04467773438</ele>
        <time>2018-06-26T10:42:24+0200</time>
      </trkpt>
      <trkpt lat="47.25025" lon="4.93442">
        <ele>515.85736083984</ele>
        <time>2018-06-26T10:42:27+0200</time>
      </trkpt>
      <trkpt lat="47.25026" lon="4.93448">
        <ele>515.61431884766</ele>
        <time>2018-06-26T10:42:30+0200</time>
      </trkpt>
      <trkpt lat="47.25026" lon="4.93451">
        <ele>515.31555175781</ele>
        <time>2018-06-26T10:42:33+0200</time>
      </trkpt>
      <trkpt lat="47.25025" lon="4.93456">
        <ele>515.05725097656</ele>
        <time>2018-06-26T10:42:36+0200</time>
      </trkpt>
      <trkpt lat="47.25025" lon="4.9346">
        <ele>514.80157470703</ele>
        <time>2018-06-26T10:42:39+0200</time>
      </trkpt>
      <trkpt lat="47.25025" lon="4.93463">
        <ele>514.54040527344</ele>
        <time>2018-06-26T10:42:42+0200</time>
      </trkpt>
      <trkpt lat="47.25025" lon="4.93464">
        <ele>514.29425048828</ele>
        <time>2018-06-26T10:42:45+0200</time>
      </trkpt>
      <trkpt lat="47.25023" lon="4.93469">
        <ele>514.02008056641</ele>
        <time>2018-06-26T10:42:48+0200</time>
      </trkpt>
      <trkpt lat="47.25021" lon="4.93472">
        <ele>513.70959472656</ele>
        <time>2018-06-26T10:42:51+0200</time>
      </trkpt>
      <trkpt lat="47.25019" lon="4.93476">
        <ele>513.32348632812</ele>
        <time>2018-06-26T10:42:54+0200</time>
      </trkpt>
      <trkpt lat="47.25019" lon="4.93479">
        <ele>512.91052246094</ele>
        <time>2018-06-26T10:42:57+0200</time>
      </trkpt>
      <trkpt lat="47.25019" lon="4.93482">
        <ele>512.59490966797</ele>
        <time>2018-06-26T10:43:00+0200</time>
      </trkpt>
      <trkpt lat="47.25019" lon="4.93486">
        <ele>512.30102539062</ele>
        <time>2018-06-26T10:43:03+0200</time>
      </trkpt>
      <trkpt lat="47.25017" lon="4.9349">
        <ele>511.98547363281</ele>
        <time>2018-06-26T10:43:06+0200</time>
      </trkpt>
      <trkpt lat="47.25016" lon="4.93494">
        <ele>511.68395996094</ele>
        <time>2018-06-26T10:43:09+0200</time>
      </trkpt>
      <trkpt lat="47.25016" lon="4.93498">
        <ele>511.31860351562</ele>
        <time>2018-06-26T10:43:12+0200</time>
      </trkpt>
      <trkpt lat="47.25018" lon="4.93501">
        <ele>510.94885253906</ele>
        <time>2018-06-26T10:43:15+0200</time>
      </trkpt>
      <trkpt lat="47.25019" lon="4.93503">
        <ele>510.74127197266</ele>
        <time>2018-06-26T10:43:18+0200</time>
      </trkpt>
      <trkpt lat="47.25018" lon="4.93508">
        <ele>510.45861816406</ele>
        <time>2018-06-26T10:43:21+0200</time>
      </trkpt>
      <trkpt lat="47.25017" lon="4.93511">
        <ele>510.06536865234</ele>
        <time>2018-06-26T10:43:24+0200</time>
      </trkpt>
      <trkpt lat="47.25016" lon="4.93517">
        <ele>509.66723632812</ele>
        <time>2018-06-26T10:43:27+0200</time>
      </trkpt>
      <trkpt lat="47.25016" lon="4.93522">
        <ele>509.28057861328</ele>
        <time>2018-06-26T10:43:30+0200</time>
      </trkpt>
      <trkpt lat="47.25016" lon="4.93528">
        <ele>508.81573486328</ele>
        <time>2018-06-26T10:43:33+0200</time>
      </trkpt>
      <trkpt lat="47.25016" lon="4.93533">
        <ele>508.32623291016</ele>
        <time>2018-06-26T10:43:36+0200</time>
      </trkpt>
      <trkpt lat="47.25016" lon="4.93534">
        <ele>507.94091796875</ele>
        <time>2018-06-26T10:43:39+0200</time>
      </trkpt>
      <trkpt lat="47.25016" lon="4.93538">
        <ele>507.48291015625</ele>
        <time>2018-06-26T10:43:42+0200</time>
      </trkpt>
      <trkpt lat="47.25016" lon="4.93542">
        <ele>507.19488525391</ele>
        <time>2018-06-26T10:43:45+0200</time>
      </trkpt>
      <trkpt lat="47.25016" lon="4.93547">
        <ele>506.98333740234</ele>
        <time>2018-06-26T10:43:48+0200</time>
      </trkpt>
      <trkpt lat="47.25015" lon="4.9355">
        <ele>506.77221679688</ele>
        <time>2018-06-26T10:43:51+0200</time>
      </trkpt>
      <trkpt lat="47.25015" lon="4.93555">
        <ele>506.50897216797</ele>
        <time>2018-06-26T10:43:54+0200</time>
      </trkpt>
      <trkpt lat="47.25014" lon="4.93559">
        <ele>506.25115966797</ele>
        <time>2018-06-26T10:43:57+0200</time>
      </trkpt>
      <trkpt lat="47.25014" lon="4.93563">
        <ele>506.00396728516</ele>
        <time>2018-06-26T10:44:00+0200</time>
      </trkpt>
      <trkpt lat="47.25014" lon="4.93567">
        <ele>505.78308105469</ele>
        <time>2018-06-26T10:44:03+0200</time>
      </trkpt>
      <trkpt lat="47.25013" lon="4.93572">
        <ele>505.49969482422</ele>
        <time>2018-06-26T10:44:06+0200</time>
      </trkpt>
      <trkpt lat="47.25012" lon="4.93576">
        <ele>505.17059326172</ele>
        <time>2018-06-26T10:44:09+0200</time>
      </trkpt>
      <trkpt lat="47.25012" lon="4.93577">
        <ele>504.90759277344</ele>
        <time>2018-06-26T10:44:12+0200</time>
      </trkpt>
      <trkpt lat="47.25011" lon="4.9358">
        <ele>504.75573730469</ele>
        <time>2018-06-26T10:44:15+0200</time>
      </trkpt>
      <trkpt lat="47.25009" lon="4.93583">
        <ele>504.71246337891</ele>
        <time>2018-06-26T10:44:18+0200</time>
      </trkpt>
      <trkpt lat="47.25008" lon="4.93585">
        <ele>504.72875976562</ele>
        <time>2018-06-26T10:44:21+0200</time>
      </trkpt>
      <trkpt lat="47.25008" lon="4.93588">
        <ele>504.73767089844</ele>
        <time>2018-06-26T10:44:24+0200</time>
      </trkpt>
      <trkpt lat="47.25007" lon="4.9359">
        <ele>504.76379394531</ele>
        <time>2018-06-26T10:44:27+0200</time>
      </trkpt>
      <trkpt lat="47.25007" lon="4.93593">
        <ele>504.81903076172</ele>
        <time>2018-06-26T10:44:30+0200</time>
      </trkpt>
      <trkpt lat="47.25006" lon="4.93595">
        <ele>504.86529541016</ele>
        <time>2018-06-26T10:44:33+0200</time>
      </trkpt>
      <trkpt lat="47.25006" lon="4.93601">
        <ele>504.85339355469</ele>
        <time>2018-06-26T10:44:36+0200</time>
      </trkpt>
      <trkpt lat="47.25007" lon="4.93605">
        <ele>504.69030761719</ele>
        <time>2018-06-26T10:44:39+0200</time>
      </trkpt>
      <trkpt lat="47.25007" lon="4.93607">
        <ele>504.55706787109</ele>
        <time>2018-06-26T10:44:42+0200</time>
      </trkpt>
      <trkpt lat="47.25007" lon="4.93615">
        <ele>504.40716552734</ele>
        <time>2018-06-26T10:44:45+0200</time>
      </trkpt>
      <trkpt lat="47.25006" lon="4.93618">
        <ele>504.15234375</ele>
        <time>2018-06-26T10:44:48+0200</time>
      </trkpt>
      <trkpt lat="47.25004" lon="4.93623">
        <ele>503.90478515625</ele>
        <time>2018-06-26T10:44:51+0200</time>
      </trkpt>
      <trkpt lat="47.25004" lon="4.93626">
        <ele>503.73345947266</ele>
        <time>2018-06-26T10:44:54+0200</time>
      </trkpt>
      <trkpt lat="47.25004" lon="4.93629">
        <ele>503.46417236328</ele>
        <time>2018-06-26T10:44:57+0200</time>
      </trkpt>
      <trkpt lat="47.25005" lon="4.93638">
        <ele>503.24035644531</ele>
        <time>2018-06-26T10:45:00+0200</time>
      </trkpt>
      <trkpt lat="47.25008" lon="4.9365">
        <ele>503.01861572266</ele>
        <time>2018-06-26T10:45:03+0200</time>
      </trkpt>
      <trkpt lat="47.25009" lon="4.93658">
        <ele>502.68835449219</ele>
        <time>2018-06-26T10:45:06+0200</time>
      </trkpt>
      <trkpt lat="47.25009" lon="4.93664">
        <ele>502.24401855469</ele>
        <time>2018-06-26T10:45:09+0200</time>
      </trkpt>
      <trkpt lat="47.25009" lon="4.93666">
        <ele>501.76647949219</ele>
        <time>2018-06-26T10:45:12+0200</time>
      </trkpt>
      <trkpt lat="47.25009" lon="4.93668">
        <ele>501.42010498047</ele>
        <time>2018-06-26T10:45:15+0200</time>
      </trkpt>
      <trkpt lat="47.25009" lon="4.93672">
        <ele>500.89294433594</ele>
        <time>2018-06-26T10:45:18+0200</time>
      </trkpt>
      <trkpt lat="47.2501" lon="4.93674">
        <ele>500.39904785156</ele>
        <time>2018-06-26T10:45:21+0200</time>
      </trkpt>
      <trkpt lat="47.2501" lon="4.93674">
        <ele>500.01684570312</ele>
        <time>2018-06-26T10:45:24+0200</time>
      </trkpt>
      <trkpt lat="47.25011" lon="4.93678">
        <ele>499.78021240234</ele>
        <time>2018-06-26T10:45:27+0200</time>
      </trkpt>
      <trkpt lat="47.25013" lon="4.93683">
        <ele>499.58996582031</ele>
        <time>2018-06-26T10:45:30+0200</time>
      </trkpt>
      <trkpt lat="47.25014" lon="4.93686">
        <ele>499.43072509766</ele>
        <time>2018-06-26T10:45:33+0200</time>
      </trkpt>
      <trkpt lat="47.25013" lon="4.93687">
        <ele>499.26403808594</ele>
        <time>2018-06-26T10:45:36+0200</time>
      </trkpt>
      <trkpt lat="47.25013" lon="4.93689">
        <ele>499.15020751953</ele>
        <time>2018-06-26T10:45:39+0200</time>
      </trkpt>
      <trkpt lat="47.25012" lon="4.93693">
        <ele>498.99829101562</ele>
        <time>2018-06-26T10:45:42+0200</time>
      </trkpt>
      <trkpt lat="47.25012" lon="4.93696">
        <ele>498.85681152344</ele>
        <time>2018-06-26T10:45:45+0200</time>
      </trkpt>
      <trkpt lat="47.25013" lon="4.937">
        <ele>498.70068359375</ele>
        <time>2018-06-26T10:45:48+0200</time>
      </trkpt>
      <trkpt lat="47.25013" lon="4.93704">
        <ele>498.55419921875</ele>
        <time>2018-06-26T10:45:51+0200</time>
      </trkpt>
      <trkpt lat="47.25011" lon="4.93709">
        <ele>498.40130615234</ele>
        <time>2018-06-26T10:45:54+0200</time>
      </trkpt>
      <trkpt lat="47.25011" lon="4.93713">
        <ele>498.25994873047</ele>
        <time>2018-06-26T10:45:57+0200</time>
      </trkpt>
      <trkpt lat="47.25011" lon="4.93716">
        <ele>498.16558837891</ele>
        <time>2018-06-26T10:46:00+0200</time>
      </trkpt>
      <trkpt lat="47.25011" lon="4.9372">
        <ele>498.06909179688</ele>
        <time>2018-06-26T10:46:03+0200</time>
      </trkpt>
      <trkpt lat="47.25012" lon="4.93721">
        <ele>497.9521484375</ele>
        <time>2018-06-26T10:46:06+0200</time>
      </trkpt>
      <trkpt lat="47.25012" lon="4.93726">
        <ele>497.82611083984</ele>
        <time>2018-06-26T10:46:09+0200</time>
      </trkpt>
      <trkpt lat="47.25012" lon="4.93731">
        <ele>497.65899658203</ele>
        <time>2018-06-26T10:46:12+0200</time>
      </trkpt>
      <trkpt lat="47.25012" lon="4.93737">
        <ele>497.34338378906</ele>
        <time>2018-06-26T10:46:15+0200</time>
      </trkpt>
      <trkpt lat="47.25012" lon="4.9374">
        <ele>497.00634765625</ele>
        <time>2018-06-26T10:46:18+0200</time>
      </trkpt>
      <trkpt lat="47.25013" lon="4.93742">
        <ele>496.79241943359</ele>
        <time>2018-06-26T10:46:21+0200</time>
      </trkpt>
      <trkpt lat="47.25012" lon="4.93747">
        <ele>496.43011474609</ele>
        <time>2018-06-26T10:46:24+0200</time>
      </trkpt>
      <trkpt lat="47.25011" lon="4.9375">
        <ele>496.08050537109</ele>
        <time>2018-06-26T10:46:27+0200</time>
      </trkpt>
      <trkpt lat="47.25011" lon="4.93754">
        <ele>495.72027587891</ele>
        <time>2018-06-26T10:46:30+0200</time>
      </trkpt>
      <trkpt lat="47.25012" lon="4.93758">
        <ele>495.35675048828</ele>
        <time>2018-06-26T10:46:33+0200</time>
      </trkpt>
      <trkpt lat="47.25012" lon="4.93763">
        <ele>495.01507568359</ele>
        <time>2018-06-26T10:46:36+0200</time>
      </trkpt>
      <trkpt lat="47.25013" lon="4.93765">
        <ele>494.75201416016</ele>
        <time>2018-06-26T10:46:39+0200</time>
      </trkpt>
      <trkpt lat="47.25014" lon="4.93768">
        <ele>494.57806396484</ele>
        <time>2018-06-26T10:46:42+0200</time>
      </trkpt>
      <trkpt lat="47.25014" lon="4.9377">
        <ele>494.41247558594</ele>
        <time>2018-06-26T10:46:45+0200</time>
      </trkpt>
      <trkpt lat="47.25013" lon="4.93774">
        <ele>494.28051757812</ele>
        <time>2018-06-26T10:46:48+0200</time>
      </trkpt>
      <trkpt lat="47.25013" lon="4.9378">
        <ele>494.12707519531</ele>
        <time>2018-06-26T10:46:51+0200</time>
      </trkpt>
      <trkpt lat="47.25012" lon="4.93784">
        <ele>494.0341796875</ele>
        <time>2018-06-26T10:46:54+0200</time>
      </trkpt>
      <trkpt lat="47.25011" lon="4.93787">
        <ele>493.810546875</ele>
        <time>2018-06-26T10:46:57+0200</time>
      </trkpt>
      <trkpt lat="47.25012" lon="4.9379">
        <ele>493.53088378906</ele>
        <time>2018-06-26T10:47:00+0200</time>
      </trkpt>
      <trkpt lat="47.25012" lon="4.93791">
        <ele>493.23779296875</ele>
        <time>2018-06-26T10:47:03+0200</time>
      </trkpt>
      <trkpt lat="47.25012" lon="4.93794">
        <ele>493.06976318359</ele>
        <time>2018-06-26T10:47:06+0200</time>
      </trkpt>
      <trkpt lat="47.25012" lon="4.93797">
        <ele>492.95074462891</ele>
        <time>2018-06-26T10:47:09+0200</time>
      </trkpt>
      <trkpt lat="47.25012" lon="4.93805">
        <ele>492.90496826172</ele>
        <time>2018-06-26T10:47:12+0200</time>
      </trkpt>
      <trkpt lat="47.25011" lon="4.93811">
        <ele>492.63970947266</ele>
        <time>2018-06-26T10:47:15+0200</time>
      </trkpt>
      <trkpt lat="47.25012" lon="4.93815">
        <ele>492.27545166016</ele>
        <time>2018-06-26T10:47:18+0200</time>
      </trkpt>
      <trkpt lat="47.25014" lon="4.93817">
        <ele>491.95465087891</ele>
        <time>2018-06-26T10:47:21+0200</time>
      </trkpt>
      <trkpt lat="47.25016" lon="4.93822">
        <ele>491.69378662109</ele>
        <time>2018-06-26T10:47:24+0200</time>
      </trkpt>
      <trkpt lat="47.25016" lon="4.93824">
        <ele>491.51354980469</ele>
        <time>2018-06-26T10:47:27+0200</time>
      </trkpt>
      <trkpt lat="47.25016" lon="4.93828">
        <ele>491.32904052734</ele>
        <time>2018-06-26T10:47:30+0200</time>
      </trkpt>
      <trkpt lat="47.25016" lon="4.93834">
        <ele>491.23321533203</ele>
        <time>2018-06-26T10:47:33+0200</time>
      </trkpt>
      <trkpt lat="47.25017" lon="4.93837">
        <ele>491.31903076172</ele>
        <time>2018-06-26T10:47:36+0200</time>
      </trkpt>
      <trkpt lat="47.25017" lon="4.93841">
        <ele>491.47125244141</ele>
        <time>2018-06-26T10:47:39+0200</time>
      </trkpt>
      <trkpt lat="47.25017" lon="4.93845">
        <ele>491.62951660156</ele>
        <time>2018-06-26T10:47:42+0200</time>
      </trkpt>
      <trkpt lat="47.25016" lon="4.93851">
        <ele>491.70935058594</ele>
        <time>2018-06-26T10:47:45+0200</time>
      </trkpt>
      <trkpt lat="47.25015" lon="4.93853">
        <ele>491.76580810547</ele>
        <time>2018-06-26T10:47:48+0200</time>
      </trkpt>
      <trkpt lat="47.25014" lon="4.93859">
        <ele>491.78912353516</ele>
        <time>2018-06-26T10:47:51+0200</time>
      </trkpt>
      <trkpt lat="47.25013" lon="4.93864">
        <ele>491.67053222656</ele>
        <time>2018-06-26T10:47:54+0200</time>
      </trkpt>
      <trkpt lat="47.25012" lon="4.93868">
        <ele>491.34893798828</ele>
        <time>2018-06-26T10:47:57+0200</time>
      </trkpt>
      <trkpt lat="47.25012" lon="4.93871">
        <ele>490.94036865234</ele>
        <time>2018-06-26T10:48:00+0200</time>
      </trkpt>
      <trkpt lat="47.25012" lon="4.93874">
        <ele>490.50164794922</ele>
        <time>2018-06-26T10:48:03+0200</time>
      </trkpt>
      <trkpt lat="47.25012" lon="4.93879">
        <ele>490.07299804688</ele>
        <time>2018-06-26T10:48:06+0200</time>
      </trkpt>
      <trkpt lat="47.25014" lon="4.93882">
        <ele>489.76489257812</ele>
        <time>2018-06-26T10:48:09+0200</time>
      </trkpt>
      <trkpt lat="47.25014" lon="4.93884">
        <ele>489.52551269531</ele>
        <time>2018-06-26T10:48:12+0200</time>
      </trkpt>
      <trkpt lat="47.25014" lon="4.93885">
        <ele>489.52581787109</ele>
        <time>2018-06-26T10:48:15+0200</time>
      </trkpt>
      <trkpt lat="47.25014" lon="4.93888">
        <ele>489.68670654297</ele>
        <time>2018-06-26T10:48:18+0200</time>
      </trkpt>
      <trkpt lat="47.25014" lon="4.93892">
        <ele>489.88195800781</ele>
        <time>2018-06-26T10:48:21+0200</time>
      </trkpt>
      <trkpt lat="47.25013" lon="4.93896">
        <ele>489.96435546875</ele>
        <time>2018-06-26T10:48:24+0200</time>
      </trkpt>
      <trkpt lat="47.25011" lon="4.93898">
        <ele>489.91003417969</ele>
        <time>2018-06-26T10:48:27+0200</time>
      </trkpt>
      <trkpt lat="47.25011" lon="4.939">
        <ele>489.73205566406</ele>
        <time>2018-06-26T10:48:30+0200</time>
      </trkpt>
      <trkpt lat="47.25011" lon="4.93903">
        <ele>489.54876708984</ele>
        <time>2018-06-26T10:48:33+0200</time>
      </trkpt>
      <trkpt lat="47.25011" lon="4.93906">
        <ele>489.36285400391</ele>
        <time>2018-06-26T10:48:36+0200</time>
      </trkpt>
      <trkpt lat="47.2501" lon="4.93908">
        <ele>489.17358398438</ele>
        <time>2018-06-26T10:48:39+0200</time>
      </trkpt>
      <trkpt lat="47.25011" lon="4.93913">
        <ele>489.04040527344</ele>
        <time>2018-06-26T10:48:42+0200</time>
      </trkpt>
      <trkpt lat="47.25011" lon="4.93917">
        <ele>488.98864746094</ele>
        <time>2018-06-26T10:48:45+0200</time>
      </trkpt>
      <trkpt lat="47.25011" lon="4.93921">
        <ele>489.07806396484</ele>
        <time>2018-06-26T10:48:48+0200</time>
      </trkpt>
      <trkpt lat="47.25011" lon="4.93925">
        <ele>489.18975830078</ele>
        <time>2018-06-26T10:48:51+0200</time>
      </trkpt>
      <trkpt lat="47.2501" lon="4.93936">
        <ele>489.20074462891</ele>
        <time>2018-06-26T10:48:54+0200</time>
      </trkpt>
      <trkpt lat="47.25009" lon="4.93942">
        <ele>488.95098876953</ele>
        <time>2018-06-26T10:48:57+0200</time>
      </trkpt>
      <trkpt lat="47.25009" lon="4.93946">
        <ele>488.57220458984</ele>
        <time>2018-06-26T10:49:00+0200</time>
      </trkpt>
      <trkpt lat="47.25011" lon="4.93949">
        <ele>488.11297607422</ele>
        <time>2018-06-26T10:49:03+0200</time>
      </trkpt>
      <trkpt lat="47.25012" lon="4.93952">
        <ele>487.69543457031</ele>
        <time>2018-06-26T10:49:06+0200</time>
      </trkpt>
      <trkpt lat="47.25012" lon="4.93957">
        <ele>487.25854492188</ele>
        <time>2018-06-26T10:49:09+0200</time>
      </trkpt>
      <trkpt lat="47.25013" lon="4.93962">
        <ele>486.80676269531</ele>
        <time>2018-06-26T10:49:12+0200</time>
      </trkpt>
      <trkpt lat="47.25013" lon="4.93965">
        <ele>486.31823730469</ele>
        <time>2018-06-26T10:49:15+0200</time>
      </trkpt>
      <trkpt lat="47.2501" lon="4.93968">
        <ele>485.81988525391</ele>
        <time>2018-06-26T10:49:18+0200</time>
      </trkpt>
      <trkpt lat="47.25009" lon="4.9397">
        <ele>485.30688476562</ele>
        <time>2018-06-26T10:49:21+0200</time>
      </trkpt>
      <trkpt lat="47.25008" lon="4.93974">
        <ele>484.82220458984</ele>
        <time>2018-06-26T10:49:24+0200</time>
      </trkpt>
      <trkpt lat="47.25008" lon="4.93976">
        <ele>484.42626953125</ele>
        <time>2018-06-26T10:49:27+0200</time>
      </trkpt>
      <trkpt lat="47.25008" lon="4.93978">
        <ele>484.18884277344</ele>
        <time>2018-06-26T10:49:30+0200</time>
      </trkpt>
      <trkpt lat="47.25008" lon="4.9398">
        <ele>484.03088378906</ele>
        <time>2018-06-26T10:49:33+0200</time>
      </trkpt>
      <trkpt lat="47.25006" lon="4.93982">
        <ele>483.93841552734</ele>
        <time>2018-06-26T10:49:36+0200</time>
      </trkpt>
      <trkpt lat="47.25005" lon="4.93987">
        <ele>483.85504150391</ele>
        <time>2018-06-26T10:49:39+0200</time>
      </trkpt>
      <trkpt lat="47.25003" lon="4.93991">
        <ele>483.81518554688</ele>
        <time>2018-06-26T10:49:42+0200</time>
      </trkpt>
      <trkpt lat="47.25002" lon="4.93996">
        <ele>483.77783203125</ele>
        <time>2018-06-26T10:49:45+0200</time>
      </trkpt>
      <trkpt lat="47.25002" lon="4.93998">
        <ele>483.64111328125</ele>
        <time>2018-06-26T10:49:48+0200</time>
      </trkpt>
      <trkpt lat="47.25002" lon="4.94">
        <ele>483.55194091797</ele>
        <time>2018-06-26T10:49:51+0200</time>
      </trkpt>
      <trkpt lat="47.25" lon="4.94003">
        <ele>483.43511962891</ele>
        <time>2018-06-26T10:49:54+0200</time>
      </trkpt>
      <trkpt lat="47.24999" lon="4.94006">
        <ele>483.26770019531</ele>
        <time>2018-06-26T10:49:57+0200</time>
      </trkpt>
      <trkpt lat="47.24998" lon="4.94011">
        <ele>483.06793212891</ele>
        <time>2018-06-26T10:50:00+0200</time>
      </trkpt>
      <trkpt lat="47.24998" lon="4.94013">
        <ele>482.83935546875</ele>
        <time>2018-06-26T10:50:03+0200</time>
      </trkpt>
      <trkpt lat="47.24999" lon="4.94015">
        <ele>482.65844726562</ele>
        <time>2018-06-26T10:50:06+0200</time>
      </trkpt>
      <trkpt lat="47.24997" lon="4.9402">
        <ele>482.49432373047</ele>
        <time>2018-06-26T10:50:09+0200</time>
      </trkpt>
      <trkpt lat="47.24996" lon="4.94024">
        <ele>482.29229736328</ele>
        <time>2018-06-26T10:50:12+0200</time>
      </trkpt>
      <trkpt lat="47.24995" lon="4.9403">
        <ele>481.97399902344</ele>
        <time>2018-06-26T10:50:15+0200</time>
      </trkpt>
      <trkpt lat="47.24994" lon="4.94033">
        <ele>481.796875</ele>
        <time>2018-06-26T10:50:18+0200</time>
      </trkpt>
      <trkpt lat="47.24995" lon="4.94037">
        <ele>481.22552490234</ele>
        <time>2018-06-26T10:50:21+0200</time>
      </trkpt>
      <trkpt lat="47.24996" lon="4.94043">
        <ele>480.71557617188</ele>
        <time>2018-06-26T10:50:24+0200</time>
      </trkpt>
      <trkpt lat="47.24996" lon="4.94048">
        <ele>480.23254394531</ele>
        <time>2018-06-26T10:50:27+0200</time>
      </trkpt>
      <trkpt lat="47.24997" lon="4.94052">
        <ele>479.79479980469</ele>
        <time>2018-06-26T10:50:30+0200</time>
      </trkpt>
      <trkpt lat="47.24998" lon="4.94054">
        <ele>479.43383789062</ele>
        <time>2018-06-26T10:50:33+0200</time>
      </trkpt>
      <trkpt lat="47.24997" lon="4.94057">
        <ele>479.20764160156</ele>
        <time>2018-06-26T10:50:36+0200</time>
      </trkpt>
      <trkpt lat="47.24996" lon="4.94063">
        <ele>479.03198242188</ele>
        <time>2018-06-26T10:50:39+0200</time>
      </trkpt>
      <trkpt lat="47.24996" lon="4.94067">
        <ele>478.90020751953</ele>
        <time>2018-06-26T10:50:42+0200</time>
      </trkpt>
      <trkpt lat="47.24994" lon="4.94069">
        <ele>478.77056884766</ele>
        <time>2018-06-26T10:50:45+0200</time>
      </trkpt>
      <trkpt lat="47.24992" lon="4.94073">
        <ele>478.62762451172</ele>
        <time>2018-06-26T10:50:48+0200</time>
      </trkpt>
      <trkpt lat="47.24991" lon="4.94079">
        <ele>478.44281005859</ele>
        <time>2018-06-26T10:50:51+0200</time>
      </trkpt>
      <trkpt lat="47.2499" lon="4.94083">
        <ele>478.32647705078</ele>
        <time>2018-06-26T10:50:54+0200</time>
      </trkpt>
      <trkpt lat="47.24988" lon="4.94086">
        <ele>478.146484375</ele>
        <time>2018-06-26T10:50:57+0200</time>
      </trkpt>
      <trkpt lat="47.24986" lon="4.94091">
        <ele>477.89709472656</ele>
        <time>2018-06-26T10:51:00+0200</time>
      </trkpt>
      <trkpt lat="47.24985" lon="4.94092">
        <ele>477.65356445312</ele>
        <time>2018-06-26T10:51:03+0200</time>
      </trkpt>
      <trkpt lat="47.24984" lon="4.94095">
        <ele>477.45428466797</ele>
        <time>2018-06-26T10:51:06+0200</time>
      </trkpt>
      <trkpt lat="47.24984" lon="4.94096">
        <ele>477.42858886719</ele>
        <time>2018-06-26T10:51:09+0200</time>
      </trkpt>
      <trkpt lat="47.24984" lon="4.94099">
        <ele>477.57971191406</ele>
        <time>2018-06-26T10:51:12+0200</time>
      </trkpt>
      <trkpt lat="47.24985" lon="4.94103">
        <ele>477.80181884766</ele>
        <time>2018-06-26T10:51:15+0200</time>
      </trkpt>
      <trkpt lat="47.24987" lon="4.94108">
        <ele>478.01428222656</ele>
        <time>2018-06-26T10:51:17+0200</time>
      </trkpt>
      <trkpt lat="47.24987" lon="4.94112">
        <ele>478.13293457031</ele>
        <time>2018-06-26T10:51:20+0200</time>
      </trkpt>
      <trkpt lat="47.24987" lon="4.94114">
        <ele>478.19488525391</ele>
        <time>2018-06-26T10:51:23+0200</time>
      </trkpt>
      <trkpt lat="47.24986" lon="4.94123">
        <ele>478.31500244141</ele>
        <time>2018-06-26T10:51:26+0200</time>
      </trkpt>
      <trkpt lat="47.24986" lon="4.94129">
        <ele>478.27349853516</ele>
        <time>2018-06-26T10:51:29+0200</time>
      </trkpt>
      <trkpt lat="47.24986" lon="4.94133">
        <ele>478.07409667969</ele>
        <time>2018-06-26T10:51:32+0200</time>
      </trkpt>
      <trkpt lat="47.24984" lon="4.94134">
        <ele>477.80798339844</ele>
        <time>2018-06-26T10:51:35+0200</time>
      </trkpt>
      <trkpt lat="47.24984" lon="4.94138">
        <ele>477.53485107422</ele>
        <time>2018-06-26T10:51:38+0200</time>
      </trkpt>
      <trkpt lat="47.24984" lon="4.9414">
        <ele>477.42913818359</ele>
        <time>2018-06-26T10:51:41+0200</time>
      </trkpt>
      <trkpt lat="47.24983" lon="4.94145">
        <ele>477.42797851562</ele>
        <time>2018-06-26T10:51:44+0200</time>
      </trkpt>
      <trkpt lat="47.24984" lon="4.94148">
        <ele>477.392578125</ele>
        <time>2018-06-26T10:51:47+0200</time>
      </trkpt>
      <trkpt lat="47.24984" lon="4.94152">
        <ele>477.25445556641</ele>
        <time>2018-06-26T10:51:50+0200</time>
      </trkpt>
      <trkpt lat="47.24984" lon="4.94158">
        <ele>477.06115722656</ele>
        <time>2018-06-26T10:51:53+0200</time>
      </trkpt>
      <trkpt lat="47.24986" lon="4.94163">
        <ele>476.82025146484</ele>
        <time>2018-06-26T10:51:56+0200</time>
      </trkpt>
      <trkpt lat="47.24989" lon="4.94168">
        <ele>476.63922119141</ele>
        <time>2018-06-26T10:51:59+0200</time>
      </trkpt>
      <trkpt lat="47.24988" lon="4.94176">
        <ele>476.47076416016</ele>
        <time>2018-06-26T10:52:02+0200</time>
      </trkpt>
      <trkpt lat="47.24987" lon="4.94182">
        <ele>476.19964599609</ele>
        <time>2018-06-26T10:52:05+0200</time>
      </trkpt>
      <trkpt lat="47.24985" lon="4.94184">
        <ele>475.75726318359</ele>
        <time>2018-06-26T10:52:08+0200</time>
      </trkpt>
      <trkpt lat="47.24983" lon="4.94188">
        <ele>475.31774902344</ele>
        <time>2018-06-26T10:52:11+0200</time>
      </trkpt>
      <trkpt lat="47.24982" lon="4.94191">
        <ele>474.888671875</ele>
        <time>2018-06-26T10:52:14+0200</time>
      </trkpt>
      <trkpt lat="47.2498" lon="4.94194">
        <ele>474.58502197266</ele>
        <time>2018-06-26T10:52:17+0200</time>
      </trkpt>
      <trkpt lat="47.2498" lon="4.942">
        <ele>474.31353759766</ele>
        <time>2018-06-26T10:52:20+0200</time>
      </trkpt>
      <trkpt lat="47.2498" lon="4.94202">
        <ele>474.06341552734</ele>
        <time>2018-06-26T10:52:23+0200</time>
      </trkpt>
      <trkpt lat="47.24979" lon="4.94206">
        <ele>473.83953857422</ele>
        <time>2018-06-26T10:52:26+0200</time>
      </trkpt>
      <trkpt lat="47.24978" lon="4.94211">
        <ele>473.6611328125</ele>
        <time>2018-06-26T10:52:29+0200</time>
      </trkpt>
      <trkpt lat="47.2498" lon="4.94217">
        <ele>473.45861816406</ele>
        <time>2018-06-26T10:52:32+0200</time>
      </trkpt>
      <trkpt lat="47.2498" lon="4.94219">
        <ele>473.28283691406</ele>
        <time>2018-06-26T10:52:35+0200</time>
      </trkpt>
      <trkpt lat="47.24979" lon="4.94221">
        <ele>473.20239257812</ele>
        <time>2018-06-26T10:52:38+0200</time>
      </trkpt>
      <trkpt lat="47.24979" lon="4.94225">
        <ele>473.07757568359</ele>
        <time>2018-06-26T10:52:41+0200</time>
      </trkpt>
      <trkpt lat="47.24979" lon="4.94229">
        <ele>472.97064208984</ele>
        <time>2018-06-26T10:52:44+0200</time>
      </trkpt>
      <trkpt lat="47.24979" lon="4.94232">
        <ele>472.9296875</ele>
        <time>2018-06-26T10:52:47+0200</time>
      </trkpt>
      <trkpt lat="47.24978" lon="4.94235">
        <ele>472.88806152344</ele>
        <time>2018-06-26T10:52:50+0200</time>
      </trkpt>
      <trkpt lat="47.24976" lon="4.94237">
        <ele>472.80187988281</ele>
        <time>2018-06-26T10:52:53+0200</time>
      </trkpt>
      <trkpt lat="47.24972" lon="4.94239">
        <ele>472.68817138672</ele>
        <time>2018-06-26T10:52:56+0200</time>
      </trkpt>
      <trkpt lat="47.24968" lon="4.94243">
        <ele>472.47741699219</ele>
        <time>2018-06-26T10:52:59+0200</time>
      </trkpt>
      <trkpt lat="47.24965" lon="4.94245">
        <ele>472.30194091797</ele>
        <time>2018-06-26T10:53:02+0200</time>
      </trkpt>
      <trkpt lat="47.24964" lon="4.94249">
        <ele>472.1669921875</ele>
        <time>2018-06-26T10:53:05+0200</time>
      </trkpt>
      <trkpt lat="47.24963" lon="4.94252">
        <ele>471.97894287109</ele>
        <time>2018-06-26T10:53:08+0200</time>
      </trkpt>
      <trkpt lat="47.24962" lon="4.94255">
        <ele>471.79150390625</ele>
        <time>2018-06-26T10:53:11+0200</time>
      </trkpt>
      <trkpt lat="47.24962" lon="4.94257">
        <ele>471.65509033203</ele>
        <time>2018-06-26T10:53:14+0200</time>
      </trkpt>
      <trkpt lat="47.24962" lon="4.94262">
        <ele>471.52996826172</ele>
        <time>2018-06-26T10:53:17+0200</time>
      </trkpt>
      <trkpt lat="47.24961" lon="4.94268">
        <ele>471.34619140625</ele>
        <time>2018-06-26T10:53:20+0200</time>
      </trkpt>
      <trkpt lat="47.24961" lon="4.9427">
        <ele>471.16760253906</ele>
        <time>2018-06-26T10:53:23+0200</time>
      </trkpt>
      <trkpt lat="47.2496" lon="4.94273">
        <ele>471.10369873047</ele>
        <time>2018-06-26T10:53:26+0200</time>
      </trkpt>
      <trkpt lat="47.24959" lon="4.94276">
        <ele>471.07043457031</ele>
        <time>2018-06-26T10:53:29+0200</time>
      </trkpt>
      <trkpt lat="47.24957" lon="4.9428">
        <ele>471.01708984375</ele>
        <time>2018-06-26T10:53:32+0200</time>
      </trkpt>
      <trkpt lat="47.24956" lon="4.94286">
        <ele>470.9423828125</ele>
        <time>2018-06-26T10:53:35+0200</time>
      </trkpt>
      <trkpt lat="47.24957" lon="4.94291">
        <ele>470.79302978516</ele>
        <time>2018-06-26T10:53:38+0200</time>
      </trkpt>
      <trkpt lat="47.24956" lon="4.94296">
        <ele>470.57659912109</ele>
        <time>2018-06-26T10:53:41+0200</time>
      </trkpt>
      <trkpt lat="47.24955" lon="4.94299">
        <ele>470.27850341797</ele>
        <time>2018-06-26T10:53:44+0200</time>
      </trkpt>
      <trkpt lat="47.24953" lon="4.94304">
        <ele>469.90051269531</ele>
        <time>2018-06-26T10:53:47+0200</time>
      </trkpt>
      <trkpt lat="47.24951" lon="4.94307">
        <ele>469.52697753906</ele>
        <time>2018-06-26T10:53:50+0200</time>
      </trkpt>
      <trkpt lat="47.2495" lon="4.9431">
        <ele>469.17358398438</ele>
        <time>2018-06-26T10:53:53+0200</time>
      </trkpt>
      <trkpt lat="47.24949" lon="4.94312">
        <ele>468.84228515625</ele>
        <time>2018-06-26T10:53:56+0200</time>
      </trkpt>
      <trkpt lat="47.24948" lon="4.94314">
        <ele>468.53686523438</ele>
        <time>2018-06-26T10:53:59+0200</time>
      </trkpt>
      <trkpt lat="47.24948" lon="4.94316">
        <ele>468.271484375</ele>
        <time>2018-06-26T10:54:02+0200</time>
      </trkpt>
      <trkpt lat="47.24948" lon="4.94321">
        <ele>468.05224609375</ele>
        <time>2018-06-26T10:54:05+0200</time>
      </trkpt>
      <trkpt lat="47.24947" lon="4.94325">
        <ele>467.91522216797</ele>
        <time>2018-06-26T10:54:08+0200</time>
      </trkpt>
      <trkpt lat="47.24946" lon="4.94328">
        <ele>467.81005859375</ele>
        <time>2018-06-26T10:54:11+0200</time>
      </trkpt>
      <trkpt lat="47.24946" lon="4.94331">
        <ele>467.72235107422</ele>
        <time>2018-06-26T10:54:14+0200</time>
      </trkpt>
      <trkpt lat="47.24945" lon="4.94334">
        <ele>467.63159179688</ele>
        <time>2018-06-26T10:54:17+0200</time>
      </trkpt>
      <trkpt lat="47.24944" lon="4.94339">
        <ele>467.38775634766</ele>
        <time>2018-06-26T10:54:20+0200</time>
      </trkpt>
      <trkpt lat="47.24943" lon="4.94345">
        <ele>467.06024169922</ele>
        <time>2018-06-26T10:54:23+0200</time>
      </trkpt>
      <trkpt lat="47.24942" lon="4.94351">
        <ele>466.61517333984</ele>
        <time>2018-06-26T10:54:26+0200</time>
      </trkpt>
      <trkpt lat="47.24942" lon="4.94354">
        <ele>466.10961914062</ele>
        <time>2018-06-26T10:54:29+0200</time>
      </trkpt>
      <trkpt lat="47.24943" lon="4.94355">
        <ele>465.70391845703</ele>
        <time>2018-06-26T10:54:32+0200</time>
      </trkpt>
      <trkpt lat="47.24943" lon="4.94358">
        <ele>465.41827392578</ele>
        <time>2018-06-26T10:54:35+0200</time>
      </trkpt>
      <trkpt lat="47.24942" lon="4.94362">
        <ele>465.3017578125</ele>
        <time>2018-06-26T10:54:38+0200</time>
      </trkpt>
      <trkpt lat="47.24941" lon="4.94365">
        <ele>465.16748046875</ele>
        <time>2018-06-26T10:54:41+0200</time>
      </trkpt>
      <trkpt lat="47.2494" lon="4.94365">
        <ele>465.11883544922</ele>
        <time>2018-06-26T10:54:44+0200</time>
      </trkpt>
      <trkpt lat="47.24939" lon="4.94371">
        <ele>465.07537841797</ele>
        <time>2018-06-26T10:54:47+0200</time>
      </trkpt>
      <trkpt lat="47.24938" lon="4.94376">
        <ele>464.92669677734</ele>
        <time>2018-06-26T10:54:50+0200</time>
      </trkpt>
      <trkpt lat="47.24937" lon="4.94377">
        <ele>464.69787597656</ele>
        <time>2018-06-26T10:54:53+0200</time>
      </trkpt>
      <trkpt lat="47.24936" lon="4.94378">
        <ele>464.52502441406</ele>
        <time>2018-06-26T10:54:56+0200</time>
      </trkpt>
      <trkpt lat="47.24935" lon="4.94385">
        <ele>464.23944091797</ele>
        <time>2018-06-26T10:54:59+0200</time>
      </trkpt>
      <trkpt lat="47.24934" lon="4.94387">
        <ele>463.83538818359</ele>
        <time>2018-06-26T10:55:02+0200</time>
      </trkpt>
      <trkpt lat="47.24933" lon="4.94391">
        <ele>463.39538574219</ele>
        <time>2018-06-26T10:55:05+0200</time>
      </trkpt>
      <trkpt lat="47.24933" lon="4.94391">
        <ele>463.23980712891</ele>
        <time>2018-06-26T10:55:08+0200</time>
      </trkpt>
      <trkpt lat="47.2493" lon="4.94394">
        <ele>462.8659362793</ele>
        <time>2018-06-26T10:55:11+0200</time>
      </trkpt>
      <trkpt lat="47.24929" lon="4.94402">
        <ele>462.64596557617</ele>
        <time>2018-06-26T10:55:14+0200</time>
      </trkpt>
      <trkpt lat="47.24928" lon="4.94402">
        <ele>462.51443481445</ele>
        <time>2018-06-26T10:55:17+0200</time>
      </trkpt>
      <trkpt lat="47.24929" lon="4.94403">
        <ele>462.36090087891</ele>
        <time>2018-06-26T10:55:20+0200</time>
      </trkpt>
      <trkpt lat="47.24929" lon="4.94405">
        <ele>462.18032836914</ele>
        <time>2018-06-26T10:55:23+0200</time>
      </trkpt>
      <trkpt lat="47.24929" lon="4.94406">
        <ele>461.91381835938</ele>
        <time>2018-06-26T10:55:26+0200</time>
      </trkpt>
      <trkpt lat="47.24928" lon="4.94411">
        <ele>461.57293701172</ele>
        <time>2018-06-26T10:55:29+0200</time>
      </trkpt>
      <trkpt lat="47.24926" lon="4.94414">
        <ele>461.21002197266</ele>
        <time>2018-06-26T10:55:32+0200</time>
      </trkpt>
      <trkpt lat="47.24924" lon="4.94419">
        <ele>460.76266479492</ele>
        <time>2018-06-26T10:55:35+0200</time>
      </trkpt>
      <trkpt lat="47.24923" lon="4.94423">
        <ele>460.67132568359</ele>
        <time>2018-06-26T10:55:38+0200</time>
      </trkpt>
      <trkpt lat="47.24923" lon="4.94423">
        <ele>460.57843017578</ele>
        <time>2018-06-26T10:55:41+0200</time>
      </trkpt>
      <trkpt lat="47.24923" lon="4.94422">
        <ele>460.49649047852</ele>
        <time>2018-06-26T10:55:44+0200</time>
      </trkpt>
      <trkpt lat="47.24923" lon="4.94422">
        <ele>460.41693115234</ele>
        <time>2018-06-26T10:55:47+0200</time>
      </trkpt>
      <trkpt lat="47.24923" lon="4.94422">
        <ele>460.34875488281</ele>
        <time>2018-06-26T10:55:50+0200</time>
      </trkpt>
      <trkpt lat="47.24923" lon="4.94421">
        <ele>460.29138183594</ele>
        <time>2018-06-26T10:55:53+0200</time>
      </trkpt>
      <trkpt lat="47.24923" lon="4.94421">
        <ele>460.25814819336</ele>
        <time>2018-06-26T10:55:56+0200</time>
      </trkpt>
      <trkpt lat="47.24923" lon="4.94421">
        <ele>460.11599731445</ele>
        <time>2018-06-26T10:55:59+0200</time>
      </trkpt>
      <trkpt lat="47.24924" lon="4.94421">
        <ele>459.78509521484</ele>
        <time>2018-06-26T10:56:02+0200</time>
      </trkpt>
      <trkpt lat="47.24925" lon="4.94422">
        <ele>459.42303466797</ele>
        <time>2018-06-26T10:56:05+0200</time>
      </trkpt>
      <trkpt lat="47.24927" lon="4.94426">
        <ele>459.1721496582</ele>
        <time>2018-06-26T10:56:08+0200</time>
      </trkpt>
      <trkpt lat="47.24928" lon="4.94428">
        <ele>458.93997192383</ele>
        <time>2018-06-26T10:56:11+0200</time>
      </trkpt>
      <trkpt lat="47.24929" lon="4.9443">
        <ele>458.68743896484</ele>
        <time>2018-06-26T10:56:14+0200</time>
      </trkpt>
      <trkpt lat="47.2493" lon="4.94433">
        <ele>458.56646728516</ele>
        <time>2018-06-26T10:56:17+0200</time>
      </trkpt>
      <trkpt lat="47.2493" lon="4.94436">
        <ele>458.54998779297</ele>
        <time>2018-06-26T10:56:20+0200</time>
      </trkpt>
      <trkpt lat="47.24932" lon="4.9444">
        <ele>458.73135375977</ele>
        <time>2018-06-26T10:56:23+0200</time>
      </trkpt>
      <trkpt lat="47.24933" lon="4.94443">
        <ele>459.12002563477</ele>
        <time>2018-06-26T10:56:26+0200</time>
      </trkpt>
      <trkpt lat="47.24932" lon="4.94445">
        <ele>459.58123779297</ele>
        <time>2018-06-26T10:56:29+0200</time>
      </trkpt>
      <trkpt lat="47.24933" lon="4.94448">
        <ele>460.08993530273</ele>
        <time>2018-06-26T10:56:32+0200</time>
      </trkpt>
      <trkpt lat="47.24934" lon="4.94452">
        <ele>460.62356567383</ele>
        <time>2018-06-26T10:56:35+0200</time>
      </trkpt>
      <trkpt lat="47.24935" lon="4.94453">
        <ele>461.19979858398</ele>
        <time>2018-06-26T10:56:38+0200</time>
      </trkpt>
      <trkpt lat="47.24936" lon="4.94455">
        <ele>461.78594970703</ele>
        <time>2018-06-26T10:56:41+0200</time>
      </trkpt>
      <trkpt lat="47.24939" lon="4.94457">
        <ele>462.22512817383</ele>
        <time>2018-06-26T10:56:44+0200</time>
      </trkpt>
      <trkpt lat="47.2494" lon="4.94459">
        <ele>462.42654418945</ele>
        <time>2018-06-26T10:56:47+0200</time>
      </trkpt>
      <trkpt lat="47.24941" lon="4.94463">
        <ele>462.46347045898</ele>
        <time>2018-06-26T10:56:50+0200</time>
      </trkpt>
      <trkpt lat="47.24943" lon="4.94471">
        <ele>462.35293579102</ele>
        <time>2018-06-26T10:56:53+0200</time>
      </trkpt>
      <trkpt lat="47.24944" lon="4.94476">
        <ele>462.14309692383</ele>
        <time>2018-06-26T10:56:56+0200</time>
      </trkpt>
      <trkpt lat="47.24946" lon="4.94481">
        <ele>461.86636352539</ele>
        <time>2018-06-26T10:56:59+0200</time>
      </trkpt>
      <trkpt lat="47.24948" lon="4.94489">
        <ele>461.51599121094</ele>
        <time>2018-06-26T10:57:02+0200</time>
      </trkpt>
      <trkpt lat="47.24949" lon="4.94494">
        <ele>461.09985351562</ele>
        <time>2018-06-26T10:57:05+0200</time>
      </trkpt>
      <trkpt lat="47.24949" lon="4.94497">
        <ele>460.6926574707</ele>
        <time>2018-06-26T10:57:08+0200</time>
      </trkpt>
      <trkpt lat="47.24949" lon="4.94499">
        <ele>460.28338623047</ele>
        <time>2018-06-26T10:57:11+0200</time>
      </trkpt>
      <trkpt lat="47.24949" lon="4.94501">
        <ele>459.93325805664</ele>
        <time>2018-06-26T10:57:14+0200</time>
      </trkpt>
      <trkpt lat="47.2495" lon="4.94504">
        <ele>459.70855712891</ele>
        <time>2018-06-26T10:57:17+0200</time>
      </trkpt>
      <trkpt lat="47.24952" lon="4.94507">
        <ele>459.35720825195</ele>
        <time>2018-06-26T10:57:20+0200</time>
      </trkpt>
      <trkpt lat="47.24954" lon="4.9451">
        <ele>459.09588623047</ele>
        <time>2018-06-26T10:57:23+0200</time>
      </trkpt>
      <trkpt lat="47.24955" lon="4.94511">
        <ele>458.86407470703</ele>
        <time>2018-06-26T10:57:26+0200</time>
      </trkpt>
      <trkpt lat="47.24956" lon="4.94513">
        <ele>458.71597290039</ele>
        <time>2018-06-26T10:57:29+0200</time>
      </trkpt>
      <trkpt lat="47.24958" lon="4.94516">
        <ele>458.50186157227</ele>
        <time>2018-06-26T10:57:32+0200</time>
      </trkpt>
      <trkpt lat="47.24959" lon="4.94518">
        <ele>458.4609375</ele>
        <time>2018-06-26T10:57:35+0200</time>
      </trkpt>
      <trkpt lat="47.24962" lon="4.94521">
        <ele>458.46832275391</ele>
        <time>2018-06-26T10:57:38+0200</time>
      </trkpt>
      <trkpt lat="47.24964" lon="4.94524">
        <ele>458.53860473633</ele>
        <time>2018-06-26T10:57:41+0200</time>
      </trkpt>
      <trkpt lat="47.24966" lon="4.94525">
        <ele>458.64111328125</ele>
        <time>2018-06-26T10:57:44+0200</time>
      </trkpt>
      <trkpt lat="47.24968" lon="4.94525">
        <ele>458.98495483398</ele>
        <time>2018-06-26T10:57:47+0200</time>
      </trkpt>
      <trkpt lat="47.2497" lon="4.94527">
        <ele>459.30169677734</ele>
        <time>2018-06-26T10:57:50+0200</time>
      </trkpt>
      <trkpt lat="47.2497" lon="4.94528">
        <ele>459.34518432617</ele>
        <time>2018-06-26T10:57:53+0200</time>
      </trkpt>
      <trkpt lat="47.24971" lon="4.94531">
        <ele>459.61795043945</ele>
        <time>2018-06-26T10:57:56+0200</time>
      </trkpt>
      <trkpt lat="47.24974" lon="4.94536">
        <ele>459.73355102539</ele>
        <time>2018-06-26T10:57:59+0200</time>
      </trkpt>
      <trkpt lat="47.24976" lon="4.94539">
        <ele>459.66250610352</ele>
        <time>2018-06-26T10:58:02+0200</time>
      </trkpt>
      <trkpt lat="47.2498" lon="4.94542">
        <ele>459.447265625</ele>
        <time>2018-06-26T10:58:05+0200</time>
      </trkpt>
      <trkpt lat="47.24981" lon="4.94546">
        <ele>459.10189819336</ele>
        <time>2018-06-26T10:58:08+0200</time>
      </trkpt>
      <trkpt lat="47.24982" lon="4.94547">
        <ele>458.62619018555</ele>
        <time>2018-06-26T10:58:11+0200</time>
      </trkpt>
      <trkpt lat="47.24984" lon="4.94549">
        <ele>458.10726928711</ele>
        <time>2018-06-26T10:58:14+0200</time>
      </trkpt>
      <trkpt lat="47.24985" lon="4.94551">
        <ele>457.75762939453</ele>
        <time>2018-06-26T10:58:17+0200</time>
      </trkpt>
      <trkpt lat="47.24986" lon="4.94554">
        <ele>457.27264404297</ele>
        <time>2018-06-26T10:58:20+0200</time>
      </trkpt>
      <trkpt lat="47.24988" lon="4.94556">
        <ele>456.87454223633</ele>
        <time>2018-06-26T10:58:23+0200</time>
      </trkpt>
      <trkpt lat="47.2499" lon="4.94559">
        <ele>456.58270263672</ele>
        <time>2018-06-26T10:58:26+0200</time>
      </trkpt>
      <trkpt lat="47.24992" lon="4.94563">
        <ele>456.40588378906</ele>
        <time>2018-06-26T10:58:29+0200</time>
      </trkpt>
      <trkpt lat="47.24992" lon="4.94564">
        <ele>456.19485473633</ele>
        <time>2018-06-26T10:58:32+0200</time>
      </trkpt>
      <trkpt lat="47.24992" lon="4.94566">
        <ele>455.94223022461</ele>
        <time>2018-06-26T10:58:35+0200</time>
      </trkpt>
      <trkpt lat="47.24992" lon="4.94567">
        <ele>455.73284912109</ele>
        <time>2018-06-26T10:58:38+0200</time>
      </trkpt>
      <trkpt lat="47.24993" lon="4.94568">
        <ele>455.57400512695</ele>
        <time>2018-06-26T10:58:41+0200</time>
      </trkpt>
      <trkpt lat="47.24996" lon="4.94573">
        <ele>455.49969482422</ele>
        <time>2018-06-26T10:58:44+0200</time>
      </trkpt>
      <trkpt lat="47.24999" lon="4.94576">
        <ele>455.29602050781</ele>
        <time>2018-06-26T10:58:47+0200</time>
      </trkpt>
      <trkpt lat="47.25" lon="4.94579">
        <ele>454.92950439453</ele>
        <time>2018-06-26T10:58:50+0200</time>
      </trkpt>
      <trkpt lat="47.25001" lon="4.94582">
        <ele>454.83056640625</ele>
        <time>2018-06-26T10:58:53+0200</time>
      </trkpt>
      <trkpt lat="47.25001" lon="4.94583">
        <ele>454.81259155273</ele>
        <time>2018-06-26T10:58:56+0200</time>
      </trkpt>
      <trkpt lat="47.25003" lon="4.94587">
        <ele>454.80703735352</ele>
        <time>2018-06-26T10:58:59+0200</time>
      </trkpt>
      <trkpt lat="47.25005" lon="4.9459">
        <ele>454.78723144531</ele>
        <time>2018-06-26T10:59:02+0200</time>
      </trkpt>
      <trkpt lat="47.25006" lon="4.94592">
        <ele>454.81494140625</ele>
        <time>2018-06-26T10:59:05+0200</time>
      </trkpt>
      <trkpt lat="47.25008" lon="4.94593">
        <ele>454.91464233398</ele>
        <time>2018-06-26T10:59:08+0200</time>
      </trkpt>
      <trkpt lat="47.2501" lon="4.94598">
        <ele>455.04748535156</ele>
        <time>2018-06-26T10:59:11+0200</time>
      </trkpt>
      <trkpt lat="47.25013" lon="4.94603">
        <ele>455.1930847168</ele>
        <time>2018-06-26T10:59:14+0200</time>
      </trkpt>
      <trkpt lat="47.25015" lon="4.94605">
        <ele>455.17611694336</ele>
        <time>2018-06-26T10:59:17+0200</time>
      </trkpt>
      <trkpt lat="47.25016" lon="4.94608">
        <ele>455.09857177734</ele>
        <time>2018-06-26T10:59:20+0200</time>
      </trkpt>
      <trkpt lat="47.25017" lon="4.94612">
        <ele>455.00054931641</ele>
        <time>2018-06-26T10:59:23+0200</time>
      </trkpt>
      <trkpt lat="47.25018" lon="4.94615">
        <ele>454.86199951172</ele>
        <time>2018-06-26T10:59:26+0200</time>
      </trkpt>
      <trkpt lat="47.25018" lon="4.94617">
        <ele>454.75796508789</ele>
        <time>2018-06-26T10:59:29+0200</time>
      </trkpt>
      <trkpt lat="47.25018" lon="4.94619">
        <ele>454.72790527344</ele>
        <time>2018-06-26T10:59:32+0200</time>
      </trkpt>
      <trkpt lat="47.25019" lon="4.94622">
        <ele>454.78579711914</ele>
        <time>2018-06-26T10:59:35+0200</time>
      </trkpt>
      <trkpt lat="47.25019" lon="4.94624">
        <ele>454.95983886719</ele>
        <time>2018-06-26T10:59:38+0200</time>
      </trkpt>
      <trkpt lat="47.25022" lon="4.9463">
        <ele>455.20355224609</ele>
        <time>2018-06-26T10:59:41+0200</time>
      </trkpt>
      <trkpt lat="47.25025" lon="4.94641">
        <ele>455.2048034668</ele>
        <time>2018-06-26T10:59:44+0200</time>
      </trkpt>
      <trkpt lat="47.25026" lon="4.94645">
        <ele>454.93420410156</ele>
        <time>2018-06-26T10:59:47+0200</time>
      </trkpt>
      <trkpt lat="47.25027" lon="4.94645">
        <ele>454.60546875</ele>
        <time>2018-06-26T10:59:50+0200</time>
      </trkpt>
      <trkpt lat="47.25029" lon="4.94647">
        <ele>454.26861572266</ele>
        <time>2018-06-26T10:59:53+0200</time>
      </trkpt>
      <trkpt lat="47.25031" lon="4.94648">
        <ele>454.04382324219</ele>
        <time>2018-06-26T10:59:56+0200</time>
      </trkpt>
      <trkpt lat="47.25031" lon="4.94648">
        <ele>453.98303222656</ele>
        <time>2018-06-26T10:59:59+0200</time>
      </trkpt>
      <trkpt lat="47.25032" lon="4.94648">
        <ele>453.91345214844</ele>
        <time>2018-06-26T11:00:02+0200</time>
      </trkpt>
      <trkpt lat="47.25032" lon="4.94648">
        <ele>453.83599853516</ele>
        <time>2018-06-26T11:00:05+0200</time>
      </trkpt>
      <trkpt lat="47.25033" lon="4.94649">
        <ele>453.76016235352</ele>
        <time>2018-06-26T11:00:08+0200</time>
      </trkpt>
      <trkpt lat="47.25033" lon="4.94649">
        <ele>453.6770324707</ele>
        <time>2018-06-26T11:00:11+0200</time>
      </trkpt>
      <trkpt lat="47.25033" lon="4.9465">
        <ele>453.60736083984</ele>
        <time>2018-06-26T11:00:14+0200</time>
      </trkpt>
      <trkpt lat="47.25033" lon="4.94651">
        <ele>453.55877685547</ele>
        <time>2018-06-26T11:00:17+0200</time>
      </trkpt>
      <trkpt lat="47.25034" lon="4.94652">
        <ele>453.43551635742</ele>
        <time>2018-06-26T11:00:20+0200</time>
      </trkpt>
      <trkpt lat="47.25035" lon="4.94658">
        <ele>453.37152099609</ele>
        <time>2018-06-26T11:00:23+0200</time>
      </trkpt>
      <trkpt lat="47.25037" lon="4.94661">
        <ele>453.33581542969</ele>
        <time>2018-06-26T11:00:26+0200</time>
      </trkpt>
      <trkpt lat="47.25038" lon="4.94663">
        <ele>453.30712890625</ele>
        <time>2018-06-26T11:00:29+0200</time>
      </trkpt>
      <trkpt lat="47.25039" lon="4.94664">
        <ele>453.318359375</ele>
        <time>2018-06-26T11:00:32+0200</time>
      </trkpt>
      <trkpt lat="47.25039" lon="4.94665">
        <ele>453.4870300293</ele>
        <time>2018-06-26T11:00:35+0200</time>
      </trkpt>
      <trkpt lat="47.25042" lon="4.94668">
        <ele>453.67465209961</ele>
        <time>2018-06-26T11:00:38+0200</time>
      </trkpt>
      <trkpt lat="47.25043" lon="4.94669">
        <ele>453.74234008789</ele>
        <time>2018-06-26T11:00:41+0200</time>
      </trkpt>
      <trkpt lat="47.25044" lon="4.94671">
        <ele>453.92404174805</ele>
        <time>2018-06-26T11:00:44+0200</time>
      </trkpt>
      <trkpt lat="47.25045" lon="4.94674">
        <ele>454.08123779297</ele>
        <time>2018-06-26T11:00:47+0200</time>
      </trkpt>
      <trkpt lat="47.25046" lon="4.94675">
        <ele>454.29940795898</ele>
        <time>2018-06-26T11:00:50+0200</time>
      </trkpt>
      <trkpt lat="47.25047" lon="4.9468">
        <ele>454.71685791016</ele>
        <time>2018-06-26T11:00:53+0200</time>
      </trkpt>
      <trkpt lat="47.25049" lon="4.94681">
        <ele>455.17962646484</ele>
        <time>2018-06-26T11:00:56+0200</time>
      </trkpt>
      <trkpt lat="47.25049" lon="4.94682">
        <ele>455.38906860352</ele>
        <time>2018-06-26T11:00:59+0200</time>
      </trkpt>
      <trkpt lat="47.25049" lon="4.94682">
        <ele>455.92706298828</ele>
        <time>2018-06-26T11:01:02+0200</time>
      </trkpt>
      <trkpt lat="47.25052" lon="4.94686">
        <ele>456.34976196289</ele>
        <time>2018-06-26T11:01:05+0200</time>
      </trkpt>
      <trkpt lat="47.25054" lon="4.9469">
        <ele>456.81661987305</ele>
        <time>2018-06-26T11:01:08+0200</time>
      </trkpt>
      <trkpt lat="47.25057" lon="4.94695">
        <ele>457.07757568359</ele>
        <time>2018-06-26T11:01:11+0200</time>
      </trkpt>
      <trkpt lat="47.25059" lon="4.94699">
        <ele>457.14291381836</ele>
        <time>2018-06-26T11:01:14+0200</time>
      </trkpt>
      <trkpt lat="47.2506" lon="4.94701">
        <ele>457.13104248047</ele>
        <time>2018-06-26T11:01:17+0200</time>
      </trkpt>
      <trkpt lat="47.2506" lon="4.94701">
        <ele>457.16375732422</ele>
        <time>2018-06-26T11:01:20+0200</time>
      </trkpt>
      <trkpt lat="47.2506" lon="4.94703">
        <ele>457.33587646484</ele>
        <time>2018-06-26T11:01:23+0200</time>
      </trkpt>
      <trkpt lat="47.25061" lon="4.94707">
        <ele>457.66522216797</ele>
        <time>2018-06-26T11:01:26+0200</time>
      </trkpt>
      <trkpt lat="47.25062" lon="4.94709">
        <ele>457.89883422852</ele>
        <time>2018-06-26T11:01:29+0200</time>
      </trkpt>
      <trkpt lat="47.25064" lon="4.94712">
        <ele>458.26058959961</ele>
        <time>2018-06-26T11:01:32+0200</time>
      </trkpt>
      <trkpt lat="47.25066" lon="4.94715">
        <ele>458.61590576172</ele>
        <time>2018-06-26T11:01:35+0200</time>
      </trkpt>
      <trkpt lat="47.25067" lon="4.94719">
        <ele>458.94229125977</ele>
        <time>2018-06-26T11:01:38+0200</time>
      </trkpt>
      <trkpt lat="47.2507" lon="4.94719">
        <ele>459.14184570312</ele>
        <time>2018-06-26T11:01:41+0200</time>
      </trkpt>
      <trkpt lat="47.25071" lon="4.94721">
        <ele>459.24798583984</ele>
        <time>2018-06-26T11:01:44+0200</time>
      </trkpt>
      <trkpt lat="47.25071" lon="4.94726">
        <ele>459.4049987793</ele>
        <time>2018-06-26T11:01:47+0200</time>
      </trkpt>
      <trkpt lat="47.25072" lon="4.94731">
        <ele>459.64154052734</ele>
        <time>2018-06-26T11:01:50+0200</time>
      </trkpt>
      <trkpt lat="47.25075" lon="4.9474">
        <ele>459.9035949707</ele>
        <time>2018-06-26T11:01:53+0200</time>
      </trkpt>
      <trkpt lat="47.2508" lon="4.94749">
        <ele>459.90103149414</ele>
        <time>2018-06-26T11:01:56+0200</time>
      </trkpt>
      <trkpt lat="47.25082" lon="4.94753">
        <ele>459.68936157227</ele>
        <time>2018-06-26T11:01:59+0200</time>
      </trkpt>
      <trkpt lat="47.25084" lon="4.94758">
        <ele>459.16421508789</ele>
        <time>2018-06-26T11:02:02+0200</time>
      </trkpt>
      <trkpt lat="47.25087" lon="4.94763">
        <ele>458.56552124023</ele>
        <time>2018-06-26T11:02:05+0200</time>
      </trkpt>
      <trkpt lat="47.25088" lon="4.94765">
        <ele>457.87115478516</ele>
        <time>2018-06-26T11:02:08+0200</time>
      </trkpt>
      <trkpt lat="47.25088" lon="4.94766">
        <ele>457.19204711914</ele>
        <time>2018-06-26T11:02:11+0200</time>
      </trkpt>
      <trkpt lat="47.25088" lon="4.94766">
        <ele>456.55401611328</ele>
        <time>2018-06-26T11:02:14+0200</time>
      </trkpt>
      <trkpt lat="47.25088" lon="4.94766">
        <ele>456.02554321289</ele>
        <time>2018-06-26T11:02:17+0200</time>
      </trkpt>
      <trkpt lat="47.25089" lon="4.94766">
        <ele>455.57913208008</ele>
        <time>2018-06-26T11:02:20+0200</time>
      </trkpt>
      <trkpt lat="47.25089" lon="4.94766">
        <ele>455.4382019043</ele>
        <time>2018-06-26T11:02:23+0200</time>
      </trkpt>
      <trkpt lat="47.25092" lon="4.94772">
        <ele>455.16299438477</ele>
        <time>2018-06-26T11:02:26+0200</time>
      </trkpt>
      <trkpt lat="47.25094" lon="4.94778">
        <ele>454.71124267578</ele>
        <time>2018-06-26T11:02:29+0200</time>
      </trkpt>
      <trkpt lat="47.25095" lon="4.94783">
        <ele>454.15469360352</ele>
        <time>2018-06-26T11:02:32+0200</time>
      </trkpt>
      <trkpt lat="47.25095" lon="4.94784">
        <ele>453.75778198242</ele>
        <time>2018-06-26T11:02:35+0200</time>
      </trkpt>
      <trkpt lat="47.25097" lon="4.94789">
        <ele>453.16732788086</ele>
        <time>2018-06-26T11:02:38+0200</time>
      </trkpt>
      <trkpt lat="47.25099" lon="4.94796">
        <ele>452.47659301758</ele>
        <time>2018-06-26T11:02:41+0200</time>
      </trkpt>
      <trkpt lat="47.25098" lon="4.948">
        <ele>452.10076904297</ele>
        <time>2018-06-26T11:02:44+0200</time>
      </trkpt>
      <trkpt lat="47.25098" lon="4.94802">
        <ele>451.23864746094</ele>
        <time>2018-06-26T11:02:47+0200</time>
      </trkpt>
      <trkpt lat="47.25098" lon="4.94805">
        <ele>450.57958984375</ele>
        <time>2018-06-26T11:02:50+0200</time>
      </trkpt>
      <trkpt lat="47.25098" lon="4.94807">
        <ele>450.12817382812</ele>
        <time>2018-06-26T11:02:53+0200</time>
      </trkpt>
      <trkpt lat="47.25098" lon="4.94808">
        <ele>449.89865112305</ele>
        <time>2018-06-26T11:02:56+0200</time>
      </trkpt>
      <trkpt lat="47.25099" lon="4.94808">
        <ele>449.77474975586</ele>
        <time>2018-06-26T11:02:59+0200</time>
      </trkpt>
      <trkpt lat="47.25101" lon="4.94811">
        <ele>449.6220703125</ele>
        <time>2018-06-26T11:03:02+0200</time>
      </trkpt>
      <trkpt lat="47.25103" lon="4.94814">
        <ele>449.48092651367</ele>
        <time>2018-06-26T11:03:05+0200</time>
      </trkpt>
      <trkpt lat="47.25103" lon="4.94817">
        <ele>449.21084594727</ele>
        <time>2018-06-26T11:03:08+0200</time>
      </trkpt>
      <trkpt lat="47.25104" lon="4.94819">
        <ele>448.98226928711</ele>
        <time>2018-06-26T11:03:11+0200</time>
      </trkpt>
      <trkpt lat="47.25104" lon="4.94821">
        <ele>448.88232421875</ele>
        <time>2018-06-26T11:03:14+0200</time>
      </trkpt>
      <trkpt lat="47.25103" lon="4.94824">
        <ele>448.85470581055</ele>
        <time>2018-06-26T11:03:17+0200</time>
      </trkpt>
      <trkpt lat="47.25102" lon="4.94828">
        <ele>448.98654174805</ele>
        <time>2018-06-26T11:03:20+0200</time>
      </trkpt>
      <trkpt lat="47.25102" lon="4.94831">
        <ele>449.24472045898</ele>
        <time>2018-06-26T11:03:23+0200</time>
      </trkpt>
      <trkpt lat="47.25102" lon="4.94833">
        <ele>449.50402832031</ele>
        <time>2018-06-26T11:03:26+0200</time>
      </trkpt>
      <trkpt lat="47.25102" lon="4.94839">
        <ele>449.74624633789</ele>
        <time>2018-06-26T11:03:29+0200</time>
      </trkpt>
      <trkpt lat="47.25104" lon="4.94839">
        <ele>450.03427124023</ele>
        <time>2018-06-26T11:03:32+0200</time>
      </trkpt>
      <trkpt lat="47.25105" lon="4.94844">
        <ele>450.25344848633</ele>
        <time>2018-06-26T11:03:35+0200</time>
      </trkpt>
      <trkpt lat="47.25108" lon="4.94854">
        <ele>450.43148803711</ele>
        <time>2018-06-26T11:03:38+0200</time>
      </trkpt>
      <trkpt lat="47.2511" lon="4.94859">
        <ele>450.48959350586</ele>
        <time>2018-06-26T11:03:41+0200</time>
      </trkpt>
      <trkpt lat="47.25111" lon="4.94867">
        <ele>450.47381591797</ele>
        <time>2018-06-26T11:03:44+0200</time>
      </trkpt>
      <trkpt lat="47.25112" lon="4.94873">
        <ele>450.33694458008</ele>
        <time>2018-06-26T11:03:47+0200</time>
      </trkpt>
      <trkpt lat="47.25113" lon="4.94876">
        <ele>450.0234375</ele>
        <time>2018-06-26T11:03:51+0200</time>
      </trkpt>
      <trkpt lat="47.25114" lon="4.9488">
        <ele>449.93817138672</ele>
        <time>2018-06-26T11:03:54+0200</time>
      </trkpt>
      <trkpt lat="47.25116" lon="4.94887">
        <ele>449.74453735352</ele>
        <time>2018-06-26T11:03:57+0200</time>
      </trkpt>
      <trkpt lat="47.25119" lon="4.94887">
        <ele>449.22998046875</ele>
        <time>2018-06-26T11:04:00+0200</time>
      </trkpt>
      <trkpt lat="47.25121" lon="4.94895">
        <ele>449.15383911133</ele>
        <time>2018-06-26T11:04:03+0200</time>
      </trkpt>
      <trkpt lat="47.25121" lon="4.94896">
        <ele>448.74716186523</ele>
        <time>2018-06-26T11:04:06+0200</time>
      </trkpt>
      <trkpt lat="47.25121" lon="4.949">
        <ele>448.08798217773</ele>
        <time>2018-06-26T11:04:09+0200</time>
      </trkpt>
      <trkpt lat="47.25122" lon="4.94904">
        <ele>447.72491455078</ele>
        <time>2018-06-26T11:04:12+0200</time>
      </trkpt>
      <trkpt lat="47.25123" lon="4.94904">
        <ele>447.63793945312</ele>
        <time>2018-06-26T11:04:15+0200</time>
      </trkpt>
      <trkpt lat="47.25124" lon="4.94905">
        <ele>447.09375</ele>
        <time>2018-06-26T11:04:18+0200</time>
      </trkpt>
      <trkpt lat="47.25124" lon="4.94901">
        <ele>446.60491943359</ele>
        <time>2018-06-26T11:04:21+0200</time>
      </trkpt>
      <trkpt lat="47.25124" lon="4.949">
        <ele>445.87545776367</ele>
        <time>2018-06-26T11:04:24+0200</time>
      </trkpt>
      <trkpt lat="47.25126" lon="4.94905">
        <ele>445.53399658203</ele>
        <time>2018-06-26T11:04:27+0200</time>
      </trkpt>
      <trkpt lat="47.25127" lon="4.94906">
        <ele>445.46368408203</ele>
        <time>2018-06-26T11:04:30+0200</time>
      </trkpt>
      <trkpt lat="47.25126" lon="4.94905">
        <ele>445.06219482422</ele>
        <time>2018-06-26T11:04:33+0200</time>
      </trkpt>
      <trkpt lat="47.25126" lon="4.94904">
        <ele>444.96667480469</ele>
        <time>2018-06-26T11:04:36+0200</time>
      </trkpt>
      <trkpt lat="47.25127" lon="4.94903">
        <ele>444.830078125</ele>
        <time>2018-06-26T11:04:39+0200</time>
      </trkpt>
      <trkpt lat="47.25126" lon="4.94903">
        <ele>444.79550170898</ele>
        <time>2018-06-26T11:04:42+0200</time>
      </trkpt>
      <trkpt lat="47.25126" lon="4.94903">
        <ele>444.76193237305</ele>
        <time>2018-06-26T11:04:45+0200</time>
      </trkpt>
      <trkpt lat="47.25126" lon="4.94903">
        <ele>444.73162841797</ele>
        <time>2018-06-26T11:04:48+0200</time>
      </trkpt>
      <trkpt lat="47.25126" lon="4.94903">
        <ele>444.70205688477</ele>
        <time>2018-06-26T11:04:51+0200</time>
      </trkpt>
      <trkpt lat="47.25127" lon="4.94903">
        <ele>444.49401855469</ele>
        <time>2018-06-26T11:04:54+0200</time>
      </trkpt>
      <trkpt lat="47.25128" lon="4.94902">
        <ele>444.3196105957</ele>
        <time>2018-06-26T11:04:57+0200</time>
      </trkpt>
      <trkpt lat="47.2513" lon="4.94902">
        <ele>444.28765869141</ele>
        <time>2018-06-26T11:05:00+0200</time>
      </trkpt>
      <trkpt lat="47.2513" lon="4.94902">
        <ele>444.25531005859</ele>
        <time>2018-06-26T11:05:03+0200</time>
      </trkpt>
      <trkpt lat="47.25129" lon="4.94902">
        <ele>444.22109985352</ele>
        <time>2018-06-26T11:05:06+0200</time>
      </trkpt>
      <trkpt lat="47.25129" lon="4.94903">
        <ele>444.1887512207</ele>
        <time>2018-06-26T11:05:09+0200</time>
      </trkpt>
      <trkpt lat="47.25129" lon="4.94903">
        <ele>444.15783691406</ele>
        <time>2018-06-26T11:05:12+0200</time>
      </trkpt>
      <trkpt lat="47.2513" lon="4.94904">
        <ele>443.82269287109</ele>
        <time>2018-06-26T11:05:15+0200</time>
      </trkpt>
      <trkpt lat="47.25132" lon="4.94906">
        <ele>443.68957519531</ele>
        <time>2018-06-26T11:05:18+0200</time>
      </trkpt>
      <trkpt lat="47.25134" lon="4.94907">
        <ele>443.37283325195</ele>
        <time>2018-06-26T11:05:21+0200</time>
      </trkpt>
      <trkpt lat="47.25135" lon="4.94909">
        <ele>443.07916259766</ele>
        <time>2018-06-26T11:05:24+0200</time>
      </trkpt>
      <trkpt lat="47.25136" lon="4.9491">
        <ele>442.97564697266</ele>
        <time>2018-06-26T11:05:27+0200</time>
      </trkpt>
      <trkpt lat="47.25137" lon="4.94912">
        <ele>442.79901123047</ele>
        <time>2018-06-26T11:05:30+0200</time>
      </trkpt>
      <trkpt lat="47.25138" lon="4.94914">
        <ele>442.57562255859</ele>
        <time>2018-06-26T11:05:33+0200</time>
      </trkpt>
      <trkpt lat="47.25139" lon="4.94917">
        <ele>442.36657714844</ele>
        <time>2018-06-26T11:05:36+0200</time>
      </trkpt>
      <trkpt lat="47.25141" lon="4.94922">
        <ele>442.21038818359</ele>
        <time>2018-06-26T11:05:39+0200</time>
      </trkpt>
      <trkpt lat="47.25141" lon="4.94925">
        <ele>441.93643188477</ele>
        <time>2018-06-26T11:05:42+0200</time>
      </trkpt>
      <trkpt lat="47.25142" lon="4.94928">
        <ele>441.61437988281</ele>
        <time>2018-06-26T11:05:45+0200</time>
      </trkpt>
      <trkpt lat="47.25142" lon="4.9493">
        <ele>441.36633300781</ele>
        <time>2018-06-26T11:05:48+0200</time>
      </trkpt>
      <trkpt lat="47.25143" lon="4.94935">
        <ele>440.98693847656</ele>
        <time>2018-06-26T11:05:51+0200</time>
      </trkpt>
      <trkpt lat="47.25143" lon="4.94937">
        <ele>440.60531616211</ele>
        <time>2018-06-26T11:05:54+0200</time>
      </trkpt>
      <trkpt lat="47.25144" lon="4.94941">
        <ele>440.21688842773</ele>
        <time>2018-06-26T11:05:57+0200</time>
      </trkpt>
      <trkpt lat="47.25144" lon="4.94943">
        <ele>439.79458618164</ele>
        <time>2018-06-26T11:06:00+0200</time>
      </trkpt>
      <trkpt lat="47.25144" lon="4.94944">
        <ele>439.37884521484</ele>
        <time>2018-06-26T11:06:03+0200</time>
      </trkpt>
      <trkpt lat="47.25144" lon="4.94945">
        <ele>439.34161376953</ele>
        <time>2018-06-26T11:06:06+0200</time>
      </trkpt>
      <trkpt lat="47.25145" lon="4.94946">
        <ele>439.09225463867</ele>
        <time>2018-06-26T11:06:09+0200</time>
      </trkpt>
      <trkpt lat="47.25145" lon="4.94952">
        <ele>438.73715209961</ele>
        <time>2018-06-26T11:06:12+0200</time>
      </trkpt>
      <trkpt lat="47.25147" lon="4.94955">
        <ele>438.4807434082</ele>
        <time>2018-06-26T11:06:15+0200</time>
      </trkpt>
      <trkpt lat="47.25147" lon="4.94956">
        <ele>438.32727050781</ele>
        <time>2018-06-26T11:06:18+0200</time>
      </trkpt>
      <trkpt lat="47.25148" lon="4.94957">
        <ele>438.28662109375</ele>
        <time>2018-06-26T11:06:21+0200</time>
      </trkpt>
      <trkpt lat="47.25148" lon="4.94958">
        <ele>437.97528076172</ele>
        <time>2018-06-26T11:06:24+0200</time>
      </trkpt>
      <trkpt lat="47.25149" lon="4.9496">
        <ele>437.64199829102</ele>
        <time>2018-06-26T11:06:27+0200</time>
      </trkpt>
      <trkpt lat="47.25149" lon="4.94961">
        <ele>437.17178344727</ele>
        <time>2018-06-26T11:06:30+0200</time>
      </trkpt>
      <trkpt lat="47.2515" lon="4.94962">
        <ele>437.00256347656</ele>
        <time>2018-06-26T11:06:33+0200</time>
      </trkpt>
      <trkpt lat="47.2515" lon="4.94963">
        <ele>436.71096801758</ele>
        <time>2018-06-26T11:06:36+0200</time>
      </trkpt>
      <trkpt lat="47.2515" lon="4.94964">
        <ele>436.66751098633</ele>
        <time>2018-06-26T11:06:39+0200</time>
      </trkpt>
      <trkpt lat="47.25151" lon="4.94965">
        <ele>436.15509033203</ele>
        <time>2018-06-26T11:06:42+0200</time>
      </trkpt>
      <trkpt lat="47.25151" lon="4.94967">
        <ele>435.55249023438</ele>
        <time>2018-06-26T11:06:45+0200</time>
      </trkpt>
      <trkpt lat="47.25153" lon="4.94967">
        <ele>434.96417236328</ele>
        <time>2018-06-26T11:06:48+0200</time>
      </trkpt>
      <trkpt lat="47.25154" lon="4.94968">
        <ele>434.58380126953</ele>
        <time>2018-06-26T11:06:51+0200</time>
      </trkpt>
      <trkpt lat="47.25155" lon="4.94968">
        <ele>434.53826904297</ele>
        <time>2018-06-26T11:06:54+0200</time>
      </trkpt>
      <trkpt lat="47.25155" lon="4.94968">
        <ele>434.49438476562</ele>
        <time>2018-06-26T11:06:57+0200</time>
      </trkpt>
      <trkpt lat="47.25155" lon="4.94968">
        <ele>434.45065307617</ele>
        <time>2018-06-26T11:07:00+0200</time>
      </trkpt>
      <trkpt lat="47.25155" lon="4.94968">
        <ele>434.25637817383</ele>
        <time>2018-06-26T11:07:03+0200</time>
      </trkpt>
      <trkpt lat="47.25155" lon="4.94968">
        <ele>433.78408813477</ele>
        <time>2018-06-26T11:07:06+0200</time>
      </trkpt>
      <trkpt lat="47.25156" lon="4.94968">
        <ele>433.73629760742</ele>
        <time>2018-06-26T11:07:09+0200</time>
      </trkpt>
      <trkpt lat="47.25156" lon="4.94968">
        <ele>433.53652954102</ele>
        <time>2018-06-26T11:07:12+0200</time>
      </trkpt>
      <trkpt lat="47.25156" lon="4.94969">
        <ele>433.48785400391</ele>
        <time>2018-06-26T11:07:15+0200</time>
      </trkpt>
      <trkpt lat="47.25156" lon="4.94969">
        <ele>433.30889892578</ele>
        <time>2018-06-26T11:07:18+0200</time>
      </trkpt>
      <trkpt lat="47.25157" lon="4.94972">
        <ele>432.89215087891</ele>
        <time>2018-06-26T11:07:21+0200</time>
      </trkpt>
      <trkpt lat="47.25158" lon="4.94975">
        <ele>432.51516723633</ele>
        <time>2018-06-26T11:07:24+0200</time>
      </trkpt>
      <trkpt lat="47.25157" lon="4.94978">
        <ele>432.17724609375</ele>
        <time>2018-06-26T11:07:27+0200</time>
      </trkpt>
      <trkpt lat="47.25157" lon="4.94981">
        <ele>431.88720703125</ele>
        <time>2018-06-26T11:07:30+0200</time>
      </trkpt>
      <trkpt lat="47.25156" lon="4.94984">
        <ele>431.63272094727</ele>
        <time>2018-06-26T11:07:33+0200</time>
      </trkpt>
      <trkpt lat="47.25156" lon="4.94987">
        <ele>431.3923034668</ele>
        <time>2018-06-26T11:07:36+0200</time>
      </trkpt>
      <trkpt lat="47.25156" lon="4.9499">
        <ele>431.15661621094</ele>
        <time>2018-06-26T11:07:39+0200</time>
      </trkpt>
      <trkpt lat="47.25155" lon="4.94992">
        <ele>430.93835449219</ele>
        <time>2018-06-26T11:07:42+0200</time>
      </trkpt>
      <trkpt lat="47.25155" lon="4.94994">
        <ele>430.74835205078</ele>
        <time>2018-06-26T11:07:45+0200</time>
      </trkpt>
      <trkpt lat="47.25156" lon="4.94997">
        <ele>430.58142089844</ele>
        <time>2018-06-26T11:07:48+0200</time>
      </trkpt>
      <trkpt lat="47.25156" lon="4.94999">
        <ele>430.43276977539</ele>
        <time>2018-06-26T11:07:51+0200</time>
      </trkpt>
      <trkpt lat="47.25156" lon="4.95001">
        <ele>430.30419921875</ele>
        <time>2018-06-26T11:07:54+0200</time>
      </trkpt>
      <trkpt lat="47.25156" lon="4.95002">
        <ele>430.2021484375</ele>
        <time>2018-06-26T11:07:57+0200</time>
      </trkpt>
      <trkpt lat="47.25156" lon="4.95005">
        <ele>430.11322021484</ele>
        <time>2018-06-26T11:08:00+0200</time>
      </trkpt>
      <trkpt lat="47.25157" lon="4.95007">
        <ele>430.04495239258</ele>
        <time>2018-06-26T11:08:03+0200</time>
      </trkpt>
      <trkpt lat="47.25157" lon="4.9501">
        <ele>430.00219726562</ele>
        <time>2018-06-26T11:08:06+0200</time>
      </trkpt>
      <trkpt lat="47.25157" lon="4.95014">
        <ele>429.96594238281</ele>
        <time>2018-06-26T11:08:09+0200</time>
      </trkpt>
      <trkpt lat="47.25157" lon="4.95016">
        <ele>429.94271850586</ele>
        <time>2018-06-26T11:08:12+0200</time>
      </trkpt>
      <trkpt lat="47.25156" lon="4.95019">
        <ele>429.9430847168</ele>
        <time>2018-06-26T11:08:15+0200</time>
      </trkpt>
      <trkpt lat="47.25157" lon="4.95021">
        <ele>429.97747802734</ele>
        <time>2018-06-26T11:08:18+0200</time>
      </trkpt>
      <trkpt lat="47.25157" lon="4.95024">
        <ele>430.03216552734</ele>
        <time>2018-06-26T11:08:21+0200</time>
      </trkpt>
      <trkpt lat="47.25157" lon="4.95026">
        <ele>430.10992431641</ele>
        <time>2018-06-26T11:08:24+0200</time>
      </trkpt>
      <trkpt lat="47.25155" lon="4.95029">
        <ele>430.24078369141</ele>
        <time>2018-06-26T11:08:27+0200</time>
      </trkpt>
      <trkpt lat="47.25154" lon="4.95033">
        <ele>430.39916992188</ele>
        <time>2018-06-26T11:08:30+0200</time>
      </trkpt>
      <trkpt lat="47.25153" lon="4.95035">
        <ele>430.54696655273</ele>
        <time>2018-06-26T11:08:33+0200</time>
      </trkpt>
      <trkpt lat="47.25152" lon="4.95038">
        <ele>430.70727539062</ele>
        <time>2018-06-26T11:08:36+0200</time>
      </trkpt>
      <trkpt lat="47.25152" lon="4.9504">
        <ele>430.8830871582</ele>
        <time>2018-06-26T11:08:39+0200</time>
      </trkpt>
      <trkpt lat="47.25151" lon="4.95043">
        <ele>431.04849243164</ele>
        <time>2018-06-26T11:08:42+0200</time>
      </trkpt>
      <trkpt lat="47.25151" lon="4.95046">
        <ele>431.22311401367</ele>
        <time>2018-06-26T11:08:45+0200</time>
      </trkpt>
      <trkpt lat="47.25151" lon="4.95049">
        <ele>431.36087036133</ele>
        <time>2018-06-26T11:08:48+0200</time>
      </trkpt>
      <trkpt lat="47.25151" lon="4.9505">
        <ele>431.48834228516</ele>
        <time>2018-06-26T11:08:51+0200</time>
      </trkpt>
      <trkpt lat="47.25151" lon="4.95051">
        <ele>431.65386962891</ele>
        <time>2018-06-26T11:08:54+0200</time>
      </trkpt>
      <trkpt lat="47.25151" lon="4.95053">
        <ele>431.85992431641</ele>
        <time>2018-06-26T11:08:57+0200</time>
      </trkpt>
      <trkpt lat="47.25151" lon="4.95056">
        <ele>432.08392333984</ele>
        <time>2018-06-26T11:09:00+0200</time>
      </trkpt>
      <trkpt lat="47.25151" lon="4.95059">
        <ele>432.31497192383</ele>
        <time>2018-06-26T11:09:03+0200</time>
      </trkpt>
      <trkpt lat="47.25151" lon="4.95062">
        <ele>432.55993652344</ele>
        <time>2018-06-26T11:09:06+0200</time>
      </trkpt>
      <trkpt lat="47.25151" lon="4.95067">
        <ele>432.82995605469</ele>
        <time>2018-06-26T11:09:09+0200</time>
      </trkpt>
      <trkpt lat="47.25152" lon="4.95071">
        <ele>433.14276123047</ele>
        <time>2018-06-26T11:09:12+0200</time>
      </trkpt>
      <trkpt lat="47.25151" lon="4.95076">
        <ele>433.48181152344</ele>
        <time>2018-06-26T11:09:15+0200</time>
      </trkpt>
      <trkpt lat="47.2515" lon="4.95082">
        <ele>433.78631591797</ele>
        <time>2018-06-26T11:09:18+0200</time>
      </trkpt>
      <trkpt lat="47.2515" lon="4.95084">
        <ele>434.07550048828</ele>
        <time>2018-06-26T11:09:21+0200</time>
      </trkpt>
      <trkpt lat="47.2515" lon="4.95086">
        <ele>434.39666748047</ele>
        <time>2018-06-26T11:09:24+0200</time>
      </trkpt>
      <trkpt lat="47.2515" lon="4.9509">
        <ele>434.75601196289</ele>
        <time>2018-06-26T11:09:27+0200</time>
      </trkpt>
      <trkpt lat="47.25151" lon="4.95094">
        <ele>435.15368652344</ele>
        <time>2018-06-26T11:09:30+0200</time>
      </trkpt>
      <trkpt lat="47.2515" lon="4.95098">
        <ele>435.57223510742</ele>
        <time>2018-06-26T11:09:33+0200</time>
      </trkpt>
      <trkpt lat="47.2515" lon="4.95102">
        <ele>436.00802612305</ele>
        <time>2018-06-26T11:09:36+0200</time>
      </trkpt>
      <trkpt lat="47.25149" lon="4.95106">
        <ele>436.44747924805</ele>
        <time>2018-06-26T11:09:39+0200</time>
      </trkpt>
      <trkpt lat="47.25149" lon="4.95108">
        <ele>436.86560058594</ele>
        <time>2018-06-26T11:09:42+0200</time>
      </trkpt>
      <trkpt lat="47.25149" lon="4.95108">
        <ele>437.26116943359</ele>
        <time>2018-06-26T11:09:45+0200</time>
      </trkpt>
      <trkpt lat="47.25148" lon="4.95111">
        <ele>437.52865600586</ele>
        <time>2018-06-26T11:09:48+0200</time>
      </trkpt>
      <trkpt lat="47.25148" lon="4.95113">
        <ele>437.89352416992</ele>
        <time>2018-06-26T11:09:51+0200</time>
      </trkpt>
      <trkpt lat="47.25148" lon="4.95116">
        <ele>438.22848510742</ele>
        <time>2018-06-26T11:09:54+0200</time>
      </trkpt>
      <trkpt lat="47.25147" lon="4.9512">
        <ele>438.52322387695</ele>
        <time>2018-06-26T11:09:57+0200</time>
      </trkpt>
      <trkpt lat="47.25148" lon="4.95123">
        <ele>438.79205322266</ele>
        <time>2018-06-26T11:10:00+0200</time>
      </trkpt>
      <trkpt lat="47.25148" lon="4.95127">
        <ele>439.00039672852</ele>
        <time>2018-06-26T11:10:03+0200</time>
      </trkpt>
      <trkpt lat="47.25148" lon="4.95129">
        <ele>439.20565795898</ele>
        <time>2018-06-26T11:10:06+0200</time>
      </trkpt>
      <trkpt lat="47.25147" lon="4.9513">
        <ele>439.38885498047</ele>
        <time>2018-06-26T11:10:09+0200</time>
      </trkpt>
      <trkpt lat="47.25146" lon="4.95133">
        <ele>439.56576538086</ele>
        <time>2018-06-26T11:10:12+0200</time>
      </trkpt>
      <trkpt lat="47.25144" lon="4.95135">
        <ele>439.73281860352</ele>
        <time>2018-06-26T11:10:15+0200</time>
      </trkpt>
      <trkpt lat="47.25143" lon="4.95136">
        <ele>439.89950561523</ele>
        <time>2018-06-26T11:10:18+0200</time>
      </trkpt>
      <trkpt lat="47.25143" lon="4.95138">
        <ele>440.05914306641</ele>
        <time>2018-06-26T11:10:21+0200</time>
      </trkpt>
      <trkpt lat="47.25142" lon="4.95143">
        <ele>440.19677734375</ele>
        <time>2018-06-26T11:10:24+0200</time>
      </trkpt>
      <trkpt lat="47.25141" lon="4.95147">
        <ele>440.29693603516</ele>
        <time>2018-06-26T11:10:27+0200</time>
      </trkpt>
      <trkpt lat="47.2514" lon="4.95152">
        <ele>440.36654663086</ele>
        <time>2018-06-26T11:10:30+0200</time>
      </trkpt>
      <trkpt lat="47.25139" lon="4.95156">
        <ele>440.39962768555</ele>
        <time>2018-06-26T11:10:33+0200</time>
      </trkpt>
      <trkpt lat="47.25138" lon="4.95159">
        <ele>440.4026184082</ele>
        <time>2018-06-26T11:10:36+0200</time>
      </trkpt>
      <trkpt lat="47.25137" lon="4.95162">
        <ele>440.38812255859</ele>
        <time>2018-06-26T11:10:39+0200</time>
      </trkpt>
      <trkpt lat="47.25136" lon="4.95166">
        <ele>440.35879516602</ele>
        <time>2018-06-26T11:10:42+0200</time>
      </trkpt>
      <trkpt lat="47.25135" lon="4.95167">
        <ele>440.31411743164</ele>
        <time>2018-06-26T11:10:45+0200</time>
      </trkpt>
      <trkpt lat="47.25133" lon="4.9517">
        <ele>440.28002929688</ele>
        <time>2018-06-26T11:10:48+0200</time>
      </trkpt>
      <trkpt lat="47.25131" lon="4.95174">
        <ele>440.24374389648</ele>
        <time>2018-06-26T11:10:51+0200</time>
      </trkpt>
      <trkpt lat="47.25129" lon="4.95176">
        <ele>440.19326782227</ele>
        <time>2018-06-26T11:10:54+0200</time>
      </trkpt>
      <trkpt lat="47.25128" lon="4.95179">
        <ele>440.15133666992</ele>
        <time>2018-06-26T11:10:57+0200</time>
      </trkpt>
      <trkpt lat="47.25126" lon="4.95182">
        <ele>440.12243652344</ele>
        <time>2018-06-26T11:11:00+0200</time>
      </trkpt>
      <trkpt lat="47.25126" lon="4.95185">
        <ele>440.07821655273</ele>
        <time>2018-06-26T11:11:03+0200</time>
      </trkpt>
      <trkpt lat="47.25124" lon="4.95188">
        <ele>440.0419921875</ele>
        <time>2018-06-26T11:11:06+0200</time>
      </trkpt>
      <trkpt lat="47.25123" lon="4.9519">
        <ele>440.02224731445</ele>
        <time>2018-06-26T11:11:09+0200</time>
      </trkpt>
      <trkpt lat="47.25122" lon="4.95193">
        <ele>440.0071105957</ele>
        <time>2018-06-26T11:11:12+0200</time>
      </trkpt>
      <trkpt lat="47.25121" lon="4.95195">
        <ele>439.98544311523</ele>
        <time>2018-06-26T11:11:15+0200</time>
      </trkpt>
      <trkpt lat="47.25121" lon="4.95199">
        <ele>439.97241210938</ele>
        <time>2018-06-26T11:11:18+0200</time>
      </trkpt>
      <trkpt lat="47.25121" lon="4.95201">
        <ele>439.96301269531</ele>
        <time>2018-06-26T11:11:21+0200</time>
      </trkpt>
      <trkpt lat="47.25121" lon="4.95203">
        <ele>439.94485473633</ele>
        <time>2018-06-26T11:11:24+0200</time>
      </trkpt>
      <trkpt lat="47.25121" lon="4.95204">
        <ele>439.94180297852</ele>
        <time>2018-06-26T11:11:27+0200</time>
      </trkpt>
      <trkpt lat="47.25121" lon="4.95207">
        <ele>439.90350341797</ele>
        <time>2018-06-26T11:11:30+0200</time>
      </trkpt>
      <trkpt lat="47.25121" lon="4.9521">
        <ele>439.75970458984</ele>
        <time>2018-06-26T11:11:33+0200</time>
      </trkpt>
      <trkpt lat="47.2512" lon="4.95212">
        <ele>439.59533691406</ele>
        <time>2018-06-26T11:11:36+0200</time>
      </trkpt>
      <trkpt lat="47.2512" lon="4.95216">
        <ele>439.47576904297</ele>
        <time>2018-06-26T11:11:39+0200</time>
      </trkpt>
      <trkpt lat="47.2512" lon="4.95221">
        <ele>439.45407104492</ele>
        <time>2018-06-26T11:11:42+0200</time>
      </trkpt>
      <trkpt lat="47.25119" lon="4.95223">
        <ele>439.40594482422</ele>
        <time>2018-06-26T11:11:45+0200</time>
      </trkpt>
      <trkpt lat="47.2512" lon="4.95224">
        <ele>439.47262573242</ele>
        <time>2018-06-26T11:11:48+0200</time>
      </trkpt>
      <trkpt lat="47.25121" lon="4.95227">
        <ele>439.61199951172</ele>
        <time>2018-06-26T11:11:51+0200</time>
      </trkpt>
      <trkpt lat="47.25122" lon="4.95233">
        <ele>439.67938232422</ele>
        <time>2018-06-26T11:11:54+0200</time>
      </trkpt>
      <trkpt lat="47.25122" lon="4.95236">
        <ele>439.70465087891</ele>
        <time>2018-06-26T11:11:57+0200</time>
      </trkpt>
      <trkpt lat="47.25121" lon="4.95237">
        <ele>439.80685424805</ele>
        <time>2018-06-26T11:12:00+0200</time>
      </trkpt>
      <trkpt lat="47.25121" lon="4.95236">
        <ele>440.00521850586</ele>
        <time>2018-06-26T11:12:03+0200</time>
      </trkpt>
      <trkpt lat="47.25121" lon="4.95238">
        <ele>440.2600402832</ele>
        <time>2018-06-26T11:12:06+0200</time>
      </trkpt>
      <trkpt lat="47.25121" lon="4.95241">
        <ele>440.74166870117</ele>
        <time>2018-06-26T11:12:09+0200</time>
      </trkpt>
      <trkpt lat="47.25121" lon="4.95242">
        <ele>441.06661987305</ele>
        <time>2018-06-26T11:12:12+0200</time>
      </trkpt>
      <trkpt lat="47.25123" lon="4.95243">
        <ele>441.42245483398</ele>
        <time>2018-06-26T11:12:15+0200</time>
      </trkpt>
      <trkpt lat="47.25125" lon="4.95248">
        <ele>441.68405151367</ele>
        <time>2018-06-26T11:12:18+0200</time>
      </trkpt>
      <trkpt lat="47.25127" lon="4.95253">
        <ele>441.76763916016</ele>
        <time>2018-06-26T11:12:21+0200</time>
      </trkpt>
      <trkpt lat="47.25127" lon="4.95256">
        <ele>441.77899169922</ele>
        <time>2018-06-26T11:12:24+0200</time>
      </trkpt>
      <trkpt lat="47.25127" lon="4.95258">
        <ele>441.82458496094</ele>
        <time>2018-06-26T11:12:27+0200</time>
      </trkpt>
      <trkpt lat="47.25125" lon="4.95262">
        <ele>441.92349243164</ele>
        <time>2018-06-26T11:12:30+0200</time>
      </trkpt>
      <trkpt lat="47.25124" lon="4.95265">
        <ele>441.99905395508</ele>
        <time>2018-06-26T11:12:33+0200</time>
      </trkpt>
      <trkpt lat="47.25124" lon="4.95267">
        <ele>442.16064453125</ele>
        <time>2018-06-26T11:12:36+0200</time>
      </trkpt>
      <trkpt lat="47.25124" lon="4.95269">
        <ele>442.40209960938</ele>
        <time>2018-06-26T11:12:39+0200</time>
      </trkpt>
      <trkpt lat="47.25123" lon="4.95273">
        <ele>442.64013671875</ele>
        <time>2018-06-26T11:12:42+0200</time>
      </trkpt>
      <trkpt lat="47.25122" lon="4.95274">
        <ele>442.83999633789</ele>
        <time>2018-06-26T11:12:45+0200</time>
      </trkpt>
      <trkpt lat="47.25122" lon="4.95277">
        <ele>443.02322387695</ele>
        <time>2018-06-26T11:12:48+0200</time>
      </trkpt>
      <trkpt lat="47.25122" lon="4.95279">
        <ele>443.14727783203</ele>
        <time>2018-06-26T11:12:51+0200</time>
      </trkpt>
      <trkpt lat="47.2512" lon="4.95282">
        <ele>443.24588012695</ele>
        <time>2018-06-26T11:12:54+0200</time>
      </trkpt>
      <trkpt lat="47.25118" lon="4.95285">
        <ele>443.32034301758</ele>
        <time>2018-06-26T11:12:57+0200</time>
      </trkpt>
      <trkpt lat="47.25117" lon="4.95287">
        <ele>443.34576416016</ele>
        <time>2018-06-26T11:13:00+0200</time>
      </trkpt>
      <trkpt lat="47.25116" lon="4.9529">
        <ele>443.33108520508</ele>
        <time>2018-06-26T11:13:03+0200</time>
      </trkpt>
      <trkpt lat="47.25116" lon="4.95294">
        <ele>443.25723266602</ele>
        <time>2018-06-26T11:13:06+0200</time>
      </trkpt>
      <trkpt lat="47.25114" lon="4.95297">
        <ele>443.11428833008</ele>
        <time>2018-06-26T11:13:09+0200</time>
      </trkpt>
      <trkpt lat="47.25113" lon="4.953">
        <ele>442.94256591797</ele>
        <time>2018-06-26T11:13:12+0200</time>
      </trkpt>
      <trkpt lat="47.25112" lon="4.95305">
        <ele>442.7946472168</ele>
        <time>2018-06-26T11:13:15+0200</time>
      </trkpt>
      <trkpt lat="47.25112" lon="4.95308">
        <ele>442.6330871582</ele>
        <time>2018-06-26T11:13:18+0200</time>
      </trkpt>
      <trkpt lat="47.25111" lon="4.95311">
        <ele>442.44982910156</ele>
        <time>2018-06-26T11:13:21+0200</time>
      </trkpt>
      <trkpt lat="47.25111" lon="4.95313">
        <ele>442.30349731445</ele>
        <time>2018-06-26T11:13:24+0200</time>
      </trkpt>
      <trkpt lat="47.25111" lon="4.95317">
        <ele>442.21765136719</ele>
        <time>2018-06-26T11:13:27+0200</time>
      </trkpt>
      <trkpt lat="47.25111" lon="4.95321">
        <ele>442.21328735352</ele>
        <time>2018-06-26T11:13:30+0200</time>
      </trkpt>
      <trkpt lat="47.25109" lon="4.95323">
        <ele>442.31072998047</ele>
        <time>2018-06-26T11:13:33+0200</time>
      </trkpt>
      <trkpt lat="47.25107" lon="4.95327">
        <ele>442.41253662109</ele>
        <time>2018-06-26T11:13:36+0200</time>
      </trkpt>
      <trkpt lat="47.25106" lon="4.9533">
        <ele>442.50723266602</ele>
        <time>2018-06-26T11:13:39+0200</time>
      </trkpt>
      <trkpt lat="47.25106" lon="4.95334">
        <ele>442.64422607422</ele>
        <time>2018-06-26T11:13:42+0200</time>
      </trkpt>
      <trkpt lat="47.25105" lon="4.95336">
        <ele>442.79379272461</ele>
        <time>2018-06-26T11:13:45+0200</time>
      </trkpt>
      <trkpt lat="47.25104" lon="4.95339">
        <ele>442.91488647461</ele>
        <time>2018-06-26T11:13:48+0200</time>
      </trkpt>
      <trkpt lat="47.25104" lon="4.95343">
        <ele>443.0309753418</ele>
        <time>2018-06-26T11:13:51+0200</time>
      </trkpt>
      <trkpt lat="47.25103" lon="4.95346">
        <ele>443.09616088867</ele>
        <time>2018-06-26T11:13:54+0200</time>
      </trkpt>
      <trkpt lat="47.25103" lon="4.95349">
        <ele>443.14395141602</ele>
        <time>2018-06-26T11:13:57+0200</time>
      </trkpt>
      <trkpt lat="47.25103" lon="4.95351">
        <ele>443.19692993164</ele>
        <time>2018-06-26T11:14:00+0200</time>
      </trkpt>
      <trkpt lat="47.25103" lon="4.95354">
        <ele>443.31146240234</ele>
        <time>2018-06-26T11:14:03+0200</time>
      </trkpt>
      <trkpt lat="47.25102" lon="4.95357">
        <ele>443.41830444336</ele>
        <time>2018-06-26T11:14:06+0200</time>
      </trkpt>
      <trkpt lat="47.25101" lon="4.9536">
        <ele>443.50595092773</ele>
        <time>2018-06-26T11:14:09+0200</time>
      </trkpt>
      <trkpt lat="47.25099" lon="4.95363">
        <ele>443.55902099609</ele>
        <time>2018-06-26T11:14:12+0200</time>
      </trkpt>
      <trkpt lat="47.25098" lon="4.95365">
        <ele>443.56176757812</ele>
        <time>2018-06-26T11:14:15+0200</time>
      </trkpt>
      <trkpt lat="47.25097" lon="4.95367">
        <ele>443.52563476562</ele>
        <time>2018-06-26T11:14:18+0200</time>
      </trkpt>
      <trkpt lat="47.25097" lon="4.9537">
        <ele>443.46984863281</ele>
        <time>2018-06-26T11:14:21+0200</time>
      </trkpt>
      <trkpt lat="47.25096" lon="4.95373">
        <ele>443.37661743164</ele>
        <time>2018-06-26T11:14:24+0200</time>
      </trkpt>
      <trkpt lat="47.25096" lon="4.95374">
        <ele>443.29016113281</ele>
        <time>2018-06-26T11:14:27+0200</time>
      </trkpt>
      <trkpt lat="47.25096" lon="4.95376">
        <ele>443.17010498047</ele>
        <time>2018-06-26T11:14:30+0200</time>
      </trkpt>
      <trkpt lat="47.25096" lon="4.95377">
        <ele>443.1272277832</ele>
        <time>2018-06-26T11:14:33+0200</time>
      </trkpt>
      <trkpt lat="47.25096" lon="4.95377">
        <ele>443.12322998047</ele>
        <time>2018-06-26T11:14:36+0200</time>
      </trkpt>
      <trkpt lat="47.25096" lon="4.95377">
        <ele>443.13165283203</ele>
        <time>2018-06-26T11:14:39+0200</time>
      </trkpt>
      <trkpt lat="47.25096" lon="4.95376">
        <ele>443.14419555664</ele>
        <time>2018-06-26T11:14:42+0200</time>
      </trkpt>
      <trkpt lat="47.25095" lon="4.95376">
        <ele>443.16003417969</ele>
        <time>2018-06-26T11:14:45+0200</time>
      </trkpt>
      <trkpt lat="47.25095" lon="4.95375">
        <ele>443.17315673828</ele>
        <time>2018-06-26T11:14:48+0200</time>
      </trkpt>
      <trkpt lat="47.25095" lon="4.95375">
        <ele>443.18240356445</ele>
        <time>2018-06-26T11:14:51+0200</time>
      </trkpt>
      <trkpt lat="47.25095" lon="4.95376">
        <ele>443.18731689453</ele>
        <time>2018-06-26T11:14:54+0200</time>
      </trkpt>
      <trkpt lat="47.25095" lon="4.95376">
        <ele>443.21139526367</ele>
        <time>2018-06-26T11:14:57+0200</time>
      </trkpt>
      <trkpt lat="47.25095" lon="4.95377">
        <ele>443.27740478516</ele>
        <time>2018-06-26T11:15:00+0200</time>
      </trkpt>
      <trkpt lat="47.25095" lon="4.95379">
        <ele>443.37646484375</ele>
        <time>2018-06-26T11:15:03+0200</time>
      </trkpt>
      <trkpt lat="47.25095" lon="4.95382">
        <ele>443.42852783203</ele>
        <time>2018-06-26T11:15:06+0200</time>
      </trkpt>
      <trkpt lat="47.25095" lon="4.95385">
        <ele>443.45693969727</ele>
        <time>2018-06-26T11:15:09+0200</time>
      </trkpt>
      <trkpt lat="47.25095" lon="4.95387">
        <ele>443.48651123047</ele>
        <time>2018-06-26T11:15:12+0200</time>
      </trkpt>
      <trkpt lat="47.25095" lon="4.95389">
        <ele>443.43157958984</ele>
        <time>2018-06-26T11:15:15+0200</time>
      </trkpt>
      <trkpt lat="47.25096" lon="4.95391">
        <ele>443.2815246582</ele>
        <time>2018-06-26T11:15:18+0200</time>
      </trkpt>
      <trkpt lat="47.25096" lon="4.95394">
        <ele>443.16149902344</ele>
        <time>2018-06-26T11:15:21+0200</time>
      </trkpt>
      <trkpt lat="47.25095" lon="4.95395">
        <ele>443.15396118164</ele>
        <time>2018-06-26T11:15:24+0200</time>
      </trkpt>
      <trkpt lat="47.25094" lon="4.95399">
        <ele>443.23260498047</ele>
        <time>2018-06-26T11:15:27+0200</time>
      </trkpt>
      <trkpt lat="47.25093" lon="4.95401">
        <ele>443.35821533203</ele>
        <time>2018-06-26T11:15:30+0200</time>
      </trkpt>
      <trkpt lat="47.25092" lon="4.95406">
        <ele>443.45223999023</ele>
        <time>2018-06-26T11:15:33+0200</time>
      </trkpt>
      <trkpt lat="47.25091" lon="4.95409">
        <ele>443.49475097656</ele>
        <time>2018-06-26T11:15:36+0200</time>
      </trkpt>
      <trkpt lat="47.25091" lon="4.95414">
        <ele>443.55932617188</ele>
        <time>2018-06-26T11:15:39+0200</time>
      </trkpt>
      <trkpt lat="47.25091" lon="4.95418">
        <ele>443.61117553711</ele>
        <time>2018-06-26T11:15:42+0200</time>
      </trkpt>
      <trkpt lat="47.2509" lon="4.95422">
        <ele>443.56558227539</ele>
        <time>2018-06-26T11:15:45+0200</time>
      </trkpt>
      <trkpt lat="47.2509" lon="4.95427">
        <ele>443.39324951172</ele>
        <time>2018-06-26T11:15:48+0200</time>
      </trkpt>
      <trkpt lat="47.2509" lon="4.95428">
        <ele>443.2473449707</ele>
        <time>2018-06-26T11:15:51+0200</time>
      </trkpt>
      <trkpt lat="47.25091" lon="4.9543">
        <ele>443.33331298828</ele>
        <time>2018-06-26T11:15:54+0200</time>
      </trkpt>
      <trkpt lat="47.25091" lon="4.95434">
        <ele>443.51629638672</ele>
        <time>2018-06-26T11:15:57+0200</time>
      </trkpt>
      <trkpt lat="47.25089" lon="4.95437">
        <ele>443.66311645508</ele>
        <time>2018-06-26T11:16:00+0200</time>
      </trkpt>
      <trkpt lat="47.25088" lon="4.95441">
        <ele>443.7141418457</ele>
        <time>2018-06-26T11:16:03+0200</time>
      </trkpt>
      <trkpt lat="47.25086" lon="4.95444">
        <ele>443.68148803711</ele>
        <time>2018-06-26T11:16:06+0200</time>
      </trkpt>
      <trkpt lat="47.25084" lon="4.95447">
        <ele>443.59393310547</ele>
        <time>2018-06-26T11:16:09+0200</time>
      </trkpt>
      <trkpt lat="47.25083" lon="4.95451">
        <ele>443.54461669922</ele>
        <time>2018-06-26T11:16:12+0200</time>
      </trkpt>
      <trkpt lat="47.25082" lon="4.95453">
        <ele>443.52944946289</ele>
        <time>2018-06-26T11:16:15+0200</time>
      </trkpt>
      <trkpt lat="47.25082" lon="4.95459">
        <ele>443.53494262695</ele>
        <time>2018-06-26T11:16:17+0200</time>
      </trkpt>
      <trkpt lat="47.25082" lon="4.95464">
        <ele>443.45739746094</ele>
        <time>2018-06-26T11:16:20+0200</time>
      </trkpt>
      <trkpt lat="47.25082" lon="4.95468">
        <ele>443.34896850586</ele>
        <time>2018-06-26T11:16:23+0200</time>
      </trkpt>
      <trkpt lat="47.25083" lon="4.95471">
        <ele>443.30627441406</ele>
        <time>2018-06-26T11:16:26+0200</time>
      </trkpt>
      <trkpt lat="47.25083" lon="4.95473">
        <ele>443.29818725586</ele>
        <time>2018-06-26T11:16:29+0200</time>
      </trkpt>
      <trkpt lat="47.25083" lon="4.95477">
        <ele>443.32992553711</ele>
        <time>2018-06-26T11:16:32+0200</time>
      </trkpt>
      <trkpt lat="47.25084" lon="4.95478">
        <ele>443.4528503418</ele>
        <time>2018-06-26T11:16:35+0200</time>
      </trkpt>
      <trkpt lat="47.25084" lon="4.95481">
        <ele>443.64834594727</ele>
        <time>2018-06-26T11:16:38+0200</time>
      </trkpt>
      <trkpt lat="47.25085" lon="4.95487">
        <ele>443.71081542969</ele>
        <time>2018-06-26T11:16:41+0200</time>
      </trkpt>
      <trkpt lat="47.25085" lon="4.95491">
        <ele>443.6867980957</ele>
        <time>2018-06-26T11:16:44+0200</time>
      </trkpt>
      <trkpt lat="47.25084" lon="4.95493">
        <ele>443.62548828125</ele>
        <time>2018-06-26T11:16:47+0200</time>
      </trkpt>
      <trkpt lat="47.25083" lon="4.95496">
        <ele>443.53280639648</ele>
        <time>2018-06-26T11:16:50+0200</time>
      </trkpt>
      <trkpt lat="47.25083" lon="4.95499">
        <ele>443.48034667969</ele>
        <time>2018-06-26T11:16:53+0200</time>
      </trkpt>
      <trkpt lat="47.25083" lon="4.95503">
        <ele>443.4850769043</ele>
        <time>2018-06-26T11:16:56+0200</time>
      </trkpt>
      <trkpt lat="47.25084" lon="4.95508">
        <ele>443.53201293945</ele>
        <time>2018-06-26T11:16:59+0200</time>
      </trkpt>
      <trkpt lat="47.25084" lon="4.95511">
        <ele>443.52322387695</ele>
        <time>2018-06-26T11:17:02+0200</time>
      </trkpt>
      <trkpt lat="47.25085" lon="4.95517">
        <ele>443.35870361328</ele>
        <time>2018-06-26T11:17:05+0200</time>
      </trkpt>
      <trkpt lat="47.25086" lon="4.9552">
        <ele>443.1594543457</ele>
        <time>2018-06-26T11:17:08+0200</time>
      </trkpt>
      <trkpt lat="47.25086" lon="4.95522">
        <ele>443.00894165039</ele>
        <time>2018-06-26T11:17:11+0200</time>
      </trkpt>
      <trkpt lat="47.25086" lon="4.95526">
        <ele>442.93148803711</ele>
        <time>2018-06-26T11:17:14+0200</time>
      </trkpt>
      <trkpt lat="47.25086" lon="4.9553">
        <ele>442.79064941406</ele>
        <time>2018-06-26T11:17:17+0200</time>
      </trkpt>
      <trkpt lat="47.25086" lon="4.95534">
        <ele>442.55731201172</ele>
        <time>2018-06-26T11:17:20+0200</time>
      </trkpt>
      <trkpt lat="47.25087" lon="4.95538">
        <ele>442.2663269043</ele>
        <time>2018-06-26T11:17:23+0200</time>
      </trkpt>
      <trkpt lat="47.25087" lon="4.95542">
        <ele>441.98495483398</ele>
        <time>2018-06-26T11:17:26+0200</time>
      </trkpt>
      <trkpt lat="47.25088" lon="4.95545">
        <ele>441.74462890625</ele>
        <time>2018-06-26T11:17:29+0200</time>
      </trkpt>
      <trkpt lat="47.25089" lon="4.95548">
        <ele>441.52407836914</ele>
        <time>2018-06-26T11:17:32+0200</time>
      </trkpt>
      <trkpt lat="47.25091" lon="4.95553">
        <ele>441.35299682617</ele>
        <time>2018-06-26T11:17:35+0200</time>
      </trkpt>
      <trkpt lat="47.25092" lon="4.95556">
        <ele>441.20196533203</ele>
        <time>2018-06-26T11:17:38+0200</time>
      </trkpt>
      <trkpt lat="47.25092" lon="4.95561">
        <ele>441.05004882812</ele>
        <time>2018-06-26T11:17:41+0200</time>
      </trkpt>
      <trkpt lat="47.25093" lon="4.95565">
        <ele>440.89340209961</ele>
        <time>2018-06-26T11:17:44+0200</time>
      </trkpt>
      <trkpt lat="47.25094" lon="4.95568">
        <ele>440.75891113281</ele>
        <time>2018-06-26T11:17:47+0200</time>
      </trkpt>
      <trkpt lat="47.25094" lon="4.9557">
        <ele>440.65966796875</ele>
        <time>2018-06-26T11:17:50+0200</time>
      </trkpt>
      <trkpt lat="47.25094" lon="4.95575">
        <ele>440.65118408203</ele>
        <time>2018-06-26T11:17:53+0200</time>
      </trkpt>
      <trkpt lat="47.25094" lon="4.95579">
        <ele>440.62594604492</ele>
        <time>2018-06-26T11:17:56+0200</time>
      </trkpt>
      <trkpt lat="47.25093" lon="4.95584">
        <ele>440.5712890625</ele>
        <time>2018-06-26T11:17:59+0200</time>
      </trkpt>
      <trkpt lat="47.25093" lon="4.95588">
        <ele>440.4255065918</ele>
        <time>2018-06-26T11:18:02+0200</time>
      </trkpt>
      <trkpt lat="47.25092" lon="4.95591">
        <ele>440.19854736328</ele>
        <time>2018-06-26T11:18:05+0200</time>
      </trkpt>
      <trkpt lat="47.25092" lon="4.95594">
        <ele>439.94052124023</ele>
        <time>2018-06-26T11:18:08+0200</time>
      </trkpt>
      <trkpt lat="47.25092" lon="4.95596">
        <ele>439.66934204102</ele>
        <time>2018-06-26T11:18:11+0200</time>
      </trkpt>
      <trkpt lat="47.25093" lon="4.95597">
        <ele>439.44122314453</ele>
        <time>2018-06-26T11:18:14+0200</time>
      </trkpt>
      <trkpt lat="47.25094" lon="4.956">
        <ele>439.29864501953</ele>
        <time>2018-06-26T11:18:17+0200</time>
      </trkpt>
      <trkpt lat="47.25094" lon="4.95604">
        <ele>439.22735595703</ele>
        <time>2018-06-26T11:18:20+0200</time>
      </trkpt>
      <trkpt lat="47.25095" lon="4.95607">
        <ele>439.16915893555</ele>
        <time>2018-06-26T11:18:23+0200</time>
      </trkpt>
      <trkpt lat="47.25094" lon="4.95611">
        <ele>439.10763549805</ele>
        <time>2018-06-26T11:18:26+0200</time>
      </trkpt>
      <trkpt lat="47.25094" lon="4.95615">
        <ele>438.99899291992</ele>
        <time>2018-06-26T11:18:29+0200</time>
      </trkpt>
      <trkpt lat="47.25094" lon="4.9562">
        <ele>438.90563964844</ele>
        <time>2018-06-26T11:18:32+0200</time>
      </trkpt>
      <trkpt lat="47.25093" lon="4.95623">
        <ele>438.84295654297</ele>
        <time>2018-06-26T11:18:35+0200</time>
      </trkpt>
      <trkpt lat="47.25092" lon="4.95627">
        <ele>438.78961181641</ele>
        <time>2018-06-26T11:18:38+0200</time>
      </trkpt>
      <trkpt lat="47.2509" lon="4.9563">
        <ele>438.68505859375</ele>
        <time>2018-06-26T11:18:41+0200</time>
      </trkpt>
      <trkpt lat="47.25088" lon="4.95632">
        <ele>438.54287719727</ele>
        <time>2018-06-26T11:18:44+0200</time>
      </trkpt>
      <trkpt lat="47.25087" lon="4.95635">
        <ele>438.41705322266</ele>
        <time>2018-06-26T11:18:47+0200</time>
      </trkpt>
      <trkpt lat="47.25086" lon="4.95638">
        <ele>438.31802368164</ele>
        <time>2018-06-26T11:18:50+0200</time>
      </trkpt>
      <trkpt lat="47.25085" lon="4.95642">
        <ele>438.29357910156</ele>
        <time>2018-06-26T11:18:53+0200</time>
      </trkpt>
      <trkpt lat="47.25085" lon="4.95646">
        <ele>438.21752929688</ele>
        <time>2018-06-26T11:18:56+0200</time>
      </trkpt>
      <trkpt lat="47.25084" lon="4.9565">
        <ele>438.0837097168</ele>
        <time>2018-06-26T11:18:59+0200</time>
      </trkpt>
      <trkpt lat="47.25083" lon="4.95653">
        <ele>437.94854736328</ele>
        <time>2018-06-26T11:19:02+0200</time>
      </trkpt>
      <trkpt lat="47.25082" lon="4.95656">
        <ele>437.77435302734</ele>
        <time>2018-06-26T11:19:05+0200</time>
      </trkpt>
      <trkpt lat="47.2508" lon="4.9566">
        <ele>437.62365722656</ele>
        <time>2018-06-26T11:19:08+0200</time>
      </trkpt>
      <trkpt lat="47.25079" lon="4.95663">
        <ele>437.49133300781</ele>
        <time>2018-06-26T11:19:11+0200</time>
      </trkpt>
      <trkpt lat="47.25078" lon="4.95667">
        <ele>437.40231323242</ele>
        <time>2018-06-26T11:19:14+0200</time>
      </trkpt>
      <trkpt lat="47.25077" lon="4.95671">
        <ele>437.34841918945</ele>
        <time>2018-06-26T11:19:17+0200</time>
      </trkpt>
      <trkpt lat="47.25076" lon="4.95674">
        <ele>437.35247802734</ele>
        <time>2018-06-26T11:19:20+0200</time>
      </trkpt>
      <trkpt lat="47.25075" lon="4.95677">
        <ele>437.38140869141</ele>
        <time>2018-06-26T11:19:23+0200</time>
      </trkpt>
      <trkpt lat="47.25075" lon="4.95681">
        <ele>437.4192199707</ele>
        <time>2018-06-26T11:19:26+0200</time>
      </trkpt>
      <trkpt lat="47.25074" lon="4.95683">
        <ele>437.46405029297</ele>
        <time>2018-06-26T11:19:29+0200</time>
      </trkpt>
      <trkpt lat="47.25073" lon="4.95686">
        <ele>437.52166748047</ele>
        <time>2018-06-26T11:19:32+0200</time>
      </trkpt>
      <trkpt lat="47.25072" lon="4.95688">
        <ele>437.56448364258</ele>
        <time>2018-06-26T11:19:35+0200</time>
      </trkpt>
      <trkpt lat="47.25071" lon="4.95691">
        <ele>437.64199829102</ele>
        <time>2018-06-26T11:19:38+0200</time>
      </trkpt>
      <trkpt lat="47.2507" lon="4.95693">
        <ele>437.75564575195</ele>
        <time>2018-06-26T11:19:41+0200</time>
      </trkpt>
      <trkpt lat="47.2507" lon="4.95696">
        <ele>437.83728027344</ele>
        <time>2018-06-26T11:19:44+0200</time>
      </trkpt>
      <trkpt lat="47.25068" lon="4.95698">
        <ele>437.78472900391</ele>
        <time>2018-06-26T11:19:47+0200</time>
      </trkpt>
      <trkpt lat="47.25068" lon="4.95701">
        <ele>437.63845825195</ele>
        <time>2018-06-26T11:19:50+0200</time>
      </trkpt>
      <trkpt lat="47.25066" lon="4.95705">
        <ele>437.47012329102</ele>
        <time>2018-06-26T11:19:53+0200</time>
      </trkpt>
      <trkpt lat="47.25064" lon="4.95708">
        <ele>437.31253051758</ele>
        <time>2018-06-26T11:19:56+0200</time>
      </trkpt>
      <trkpt lat="47.25064" lon="4.95712">
        <ele>437.17462158203</ele>
        <time>2018-06-26T11:19:59+0200</time>
      </trkpt>
      <trkpt lat="47.25063" lon="4.95715">
        <ele>437.025390625</ele>
        <time>2018-06-26T11:20:02+0200</time>
      </trkpt>
      <trkpt lat="47.25063" lon="4.95719">
        <ele>436.88192749023</ele>
        <time>2018-06-26T11:20:05+0200</time>
      </trkpt>
      <trkpt lat="47.25062" lon="4.95722">
        <ele>436.75</ele>
        <time>2018-06-26T11:20:08+0200</time>
      </trkpt>
      <trkpt lat="47.25062" lon="4.95724">
        <ele>436.63043212891</ele>
        <time>2018-06-26T11:20:11+0200</time>
      </trkpt>
      <trkpt lat="47.25062" lon="4.95727">
        <ele>436.55624389648</ele>
        <time>2018-06-26T11:20:14+0200</time>
      </trkpt>
      <trkpt lat="47.25061" lon="4.9573">
        <ele>436.41757202148</ele>
        <time>2018-06-26T11:20:17+0200</time>
      </trkpt>
      <trkpt lat="47.2506" lon="4.95732">
        <ele>436.23864746094</ele>
        <time>2018-06-26T11:20:20+0200</time>
      </trkpt>
      <trkpt lat="47.25058" lon="4.95735">
        <ele>436.06246948242</ele>
        <time>2018-06-26T11:20:23+0200</time>
      </trkpt>
      <trkpt lat="47.25057" lon="4.95738">
        <ele>435.88696289062</ele>
        <time>2018-06-26T11:20:26+0200</time>
      </trkpt>
      <trkpt lat="47.25056" lon="4.95741">
        <ele>435.75091552734</ele>
        <time>2018-06-26T11:20:29+0200</time>
      </trkpt>
      <trkpt lat="47.25054" lon="4.95744">
        <ele>435.67681884766</ele>
        <time>2018-06-26T11:20:32+0200</time>
      </trkpt>
      <trkpt lat="47.25052" lon="4.95748">
        <ele>435.69189453125</ele>
        <time>2018-06-26T11:20:35+0200</time>
      </trkpt>
      <trkpt lat="47.25051" lon="4.95751">
        <ele>435.732421875</ele>
        <time>2018-06-26T11:20:38+0200</time>
      </trkpt>
      <trkpt lat="47.2505" lon="4.95754">
        <ele>435.81463623047</ele>
        <time>2018-06-26T11:20:41+0200</time>
      </trkpt>
      <trkpt lat="47.2505" lon="4.95758">
        <ele>435.86819458008</ele>
        <time>2018-06-26T11:20:44+0200</time>
      </trkpt>
      <trkpt lat="47.2505" lon="4.95761">
        <ele>435.85214233398</ele>
        <time>2018-06-26T11:20:47+0200</time>
      </trkpt>
      <trkpt lat="47.2505" lon="4.95764">
        <ele>435.76910400391</ele>
        <time>2018-06-26T11:20:50+0200</time>
      </trkpt>
      <trkpt lat="47.25048" lon="4.95768">
        <ele>435.66952514648</ele>
        <time>2018-06-26T11:20:53+0200</time>
      </trkpt>
      <trkpt lat="47.25048" lon="4.9577">
        <ele>435.47964477539</ele>
        <time>2018-06-26T11:20:56+0200</time>
      </trkpt>
      <trkpt lat="47.25046" lon="4.95773">
        <ele>435.2194519043</ele>
        <time>2018-06-26T11:20:59+0200</time>
      </trkpt>
      <trkpt lat="47.25045" lon="4.95776">
        <ele>434.93014526367</ele>
        <time>2018-06-26T11:21:02+0200</time>
      </trkpt>
      <trkpt lat="47.25044" lon="4.95779">
        <ele>434.64068603516</ele>
        <time>2018-06-26T11:21:05+0200</time>
      </trkpt>
      <trkpt lat="47.25043" lon="4.95782">
        <ele>434.43539428711</ele>
        <time>2018-06-26T11:21:08+0200</time>
      </trkpt>
      <trkpt lat="47.25042" lon="4.95784">
        <ele>434.29061889648</ele>
        <time>2018-06-26T11:21:11+0200</time>
      </trkpt>
      <trkpt lat="47.2504" lon="4.95787">
        <ele>434.22500610352</ele>
        <time>2018-06-26T11:21:14+0200</time>
      </trkpt>
      <trkpt lat="47.25039" lon="4.9579">
        <ele>434.20626831055</ele>
        <time>2018-06-26T11:21:17+0200</time>
      </trkpt>
      <trkpt lat="47.25037" lon="4.95792">
        <ele>434.22091674805</ele>
        <time>2018-06-26T11:21:20+0200</time>
      </trkpt>
      <trkpt lat="47.25036" lon="4.95794">
        <ele>434.20080566406</ele>
        <time>2018-06-26T11:21:23+0200</time>
      </trkpt>
      <trkpt lat="47.25034" lon="4.95797">
        <ele>434.13265991211</ele>
        <time>2018-06-26T11:21:26+0200</time>
      </trkpt>
      <trkpt lat="47.25032" lon="4.95798">
        <ele>434.05117797852</ele>
        <time>2018-06-26T11:21:29+0200</time>
      </trkpt>
      <trkpt lat="47.25031" lon="4.95801">
        <ele>433.91448974609</ele>
        <time>2018-06-26T11:21:32+0200</time>
      </trkpt>
      <trkpt lat="47.25028" lon="4.95803">
        <ele>433.79598999023</ele>
        <time>2018-06-26T11:21:35+0200</time>
      </trkpt>
      <trkpt lat="47.25024" lon="4.95805">
        <ele>433.60708618164</ele>
        <time>2018-06-26T11:21:38+0200</time>
      </trkpt>
      <trkpt lat="47.25023" lon="4.95808">
        <ele>433.43563842773</ele>
        <time>2018-06-26T11:21:41+0200</time>
      </trkpt>
      <trkpt lat="47.25021" lon="4.9581">
        <ele>433.29510498047</ele>
        <time>2018-06-26T11:21:44+0200</time>
      </trkpt>
      <trkpt lat="47.2502" lon="4.95812">
        <ele>433.11935424805</ele>
        <time>2018-06-26T11:21:47+0200</time>
      </trkpt>
      <trkpt lat="47.25018" lon="4.95815">
        <ele>432.91482543945</ele>
        <time>2018-06-26T11:21:50+0200</time>
      </trkpt>
      <trkpt lat="47.25016" lon="4.95817">
        <ele>432.69216918945</ele>
        <time>2018-06-26T11:21:53+0200</time>
      </trkpt>
      <trkpt lat="47.25013" lon="4.95819">
        <ele>432.43994140625</ele>
        <time>2018-06-26T11:21:56+0200</time>
      </trkpt>
      <trkpt lat="47.25011" lon="4.95823">
        <ele>432.22344970703</ele>
        <time>2018-06-26T11:21:59+0200</time>
      </trkpt>
      <trkpt lat="47.25009" lon="4.95825">
        <ele>432.06127929688</ele>
        <time>2018-06-26T11:22:02+0200</time>
      </trkpt>
      <trkpt lat="47.25007" lon="4.95827">
        <ele>431.96655273438</ele>
        <time>2018-06-26T11:22:05+0200</time>
      </trkpt>
      <trkpt lat="47.25005" lon="4.95829">
        <ele>431.82495117188</ele>
        <time>2018-06-26T11:22:08+0200</time>
      </trkpt>
      <trkpt lat="47.25004" lon="4.95831">
        <ele>431.65899658203</ele>
        <time>2018-06-26T11:22:11+0200</time>
      </trkpt>
      <trkpt lat="47.25001" lon="4.95833">
        <ele>431.46868896484</ele>
        <time>2018-06-26T11:22:14+0200</time>
      </trkpt>
      <trkpt lat="47.24998" lon="4.95835">
        <ele>431.36505126953</ele>
        <time>2018-06-26T11:22:17+0200</time>
      </trkpt>
      <trkpt lat="47.24994" lon="4.95838">
        <ele>431.31243896484</ele>
        <time>2018-06-26T11:22:20+0200</time>
      </trkpt>
      <trkpt lat="47.24993" lon="4.9584">
        <ele>431.19848632812</ele>
        <time>2018-06-26T11:22:23+0200</time>
      </trkpt>
      <trkpt lat="47.24991" lon="4.95842">
        <ele>431.01031494141</ele>
        <time>2018-06-26T11:22:26+0200</time>
      </trkpt>
      <trkpt lat="47.24988" lon="4.95844">
        <ele>430.89602661133</ele>
        <time>2018-06-26T11:22:29+0200</time>
      </trkpt>
      <trkpt lat="47.24987" lon="4.95846">
        <ele>430.744140625</ele>
        <time>2018-06-26T11:22:32+0200</time>
      </trkpt>
      <trkpt lat="47.24985" lon="4.95848">
        <ele>430.60006713867</ele>
        <time>2018-06-26T11:22:35+0200</time>
      </trkpt>
      <trkpt lat="47.24983" lon="4.9585">
        <ele>430.46572875977</ele>
        <time>2018-06-26T11:22:38+0200</time>
      </trkpt>
      <trkpt lat="47.24982" lon="4.95851">
        <ele>430.25717163086</ele>
        <time>2018-06-26T11:22:41+0200</time>
      </trkpt>
      <trkpt lat="47.2498" lon="4.95852">
        <ele>429.97561645508</ele>
        <time>2018-06-26T11:22:44+0200</time>
      </trkpt>
      <trkpt lat="47.24978" lon="4.95852">
        <ele>429.63201904297</ele>
        <time>2018-06-26T11:22:47+0200</time>
      </trkpt>
      <trkpt lat="47.24976" lon="4.95854">
        <ele>429.21054077148</ele>
        <time>2018-06-26T11:22:50+0200</time>
      </trkpt>
      <trkpt lat="47.24973" lon="4.95857">
        <ele>428.70495605469</ele>
        <time>2018-06-26T11:22:53+0200</time>
      </trkpt>
      <trkpt lat="47.24972" lon="4.9586">
        <ele>428.18444824219</ele>
        <time>2018-06-26T11:22:56+0200</time>
      </trkpt>
      <trkpt lat="47.2497" lon="4.95862">
        <ele>427.68157958984</ele>
        <time>2018-06-26T11:22:59+0200</time>
      </trkpt>
      <trkpt lat="47.24969" lon="4.95865">
        <ele>427.23013305664</ele>
        <time>2018-06-26T11:23:02+0200</time>
      </trkpt>
      <trkpt lat="47.24967" lon="4.95868">
        <ele>426.82815551758</ele>
        <time>2018-06-26T11:23:05+0200</time>
      </trkpt>
      <trkpt lat="47.24965" lon="4.95869">
        <ele>426.46893310547</ele>
        <time>2018-06-26T11:23:08+0200</time>
      </trkpt>
      <trkpt lat="47.24964" lon="4.95871">
        <ele>426.15084838867</ele>
        <time>2018-06-26T11:23:11+0200</time>
      </trkpt>
      <trkpt lat="47.24961" lon="4.95871">
        <ele>425.7649230957</ele>
        <time>2018-06-26T11:23:14+0200</time>
      </trkpt>
      <trkpt lat="47.24959" lon="4.95871">
        <ele>425.32452392578</ele>
        <time>2018-06-26T11:23:17+0200</time>
      </trkpt>
      <trkpt lat="47.24956" lon="4.95875">
        <ele>424.93734741211</ele>
        <time>2018-06-26T11:23:20+0200</time>
      </trkpt>
      <trkpt lat="47.24955" lon="4.95877">
        <ele>424.62835693359</ele>
        <time>2018-06-26T11:23:23+0200</time>
      </trkpt>
      <trkpt lat="47.24955" lon="4.95877">
        <ele>424.36749267578</ele>
        <time>2018-06-26T11:23:26+0200</time>
      </trkpt>
      <trkpt lat="47.24954" lon="4.95878">
        <ele>424.11209106445</ele>
        <time>2018-06-26T11:23:29+0200</time>
      </trkpt>
      <trkpt lat="47.24952" lon="4.95879">
        <ele>423.86108398438</ele>
        <time>2018-06-26T11:23:32+0200</time>
      </trkpt>
      <trkpt lat="47.24949" lon="4.95883">
        <ele>423.50738525391</ele>
        <time>2018-06-26T11:23:35+0200</time>
      </trkpt>
      <trkpt lat="47.24948" lon="4.95886">
        <ele>423.1721496582</ele>
        <time>2018-06-26T11:23:38+0200</time>
      </trkpt>
      <trkpt lat="47.24946" lon="4.95888">
        <ele>422.88131713867</ele>
        <time>2018-06-26T11:23:41+0200</time>
      </trkpt>
      <trkpt lat="47.24944" lon="4.95889">
        <ele>422.71142578125</ele>
        <time>2018-06-26T11:23:44+0200</time>
      </trkpt>
      <trkpt lat="47.24942" lon="4.95892">
        <ele>422.66314697266</ele>
        <time>2018-06-26T11:23:47+0200</time>
      </trkpt>
      <trkpt lat="47.24939" lon="4.95894">
        <ele>422.63201904297</ele>
        <time>2018-06-26T11:23:50+0200</time>
      </trkpt>
      <trkpt lat="47.24936" lon="4.95896">
        <ele>422.60784912109</ele>
        <time>2018-06-26T11:23:53+0200</time>
      </trkpt>
      <trkpt lat="47.24933" lon="4.95894">
        <ele>422.61825561523</ele>
        <time>2018-06-26T11:23:56+0200</time>
      </trkpt>
      <trkpt lat="47.24929" lon="4.95894">
        <ele>422.58975219727</ele>
        <time>2018-06-26T11:23:59+0200</time>
      </trkpt>
      <trkpt lat="47.24925" lon="4.95894">
        <ele>422.48580932617</ele>
        <time>2018-06-26T11:24:02+0200</time>
      </trkpt>
      <trkpt lat="47.24923" lon="4.95894">
        <ele>422.3659362793</ele>
        <time>2018-06-26T11:24:05+0200</time>
      </trkpt>
      <trkpt lat="47.24922" lon="4.95893">
        <ele>422.17044067383</ele>
        <time>2018-06-26T11:24:08+0200</time>
      </trkpt>
      <trkpt lat="47.24921" lon="4.95893">
        <ele>422.00476074219</ele>
        <time>2018-06-26T11:24:11+0200</time>
      </trkpt>
      <trkpt lat="47.2492" lon="4.95895">
        <ele>422.0495300293</ele>
        <time>2018-06-26T11:24:14+0200</time>
      </trkpt>
      <trkpt lat="47.24918" lon="4.95899">
        <ele>422.06188964844</ele>
        <time>2018-06-26T11:24:17+0200</time>
      </trkpt>
      <trkpt lat="47.24916" lon="4.95902">
        <ele>421.96112060547</ele>
        <time>2018-06-26T11:24:20+0200</time>
      </trkpt>
      <trkpt lat="47.24914" lon="4.95905">
        <ele>421.76382446289</ele>
        <time>2018-06-26T11:24:23+0200</time>
      </trkpt>
      <trkpt lat="47.24912" lon="4.95909">
        <ele>421.48309326172</ele>
        <time>2018-06-26T11:24:26+0200</time>
      </trkpt>
      <trkpt lat="47.24911" lon="4.95912">
        <ele>421.18167114258</ele>
        <time>2018-06-26T11:24:29+0200</time>
      </trkpt>
      <trkpt lat="47.24909" lon="4.95913">
        <ele>420.97561645508</ele>
        <time>2018-06-26T11:24:32+0200</time>
      </trkpt>
      <trkpt lat="47.24907" lon="4.95916">
        <ele>420.87567138672</ele>
        <time>2018-06-26T11:24:35+0200</time>
      </trkpt>
      <trkpt lat="47.24905" lon="4.9592">
        <ele>420.93338012695</ele>
        <time>2018-06-26T11:24:38+0200</time>
      </trkpt>
      <trkpt lat="47.24904" lon="4.95922">
        <ele>420.98294067383</ele>
        <time>2018-06-26T11:24:41+0200</time>
      </trkpt>
      <trkpt lat="47.24903" lon="4.95926">
        <ele>420.98706054688</ele>
        <time>2018-06-26T11:24:44+0200</time>
      </trkpt>
      <trkpt lat="47.24903" lon="4.95928">
        <ele>421.01721191406</ele>
        <time>2018-06-26T11:24:47+0200</time>
      </trkpt>
      <trkpt lat="47.24902" lon="4.95932">
        <ele>421.00518798828</ele>
        <time>2018-06-26T11:24:50+0200</time>
      </trkpt>
      <trkpt lat="47.24899" lon="4.95938">
        <ele>420.75277709961</ele>
        <time>2018-06-26T11:24:53+0200</time>
      </trkpt>
      <trkpt lat="47.24899" lon="4.9594">
        <ele>420.56085205078</ele>
        <time>2018-06-26T11:24:56+0200</time>
      </trkpt>
      <trkpt lat="47.24899" lon="4.95944">
        <ele>420.46994018555</ele>
        <time>2018-06-26T11:24:59+0200</time>
      </trkpt>
      <trkpt lat="47.24898" lon="4.95947">
        <ele>420.39770507812</ele>
        <time>2018-06-26T11:25:02+0200</time>
      </trkpt>
      <trkpt lat="47.24897" lon="4.9595">
        <ele>420.26159667969</ele>
        <time>2018-06-26T11:25:05+0200</time>
      </trkpt>
      <trkpt lat="47.24895" lon="4.95957">
        <ele>419.94631958008</ele>
        <time>2018-06-26T11:25:08+0200</time>
      </trkpt>
      <trkpt lat="47.24895" lon="4.95961">
        <ele>419.52520751953</ele>
        <time>2018-06-26T11:25:11+0200</time>
      </trkpt>
      <trkpt lat="47.24894" lon="4.95965">
        <ele>419.04733276367</ele>
        <time>2018-06-26T11:25:14+0200</time>
      </trkpt>
      <trkpt lat="47.24893" lon="4.9597">
        <ele>418.56970214844</ele>
        <time>2018-06-26T11:25:17+0200</time>
      </trkpt>
      <trkpt lat="47.24893" lon="4.95973">
        <ele>418.24017333984</ele>
        <time>2018-06-26T11:25:20+0200</time>
      </trkpt>
      <trkpt lat="47.24893" lon="4.95976">
        <ele>418.02334594727</ele>
        <time>2018-06-26T11:25:23+0200</time>
      </trkpt>
      <trkpt lat="47.24892" lon="4.95979">
        <ele>417.8551940918</ele>
        <time>2018-06-26T11:25:26+0200</time>
      </trkpt>
      <trkpt lat="47.24891" lon="4.95981">
        <ele>417.61056518555</ele>
        <time>2018-06-26T11:25:29+0200</time>
      </trkpt>
      <trkpt lat="47.2489" lon="4.95985">
        <ele>417.29907226562</ele>
        <time>2018-06-26T11:25:32+0200</time>
      </trkpt>
      <trkpt lat="47.2489" lon="4.95989">
        <ele>416.99917602539</ele>
        <time>2018-06-26T11:25:35+0200</time>
      </trkpt>
      <trkpt lat="47.24889" lon="4.95994">
        <ele>416.77700805664</ele>
        <time>2018-06-26T11:25:38+0200</time>
      </trkpt>
      <trkpt lat="47.24889" lon="4.95997">
        <ele>416.56707763672</ele>
        <time>2018-06-26T11:25:41+0200</time>
      </trkpt>
      <trkpt lat="47.24888" lon="4.96001">
        <ele>416.36038208008</ele>
        <time>2018-06-26T11:25:44+0200</time>
      </trkpt>
      <trkpt lat="47.24887" lon="4.96004">
        <ele>416.14331054688</ele>
        <time>2018-06-26T11:25:47+0200</time>
      </trkpt>
      <trkpt lat="47.24886" lon="4.96006">
        <ele>415.97750854492</ele>
        <time>2018-06-26T11:25:50+0200</time>
      </trkpt>
      <trkpt lat="47.24885" lon="4.96009">
        <ele>415.83493041992</ele>
        <time>2018-06-26T11:25:53+0200</time>
      </trkpt>
      <trkpt lat="47.24885" lon="4.96012">
        <ele>415.79010009766</ele>
        <time>2018-06-26T11:25:56+0200</time>
      </trkpt>
      <trkpt lat="47.24884" lon="4.96016">
        <ele>415.5895690918</ele>
        <time>2018-06-26T11:25:59+0200</time>
      </trkpt>
      <trkpt lat="47.24883" lon="4.9602">
        <ele>415.26620483398</ele>
        <time>2018-06-26T11:26:02+0200</time>
      </trkpt>
      <trkpt lat="47.24882" lon="4.96023">
        <ele>414.94195556641</ele>
        <time>2018-06-26T11:26:05+0200</time>
      </trkpt>
      <trkpt lat="47.24881" lon="4.96025">
        <ele>414.79669189453</ele>
        <time>2018-06-26T11:26:08+0200</time>
      </trkpt>
      <trkpt lat="47.24881" lon="4.96026">
        <ele>414.77172851562</ele>
        <time>2018-06-26T11:26:11+0200</time>
      </trkpt>
      <trkpt lat="47.24881" lon="4.96026">
        <ele>414.75332641602</ele>
        <time>2018-06-26T11:26:14+0200</time>
      </trkpt>
      <trkpt lat="47.24881" lon="4.96027">
        <ele>414.74502563477</ele>
        <time>2018-06-26T11:26:17+0200</time>
      </trkpt>
      <trkpt lat="47.2488" lon="4.9603">
        <ele>414.74047851562</ele>
        <time>2018-06-26T11:26:20+0200</time>
      </trkpt>
      <trkpt lat="47.2488" lon="4.96035">
        <ele>414.61822509766</ele>
        <time>2018-06-26T11:26:23+0200</time>
      </trkpt>
      <trkpt lat="47.2488" lon="4.96038">
        <ele>414.49383544922</ele>
        <time>2018-06-26T11:26:26+0200</time>
      </trkpt>
      <trkpt lat="47.2488" lon="4.96044">
        <ele>414.38363647461</ele>
        <time>2018-06-26T11:26:29+0200</time>
      </trkpt>
      <trkpt lat="47.24881" lon="4.9605">
        <ele>414.31393432617</ele>
        <time>2018-06-26T11:26:32+0200</time>
      </trkpt>
      <trkpt lat="47.24881" lon="4.96054">
        <ele>414.19326782227</ele>
        <time>2018-06-26T11:26:35+0200</time>
      </trkpt>
      <trkpt lat="47.24882" lon="4.96056">
        <ele>414.12283325195</ele>
        <time>2018-06-26T11:26:38+0200</time>
      </trkpt>
      <trkpt lat="47.24884" lon="4.96063">
        <ele>414.03881835938</ele>
        <time>2018-06-26T11:26:41+0200</time>
      </trkpt>
      <trkpt lat="47.24883" lon="4.96065">
        <ele>413.84906005859</ele>
        <time>2018-06-26T11:26:44+0200</time>
      </trkpt>
      <trkpt lat="47.24883" lon="4.9607">
        <ele>413.6682434082</ele>
        <time>2018-06-26T11:26:47+0200</time>
      </trkpt>
      <trkpt lat="47.24881" lon="4.96071">
        <ele>413.48178100586</ele>
        <time>2018-06-26T11:26:50+0200</time>
      </trkpt>
      <trkpt lat="47.24881" lon="4.96073">
        <ele>413.38705444336</ele>
        <time>2018-06-26T11:26:53+0200</time>
      </trkpt>
      <trkpt lat="47.2488" lon="4.96077">
        <ele>413.27282714844</ele>
        <time>2018-06-26T11:26:56+0200</time>
      </trkpt>
      <trkpt lat="47.24881" lon="4.96082">
        <ele>413.11831665039</ele>
        <time>2018-06-26T11:26:59+0200</time>
      </trkpt>
      <trkpt lat="47.24882" lon="4.96085">
        <ele>412.99746704102</ele>
        <time>2018-06-26T11:27:02+0200</time>
      </trkpt>
      <trkpt lat="47.24882" lon="4.96083">
        <ele>412.95867919922</ele>
        <time>2018-06-26T11:27:05+0200</time>
      </trkpt>
      <trkpt lat="47.24882" lon="4.96084">
        <ele>412.91326904297</ele>
        <time>2018-06-26T11:27:08+0200</time>
      </trkpt>
      <trkpt lat="47.24882" lon="4.96089">
        <ele>412.62957763672</ele>
        <time>2018-06-26T11:27:11+0200</time>
      </trkpt>
      <trkpt lat="47.24884" lon="4.96094">
        <ele>412.10922241211</ele>
        <time>2018-06-26T11:27:14+0200</time>
      </trkpt>
      <trkpt lat="47.24885" lon="4.96097">
        <ele>411.82318115234</ele>
        <time>2018-06-26T11:27:17+0200</time>
      </trkpt>
      <trkpt lat="47.24885" lon="4.96097">
        <ele>411.74166870117</ele>
        <time>2018-06-26T11:27:20+0200</time>
      </trkpt>
      <trkpt lat="47.24885" lon="4.96097">
        <ele>411.65112304688</ele>
        <time>2018-06-26T11:27:23+0200</time>
      </trkpt>
      <trkpt lat="47.24884" lon="4.96102">
        <ele>411.5735168457</ele>
        <time>2018-06-26T11:27:26+0200</time>
      </trkpt>
      <trkpt lat="47.24884" lon="4.96104">
        <ele>411.52478027344</ele>
        <time>2018-06-26T11:27:29+0200</time>
      </trkpt>
      <trkpt lat="47.24884" lon="4.96105">
        <ele>411.50692749023</ele>
        <time>2018-06-26T11:27:32+0200</time>
      </trkpt>
      <trkpt lat="47.24886" lon="4.96111">
        <ele>411.56549072266</ele>
        <time>2018-06-26T11:27:35+0200</time>
      </trkpt>
      <trkpt lat="47.24886" lon="4.96111">
        <ele>411.58770751953</ele>
        <time>2018-06-26T11:27:38+0200</time>
      </trkpt>
      <trkpt lat="47.24886" lon="4.96111">
        <ele>411.61282348633</ele>
        <time>2018-06-26T11:27:41+0200</time>
      </trkpt>
      <trkpt lat="47.24886" lon="4.96112">
        <ele>411.64483642578</ele>
        <time>2018-06-26T11:27:44+0200</time>
      </trkpt>
      <trkpt lat="47.24881" lon="4.96106">
        <ele>411.67367553711</ele>
        <time>2018-06-26T11:27:47+0200</time>
      </trkpt>
      <trkpt lat="47.24881" lon="4.96107">
        <ele>411.67956542969</ele>
        <time>2018-06-26T11:27:50+0200</time>
      </trkpt>
      <trkpt lat="47.24878" lon="4.96102">
        <ele>411.47094726562</ele>
        <time>2018-06-26T11:27:53+0200</time>
      </trkpt>
      <trkpt lat="47.24878" lon="4.96103">
        <ele>411.01657104492</ele>
        <time>2018-06-26T11:27:56+0200</time>
      </trkpt>
      <trkpt lat="47.24878" lon="4.96104">
        <ele>410.46780395508</ele>
        <time>2018-06-26T11:27:59+0200</time>
      </trkpt>
      <trkpt lat="47.24879" lon="4.96106">
        <ele>409.99859619141</ele>
        <time>2018-06-26T11:28:02+0200</time>
      </trkpt>
      <trkpt lat="47.2488" lon="4.96109">
        <ele>409.62591552734</ele>
        <time>2018-06-26T11:28:05+0200</time>
      </trkpt>
      <trkpt lat="47.24881" lon="4.96109">
        <ele>409.33450317383</ele>
        <time>2018-06-26T11:28:08+0200</time>
      </trkpt>
      <trkpt lat="47.24881" lon="4.96111">
        <ele>409.19195556641</ele>
        <time>2018-06-26T11:28:11+0200</time>
      </trkpt>
      <trkpt lat="47.24882" lon="4.96113">
        <ele>409.09475708008</ele>
        <time>2018-06-26T11:28:14+0200</time>
      </trkpt>
      <trkpt lat="47.24883" lon="4.96118">
        <ele>409.02944946289</ele>
        <time>2018-06-26T11:28:17+0200</time>
      </trkpt>
      <trkpt lat="47.24883" lon="4.96121">
        <ele>409.07400512695</ele>
        <time>2018-06-26T11:28:20+0200</time>
      </trkpt>
      <trkpt lat="47.24883" lon="4.96124">
        <ele>409.19207763672</ele>
        <time>2018-06-26T11:28:23+0200</time>
      </trkpt>
      <trkpt lat="47.24883" lon="4.96126">
        <ele>409.36975097656</ele>
        <time>2018-06-26T11:28:26+0200</time>
      </trkpt>
      <trkpt lat="47.24883" lon="4.9613">
        <ele>409.37167358398</ele>
        <time>2018-06-26T11:28:29+0200</time>
      </trkpt>
      <trkpt lat="47.24884" lon="4.96132">
        <ele>409.42413330078</ele>
        <time>2018-06-26T11:28:32+0200</time>
      </trkpt>
      <trkpt lat="47.24884" lon="4.96136">
        <ele>409.46795654297</ele>
        <time>2018-06-26T11:28:35+0200</time>
      </trkpt>
      <trkpt lat="47.24884" lon="4.96142">
        <ele>409.69714355469</ele>
        <time>2018-06-26T11:28:38+0200</time>
      </trkpt>
      <trkpt lat="47.24885" lon="4.96144">
        <ele>409.85870361328</ele>
        <time>2018-06-26T11:28:41+0200</time>
      </trkpt>
      <trkpt lat="47.24885" lon="4.96148">
        <ele>409.96057128906</ele>
        <time>2018-06-26T11:28:45+0200</time>
      </trkpt>
      <trkpt lat="47.24887" lon="4.96151">
        <ele>409.97229003906</ele>
        <time>2018-06-26T11:28:48+0200</time>
      </trkpt>
      <trkpt lat="47.24887" lon="4.96151">
        <ele>410.03378295898</ele>
        <time>2018-06-26T11:28:51+0200</time>
      </trkpt>
      <trkpt lat="47.24887" lon="4.96152">
        <ele>410.1845703125</ele>
        <time>2018-06-26T11:28:54+0200</time>
      </trkpt>
      <trkpt lat="47.24887" lon="4.96158">
        <ele>410.26809692383</ele>
        <time>2018-06-26T11:28:57+0200</time>
      </trkpt>
      <trkpt lat="47.24886" lon="4.96159">
        <ele>410.33996582031</ele>
        <time>2018-06-26T11:29:00+0200</time>
      </trkpt>
      <trkpt lat="47.24887" lon="4.96163">
        <ele>410.4006652832</ele>
        <time>2018-06-26T11:29:03+0200</time>
      </trkpt>
      <trkpt lat="47.24888" lon="4.96165">
        <ele>410.57330322266</ele>
        <time>2018-06-26T11:29:06+0200</time>
      </trkpt>
      <trkpt lat="47.24889" lon="4.96166">
        <ele>410.86462402344</ele>
        <time>2018-06-26T11:29:09+0200</time>
      </trkpt>
      <trkpt lat="47.24891" lon="4.96171">
        <ele>410.98345947266</ele>
        <time>2018-06-26T11:29:12+0200</time>
      </trkpt>
      <trkpt lat="47.24892" lon="4.96175">
        <ele>410.70379638672</ele>
        <time>2018-06-26T11:29:15+0200</time>
      </trkpt>
      <trkpt lat="47.24892" lon="4.96176">
        <ele>410.40093994141</ele>
        <time>2018-06-26T11:29:18+0200</time>
      </trkpt>
      <trkpt lat="47.24893" lon="4.96181">
        <ele>410.23010253906</ele>
        <time>2018-06-26T11:29:21+0200</time>
      </trkpt>
      <trkpt lat="47.24894" lon="4.96187">
        <ele>410.04092407227</ele>
        <time>2018-06-26T11:29:24+0200</time>
      </trkpt>
      <trkpt lat="47.24894" lon="4.96188">
        <ele>409.98959350586</ele>
        <time>2018-06-26T11:29:27+0200</time>
      </trkpt>
      <trkpt lat="47.24895" lon="4.96193">
        <ele>409.96197509766</ele>
        <time>2018-06-26T11:29:30+0200</time>
      </trkpt>
      <trkpt lat="47.24895" lon="4.962">
        <ele>409.89767456055</ele>
        <time>2018-06-26T11:29:33+0200</time>
      </trkpt>
      <trkpt lat="47.24895" lon="4.96202">
        <ele>409.79983520508</ele>
        <time>2018-06-26T11:29:36+0200</time>
      </trkpt>
      <trkpt lat="47.24895" lon="4.96203">
        <ele>409.80682373047</ele>
        <time>2018-06-26T11:29:39+0200</time>
      </trkpt>
      <trkpt lat="47.24895" lon="4.96205">
        <ele>409.86123657227</ele>
        <time>2018-06-26T11:29:42+0200</time>
      </trkpt>
      <trkpt lat="47.24896" lon="4.9621">
        <ele>409.82525634766</ele>
        <time>2018-06-26T11:29:45+0200</time>
      </trkpt>
      <trkpt lat="47.24894" lon="4.96212">
        <ele>409.77127075195</ele>
        <time>2018-06-26T11:29:48+0200</time>
      </trkpt>
      <trkpt lat="47.24895" lon="4.96215">
        <ele>409.71450805664</ele>
        <time>2018-06-26T11:29:51+0200</time>
      </trkpt>
      <trkpt lat="47.24897" lon="4.96216">
        <ele>409.62936401367</ele>
        <time>2018-06-26T11:29:54+0200</time>
      </trkpt>
      <trkpt lat="47.24898" lon="4.96222">
        <ele>409.67071533203</ele>
        <time>2018-06-26T11:29:57+0200</time>
      </trkpt>
      <trkpt lat="47.24899" lon="4.96226">
        <ele>409.71948242188</ele>
        <time>2018-06-26T11:30:00+0200</time>
      </trkpt>
      <trkpt lat="47.24899" lon="4.96226">
        <ele>409.73413085938</ele>
        <time>2018-06-26T11:30:03+0200</time>
      </trkpt>
      <trkpt lat="47.24901" lon="4.96231">
        <ele>409.61083984375</ele>
        <time>2018-06-26T11:30:06+0200</time>
      </trkpt>
      <trkpt lat="47.24901" lon="4.96233">
        <ele>409.54104614258</ele>
        <time>2018-06-26T11:30:09+0200</time>
      </trkpt>
      <trkpt lat="47.24902" lon="4.96236">
        <ele>409.4831237793</ele>
        <time>2018-06-26T11:30:12+0200</time>
      </trkpt>
      <trkpt lat="47.24905" lon="4.96242">
        <ele>409.41149902344</ele>
        <time>2018-06-26T11:30:15+0200</time>
      </trkpt>
      <trkpt lat="47.24906" lon="4.96244">
        <ele>409.11666870117</ele>
        <time>2018-06-26T11:30:18+0200</time>
      </trkpt>
      <trkpt lat="47.24906" lon="4.96246">
        <ele>408.92864990234</ele>
        <time>2018-06-26T11:30:21+0200</time>
      </trkpt>
      <trkpt lat="47.24907" lon="4.96251">
        <ele>408.81463623047</ele>
        <time>2018-06-26T11:30:24+0200</time>
      </trkpt>
      <trkpt lat="47.24908" lon="4.96256">
        <ele>408.93716430664</ele>
        <time>2018-06-26T11:30:27+0200</time>
      </trkpt>
      <trkpt lat="47.24908" lon="4.9626">
        <ele>409.06787109375</ele>
        <time>2018-06-26T11:30:30+0200</time>
      </trkpt>
      <trkpt lat="47.24909" lon="4.96261">
        <ele>409.27954101562</ele>
        <time>2018-06-26T11:30:33+0200</time>
      </trkpt>
      <trkpt lat="47.24909" lon="4.96265">
        <ele>409.62106323242</ele>
        <time>2018-06-26T11:30:36+0200</time>
      </trkpt>
      <trkpt lat="47.24911" lon="4.96269">
        <ele>409.9147644043</ele>
        <time>2018-06-26T11:30:39+0200</time>
      </trkpt>
      <trkpt lat="47.24913" lon="4.96271">
        <ele>410.06787109375</ele>
        <time>2018-06-26T11:30:42+0200</time>
      </trkpt>
      <trkpt lat="47.24915" lon="4.96274">
        <ele>410.1064453125</ele>
        <time>2018-06-26T11:30:45+0200</time>
      </trkpt>
      <trkpt lat="47.24917" lon="4.96278">
        <ele>410.04772949219</ele>
        <time>2018-06-26T11:30:48+0200</time>
      </trkpt>
      <trkpt lat="47.24918" lon="4.9628">
        <ele>409.8737487793</ele>
        <time>2018-06-26T11:30:51+0200</time>
      </trkpt>
      <trkpt lat="47.24919" lon="4.96283">
        <ele>409.59609985352</ele>
        <time>2018-06-26T11:30:54+0200</time>
      </trkpt>
      <trkpt lat="47.2492" lon="4.96288">
        <ele>409.32928466797</ele>
        <time>2018-06-26T11:30:57+0200</time>
      </trkpt>
      <trkpt lat="47.24921" lon="4.96291">
        <ele>409.02587890625</ele>
        <time>2018-06-26T11:31:00+0200</time>
      </trkpt>
      <trkpt lat="47.24922" lon="4.96292">
        <ele>408.79083251953</ele>
        <time>2018-06-26T11:31:03+0200</time>
      </trkpt>
      <trkpt lat="47.24923" lon="4.96296">
        <ele>408.39114379883</ele>
        <time>2018-06-26T11:31:06+0200</time>
      </trkpt>
      <trkpt lat="47.24925" lon="4.96303">
        <ele>408.01141357422</ele>
        <time>2018-06-26T11:31:09+0200</time>
      </trkpt>
      <trkpt lat="47.24926" lon="4.9631">
        <ele>407.42407226562</ele>
        <time>2018-06-26T11:31:12+0200</time>
      </trkpt>
      <trkpt lat="47.24927" lon="4.96312">
        <ele>406.5676574707</ele>
        <time>2018-06-26T11:31:15+0200</time>
      </trkpt>
      <trkpt lat="47.2493" lon="4.96318">
        <ele>405.60736083984</ele>
        <time>2018-06-26T11:31:18+0200</time>
      </trkpt>
      <trkpt lat="47.24931" lon="4.96318">
        <ele>404.67016601562</ele>
        <time>2018-06-26T11:31:21+0200</time>
      </trkpt>
      <trkpt lat="47.24932" lon="4.96319">
        <ele>403.80126953125</ele>
        <time>2018-06-26T11:31:24+0200</time>
      </trkpt>
      <trkpt lat="47.24934" lon="4.96322">
        <ele>403.06832885742</ele>
        <time>2018-06-26T11:31:27+0200</time>
      </trkpt>
      <trkpt lat="47.24935" lon="4.96323">
        <ele>402.45690917969</ele>
        <time>2018-06-26T11:31:30+0200</time>
      </trkpt>
      <trkpt lat="47.24937" lon="4.96326">
        <ele>401.86074829102</ele>
        <time>2018-06-26T11:31:33+0200</time>
      </trkpt>
      <trkpt lat="47.24938" lon="4.96327">
        <ele>401.27603149414</ele>
        <time>2018-06-26T11:31:36+0200</time>
      </trkpt>
      <trkpt lat="47.24941" lon="4.96331">
        <ele>400.73587036133</ele>
        <time>2018-06-26T11:31:39+0200</time>
      </trkpt>
      <trkpt lat="47.24942" lon="4.96336">
        <ele>400.17767333984</ele>
        <time>2018-06-26T11:31:42+0200</time>
      </trkpt>
      <trkpt lat="47.24944" lon="4.96337">
        <ele>399.64743041992</ele>
        <time>2018-06-26T11:31:45+0200</time>
      </trkpt>
      <trkpt lat="47.24943" lon="4.96339">
        <ele>399.38653564453</ele>
        <time>2018-06-26T11:31:48+0200</time>
      </trkpt>
      <trkpt lat="47.24944" lon="4.9634">
        <ele>399.22927856445</ele>
        <time>2018-06-26T11:31:51+0200</time>
      </trkpt>
      <trkpt lat="47.24946" lon="4.96343">
        <ele>399.02661132812</ele>
        <time>2018-06-26T11:31:54+0200</time>
      </trkpt>
      <trkpt lat="47.24948" lon="4.96347">
        <ele>398.70068359375</ele>
        <time>2018-06-26T11:31:57+0200</time>
      </trkpt>
      <trkpt lat="47.24951" lon="4.96354">
        <ele>398.33993530273</ele>
        <time>2018-06-26T11:32:00+0200</time>
      </trkpt>
      <trkpt lat="47.24953" lon="4.96363">
        <ele>397.9153137207</ele>
        <time>2018-06-26T11:32:03+0200</time>
      </trkpt>
      <trkpt lat="47.24954" lon="4.96369">
        <ele>397.15893554688</ele>
        <time>2018-06-26T11:32:06+0200</time>
      </trkpt>
      <trkpt lat="47.24954" lon="4.96372">
        <ele>396.23550415039</ele>
        <time>2018-06-26T11:32:09+0200</time>
      </trkpt>
      <trkpt lat="47.24953" lon="4.96373">
        <ele>395.82470703125</ele>
        <time>2018-06-26T11:32:12+0200</time>
      </trkpt>
      <trkpt lat="47.24951" lon="4.96376">
        <ele>394.72375488281</ele>
        <time>2018-06-26T11:32:15+0200</time>
      </trkpt>
      <trkpt lat="47.24947" lon="4.96375">
        <ele>393.59558105469</ele>
        <time>2018-06-26T11:32:18+0200</time>
      </trkpt>
      <trkpt lat="47.24944" lon="4.96376">
        <ele>392.52267456055</ele>
        <time>2018-06-26T11:32:21+0200</time>
      </trkpt>
      <trkpt lat="47.24943" lon="4.96378">
        <ele>391.53396606445</ele>
        <time>2018-06-26T11:32:24+0200</time>
      </trkpt>
      <trkpt lat="47.24941" lon="4.96379">
        <ele>390.64157104492</ele>
        <time>2018-06-26T11:32:27+0200</time>
      </trkpt>
      <trkpt lat="47.24937" lon="4.9638">
        <ele>389.86019897461</ele>
        <time>2018-06-26T11:32:30+0200</time>
      </trkpt>
      <trkpt lat="47.24933" lon="4.96382">
        <ele>389.25936889648</ele>
        <time>2018-06-26T11:32:33+0200</time>
      </trkpt>
      <trkpt lat="47.24929" lon="4.96383">
        <ele>388.74682617188</ele>
        <time>2018-06-26T11:32:36+0200</time>
      </trkpt>
      <trkpt lat="47.24928" lon="4.96383">
        <ele>388.28997802734</ele>
        <time>2018-06-26T11:32:39+0200</time>
      </trkpt>
      <trkpt lat="47.24926" lon="4.96383">
        <ele>387.87866210938</ele>
        <time>2018-06-26T11:32:42+0200</time>
      </trkpt>
      <trkpt lat="47.24922" lon="4.96382">
        <ele>387.55511474609</ele>
        <time>2018-06-26T11:32:45+0200</time>
      </trkpt>
      <trkpt lat="47.24918" lon="4.96383">
        <ele>387.30435180664</ele>
        <time>2018-06-26T11:32:48+0200</time>
      </trkpt>
      <trkpt lat="47.24916" lon="4.96382">
        <ele>387.09539794922</ele>
        <time>2018-06-26T11:32:51+0200</time>
      </trkpt>
      <trkpt lat="47.24913" lon="4.96381">
        <ele>386.92599487305</ele>
        <time>2018-06-26T11:32:54+0200</time>
      </trkpt>
      <trkpt lat="47.2491" lon="4.9638">
        <ele>386.80630493164</ele>
        <time>2018-06-26T11:32:57+0200</time>
      </trkpt>
      <trkpt lat="47.24909" lon="4.96378">
        <ele>386.71539306641</ele>
        <time>2018-06-26T11:33:00+0200</time>
      </trkpt>
      <trkpt lat="47.24907" lon="4.96377">
        <ele>386.64407348633</ele>
        <time>2018-06-26T11:33:03+0200</time>
      </trkpt>
      <trkpt lat="47.24905" lon="4.96376">
        <ele>386.54571533203</ele>
        <time>2018-06-26T11:33:06+0200</time>
      </trkpt>
      <trkpt lat="47.24903" lon="4.96374">
        <ele>386.48843383789</ele>
        <time>2018-06-26T11:33:09+0200</time>
      </trkpt>
      <trkpt lat="47.24899" lon="4.96372">
        <ele>386.4609375</ele>
        <time>2018-06-26T11:33:12+0200</time>
      </trkpt>
      <trkpt lat="47.24897" lon="4.96371">
        <ele>386.45816040039</ele>
        <time>2018-06-26T11:33:15+0200</time>
      </trkpt>
      <trkpt lat="47.24895" lon="4.9637">
        <ele>386.43609619141</ele>
        <time>2018-06-26T11:33:18+0200</time>
      </trkpt>
      <trkpt lat="47.24892" lon="4.96369">
        <ele>386.39495849609</ele>
        <time>2018-06-26T11:33:21+0200</time>
      </trkpt>
      <trkpt lat="47.24889" lon="4.96369">
        <ele>386.17852783203</ele>
        <time>2018-06-26T11:33:24+0200</time>
      </trkpt>
      <trkpt lat="47.24886" lon="4.96369">
        <ele>385.82470703125</ele>
        <time>2018-06-26T11:33:27+0200</time>
      </trkpt>
      <trkpt lat="47.24883" lon="4.96368">
        <ele>385.37017822266</ele>
        <time>2018-06-26T11:33:30+0200</time>
      </trkpt>
      <trkpt lat="47.24879" lon="4.96368">
        <ele>384.84945678711</ele>
        <time>2018-06-26T11:33:33+0200</time>
      </trkpt>
      <trkpt lat="47.2488" lon="4.96369">
        <ele>384.27352905273</ele>
        <time>2018-06-26T11:33:36+0200</time>
      </trkpt>
      <trkpt lat="47.2488" lon="4.96369">
        <ele>383.70596313477</ele>
        <time>2018-06-26T11:33:39+0200</time>
      </trkpt>
      <trkpt lat="47.24878" lon="4.9637">
        <ele>383.36569213867</ele>
        <time>2018-06-26T11:33:42+0200</time>
      </trkpt>
      <trkpt lat="47.24874" lon="4.96371">
        <ele>382.93795776367</ele>
        <time>2018-06-26T11:33:45+0200</time>
      </trkpt>
      <trkpt lat="47.24867" lon="4.96374">
        <ele>382.39575195312</ele>
        <time>2018-06-26T11:33:48+0200</time>
      </trkpt>
      <trkpt lat="47.24861" lon="4.96371">
        <ele>381.82778930664</ele>
        <time>2018-06-26T11:33:51+0200</time>
      </trkpt>
      <trkpt lat="47.24859" lon="4.96365">
        <ele>381.17596435547</ele>
        <time>2018-06-26T11:33:54+0200</time>
      </trkpt>
      <trkpt lat="47.24859" lon="4.96365">
        <ele>380.80462646484</ele>
        <time>2018-06-26T11:33:57+0200</time>
      </trkpt>
      <trkpt lat="47.24856" lon="4.96363">
        <ele>379.79385375977</ele>
        <time>2018-06-26T11:34:00+0200</time>
      </trkpt>
      <trkpt lat="47.24858" lon="4.96361">
        <ele>379.17376708984</ele>
        <time>2018-06-26T11:34:03+0200</time>
      </trkpt>
      <trkpt lat="47.24856" lon="4.96363">
        <ele>378.31048583984</ele>
        <time>2018-06-26T11:34:06+0200</time>
      </trkpt>
      <trkpt lat="47.24853" lon="4.96364">
        <ele>377.61755371094</ele>
        <time>2018-06-26T11:34:09+0200</time>
      </trkpt>
      <trkpt lat="47.24848" lon="4.96366">
        <ele>377.11181640625</ele>
        <time>2018-06-26T11:34:12+0200</time>
      </trkpt>
      <trkpt lat="47.24844" lon="4.96366">
        <ele>376.70693969727</ele>
        <time>2018-06-26T11:34:15+0200</time>
      </trkpt>
      <trkpt lat="47.24842" lon="4.96368">
        <ele>376.37866210938</ele>
        <time>2018-06-26T11:34:18+0200</time>
      </trkpt>
      <trkpt lat="47.24841" lon="4.96368">
        <ele>376.12078857422</ele>
        <time>2018-06-26T11:34:21+0200</time>
      </trkpt>
      <trkpt lat="47.2484" lon="4.96366">
        <ele>375.88500976562</ele>
        <time>2018-06-26T11:34:24+0200</time>
      </trkpt>
      <trkpt lat="47.24838" lon="4.96367">
        <ele>375.55819702148</ele>
        <time>2018-06-26T11:34:27+0200</time>
      </trkpt>
      <trkpt lat="47.24837" lon="4.96368">
        <ele>375.22329711914</ele>
        <time>2018-06-26T11:34:30+0200</time>
      </trkpt>
      <trkpt lat="47.24835" lon="4.96368">
        <ele>374.9260559082</ele>
        <time>2018-06-26T11:34:33+0200</time>
      </trkpt>
      <trkpt lat="47.24834" lon="4.96366">
        <ele>374.71182250977</ele>
        <time>2018-06-26T11:34:36+0200</time>
      </trkpt>
      <trkpt lat="47.24837" lon="4.96361">
        <ele>374.19372558594</ele>
        <time>2018-06-26T11:34:39+0200</time>
      </trkpt>
      <trkpt lat="47.24836" lon="4.96359">
        <ele>373.92633056641</ele>
        <time>2018-06-26T11:34:42+0200</time>
      </trkpt>
      <trkpt lat="47.24833" lon="4.96357">
        <ele>373.69830322266</ele>
        <time>2018-06-26T11:34:45+0200</time>
      </trkpt>
      <trkpt lat="47.24828" lon="4.96355">
        <ele>373.45574951172</ele>
        <time>2018-06-26T11:34:48+0200</time>
      </trkpt>
      <trkpt lat="47.24822" lon="4.96353">
        <ele>373.32040405273</ele>
        <time>2018-06-26T11:34:51+0200</time>
      </trkpt>
      <trkpt lat="47.2482" lon="4.96351">
        <ele>373.17660522461</ele>
        <time>2018-06-26T11:34:54+0200</time>
      </trkpt>
      <trkpt lat="47.2482" lon="4.96352">
        <ele>372.9128112793</ele>
        <time>2018-06-26T11:34:57+0200</time>
      </trkpt>
      <trkpt lat="47.24818" lon="4.96352">
        <ele>372.63052368164</ele>
        <time>2018-06-26T11:35:00+0200</time>
      </trkpt>
      <trkpt lat="47.24813" lon="4.96352">
        <ele>372.39926147461</ele>
        <time>2018-06-26T11:35:03+0200</time>
      </trkpt>
      <trkpt lat="47.24811" lon="4.96353">
        <ele>372.08905029297</ele>
        <time>2018-06-26T11:35:06+0200</time>
      </trkpt>
      <trkpt lat="47.24808" lon="4.96352">
        <ele>371.8254699707</ele>
        <time>2018-06-26T11:35:09+0200</time>
      </trkpt>
      <trkpt lat="47.24804" lon="4.96352">
        <ele>371.59637451172</ele>
        <time>2018-06-26T11:35:12+0200</time>
      </trkpt>
      <trkpt lat="47.24804" lon="4.96354">
        <ele>371.36532592773</ele>
        <time>2018-06-26T11:35:15+0200</time>
      </trkpt>
      <trkpt lat="47.24802" lon="4.96356">
        <ele>371.07412719727</ele>
        <time>2018-06-26T11:35:18+0200</time>
      </trkpt>
      <trkpt lat="47.24801" lon="4.96352">
        <ele>370.69000244141</ele>
        <time>2018-06-26T11:35:21+0200</time>
      </trkpt>
      <trkpt lat="47.24797" lon="4.9635">
        <ele>370.1760559082</ele>
        <time>2018-06-26T11:35:24+0200</time>
      </trkpt>
      <trkpt lat="47.24794" lon="4.96347">
        <ele>369.79296875</ele>
        <time>2018-06-26T11:35:27+0200</time>
      </trkpt>
      <trkpt lat="47.24792" lon="4.96346">
        <ele>369.58282470703</ele>
        <time>2018-06-26T11:35:30+0200</time>
      </trkpt>
      <trkpt lat="47.24789" lon="4.96346">
        <ele>369.3857421875</ele>
        <time>2018-06-26T11:35:33+0200</time>
      </trkpt>
      <trkpt lat="47.24786" lon="4.96345">
        <ele>369.29537963867</ele>
        <time>2018-06-26T11:35:36+0200</time>
      </trkpt>
      <trkpt lat="47.24786" lon="4.96343">
        <ele>369.30435180664</ele>
        <time>2018-06-26T11:35:39+0200</time>
      </trkpt>
      <trkpt lat="47.24784" lon="4.96341">
        <ele>369.23999023438</ele>
        <time>2018-06-26T11:35:42+0200</time>
      </trkpt>
      <trkpt lat="47.24783" lon="4.96337">
        <ele>368.95980834961</ele>
        <time>2018-06-26T11:35:45+0200</time>
      </trkpt>
      <trkpt lat="47.2478" lon="4.96335">
        <ele>368.57836914062</ele>
        <time>2018-06-26T11:35:48+0200</time>
      </trkpt>
      <trkpt lat="47.24779" lon="4.96333">
        <ele>368.41665649414</ele>
        <time>2018-06-26T11:35:51+0200</time>
      </trkpt>
      <trkpt lat="47.24777" lon="4.9633">
        <ele>368.13433837891</ele>
        <time>2018-06-26T11:35:54+0200</time>
      </trkpt>
      <trkpt lat="47.24777" lon="4.96328">
        <ele>367.73727416992</ele>
        <time>2018-06-26T11:35:57+0200</time>
      </trkpt>
      <trkpt lat="47.24775" lon="4.96328">
        <ele>367.71322631836</ele>
        <time>2018-06-26T11:36:00+0200</time>
      </trkpt>
      <trkpt lat="47.24772" lon="4.96325">
        <ele>367.56353759766</ele>
        <time>2018-06-26T11:36:03+0200</time>
      </trkpt>
      <trkpt lat="47.2477" lon="4.96325">
        <ele>367.42697143555</ele>
        <time>2018-06-26T11:36:06+0200</time>
      </trkpt>
      <trkpt lat="47.24765" lon="4.96321">
        <ele>367.20184326172</ele>
        <time>2018-06-26T11:36:09+0200</time>
      </trkpt>
      <trkpt lat="47.24765" lon="4.96321">
        <ele>367.06042480469</ele>
        <time>2018-06-26T11:36:12+0200</time>
      </trkpt>
      <trkpt lat="47.24765" lon="4.96319">
        <ele>366.99066162109</ele>
        <time>2018-06-26T11:36:15+0200</time>
      </trkpt>
      <trkpt lat="47.24765" lon="4.9632">
        <ele>366.9990234375</ele>
        <time>2018-06-26T11:36:18+0200</time>
      </trkpt>
      <trkpt lat="47.24765" lon="4.9632">
        <ele>367.02322387695</ele>
        <time>2018-06-26T11:36:21+0200</time>
      </trkpt>
      <trkpt lat="47.24765" lon="4.9632">
        <ele>367.05795288086</ele>
        <time>2018-06-26T11:36:24+0200</time>
      </trkpt>
      <trkpt lat="47.24764" lon="4.9632">
        <ele>367.10540771484</ele>
        <time>2018-06-26T11:36:27+0200</time>
      </trkpt>
      <trkpt lat="47.24766" lon="4.96322">
        <ele>367.16854858398</ele>
        <time>2018-06-26T11:36:30+0200</time>
      </trkpt>
      <trkpt lat="47.24766" lon="4.96322">
        <ele>367.25238037109</ele>
        <time>2018-06-26T11:36:33+0200</time>
      </trkpt>
      <trkpt lat="47.24766" lon="4.96322">
        <ele>367.32354736328</ele>
        <time>2018-06-26T11:36:36+0200</time>
      </trkpt>
      <trkpt lat="47.24766" lon="4.96322">
        <ele>367.35968017578</ele>
        <time>2018-06-26T11:36:39+0200</time>
      </trkpt>
      <trkpt lat="47.24766" lon="4.96322">
        <ele>367.38589477539</ele>
        <time>2018-06-26T11:36:42+0200</time>
      </trkpt>
      <trkpt lat="47.24766" lon="4.96322">
        <ele>367.42593383789</ele>
        <time>2018-06-26T11:36:45+0200</time>
      </trkpt>
      <trkpt lat="47.24767" lon="4.96322">
        <ele>367.48544311523</ele>
        <time>2018-06-26T11:36:48+0200</time>
      </trkpt>
      <trkpt lat="47.24767" lon="4.96322">
        <ele>367.53915405273</ele>
        <time>2018-06-26T11:36:51+0200</time>
      </trkpt>
      <trkpt lat="47.24768" lon="4.96322">
        <ele>367.57067871094</ele>
        <time>2018-06-26T11:36:54+0200</time>
      </trkpt>
      <trkpt lat="47.24768" lon="4.96321">
        <ele>367.57818603516</ele>
        <time>2018-06-26T11:36:57+0200</time>
      </trkpt>
      <trkpt lat="47.24768" lon="4.96321">
        <ele>367.56658935547</ele>
        <time>2018-06-26T11:37:00+0200</time>
      </trkpt>
      <trkpt lat="47.24768" lon="4.9632">
        <ele>367.54763793945</ele>
        <time>2018-06-26T11:37:03+0200</time>
      </trkpt>
      <trkpt lat="47.24768" lon="4.96319">
        <ele>367.50820922852</ele>
        <time>2018-06-26T11:37:06+0200</time>
      </trkpt>
      <trkpt lat="47.24768" lon="4.96319">
        <ele>367.46118164062</ele>
        <time>2018-06-26T11:37:09+0200</time>
      </trkpt>
      <trkpt lat="47.24768" lon="4.96317">
        <ele>367.27938842773</ele>
        <time>2018-06-26T11:37:12+0200</time>
      </trkpt>
      <trkpt lat="47.24767" lon="4.96316">
        <ele>367.2287902832</ele>
        <time>2018-06-26T11:37:15+0200</time>
      </trkpt>
      <trkpt lat="47.24767" lon="4.96315">
        <ele>366.85217285156</ele>
        <time>2018-06-26T11:37:18+0200</time>
      </trkpt>
      <trkpt lat="47.24767" lon="4.96311">
        <ele>366.638671875</ele>
        <time>2018-06-26T11:37:21+0200</time>
      </trkpt>
      <trkpt lat="47.24767" lon="4.96311">
        <ele>366.59005737305</ele>
        <time>2018-06-26T11:37:24+0200</time>
      </trkpt>
      <trkpt lat="47.24766" lon="4.96309">
        <ele>366.14135742188</ele>
        <time>2018-06-26T11:37:27+0200</time>
      </trkpt>
      <trkpt lat="47.24766" lon="4.96309">
        <ele>365.88208007812</ele>
        <time>2018-06-26T11:37:30+0200</time>
      </trkpt>
      <trkpt lat="47.24766" lon="4.96309">
        <ele>365.61056518555</ele>
        <time>2018-06-26T11:37:33+0200</time>
      </trkpt>
      <trkpt lat="47.24764" lon="4.96304">
        <ele>365.36798095703</ele>
        <time>2018-06-26T11:37:36+0200</time>
      </trkpt>
      <trkpt lat="47.24763" lon="4.96303">
        <ele>365.18243408203</ele>
        <time>2018-06-26T11:37:39+0200</time>
      </trkpt>
      <trkpt lat="47.24762" lon="4.96301">
        <ele>365.07681274414</ele>
        <time>2018-06-26T11:37:42+0200</time>
      </trkpt>
      <trkpt lat="47.2476" lon="4.96299">
        <ele>364.92196655273</ele>
        <time>2018-06-26T11:37:45+0200</time>
      </trkpt>
      <trkpt lat="47.24759" lon="4.96296">
        <ele>364.80090332031</ele>
        <time>2018-06-26T11:37:48+0200</time>
      </trkpt>
      <trkpt lat="47.24758" lon="4.96294">
        <ele>364.69882202148</ele>
        <time>2018-06-26T11:37:51+0200</time>
      </trkpt>
      <trkpt lat="47.24757" lon="4.96293">
        <ele>364.57107543945</ele>
        <time>2018-06-26T11:37:54+0200</time>
      </trkpt>
      <trkpt lat="47.24756" lon="4.96292">
        <ele>364.52066040039</ele>
        <time>2018-06-26T11:37:57+0200</time>
      </trkpt>
      <trkpt lat="47.24756" lon="4.96292">
        <ele>364.50799560547</ele>
        <time>2018-06-26T11:38:00+0200</time>
      </trkpt>
      <trkpt lat="47.24755" lon="4.96291">
        <ele>364.36700439453</ele>
        <time>2018-06-26T11:38:03+0200</time>
      </trkpt>
      <trkpt lat="47.24754" lon="4.9629">
        <ele>364.28768920898</ele>
        <time>2018-06-26T11:38:06+0200</time>
      </trkpt>
      <trkpt lat="47.24753" lon="4.96286">
        <ele>364.21896362305</ele>
        <time>2018-06-26T11:38:09+0200</time>
      </trkpt>
      <trkpt lat="47.24753" lon="4.96284">
        <ele>364.20935058594</ele>
        <time>2018-06-26T11:38:12+0200</time>
      </trkpt>
      <trkpt lat="47.24751" lon="4.9628">
        <ele>364.25210571289</ele>
        <time>2018-06-26T11:38:15+0200</time>
      </trkpt>
      <trkpt lat="47.24749" lon="4.96276">
        <ele>364.24969482422</ele>
        <time>2018-06-26T11:38:18+0200</time>
      </trkpt>
      <trkpt lat="47.24749" lon="4.96276">
        <ele>364.2438659668</ele>
        <time>2018-06-26T11:38:21+0200</time>
      </trkpt>
      <trkpt lat="47.24748" lon="4.96274">
        <ele>364.2321472168</ele>
        <time>2018-06-26T11:38:24+0200</time>
      </trkpt>
      <trkpt lat="47.24747" lon="4.96273">
        <ele>364.21508789062</ele>
        <time>2018-06-26T11:38:27+0200</time>
      </trkpt>
      <trkpt lat="47.24747" lon="4.96272">
        <ele>364.1916809082</ele>
        <time>2018-06-26T11:38:30+0200</time>
      </trkpt>
      <trkpt lat="47.24746" lon="4.9627">
        <ele>364.0725402832</ele>
        <time>2018-06-26T11:38:33+0200</time>
      </trkpt>
      <trkpt lat="47.24745" lon="4.9627">
        <ele>364.03942871094</ele>
        <time>2018-06-26T11:38:36+0200</time>
      </trkpt>
      <trkpt lat="47.24745" lon="4.9627">
        <ele>364.00531005859</ele>
        <time>2018-06-26T11:38:39+0200</time>
      </trkpt>
      <trkpt lat="47.24745" lon="4.9627">
        <ele>363.85879516602</ele>
        <time>2018-06-26T11:38:42+0200</time>
      </trkpt>
      <trkpt lat="47.24744" lon="4.96269">
        <ele>363.7067565918</ele>
        <time>2018-06-26T11:38:45+0200</time>
      </trkpt>
      <trkpt lat="47.24744" lon="4.9627">
        <ele>363.6708984375</ele>
        <time>2018-06-26T11:38:48+0200</time>
      </trkpt>
      <trkpt lat="47.24744" lon="4.96269">
        <ele>363.63562011719</ele>
        <time>2018-06-26T11:38:51+0200</time>
      </trkpt>
      <trkpt lat="47.24743" lon="4.96269">
        <ele>363.603515625</ele>
        <time>2018-06-26T11:38:54+0200</time>
      </trkpt>
      <trkpt lat="47.2474" lon="4.96267">
        <ele>363.30688476562</ele>
        <time>2018-06-26T11:38:57+0200</time>
      </trkpt>
      <trkpt lat="47.24738" lon="4.96265">
        <ele>363.04919433594</ele>
        <time>2018-06-26T11:39:00+0200</time>
      </trkpt>
      <trkpt lat="47.24738" lon="4.96264">
        <ele>362.72415161133</ele>
        <time>2018-06-26T11:39:03+0200</time>
      </trkpt>
      <trkpt lat="47.24736" lon="4.96264">
        <ele>362.34262084961</ele>
        <time>2018-06-26T11:39:06+0200</time>
      </trkpt>
      <trkpt lat="47.24734" lon="4.96262">
        <ele>362.08349609375</ele>
        <time>2018-06-26T11:39:09+0200</time>
      </trkpt>
      <trkpt lat="47.24731" lon="4.96261">
        <ele>361.74462890625</ele>
        <time>2018-06-26T11:39:12+0200</time>
      </trkpt>
      <trkpt lat="47.24729" lon="4.96262">
        <ele>361.4465637207</ele>
        <time>2018-06-26T11:39:15+0200</time>
      </trkpt>
      <trkpt lat="47.24727" lon="4.96262">
        <ele>361.29153442383</ele>
        <time>2018-06-26T11:39:18+0200</time>
      </trkpt>
      <trkpt lat="47.24726" lon="4.96261">
        <ele>361.15713500977</ele>
        <time>2018-06-26T11:39:21+0200</time>
      </trkpt>
      <trkpt lat="47.24725" lon="4.96259">
        <ele>361.01586914062</ele>
        <time>2018-06-26T11:39:24+0200</time>
      </trkpt>
      <trkpt lat="47.24725" lon="4.96258">
        <ele>360.9010925293</ele>
        <time>2018-06-26T11:39:27+0200</time>
      </trkpt>
      <trkpt lat="47.24725" lon="4.96257">
        <ele>360.57748413086</ele>
        <time>2018-06-26T11:39:30+0200</time>
      </trkpt>
      <trkpt lat="47.24723" lon="4.96254">
        <ele>360.22509765625</ele>
        <time>2018-06-26T11:39:33+0200</time>
      </trkpt>
      <trkpt lat="47.24722" lon="4.96254">
        <ele>359.97506713867</ele>
        <time>2018-06-26T11:39:36+0200</time>
      </trkpt>
      <trkpt lat="47.2472" lon="4.96253">
        <ele>359.63439941406</ele>
        <time>2018-06-26T11:39:39+0200</time>
      </trkpt>
      <trkpt lat="47.24721" lon="4.96254">
        <ele>359.4660949707</ele>
        <time>2018-06-26T11:39:42+0200</time>
      </trkpt>
      <trkpt lat="47.24721" lon="4.96253">
        <ele>359.41632080078</ele>
        <time>2018-06-26T11:39:45+0200</time>
      </trkpt>
      <trkpt lat="47.2472" lon="4.96253">
        <ele>359.35781860352</ele>
        <time>2018-06-26T11:39:48+0200</time>
      </trkpt>
      <trkpt lat="47.2472" lon="4.96253">
        <ele>359.30276489258</ele>
        <time>2018-06-26T11:39:51+0200</time>
      </trkpt>
      <trkpt lat="47.24719" lon="4.96254">
        <ele>359.04864501953</ele>
        <time>2018-06-26T11:39:54+0200</time>
      </trkpt>
      <trkpt lat="47.24718" lon="4.96254">
        <ele>358.40719604492</ele>
        <time>2018-06-26T11:39:57+0200</time>
      </trkpt>
      <trkpt lat="47.24718" lon="4.96254">
        <ele>358.3503112793</ele>
        <time>2018-06-26T11:40:00+0200</time>
      </trkpt>
      <trkpt lat="47.24719" lon="4.96253">
        <ele>357.8274230957</ele>
        <time>2018-06-26T11:40:03+0200</time>
      </trkpt>
      <trkpt lat="47.24716" lon="4.96252">
        <ele>357.51669311523</ele>
        <time>2018-06-26T11:40:06+0200</time>
      </trkpt>
      <trkpt lat="47.24714" lon="4.9625">
        <ele>357.14141845703</ele>
        <time>2018-06-26T11:40:09+0200</time>
      </trkpt>
      <trkpt lat="47.24713" lon="4.96248">
        <ele>356.77856445312</ele>
        <time>2018-06-26T11:40:12+0200</time>
      </trkpt>
      <trkpt lat="47.24713" lon="4.96248">
        <ele>356.44781494141</ele>
        <time>2018-06-26T11:40:15+0200</time>
      </trkpt>
      <trkpt lat="47.24711" lon="4.96246">
        <ele>356.25238037109</ele>
        <time>2018-06-26T11:40:18+0200</time>
      </trkpt>
      <trkpt lat="47.24711" lon="4.96244">
        <ele>355.95474243164</ele>
        <time>2018-06-26T11:40:21+0200</time>
      </trkpt>
      <trkpt lat="47.24711" lon="4.96244">
        <ele>355.92721557617</ele>
        <time>2018-06-26T11:40:24+0200</time>
      </trkpt>
      <trkpt lat="47.24711" lon="4.96244">
        <ele>355.89706420898</ele>
        <time>2018-06-26T11:40:27+0200</time>
      </trkpt>
      <trkpt lat="47.2471" lon="4.96242">
        <ele>355.65661621094</ele>
        <time>2018-06-26T11:40:30+0200</time>
      </trkpt>
      <trkpt lat="47.2471" lon="4.96241">
        <ele>355.42141723633</ele>
        <time>2018-06-26T11:40:33+0200</time>
      </trkpt>
      <trkpt lat="47.2471" lon="4.96241">
        <ele>355.14938354492</ele>
        <time>2018-06-26T11:40:36+0200</time>
      </trkpt>
      <trkpt lat="47.24709" lon="4.96239">
        <ele>354.90850830078</ele>
        <time>2018-06-26T11:40:39+0200</time>
      </trkpt>
      <trkpt lat="47.24708" lon="4.96238">
        <ele>354.73950195312</ele>
        <time>2018-06-26T11:40:42+0200</time>
      </trkpt>
      <trkpt lat="47.24707" lon="4.96238">
        <ele>354.5546875</ele>
        <time>2018-06-26T11:40:45+0200</time>
      </trkpt>
      <trkpt lat="47.24706" lon="4.96237">
        <ele>354.34896850586</ele>
        <time>2018-06-26T11:40:48+0200</time>
      </trkpt>
      <trkpt lat="47.24706" lon="4.96237">
        <ele>354.22912597656</ele>
        <time>2018-06-26T11:40:51+0200</time>
      </trkpt>
      <trkpt lat="47.24707" lon="4.96237">
        <ele>354.1901550293</ele>
        <time>2018-06-26T11:40:54+0200</time>
      </trkpt>
      <trkpt lat="47.24705" lon="4.96235">
        <ele>353.77423095703</ele>
        <time>2018-06-26T11:40:57+0200</time>
      </trkpt>
      <trkpt lat="47.24703" lon="4.96233">
        <ele>353.35873413086</ele>
        <time>2018-06-26T11:40:59+0200</time>
      </trkpt>
      <trkpt lat="47.24701" lon="4.96231">
        <ele>352.87051391602</ele>
        <time>2018-06-26T11:41:02+0200</time>
      </trkpt>
      <trkpt lat="47.24701" lon="4.96231">
        <ele>352.82269287109</ele>
        <time>2018-06-26T11:41:05+0200</time>
      </trkpt>
      <trkpt lat="47.24702" lon="4.96231">
        <ele>352.77523803711</ele>
        <time>2018-06-26T11:41:08+0200</time>
      </trkpt>
      <trkpt lat="47.24702" lon="4.96231">
        <ele>352.53375244141</ele>
        <time>2018-06-26T11:41:11+0200</time>
      </trkpt>
      <trkpt lat="47.24702" lon="4.96231">
        <ele>351.84426879883</ele>
        <time>2018-06-26T11:41:14+0200</time>
      </trkpt>
      <trkpt lat="47.24701" lon="4.9623">
        <ele>351.37048339844</ele>
        <time>2018-06-26T11:41:17+0200</time>
      </trkpt>
      <trkpt lat="47.247" lon="4.9623">
        <ele>350.65899658203</ele>
        <time>2018-06-26T11:41:20+0200</time>
      </trkpt>
      <trkpt lat="47.247" lon="4.96229">
        <ele>350.3551940918</ele>
        <time>2018-06-26T11:41:23+0200</time>
      </trkpt>
      <trkpt lat="47.247" lon="4.96229">
        <ele>349.51797485352</ele>
        <time>2018-06-26T11:41:26+0200</time>
      </trkpt>
      <trkpt lat="47.24699" lon="4.96229">
        <ele>348.71340942383</ele>
        <time>2018-06-26T11:41:29+0200</time>
      </trkpt>
      <trkpt lat="47.24695" lon="4.96228">
        <ele>347.97424316406</ele>
        <time>2018-06-26T11:41:32+0200</time>
      </trkpt>
      <trkpt lat="47.24692" lon="4.96227">
        <ele>347.48983764648</ele>
        <time>2018-06-26T11:41:35+0200</time>
      </trkpt>
      <trkpt lat="47.24692" lon="4.96227">
        <ele>347.42483520508</ele>
        <time>2018-06-26T11:41:38+0200</time>
      </trkpt>
      <trkpt lat="47.24689" lon="4.96224">
        <ele>346.84292602539</ele>
        <time>2018-06-26T11:41:41+0200</time>
      </trkpt>
      <trkpt lat="47.24688" lon="4.96222">
        <ele>346.46655273438</ele>
        <time>2018-06-26T11:41:44+0200</time>
      </trkpt>
      <trkpt lat="47.24685" lon="4.96218">
        <ele>345.96627807617</ele>
        <time>2018-06-26T11:41:47+0200</time>
      </trkpt>
      <trkpt lat="47.24682" lon="4.96215">
        <ele>345.505859375</ele>
        <time>2018-06-26T11:41:50+0200</time>
      </trkpt>
      <trkpt lat="47.2468" lon="4.96215">
        <ele>345.20010375977</ele>
        <time>2018-06-26T11:41:53+0200</time>
      </trkpt>
      <trkpt lat="47.24679" lon="4.96214">
        <ele>344.85052490234</ele>
        <time>2018-06-26T11:41:56+0200</time>
      </trkpt>
      <trkpt lat="47.24678" lon="4.96212">
        <ele>344.62417602539</ele>
        <time>2018-06-26T11:41:59+0200</time>
      </trkpt>
      <trkpt lat="47.24678" lon="4.96211">
        <ele>344.5022277832</ele>
        <time>2018-06-26T11:42:02+0200</time>
      </trkpt>
      <trkpt lat="47.24676" lon="4.96206">
        <ele>344.34436035156</ele>
        <time>2018-06-26T11:42:05+0200</time>
      </trkpt>
      <trkpt lat="47.24676" lon="4.96205">
        <ele>344.27359008789</ele>
        <time>2018-06-26T11:42:08+0200</time>
      </trkpt>
      <trkpt lat="47.24675" lon="4.96203">
        <ele>344.13107299805</ele>
        <time>2018-06-26T11:42:11+0200</time>
      </trkpt>
      <trkpt lat="47.24673" lon="4.962">
        <ele>344.09545898438</ele>
        <time>2018-06-26T11:42:14+0200</time>
      </trkpt>
      <trkpt lat="47.2467" lon="4.96195">
        <ele>344.01690673828</ele>
        <time>2018-06-26T11:42:17+0200</time>
      </trkpt>
      <trkpt lat="47.2467" lon="4.96194">
        <ele>344.01177978516</ele>
        <time>2018-06-26T11:42:20+0200</time>
      </trkpt>
      <trkpt lat="47.24669" lon="4.96191">
        <ele>343.95962524414</ele>
        <time>2018-06-26T11:42:23+0200</time>
      </trkpt>
      <trkpt lat="47.24669" lon="4.9619">
        <ele>343.83264160156</ele>
        <time>2018-06-26T11:42:26+0200</time>
      </trkpt>
      <trkpt lat="47.24668" lon="4.96187">
        <ele>343.66516113281</ele>
        <time>2018-06-26T11:42:29+0200</time>
      </trkpt>
      <trkpt lat="47.24667" lon="4.96183">
        <ele>343.50051879883</ele>
        <time>2018-06-26T11:42:32+0200</time>
      </trkpt>
      <trkpt lat="47.24666" lon="4.9618">
        <ele>343.35015869141</ele>
        <time>2018-06-26T11:42:35+0200</time>
      </trkpt>
      <trkpt lat="47.24666" lon="4.96179">
        <ele>343.26943969727</ele>
        <time>2018-06-26T11:42:38+0200</time>
      </trkpt>
      <trkpt lat="47.24665" lon="4.96176">
        <ele>343.18591308594</ele>
        <time>2018-06-26T11:42:41+0200</time>
      </trkpt>
      <trkpt lat="47.24664" lon="4.96173">
        <ele>343.07974243164</ele>
        <time>2018-06-26T11:42:44+0200</time>
      </trkpt>
      <trkpt lat="47.24664" lon="4.96172">
        <ele>342.99890136719</ele>
        <time>2018-06-26T11:42:47+0200</time>
      </trkpt>
      <trkpt lat="47.24665" lon="4.96169">
        <ele>342.94827270508</ele>
        <time>2018-06-26T11:42:50+0200</time>
      </trkpt>
      <trkpt lat="47.24665" lon="4.96168">
        <ele>342.93411254883</ele>
        <time>2018-06-26T11:42:53+0200</time>
      </trkpt>
      <trkpt lat="47.24665" lon="4.96167">
        <ele>342.86483764648</ele>
        <time>2018-06-26T11:42:56+0200</time>
      </trkpt>
      <trkpt lat="47.24666" lon="4.96166">
        <ele>342.7014465332</ele>
        <time>2018-06-26T11:42:59+0200</time>
      </trkpt>
      <trkpt lat="47.24666" lon="4.96165">
        <ele>342.58801269531</ele>
        <time>2018-06-26T11:43:02+0200</time>
      </trkpt>
      <trkpt lat="47.24666" lon="4.96163">
        <ele>342.28512573242</ele>
        <time>2018-06-26T11:43:05+0200</time>
      </trkpt>
      <trkpt lat="47.24666" lon="4.96161">
        <ele>342.064453125</ele>
        <time>2018-06-26T11:43:08+0200</time>
      </trkpt>
      <trkpt lat="47.24665" lon="4.96157">
        <ele>341.73052978516</ele>
        <time>2018-06-26T11:43:11+0200</time>
      </trkpt>
      <trkpt lat="47.24666" lon="4.96155">
        <ele>341.36294555664</ele>
        <time>2018-06-26T11:43:14+0200</time>
      </trkpt>
      <trkpt lat="47.24665" lon="4.96153">
        <ele>341.05584716797</ele>
        <time>2018-06-26T11:43:17+0200</time>
      </trkpt>
      <trkpt lat="47.24664" lon="4.96153">
        <ele>340.57080078125</ele>
        <time>2018-06-26T11:43:20+0200</time>
      </trkpt>
      <trkpt lat="47.24661" lon="4.96151">
        <ele>340.04763793945</ele>
        <time>2018-06-26T11:43:23+0200</time>
      </trkpt>
      <trkpt lat="47.24658" lon="4.9615">
        <ele>339.49670410156</ele>
        <time>2018-06-26T11:43:26+0200</time>
      </trkpt>
      <trkpt lat="47.24656" lon="4.96149">
        <ele>338.94274902344</ele>
        <time>2018-06-26T11:43:29+0200</time>
      </trkpt>
      <trkpt lat="47.24654" lon="4.96148">
        <ele>338.40542602539</ele>
        <time>2018-06-26T11:43:32+0200</time>
      </trkpt>
      <trkpt lat="47.24653" lon="4.96147">
        <ele>337.86416625977</ele>
        <time>2018-06-26T11:43:35+0200</time>
      </trkpt>
      <trkpt lat="47.24651" lon="4.96146">
        <ele>337.33697509766</ele>
        <time>2018-06-26T11:43:38+0200</time>
      </trkpt>
      <trkpt lat="47.24648" lon="4.96144">
        <ele>336.80181884766</ele>
        <time>2018-06-26T11:43:41+0200</time>
      </trkpt>
      <trkpt lat="47.24645" lon="4.96143">
        <ele>336.30725097656</ele>
        <time>2018-06-26T11:43:44+0200</time>
      </trkpt>
      <trkpt lat="47.24643" lon="4.96142">
        <ele>335.84634399414</ele>
        <time>2018-06-26T11:43:47+0200</time>
      </trkpt>
      <trkpt lat="47.24641" lon="4.96142">
        <ele>335.43856811523</ele>
        <time>2018-06-26T11:43:50+0200</time>
      </trkpt>
      <trkpt lat="47.2464" lon="4.96141">
        <ele>335.0530090332</ele>
        <time>2018-06-26T11:43:53+0200</time>
      </trkpt>
      <trkpt lat="47.2464" lon="4.96141">
        <ele>334.91555786133</ele>
        <time>2018-06-26T11:43:56+0200</time>
      </trkpt>
      <trkpt lat="47.24639" lon="4.9614">
        <ele>334.625</ele>
        <time>2018-06-26T11:43:59+0200</time>
      </trkpt>
      <trkpt lat="47.24638" lon="4.9614">
        <ele>334.40643310547</ele>
        <time>2018-06-26T11:44:02+0200</time>
      </trkpt>
      <trkpt lat="47.24639" lon="4.96141">
        <ele>334.10089111328</ele>
        <time>2018-06-26T11:44:05+0200</time>
      </trkpt>
      <trkpt lat="47.24639" lon="4.96141">
        <ele>334.07870483398</ele>
        <time>2018-06-26T11:44:08+0200</time>
      </trkpt>
      <trkpt lat="47.24638" lon="4.96144">
        <ele>333.90661621094</ele>
        <time>2018-06-26T11:44:11+0200</time>
      </trkpt>
      <trkpt lat="47.24637" lon="4.96146">
        <ele>333.85189819336</ele>
        <time>2018-06-26T11:44:14+0200</time>
      </trkpt>
      <trkpt lat="47.24633" lon="4.96149">
        <ele>333.7868347168</ele>
        <time>2018-06-26T11:44:17+0200</time>
      </trkpt>
      <trkpt lat="47.24631" lon="4.96152">
        <ele>333.74252319336</ele>
        <time>2018-06-26T11:44:20+0200</time>
      </trkpt>
      <trkpt lat="47.24629" lon="4.96153">
        <ele>333.72833251953</ele>
        <time>2018-06-26T11:44:23+0200</time>
      </trkpt>
      <trkpt lat="47.24627" lon="4.96154">
        <ele>333.75308227539</ele>
        <time>2018-06-26T11:44:26+0200</time>
      </trkpt>
      <trkpt lat="47.24627" lon="4.96153">
        <ele>333.76428222656</ele>
        <time>2018-06-26T11:44:29+0200</time>
      </trkpt>
      <trkpt lat="47.24627" lon="4.96154">
        <ele>333.78091430664</ele>
        <time>2018-06-26T11:44:32+0200</time>
      </trkpt>
      <trkpt lat="47.24627" lon="4.96156">
        <ele>334.04168701172</ele>
        <time>2018-06-26T11:44:35+0200</time>
      </trkpt>
      <trkpt lat="47.24624" lon="4.96158">
        <ele>334.22030639648</ele>
        <time>2018-06-26T11:44:38+0200</time>
      </trkpt>
      <trkpt lat="47.24624" lon="4.96159">
        <ele>334.31915283203</ele>
        <time>2018-06-26T11:44:41+0200</time>
      </trkpt>
      <trkpt lat="47.24622" lon="4.96161">
        <ele>334.46981811523</ele>
        <time>2018-06-26T11:44:44+0200</time>
      </trkpt>
      <trkpt lat="47.24622" lon="4.96162">
        <ele>334.68399047852</ele>
        <time>2018-06-26T11:44:47+0200</time>
      </trkpt>
      <trkpt lat="47.24622" lon="4.96163">
        <ele>334.80438232422</ele>
        <time>2018-06-26T11:44:50+0200</time>
      </trkpt>
      <trkpt lat="47.24621" lon="4.96164">
        <ele>334.95416259766</ele>
        <time>2018-06-26T11:44:53+0200</time>
      </trkpt>
      <trkpt lat="47.24621" lon="4.96165">
        <ele>335.09027099609</ele>
        <time>2018-06-26T11:44:56+0200</time>
      </trkpt>
      <trkpt lat="47.24619" lon="4.96169">
        <ele>335.23278808594</ele>
        <time>2018-06-26T11:44:59+0200</time>
      </trkpt>
      <trkpt lat="47.24618" lon="4.96172">
        <ele>335.37030029297</ele>
        <time>2018-06-26T11:45:02+0200</time>
      </trkpt>
      <trkpt lat="47.24617" lon="4.96176">
        <ele>335.51736450195</ele>
        <time>2018-06-26T11:45:05+0200</time>
      </trkpt>
      <trkpt lat="47.24616" lon="4.96178">
        <ele>335.6003112793</ele>
        <time>2018-06-26T11:45:08+0200</time>
      </trkpt>
      <trkpt lat="47.24616" lon="4.96181">
        <ele>335.71221923828</ele>
        <time>2018-06-26T11:45:11+0200</time>
      </trkpt>
      <trkpt lat="47.24616" lon="4.96184">
        <ele>335.77813720703</ele>
        <time>2018-06-26T11:45:14+0200</time>
      </trkpt>
      <trkpt lat="47.24615" lon="4.96186">
        <ele>335.89172363281</ele>
        <time>2018-06-26T11:45:17+0200</time>
      </trkpt>
      <trkpt lat="47.24614" lon="4.96189">
        <ele>336.00286865234</ele>
        <time>2018-06-26T11:45:20+0200</time>
      </trkpt>
      <trkpt lat="47.24613" lon="4.96192">
        <ele>336.14318847656</ele>
        <time>2018-06-26T11:45:23+0200</time>
      </trkpt>
      <trkpt lat="47.24613" lon="4.96195">
        <ele>336.34967041016</ele>
        <time>2018-06-26T11:45:26+0200</time>
      </trkpt>
      <trkpt lat="47.24613" lon="4.962">
        <ele>336.5153503418</ele>
        <time>2018-06-26T11:45:29+0200</time>
      </trkpt>
      <trkpt lat="47.24612" lon="4.96204">
        <ele>336.67489624023</ele>
        <time>2018-06-26T11:45:32+0200</time>
      </trkpt>
      <trkpt lat="47.24611" lon="4.96207">
        <ele>336.76034545898</ele>
        <time>2018-06-26T11:45:35+0200</time>
      </trkpt>
      <trkpt lat="47.24611" lon="4.96212">
        <ele>336.94351196289</ele>
        <time>2018-06-26T11:45:38+0200</time>
      </trkpt>
      <trkpt lat="47.24611" lon="4.96216">
        <ele>337.12280273438</ele>
        <time>2018-06-26T11:45:41+0200</time>
      </trkpt>
      <trkpt lat="47.24611" lon="4.9622">
        <ele>337.240234375</ele>
        <time>2018-06-26T11:45:44+0200</time>
      </trkpt>
      <trkpt lat="47.24611" lon="4.96223">
        <ele>337.2741394043</ele>
        <time>2018-06-26T11:45:47+0200</time>
      </trkpt>
      <trkpt lat="47.24611" lon="4.96225">
        <ele>337.25857543945</ele>
        <time>2018-06-26T11:45:50+0200</time>
      </trkpt>
      <trkpt lat="47.2461" lon="4.9623">
        <ele>337.21966552734</ele>
        <time>2018-06-26T11:45:53+0200</time>
      </trkpt>
      <trkpt lat="47.24609" lon="4.96234">
        <ele>337.13482666016</ele>
        <time>2018-06-26T11:45:56+0200</time>
      </trkpt>
      <trkpt lat="47.24608" lon="4.96238">
        <ele>337.0495300293</ele>
        <time>2018-06-26T11:45:59+0200</time>
      </trkpt>
      <trkpt lat="47.24608" lon="4.96239">
        <ele>336.9856262207</ele>
        <time>2018-06-26T11:46:02+0200</time>
      </trkpt>
      <trkpt lat="47.24607" lon="4.96241">
        <ele>336.99594116211</ele>
        <time>2018-06-26T11:46:05+0200</time>
      </trkpt>
      <trkpt lat="47.24606" lon="4.96242">
        <ele>337.09265136719</ele>
        <time>2018-06-26T11:46:08+0200</time>
      </trkpt>
      <trkpt lat="47.24605" lon="4.96245">
        <ele>337.28469848633</ele>
        <time>2018-06-26T11:46:11+0200</time>
      </trkpt>
      <trkpt lat="47.24604" lon="4.96249">
        <ele>337.52709960938</ele>
        <time>2018-06-26T11:46:14+0200</time>
      </trkpt>
      <trkpt lat="47.24603" lon="4.96252">
        <ele>337.79159545898</ele>
        <time>2018-06-26T11:46:17+0200</time>
      </trkpt>
      <trkpt lat="47.24601" lon="4.96255">
        <ele>338.08102416992</ele>
        <time>2018-06-26T11:46:20+0200</time>
      </trkpt>
      <trkpt lat="47.246" lon="4.96258">
        <ele>338.3239440918</ele>
        <time>2018-06-26T11:46:23+0200</time>
      </trkpt>
      <trkpt lat="47.24599" lon="4.96261">
        <ele>338.5576171875</ele>
        <time>2018-06-26T11:46:26+0200</time>
      </trkpt>
      <trkpt lat="47.24598" lon="4.96263">
        <ele>338.73651123047</ele>
        <time>2018-06-26T11:46:29+0200</time>
      </trkpt>
      <trkpt lat="47.24597" lon="4.96268">
        <ele>338.94073486328</ele>
        <time>2018-06-26T11:46:32+0200</time>
      </trkpt>
      <trkpt lat="47.24595" lon="4.96271">
        <ele>339.07763671875</ele>
        <time>2018-06-26T11:46:35+0200</time>
      </trkpt>
      <trkpt lat="47.24594" lon="4.96276">
        <ele>339.13513183594</ele>
        <time>2018-06-26T11:46:38+0200</time>
      </trkpt>
      <trkpt lat="47.24593" lon="4.9628">
        <ele>339.14053344727</ele>
        <time>2018-06-26T11:46:41+0200</time>
      </trkpt>
      <trkpt lat="47.24592" lon="4.96285">
        <ele>339.0979309082</ele>
        <time>2018-06-26T11:46:44+0200</time>
      </trkpt>
      <trkpt lat="47.2459" lon="4.96291">
        <ele>339.04150390625</ele>
        <time>2018-06-26T11:46:47+0200</time>
      </trkpt>
      <trkpt lat="47.2459" lon="4.96293">
        <ele>338.94650268555</ele>
        <time>2018-06-26T11:46:50+0200</time>
      </trkpt>
      <trkpt lat="47.24589" lon="4.96297">
        <ele>338.9140625</ele>
        <time>2018-06-26T11:46:53+0200</time>
      </trkpt>
      <trkpt lat="47.24589" lon="4.96301">
        <ele>338.93405151367</ele>
        <time>2018-06-26T11:46:56+0200</time>
      </trkpt>
      <trkpt lat="47.24588" lon="4.96304">
        <ele>338.97991943359</ele>
        <time>2018-06-26T11:46:59+0200</time>
      </trkpt>
      <trkpt lat="47.24588" lon="4.96311">
        <ele>339.04937744141</ele>
        <time>2018-06-26T11:47:02+0200</time>
      </trkpt>
      <trkpt lat="47.24588" lon="4.96314">
        <ele>339.10290527344</ele>
        <time>2018-06-26T11:47:05+0200</time>
      </trkpt>
      <trkpt lat="47.24588" lon="4.96317">
        <ele>339.18865966797</ele>
        <time>2018-06-26T11:47:08+0200</time>
      </trkpt>
      <trkpt lat="47.24588" lon="4.9632">
        <ele>339.26876831055</ele>
        <time>2018-06-26T11:47:11+0200</time>
      </trkpt>
      <trkpt lat="47.24587" lon="4.96322">
        <ele>339.39736938477</ele>
        <time>2018-06-26T11:47:14+0200</time>
      </trkpt>
      <trkpt lat="47.24587" lon="4.96324">
        <ele>339.60385131836</ele>
        <time>2018-06-26T11:47:17+0200</time>
      </trkpt>
      <trkpt lat="47.24587" lon="4.96326">
        <ele>339.83309936523</ele>
        <time>2018-06-26T11:47:20+0200</time>
      </trkpt>
      <trkpt lat="47.24587" lon="4.96331">
        <ele>340.04632568359</ele>
        <time>2018-06-26T11:47:23+0200</time>
      </trkpt>
      <trkpt lat="47.24586" lon="4.96339">
        <ele>340.15344238281</ele>
        <time>2018-06-26T11:47:26+0200</time>
      </trkpt>
      <trkpt lat="47.24584" lon="4.96344">
        <ele>340.13812255859</ele>
        <time>2018-06-26T11:47:29+0200</time>
      </trkpt>
      <trkpt lat="47.24583" lon="4.96349">
        <ele>340.08999633789</ele>
        <time>2018-06-26T11:47:32+0200</time>
      </trkpt>
      <trkpt lat="47.24583" lon="4.96355">
        <ele>340.03204345703</ele>
        <time>2018-06-26T11:47:35+0200</time>
      </trkpt>
      <trkpt lat="47.24583" lon="4.96358">
        <ele>339.96063232422</ele>
        <time>2018-06-26T11:47:38+0200</time>
      </trkpt>
      <trkpt lat="47.24584" lon="4.96361">
        <ele>339.90771484375</ele>
        <time>2018-06-26T11:47:41+0200</time>
      </trkpt>
      <trkpt lat="47.24584" lon="4.96364">
        <ele>339.87741088867</ele>
        <time>2018-06-26T11:47:44+0200</time>
      </trkpt>
      <trkpt lat="47.24585" lon="4.96365">
        <ele>339.88027954102</ele>
        <time>2018-06-26T11:47:47+0200</time>
      </trkpt>
      <trkpt lat="47.24586" lon="4.96367">
        <ele>339.93600463867</ele>
        <time>2018-06-26T11:47:50+0200</time>
      </trkpt>
      <trkpt lat="47.24586" lon="4.96367">
        <ele>340.0221862793</ele>
        <time>2018-06-26T11:47:53+0200</time>
      </trkpt>
      <trkpt lat="47.24586" lon="4.9637">
        <ele>340.15411376953</ele>
        <time>2018-06-26T11:47:56+0200</time>
      </trkpt>
      <trkpt lat="47.24586" lon="4.96377">
        <ele>340.34033203125</ele>
        <time>2018-06-26T11:47:59+0200</time>
      </trkpt>
      <trkpt lat="47.24587" lon="4.9638">
        <ele>340.48596191406</ele>
        <time>2018-06-26T11:48:02+0200</time>
      </trkpt>
      <trkpt lat="47.24588" lon="4.96381">
        <ele>340.69592285156</ele>
        <time>2018-06-26T11:48:05+0200</time>
      </trkpt>
      <trkpt lat="47.24588" lon="4.96385">
        <ele>340.92324829102</ele>
        <time>2018-06-26T11:48:08+0200</time>
      </trkpt>
      <trkpt lat="47.24588" lon="4.96391">
        <ele>341.13967895508</ele>
        <time>2018-06-26T11:48:11+0200</time>
      </trkpt>
      <trkpt lat="47.24589" lon="4.96396">
        <ele>341.36236572266</ele>
        <time>2018-06-26T11:48:14+0200</time>
      </trkpt>
      <trkpt lat="47.2459" lon="4.964">
        <ele>341.58316040039</ele>
        <time>2018-06-26T11:48:17+0200</time>
      </trkpt>
      <trkpt lat="47.2459" lon="4.96404">
        <ele>341.78143310547</ele>
        <time>2018-06-26T11:48:20+0200</time>
      </trkpt>
      <trkpt lat="47.2459" lon="4.96406">
        <ele>341.97061157227</ele>
        <time>2018-06-26T11:48:23+0200</time>
      </trkpt>
      <trkpt lat="47.2459" lon="4.96407">
        <ele>342.18579101562</ele>
        <time>2018-06-26T11:48:26+0200</time>
      </trkpt>
      <trkpt lat="47.2459" lon="4.96412">
        <ele>342.38717651367</ele>
        <time>2018-06-26T11:48:29+0200</time>
      </trkpt>
      <trkpt lat="47.2459" lon="4.96416">
        <ele>342.72866821289</ele>
        <time>2018-06-26T11:48:32+0200</time>
      </trkpt>
      <trkpt lat="47.24589" lon="4.9642">
        <ele>343.05661010742</ele>
        <time>2018-06-26T11:48:35+0200</time>
      </trkpt>
      <trkpt lat="47.24588" lon="4.96425">
        <ele>343.41928100586</ele>
        <time>2018-06-26T11:48:38+0200</time>
      </trkpt>
      <trkpt lat="47.24588" lon="4.96431">
        <ele>343.81143188477</ele>
        <time>2018-06-26T11:48:41+0200</time>
      </trkpt>
      <trkpt lat="47.24587" lon="4.96435">
        <ele>344.16818237305</ele>
        <time>2018-06-26T11:48:44+0200</time>
      </trkpt>
      <trkpt lat="47.24584" lon="4.96439">
        <ele>344.44763183594</ele>
        <time>2018-06-26T11:48:47+0200</time>
      </trkpt>
      <trkpt lat="47.24582" lon="4.96447">
        <ele>344.59005737305</ele>
        <time>2018-06-26T11:48:50+0200</time>
      </trkpt>
      <trkpt lat="47.2458" lon="4.96453">
        <ele>344.62371826172</ele>
        <time>2018-06-26T11:48:53+0200</time>
      </trkpt>
      <trkpt lat="47.24579" lon="4.96458">
        <ele>344.57550048828</ele>
        <time>2018-06-26T11:48:56+0200</time>
      </trkpt>
      <trkpt lat="47.24577" lon="4.96465">
        <ele>344.42132568359</ele>
        <time>2018-06-26T11:48:59+0200</time>
      </trkpt>
      <trkpt lat="47.24577" lon="4.96472">
        <ele>344.09310913086</ele>
        <time>2018-06-26T11:49:02+0200</time>
      </trkpt>
      <trkpt lat="47.24578" lon="4.96479">
        <ele>343.64212036133</ele>
        <time>2018-06-26T11:49:05+0200</time>
      </trkpt>
      <trkpt lat="47.24578" lon="4.96484">
        <ele>343.11343383789</ele>
        <time>2018-06-26T11:49:08+0200</time>
      </trkpt>
      <trkpt lat="47.24578" lon="4.96487">
        <ele>342.56188964844</ele>
        <time>2018-06-26T11:49:11+0200</time>
      </trkpt>
      <trkpt lat="47.24578" lon="4.96489">
        <ele>341.99011230469</ele>
        <time>2018-06-26T11:49:14+0200</time>
      </trkpt>
      <trkpt lat="47.24578" lon="4.96492">
        <ele>341.40646362305</ele>
        <time>2018-06-26T11:49:17+0200</time>
      </trkpt>
      <trkpt lat="47.24577" lon="4.96495">
        <ele>340.81887817383</ele>
        <time>2018-06-26T11:49:20+0200</time>
      </trkpt>
      <trkpt lat="47.24577" lon="4.96497">
        <ele>340.21755981445</ele>
        <time>2018-06-26T11:49:23+0200</time>
      </trkpt>
      <trkpt lat="47.24577" lon="4.96501">
        <ele>339.62738037109</ele>
        <time>2018-06-26T11:49:26+0200</time>
      </trkpt>
      <trkpt lat="47.24576" lon="4.96505">
        <ele>339.04602050781</ele>
        <time>2018-06-26T11:49:29+0200</time>
      </trkpt>
      <trkpt lat="47.24575" lon="4.96508">
        <ele>338.46096801758</ele>
        <time>2018-06-26T11:49:32+0200</time>
      </trkpt>
      <trkpt lat="47.24574" lon="4.9651">
        <ele>337.88973999023</ele>
        <time>2018-06-26T11:49:35+0200</time>
      </trkpt>
      <trkpt lat="47.24574" lon="4.96512">
        <ele>337.38339233398</ele>
        <time>2018-06-26T11:49:38+0200</time>
      </trkpt>
      <trkpt lat="47.24573" lon="4.96514">
        <ele>336.92672729492</ele>
        <time>2018-06-26T11:49:41+0200</time>
      </trkpt>
      <trkpt lat="47.24573" lon="4.96516">
        <ele>336.5185546875</ele>
        <time>2018-06-26T11:49:44+0200</time>
      </trkpt>
      <trkpt lat="47.24573" lon="4.96518">
        <ele>336.13763427734</ele>
        <time>2018-06-26T11:49:47+0200</time>
      </trkpt>
      <trkpt lat="47.24573" lon="4.96523">
        <ele>335.93322753906</ele>
        <time>2018-06-26T11:49:50+0200</time>
      </trkpt>
      <trkpt lat="47.24572" lon="4.9653">
        <ele>335.82427978516</ele>
        <time>2018-06-26T11:49:53+0200</time>
      </trkpt>
      <trkpt lat="47.24572" lon="4.96533">
        <ele>335.767578125</ele>
        <time>2018-06-26T11:49:56+0200</time>
      </trkpt>
      <trkpt lat="47.24572" lon="4.96537">
        <ele>335.78045654297</ele>
        <time>2018-06-26T11:49:59+0200</time>
      </trkpt>
      <trkpt lat="47.24573" lon="4.96541">
        <ele>335.77767944336</ele>
        <time>2018-06-26T11:50:02+0200</time>
      </trkpt>
      <trkpt lat="47.24574" lon="4.96545">
        <ele>335.75177001953</ele>
        <time>2018-06-26T11:50:05+0200</time>
      </trkpt>
      <trkpt lat="47.24575" lon="4.96549">
        <ele>335.71948242188</ele>
        <time>2018-06-26T11:50:08+0200</time>
      </trkpt>
      <trkpt lat="47.24576" lon="4.96552">
        <ele>335.63919067383</ele>
        <time>2018-06-26T11:50:11+0200</time>
      </trkpt>
      <trkpt lat="47.24578" lon="4.96556">
        <ele>335.51205444336</ele>
        <time>2018-06-26T11:50:14+0200</time>
      </trkpt>
      <trkpt lat="47.24579" lon="4.96558">
        <ele>335.32534790039</ele>
        <time>2018-06-26T11:50:17+0200</time>
      </trkpt>
      <trkpt lat="47.24579" lon="4.96559">
        <ele>335.14828491211</ele>
        <time>2018-06-26T11:50:20+0200</time>
      </trkpt>
      <trkpt lat="47.24579" lon="4.96565">
        <ele>334.9475402832</ele>
        <time>2018-06-26T11:50:23+0200</time>
      </trkpt>
      <trkpt lat="47.2458" lon="4.96567">
        <ele>334.47235107422</ele>
        <time>2018-06-26T11:50:26+0200</time>
      </trkpt>
      <trkpt lat="47.24579" lon="4.96567">
        <ele>334.12115478516</ele>
        <time>2018-06-26T11:50:29+0200</time>
      </trkpt>
      <trkpt lat="47.24578" lon="4.96568">
        <ele>333.8991394043</ele>
        <time>2018-06-26T11:50:32+0200</time>
      </trkpt>
      <trkpt lat="47.24578" lon="4.96568">
        <ele>333.84243774414</ele>
        <time>2018-06-26T11:50:35+0200</time>
      </trkpt>
      <trkpt lat="47.24578" lon="4.96568">
        <ele>333.78323364258</ele>
        <time>2018-06-26T11:50:38+0200</time>
      </trkpt>
      <trkpt lat="47.24578" lon="4.96568">
        <ele>333.72869873047</ele>
        <time>2018-06-26T11:50:41+0200</time>
      </trkpt>
      <trkpt lat="47.24577" lon="4.96569">
        <ele>333.21136474609</ele>
        <time>2018-06-26T11:50:44+0200</time>
      </trkpt>
      <trkpt lat="47.24574" lon="4.9657">
        <ele>332.77352905273</ele>
        <time>2018-06-26T11:50:47+0200</time>
      </trkpt>
      <trkpt lat="47.24569" lon="4.96571">
        <ele>332.38433837891</ele>
        <time>2018-06-26T11:50:50+0200</time>
      </trkpt>
      <trkpt lat="47.24565" lon="4.96572">
        <ele>331.99304199219</ele>
        <time>2018-06-26T11:50:53+0200</time>
      </trkpt>
      <trkpt lat="47.24563" lon="4.96574">
        <ele>331.69448852539</ele>
        <time>2018-06-26T11:50:56+0200</time>
      </trkpt>
      <trkpt lat="47.2456" lon="4.96579">
        <ele>331.23226928711</ele>
        <time>2018-06-26T11:50:59+0200</time>
      </trkpt>
      <trkpt lat="47.24558" lon="4.96586">
        <ele>330.79791259766</ele>
        <time>2018-06-26T11:51:02+0200</time>
      </trkpt>
      <trkpt lat="47.24558" lon="4.96589">
        <ele>330.49362182617</ele>
        <time>2018-06-26T11:51:05+0200</time>
      </trkpt>
      <trkpt lat="47.24558" lon="4.96589">
        <ele>330.45309448242</ele>
        <time>2018-06-26T11:51:08+0200</time>
      </trkpt>
      <trkpt lat="47.24557" lon="4.9659">
        <ele>330.41424560547</ele>
        <time>2018-06-26T11:51:11+0200</time>
      </trkpt>
      <trkpt lat="47.24557" lon="4.9659">
        <ele>330.3694152832</ele>
        <time>2018-06-26T11:51:14+0200</time>
      </trkpt>
      <trkpt lat="47.24557" lon="4.9659">
        <ele>330.31915283203</ele>
        <time>2018-06-26T11:51:17+0200</time>
      </trkpt>
      <trkpt lat="47.24557" lon="4.9659">
        <ele>330.26583862305</ele>
        <time>2018-06-26T11:51:20+0200</time>
      </trkpt>
      <trkpt lat="47.24557" lon="4.9659">
        <ele>330.21286010742</ele>
        <time>2018-06-26T11:51:23+0200</time>
      </trkpt>
      <trkpt lat="47.24558" lon="4.96591">
        <ele>330.00814819336</ele>
        <time>2018-06-26T11:51:26+0200</time>
      </trkpt>
      <trkpt lat="47.24558" lon="4.96592">
        <ele>329.6452331543</ele>
        <time>2018-06-26T11:51:29+0200</time>
      </trkpt>
      <trkpt lat="47.24558" lon="4.96597">
        <ele>329.12240600586</ele>
        <time>2018-06-26T11:51:32+0200</time>
      </trkpt>
      <trkpt lat="47.24557" lon="4.966">
        <ele>328.91482543945</ele>
        <time>2018-06-26T11:51:35+0200</time>
      </trkpt>
      <trkpt lat="47.24557" lon="4.96599">
        <ele>328.86331176758</ele>
        <time>2018-06-26T11:51:38+0200</time>
      </trkpt>
      <trkpt lat="47.24557" lon="4.96599">
        <ele>328.81686401367</ele>
        <time>2018-06-26T11:51:41+0200</time>
      </trkpt>
      <trkpt lat="47.24557" lon="4.96599">
        <ele>328.77725219727</ele>
        <time>2018-06-26T11:51:44+0200</time>
      </trkpt>
      <trkpt lat="47.24557" lon="4.96599">
        <ele>328.74197387695</ele>
        <time>2018-06-26T11:51:47+0200</time>
      </trkpt>
      <trkpt lat="47.24557" lon="4.96599">
        <ele>328.7060546875</ele>
        <time>2018-06-26T11:51:50+0200</time>
      </trkpt>
      <trkpt lat="47.24557" lon="4.96599">
        <ele>328.66748046875</ele>
        <time>2018-06-26T11:51:53+0200</time>
      </trkpt>
      <trkpt lat="47.24557" lon="4.96599">
        <ele>328.62716674805</ele>
        <time>2018-06-26T11:51:56+0200</time>
      </trkpt>
      <trkpt lat="47.24557" lon="4.96599">
        <ele>328.58709716797</ele>
        <time>2018-06-26T11:51:59+0200</time>
      </trkpt>
      <trkpt lat="47.24558" lon="4.96599">
        <ele>328.54864501953</ele>
        <time>2018-06-26T11:52:02+0200</time>
      </trkpt>
      <trkpt lat="47.24558" lon="4.96599">
        <ele>328.51245117188</ele>
        <time>2018-06-26T11:52:05+0200</time>
      </trkpt>
      <trkpt lat="47.24558" lon="4.966">
        <ele>328.47918701172</ele>
        <time>2018-06-26T11:52:08+0200</time>
      </trkpt>
      <trkpt lat="47.24558" lon="4.966">
        <ele>328.44943237305</ele>
        <time>2018-06-26T11:52:11+0200</time>
      </trkpt>
      <trkpt lat="47.24558" lon="4.966">
        <ele>328.4228515625</ele>
        <time>2018-06-26T11:52:14+0200</time>
      </trkpt>
      <trkpt lat="47.24558" lon="4.966">
        <ele>328.39791870117</ele>
        <time>2018-06-26T11:52:17+0200</time>
      </trkpt>
      <trkpt lat="47.24558" lon="4.966">
        <ele>328.37377929688</ele>
        <time>2018-06-26T11:52:20+0200</time>
      </trkpt>
      <trkpt lat="47.24558" lon="4.966">
        <ele>328.35073852539</ele>
        <time>2018-06-26T11:52:23+0200</time>
      </trkpt>
      <trkpt lat="47.24558" lon="4.966">
        <ele>328.32806396484</ele>
        <time>2018-06-26T11:52:26+0200</time>
      </trkpt>
      <trkpt lat="47.24558" lon="4.966">
        <ele>328.30184936523</ele>
        <time>2018-06-26T11:52:29+0200</time>
      </trkpt>
      <trkpt lat="47.24558" lon="4.966">
        <ele>328.27166748047</ele>
        <time>2018-06-26T11:52:32+0200</time>
      </trkpt>
      <trkpt lat="47.24558" lon="4.96601">
        <ele>328.2346496582</ele>
        <time>2018-06-26T11:52:35+0200</time>
      </trkpt>
      <trkpt lat="47.24558" lon="4.96601">
        <ele>328.19393920898</ele>
        <time>2018-06-26T11:52:38+0200</time>
      </trkpt>
      <trkpt lat="47.24558" lon="4.96601">
        <ele>328.15219116211</ele>
        <time>2018-06-26T11:52:41+0200</time>
      </trkpt>
      <trkpt lat="47.24558" lon="4.96601">
        <ele>328.10693359375</ele>
        <time>2018-06-26T11:52:44+0200</time>
      </trkpt>
      <trkpt lat="47.24558" lon="4.96601">
        <ele>328.05776977539</ele>
        <time>2018-06-26T11:52:47+0200</time>
      </trkpt>
      <trkpt lat="47.24558" lon="4.96601">
        <ele>328.01342773438</ele>
        <time>2018-06-26T11:52:50+0200</time>
      </trkpt>
      <trkpt lat="47.24558" lon="4.96601">
        <ele>327.97549438477</ele>
        <time>2018-06-26T11:52:53+0200</time>
      </trkpt>
      <trkpt lat="47.24558" lon="4.96601">
        <ele>327.94213867188</ele>
        <time>2018-06-26T11:52:56+0200</time>
      </trkpt>
      <trkpt lat="47.24558" lon="4.96602">
        <ele>327.90795898438</ele>
        <time>2018-06-26T11:52:59+0200</time>
      </trkpt>
      <trkpt lat="47.24558" lon="4.96601">
        <ele>327.87048339844</ele>
        <time>2018-06-26T11:53:02+0200</time>
      </trkpt>
      <trkpt lat="47.24558" lon="4.96601">
        <ele>327.83142089844</ele>
        <time>2018-06-26T11:53:05+0200</time>
      </trkpt>
      <trkpt lat="47.24559" lon="4.966">
        <ele>327.57778930664</ele>
        <time>2018-06-26T11:53:08+0200</time>
      </trkpt>
      <trkpt lat="47.2456" lon="4.96595">
        <ele>327.35360717773</ele>
        <time>2018-06-26T11:53:11+0200</time>
      </trkpt>
      <trkpt lat="47.2456" lon="4.96592">
        <ele>327.01370239258</ele>
        <time>2018-06-26T11:53:14+0200</time>
      </trkpt>
      <trkpt lat="47.24561" lon="4.9659">
        <ele>326.78665161133</ele>
        <time>2018-06-26T11:53:18+0200</time>
      </trkpt>
      <trkpt lat="47.24561" lon="4.9659">
        <ele>326.7565612793</ele>
        <time>2018-06-26T11:53:21+0200</time>
      </trkpt>
      <trkpt lat="47.24562" lon="4.9659">
        <ele>326.58157348633</ele>
        <time>2018-06-26T11:53:24+0200</time>
      </trkpt>
      <trkpt lat="47.24562" lon="4.96589">
        <ele>326.56307983398</ele>
        <time>2018-06-26T11:53:27+0200</time>
      </trkpt>
      <trkpt lat="47.24563" lon="4.96592">
        <ele>326.44787597656</ele>
        <time>2018-06-26T11:53:30+0200</time>
      </trkpt>
      <trkpt lat="47.24562" lon="4.96592">
        <ele>326.25634765625</ele>
        <time>2018-06-26T11:53:33+0200</time>
      </trkpt>
    </trkseg>
  </trk>
</gpx>